<?xml version="1.0" encoding="UTF-8" standalone="no" ?>
<gpx xmlns="http://www.topografix.com/GPX/1/1" xmlns:xsi="http://www.w3.org/2001/XMLSchema-instance" xsi:schemaLocation="http://www.topografix.com/GPX/1/1 http://www.topografix.com/GPX/1/1/gpx.xsd" version="1.1" creator="VisuGPX - https://www.visugpx.com">
  <metadata>
    <name>Grenoble Trail - entrainement - 2021-08-19</name>
    <desc><![CDATA[Perte de satellite GPS sur Guy Pape]]></desc>
  </metadata>
  <trk>
    <name><![CDATA[Grenoble Trail]]></name>
    <trkseg>
      <trkpt lat="45.19681" lon="5.73964">
        <ele>214.19999694824</ele>
        <time>2021-08-19T03:12:42.000Z</time>
      </trkpt>
      <trkpt lat="45.19681" lon="5.73964">
        <ele>214.19999694824</ele>
        <time>2021-08-19T03:12:45.000Z</time>
      </trkpt>
      <trkpt lat="45.19681" lon="5.73964">
        <ele>214.19999694824</ele>
        <time>2021-08-19T03:12:46.000Z</time>
      </trkpt>
      <trkpt lat="45.19669" lon="5.73968">
        <ele>214.19999694824</ele>
        <time>2021-08-19T03:12:50.000Z</time>
      </trkpt>
      <trkpt lat="45.19651" lon="5.73972">
        <ele>214.19999694824</ele>
        <time>2021-08-19T03:12:56.000Z</time>
      </trkpt>
      <trkpt lat="45.19647" lon="5.73971">
        <ele>214.19999694824</ele>
        <time>2021-08-19T03:12:59.000Z</time>
      </trkpt>
      <trkpt lat="45.19644" lon="5.73972">
        <ele>214.19999694824</ele>
        <time>2021-08-19T03:13:04.000Z</time>
      </trkpt>
      <trkpt lat="45.1964" lon="5.73974">
        <ele>213.60000610352</ele>
        <time>2021-08-19T03:13:09.000Z</time>
      </trkpt>
      <trkpt lat="45.19639" lon="5.73975">
        <ele>213</ele>
        <time>2021-08-19T03:13:11.000Z</time>
      </trkpt>
      <trkpt lat="45.19639" lon="5.73974">
        <ele>212</ele>
        <time>2021-08-19T03:13:13.000Z</time>
      </trkpt>
      <trkpt lat="45.19638" lon="5.73975">
        <ele>211.39999389648</ele>
        <time>2021-08-19T03:13:18.000Z</time>
      </trkpt>
      <trkpt lat="45.19638" lon="5.73975">
        <ele>211.19999694824</ele>
        <time>2021-08-19T03:13:19.000Z</time>
      </trkpt>
      <trkpt lat="45.19637" lon="5.73976">
        <ele>210.80000305176</ele>
        <time>2021-08-19T03:13:20.000Z</time>
      </trkpt>
      <trkpt lat="45.19636" lon="5.73976">
        <ele>210.80000305176</ele>
        <time>2021-08-19T03:13:21.000Z</time>
      </trkpt>
      <trkpt lat="45.19636" lon="5.73976">
        <ele>209.80000305176</ele>
        <time>2021-08-19T03:13:23.000Z</time>
      </trkpt>
      <trkpt lat="45.1965" lon="5.73973">
        <ele>207.39999389648</ele>
        <time>2021-08-19T03:13:33.000Z</time>
      </trkpt>
      <trkpt lat="45.19643" lon="5.73982">
        <ele>207.19999694824</ele>
        <time>2021-08-19T03:13:34.000Z</time>
      </trkpt>
      <trkpt lat="45.19643" lon="5.7398">
        <ele>206.60000610352</ele>
        <time>2021-08-19T03:13:35.000Z</time>
      </trkpt>
      <trkpt lat="45.19643" lon="5.73982">
        <ele>206.60000610352</ele>
        <time>2021-08-19T03:13:36.000Z</time>
      </trkpt>
      <trkpt lat="45.19641" lon="5.73984">
        <ele>206.39999389648</ele>
        <time>2021-08-19T03:13:37.000Z</time>
      </trkpt>
      <trkpt lat="45.19641" lon="5.73984">
        <ele>206.19999694824</ele>
        <time>2021-08-19T03:13:39.000Z</time>
      </trkpt>
      <trkpt lat="45.19643" lon="5.73985">
        <ele>206.19999694824</ele>
        <time>2021-08-19T03:13:43.000Z</time>
      </trkpt>
      <trkpt lat="45.19644" lon="5.73985">
        <ele>206.39999389648</ele>
        <time>2021-08-19T03:13:46.000Z</time>
      </trkpt>
      <trkpt lat="45.19646" lon="5.73984">
        <ele>206.39999389648</ele>
        <time>2021-08-19T03:13:47.000Z</time>
      </trkpt>
      <trkpt lat="45.19648" lon="5.73983">
        <ele>206.39999389648</ele>
        <time>2021-08-19T03:13:50.000Z</time>
      </trkpt>
      <trkpt lat="45.19648" lon="5.73982">
        <ele>206.39999389648</ele>
        <time>2021-08-19T03:13:51.000Z</time>
      </trkpt>
      <trkpt lat="45.19649" lon="5.7398">
        <ele>206.39999389648</ele>
        <time>2021-08-19T03:13:52.000Z</time>
      </trkpt>
      <trkpt lat="45.19653" lon="5.73978">
        <ele>206.39999389648</ele>
        <time>2021-08-19T03:13:53.000Z</time>
      </trkpt>
      <trkpt lat="45.19655" lon="5.73975">
        <ele>206.19999694824</ele>
        <time>2021-08-19T03:13:54.000Z</time>
      </trkpt>
      <trkpt lat="45.19663" lon="5.73969">
        <ele>206.19999694824</ele>
        <time>2021-08-19T03:13:56.000Z</time>
      </trkpt>
      <trkpt lat="45.19666" lon="5.73966">
        <ele>206.19999694824</ele>
        <time>2021-08-19T03:13:57.000Z</time>
      </trkpt>
      <trkpt lat="45.19668" lon="5.73964">
        <ele>206.19999694824</ele>
        <time>2021-08-19T03:13:58.000Z</time>
      </trkpt>
      <trkpt lat="45.1967" lon="5.73962">
        <ele>206.19999694824</ele>
        <time>2021-08-19T03:14:00.000Z</time>
      </trkpt>
      <trkpt lat="45.1967" lon="5.73961">
        <ele>206.19999694824</ele>
        <time>2021-08-19T03:14:01.000Z</time>
      </trkpt>
      <trkpt lat="45.19671" lon="5.73959">
        <ele>206.19999694824</ele>
        <time>2021-08-19T03:14:03.000Z</time>
      </trkpt>
      <trkpt lat="45.19672" lon="5.73957">
        <ele>206.19999694824</ele>
        <time>2021-08-19T03:14:05.000Z</time>
      </trkpt>
      <trkpt lat="45.19672" lon="5.73956">
        <ele>206.19999694824</ele>
        <time>2021-08-19T03:14:06.000Z</time>
      </trkpt>
      <trkpt lat="45.19674" lon="5.73959">
        <ele>206</ele>
        <time>2021-08-19T03:14:11.000Z</time>
      </trkpt>
      <trkpt lat="45.19674" lon="5.73961">
        <ele>206.39999389648</ele>
        <time>2021-08-19T03:14:12.000Z</time>
      </trkpt>
      <trkpt lat="45.19678" lon="5.73967">
        <ele>206.39999389648</ele>
        <time>2021-08-19T03:14:14.000Z</time>
      </trkpt>
      <trkpt lat="45.19682" lon="5.73971">
        <ele>206</ele>
        <time>2021-08-19T03:14:16.000Z</time>
      </trkpt>
      <trkpt lat="45.19683" lon="5.73973">
        <ele>206</ele>
        <time>2021-08-19T03:14:18.000Z</time>
      </trkpt>
      <trkpt lat="45.19683" lon="5.73975">
        <ele>206</ele>
        <time>2021-08-19T03:14:19.000Z</time>
      </trkpt>
      <trkpt lat="45.19685" lon="5.73979">
        <ele>206</ele>
        <time>2021-08-19T03:14:21.000Z</time>
      </trkpt>
      <trkpt lat="45.19689" lon="5.73984">
        <ele>206.19999694824</ele>
        <time>2021-08-19T03:14:24.000Z</time>
      </trkpt>
      <trkpt lat="45.19689" lon="5.73985">
        <ele>206.19999694824</ele>
        <time>2021-08-19T03:14:25.000Z</time>
      </trkpt>
      <trkpt lat="45.19688" lon="5.73993">
        <ele>205.80000305176</ele>
        <time>2021-08-19T03:14:28.000Z</time>
      </trkpt>
      <trkpt lat="45.19689" lon="5.73995">
        <ele>205.80000305176</ele>
        <time>2021-08-19T03:14:29.000Z</time>
      </trkpt>
      <trkpt lat="45.19692" lon="5.74009">
        <ele>205.80000305176</ele>
        <time>2021-08-19T03:14:33.000Z</time>
      </trkpt>
      <trkpt lat="45.19692" lon="5.74012">
        <ele>205.80000305176</ele>
        <time>2021-08-19T03:14:34.000Z</time>
      </trkpt>
      <trkpt lat="45.19694" lon="5.74023">
        <ele>205.80000305176</ele>
        <time>2021-08-19T03:14:37.000Z</time>
      </trkpt>
      <trkpt lat="45.19695" lon="5.74027">
        <ele>205.80000305176</ele>
        <time>2021-08-19T03:14:38.000Z</time>
      </trkpt>
      <trkpt lat="45.19695" lon="5.74031">
        <ele>205.80000305176</ele>
        <time>2021-08-19T03:14:39.000Z</time>
      </trkpt>
      <trkpt lat="45.19696" lon="5.74034">
        <ele>205.80000305176</ele>
        <time>2021-08-19T03:14:40.000Z</time>
      </trkpt>
      <trkpt lat="45.19697" lon="5.74041">
        <ele>205.60000610352</ele>
        <time>2021-08-19T03:14:42.000Z</time>
      </trkpt>
      <trkpt lat="45.19698" lon="5.74044">
        <ele>205.60000610352</ele>
        <time>2021-08-19T03:14:43.000Z</time>
      </trkpt>
      <trkpt lat="45.197" lon="5.74061">
        <ele>205.60000610352</ele>
        <time>2021-08-19T03:14:47.000Z</time>
      </trkpt>
      <trkpt lat="45.19701" lon="5.74066">
        <ele>205.60000610352</ele>
        <time>2021-08-19T03:14:48.000Z</time>
      </trkpt>
      <trkpt lat="45.19704" lon="5.74075">
        <ele>205.60000610352</ele>
        <time>2021-08-19T03:14:50.000Z</time>
      </trkpt>
      <trkpt lat="45.19704" lon="5.74079">
        <ele>205.60000610352</ele>
        <time>2021-08-19T03:14:51.000Z</time>
      </trkpt>
      <trkpt lat="45.19703" lon="5.74084">
        <ele>205.60000610352</ele>
        <time>2021-08-19T03:14:52.000Z</time>
      </trkpt>
      <trkpt lat="45.197" lon="5.74096">
        <ele>205.80000305176</ele>
        <time>2021-08-19T03:14:55.000Z</time>
      </trkpt>
      <trkpt lat="45.197" lon="5.74102">
        <ele>205.80000305176</ele>
        <time>2021-08-19T03:14:57.000Z</time>
      </trkpt>
      <trkpt lat="45.19703" lon="5.74116">
        <ele>205.80000305176</ele>
        <time>2021-08-19T03:15:02.000Z</time>
      </trkpt>
      <trkpt lat="45.19705" lon="5.74125">
        <ele>205.80000305176</ele>
        <time>2021-08-19T03:15:05.000Z</time>
      </trkpt>
      <trkpt lat="45.19709" lon="5.74135">
        <ele>205.80000305176</ele>
        <time>2021-08-19T03:15:08.000Z</time>
      </trkpt>
      <trkpt lat="45.19709" lon="5.74144">
        <ele>205.39999389648</ele>
        <time>2021-08-19T03:15:12.000Z</time>
      </trkpt>
      <trkpt lat="45.19711" lon="5.74155">
        <ele>205.80000305176</ele>
        <time>2021-08-19T03:15:15.000Z</time>
      </trkpt>
      <trkpt lat="45.19711" lon="5.7416">
        <ele>205.80000305176</ele>
        <time>2021-08-19T03:15:17.000Z</time>
      </trkpt>
      <trkpt lat="45.19711" lon="5.74164">
        <ele>205.80000305176</ele>
        <time>2021-08-19T03:15:18.000Z</time>
      </trkpt>
      <trkpt lat="45.19712" lon="5.74181">
        <ele>206</ele>
        <time>2021-08-19T03:15:23.000Z</time>
      </trkpt>
      <trkpt lat="45.19711" lon="5.74195">
        <ele>205.80000305176</ele>
        <time>2021-08-19T03:15:27.000Z</time>
      </trkpt>
      <trkpt lat="45.19712" lon="5.74201">
        <ele>205.80000305176</ele>
        <time>2021-08-19T03:15:29.000Z</time>
      </trkpt>
      <trkpt lat="45.19716" lon="5.74208">
        <ele>205.80000305176</ele>
        <time>2021-08-19T03:15:31.000Z</time>
      </trkpt>
      <trkpt lat="45.19723" lon="5.74217">
        <ele>205.80000305176</ele>
        <time>2021-08-19T03:15:33.000Z</time>
      </trkpt>
      <trkpt lat="45.19729" lon="5.74231">
        <ele>206.19999694824</ele>
        <time>2021-08-19T03:15:37.000Z</time>
      </trkpt>
      <trkpt lat="45.19729" lon="5.74232">
        <ele>206.19999694824</ele>
        <time>2021-08-19T03:15:38.000Z</time>
      </trkpt>
      <trkpt lat="45.19729" lon="5.74237">
        <ele>206.19999694824</ele>
        <time>2021-08-19T03:15:41.000Z</time>
      </trkpt>
      <trkpt lat="45.19724" lon="5.74241">
        <ele>206.60000610352</ele>
        <time>2021-08-19T03:15:44.000Z</time>
      </trkpt>
      <trkpt lat="45.19708" lon="5.74247">
        <ele>207</ele>
        <time>2021-08-19T03:15:52.000Z</time>
      </trkpt>
      <trkpt lat="45.19704" lon="5.74249">
        <ele>207.39999389648</ele>
        <time>2021-08-19T03:15:54.000Z</time>
      </trkpt>
      <trkpt lat="45.19695" lon="5.74252">
        <ele>207</ele>
        <time>2021-08-19T03:15:58.000Z</time>
      </trkpt>
      <trkpt lat="45.19686" lon="5.74254">
        <ele>207</ele>
        <time>2021-08-19T03:16:01.000Z</time>
      </trkpt>
      <trkpt lat="45.19671" lon="5.74251">
        <ele>207</ele>
        <time>2021-08-19T03:16:08.000Z</time>
      </trkpt>
      <trkpt lat="45.19655" lon="5.74251">
        <ele>207</ele>
        <time>2021-08-19T03:16:16.000Z</time>
      </trkpt>
      <trkpt lat="45.19637" lon="5.74247">
        <ele>207</ele>
        <time>2021-08-19T03:16:24.000Z</time>
      </trkpt>
      <trkpt lat="45.19633" lon="5.74245">
        <ele>207</ele>
        <time>2021-08-19T03:16:27.000Z</time>
      </trkpt>
      <trkpt lat="45.19627" lon="5.74244">
        <ele>207</ele>
        <time>2021-08-19T03:16:29.000Z</time>
      </trkpt>
      <trkpt lat="45.19607" lon="5.74241">
        <ele>207</ele>
        <time>2021-08-19T03:16:36.000Z</time>
      </trkpt>
      <trkpt lat="45.19596" lon="5.7424">
        <ele>207</ele>
        <time>2021-08-19T03:16:40.000Z</time>
      </trkpt>
      <trkpt lat="45.19583" lon="5.74239">
        <ele>207.19999694824</ele>
        <time>2021-08-19T03:16:44.000Z</time>
      </trkpt>
      <trkpt lat="45.1957" lon="5.74237">
        <ele>207.39999389648</ele>
        <time>2021-08-19T03:16:50.000Z</time>
      </trkpt>
      <trkpt lat="45.19558" lon="5.74235">
        <ele>207</ele>
        <time>2021-08-19T03:16:56.000Z</time>
      </trkpt>
      <trkpt lat="45.19538" lon="5.74232">
        <ele>207.19999694824</ele>
        <time>2021-08-19T03:17:02.000Z</time>
      </trkpt>
      <trkpt lat="45.19534" lon="5.74231">
        <ele>207.19999694824</ele>
        <time>2021-08-19T03:17:03.000Z</time>
      </trkpt>
      <trkpt lat="45.19516" lon="5.74227">
        <ele>207.80000305176</ele>
        <time>2021-08-19T03:17:09.000Z</time>
      </trkpt>
      <trkpt lat="45.19513" lon="5.74226">
        <ele>207.80000305176</ele>
        <time>2021-08-19T03:17:10.000Z</time>
      </trkpt>
      <trkpt lat="45.19496" lon="5.74218">
        <ele>208.19999694824</ele>
        <time>2021-08-19T03:17:16.000Z</time>
      </trkpt>
      <trkpt lat="45.19487" lon="5.74213">
        <ele>208.19999694824</ele>
        <time>2021-08-19T03:17:20.000Z</time>
      </trkpt>
      <trkpt lat="45.19468" lon="5.74205">
        <ele>208.19999694824</ele>
        <time>2021-08-19T03:17:26.000Z</time>
      </trkpt>
      <trkpt lat="45.19466" lon="5.74204">
        <ele>208.19999694824</ele>
        <time>2021-08-19T03:17:27.000Z</time>
      </trkpt>
      <trkpt lat="45.19458" lon="5.74201">
        <ele>208.80000305176</ele>
        <time>2021-08-19T03:17:30.000Z</time>
      </trkpt>
      <trkpt lat="45.1945" lon="5.74198">
        <ele>208.80000305176</ele>
        <time>2021-08-19T03:17:33.000Z</time>
      </trkpt>
      <trkpt lat="45.19432" lon="5.74194">
        <ele>208.39999389648</ele>
        <time>2021-08-19T03:17:39.000Z</time>
      </trkpt>
      <trkpt lat="45.19419" lon="5.7419">
        <ele>208.60000610352</ele>
        <time>2021-08-19T03:17:45.000Z</time>
      </trkpt>
      <trkpt lat="45.19417" lon="5.74189">
        <ele>208.39999389648</ele>
        <time>2021-08-19T03:17:46.000Z</time>
      </trkpt>
      <trkpt lat="45.19407" lon="5.74184">
        <ele>208.39999389648</ele>
        <time>2021-08-19T03:17:51.000Z</time>
      </trkpt>
      <trkpt lat="45.19394" lon="5.74179">
        <ele>208.39999389648</ele>
        <time>2021-08-19T03:17:56.000Z</time>
      </trkpt>
      <trkpt lat="45.19381" lon="5.74175">
        <ele>208.39999389648</ele>
        <time>2021-08-19T03:18:01.000Z</time>
      </trkpt>
      <trkpt lat="45.19379" lon="5.74174">
        <ele>208.39999389648</ele>
        <time>2021-08-19T03:18:02.000Z</time>
      </trkpt>
      <trkpt lat="45.19373" lon="5.74173">
        <ele>208.39999389648</ele>
        <time>2021-08-19T03:18:04.000Z</time>
      </trkpt>
      <trkpt lat="45.19363" lon="5.7417">
        <ele>208.60000610352</ele>
        <time>2021-08-19T03:18:08.000Z</time>
      </trkpt>
      <trkpt lat="45.19349" lon="5.74164">
        <ele>208.60000610352</ele>
        <time>2021-08-19T03:18:15.000Z</time>
      </trkpt>
      <trkpt lat="45.19339" lon="5.7416">
        <ele>208.19999694824</ele>
        <time>2021-08-19T03:18:20.000Z</time>
      </trkpt>
      <trkpt lat="45.19334" lon="5.74159">
        <ele>208.19999694824</ele>
        <time>2021-08-19T03:18:22.000Z</time>
      </trkpt>
      <trkpt lat="45.19317" lon="5.74158">
        <ele>208.19999694824</ele>
        <time>2021-08-19T03:18:27.000Z</time>
      </trkpt>
      <trkpt lat="45.19303" lon="5.74157">
        <ele>208.39999389648</ele>
        <time>2021-08-19T03:18:32.000Z</time>
      </trkpt>
      <trkpt lat="45.19299" lon="5.74157">
        <ele>208.60000610352</ele>
        <time>2021-08-19T03:18:33.000Z</time>
      </trkpt>
      <trkpt lat="45.19282" lon="5.74153">
        <ele>208.60000610352</ele>
        <time>2021-08-19T03:18:40.000Z</time>
      </trkpt>
      <trkpt lat="45.19269" lon="5.74148">
        <ele>208.60000610352</ele>
        <time>2021-08-19T03:18:46.000Z</time>
      </trkpt>
      <trkpt lat="45.19254" lon="5.74145">
        <ele>208.60000610352</ele>
        <time>2021-08-19T03:18:51.000Z</time>
      </trkpt>
      <trkpt lat="45.19247" lon="5.74145">
        <ele>208.60000610352</ele>
        <time>2021-08-19T03:18:53.000Z</time>
      </trkpt>
      <trkpt lat="45.19229" lon="5.74141">
        <ele>208.60000610352</ele>
        <time>2021-08-19T03:18:59.000Z</time>
      </trkpt>
      <trkpt lat="45.19227" lon="5.74141">
        <ele>208.60000610352</ele>
        <time>2021-08-19T03:19:00.000Z</time>
      </trkpt>
      <trkpt lat="45.19217" lon="5.74139">
        <ele>208.60000610352</ele>
        <time>2021-08-19T03:19:03.000Z</time>
      </trkpt>
      <trkpt lat="45.19201" lon="5.74138">
        <ele>208.39999389648</ele>
        <time>2021-08-19T03:19:09.000Z</time>
      </trkpt>
      <trkpt lat="45.19184" lon="5.74137">
        <ele>207.60000610352</ele>
        <time>2021-08-19T03:19:15.000Z</time>
      </trkpt>
      <trkpt lat="45.19164" lon="5.7414">
        <ele>206.80000305176</ele>
        <time>2021-08-19T03:19:20.000Z</time>
      </trkpt>
      <trkpt lat="45.19162" lon="5.7414">
        <ele>206.60000610352</ele>
        <time>2021-08-19T03:19:21.000Z</time>
      </trkpt>
      <trkpt lat="45.1916" lon="5.7414">
        <ele>206.60000610352</ele>
        <time>2021-08-19T03:19:22.000Z</time>
      </trkpt>
      <trkpt lat="45.19154" lon="5.74141">
        <ele>206.80000305176</ele>
        <time>2021-08-19T03:19:24.000Z</time>
      </trkpt>
      <trkpt lat="45.19151" lon="5.74142">
        <ele>207</ele>
        <time>2021-08-19T03:19:25.000Z</time>
      </trkpt>
      <trkpt lat="45.19143" lon="5.7414">
        <ele>207.19999694824</ele>
        <time>2021-08-19T03:19:28.000Z</time>
      </trkpt>
      <trkpt lat="45.19132" lon="5.7414">
        <ele>208.19999694824</ele>
        <time>2021-08-19T03:19:32.000Z</time>
      </trkpt>
      <trkpt lat="45.19127" lon="5.74142">
        <ele>208.19999694824</ele>
        <time>2021-08-19T03:19:35.000Z</time>
      </trkpt>
      <trkpt lat="45.19126" lon="5.74141">
        <ele>208.39999389648</ele>
        <time>2021-08-19T03:19:36.000Z</time>
      </trkpt>
      <trkpt lat="45.19125" lon="5.74141">
        <ele>208.80000305176</ele>
        <time>2021-08-19T03:19:37.000Z</time>
      </trkpt>
      <trkpt lat="45.19124" lon="5.74142">
        <ele>208.80000305176</ele>
        <time>2021-08-19T03:19:38.000Z</time>
      </trkpt>
      <trkpt lat="45.19117" lon="5.74144">
        <ele>208.60000610352</ele>
        <time>2021-08-19T03:19:40.000Z</time>
      </trkpt>
      <trkpt lat="45.19103" lon="5.74151">
        <ele>208.60000610352</ele>
        <time>2021-08-19T03:19:44.000Z</time>
      </trkpt>
      <trkpt lat="45.19084" lon="5.74155">
        <ele>208.19999694824</ele>
        <time>2021-08-19T03:19:51.000Z</time>
      </trkpt>
      <trkpt lat="45.19078" lon="5.74157">
        <ele>208.60000610352</ele>
        <time>2021-08-19T03:19:53.000Z</time>
      </trkpt>
      <trkpt lat="45.19073" lon="5.74159">
        <ele>208.60000610352</ele>
        <time>2021-08-19T03:19:55.000Z</time>
      </trkpt>
      <trkpt lat="45.19055" lon="5.74168">
        <ele>208.39999389648</ele>
        <time>2021-08-19T03:20:02.000Z</time>
      </trkpt>
      <trkpt lat="45.19052" lon="5.74169">
        <ele>208.80000305176</ele>
        <time>2021-08-19T03:20:03.000Z</time>
      </trkpt>
      <trkpt lat="45.19043" lon="5.74177">
        <ele>208.60000610352</ele>
        <time>2021-08-19T03:20:06.000Z</time>
      </trkpt>
      <trkpt lat="45.19037" lon="5.74182">
        <ele>208.60000610352</ele>
        <time>2021-08-19T03:20:08.000Z</time>
      </trkpt>
      <trkpt lat="45.19034" lon="5.74184">
        <ele>208.60000610352</ele>
        <time>2021-08-19T03:20:09.000Z</time>
      </trkpt>
      <trkpt lat="45.19022" lon="5.7419">
        <ele>209</ele>
        <time>2021-08-19T03:20:13.000Z</time>
      </trkpt>
      <trkpt lat="45.1902" lon="5.74191">
        <ele>209</ele>
        <time>2021-08-19T03:20:14.000Z</time>
      </trkpt>
      <trkpt lat="45.19018" lon="5.74193">
        <ele>208.60000610352</ele>
        <time>2021-08-19T03:20:15.000Z</time>
      </trkpt>
      <trkpt lat="45.19012" lon="5.74197">
        <ele>208.60000610352</ele>
        <time>2021-08-19T03:20:17.000Z</time>
      </trkpt>
      <trkpt lat="45.18995" lon="5.74207">
        <ele>208.80000305176</ele>
        <time>2021-08-19T03:20:23.000Z</time>
      </trkpt>
      <trkpt lat="45.18992" lon="5.74208">
        <ele>208.60000610352</ele>
        <time>2021-08-19T03:20:24.000Z</time>
      </trkpt>
      <trkpt lat="45.18987" lon="5.74211">
        <ele>208.60000610352</ele>
        <time>2021-08-19T03:20:26.000Z</time>
      </trkpt>
      <trkpt lat="45.18978" lon="5.7422">
        <ele>208.39999389648</ele>
        <time>2021-08-19T03:20:30.000Z</time>
      </trkpt>
      <trkpt lat="45.18975" lon="5.74222">
        <ele>208</ele>
        <time>2021-08-19T03:20:31.000Z</time>
      </trkpt>
      <trkpt lat="45.18953" lon="5.74256">
        <ele>208.19999694824</ele>
        <time>2021-08-19T03:20:42.000Z</time>
      </trkpt>
      <trkpt lat="45.18949" lon="5.7426">
        <ele>208.19999694824</ele>
        <time>2021-08-19T03:20:43.000Z</time>
      </trkpt>
      <trkpt lat="45.18939" lon="5.74277">
        <ele>208.80000305176</ele>
        <time>2021-08-19T03:20:48.000Z</time>
      </trkpt>
      <trkpt lat="45.18931" lon="5.74298">
        <ele>208.80000305176</ele>
        <time>2021-08-19T03:20:53.000Z</time>
      </trkpt>
      <trkpt lat="45.18925" lon="5.74316">
        <ele>209</ele>
        <time>2021-08-19T03:20:58.000Z</time>
      </trkpt>
      <trkpt lat="45.18916" lon="5.74335">
        <ele>208.80000305176</ele>
        <time>2021-08-19T03:21:03.000Z</time>
      </trkpt>
      <trkpt lat="45.18909" lon="5.74352">
        <ele>209</ele>
        <time>2021-08-19T03:21:08.000Z</time>
      </trkpt>
      <trkpt lat="45.18905" lon="5.74359">
        <ele>209</ele>
        <time>2021-08-19T03:21:10.000Z</time>
      </trkpt>
      <trkpt lat="45.18898" lon="5.7438">
        <ele>209</ele>
        <time>2021-08-19T03:21:16.000Z</time>
      </trkpt>
      <trkpt lat="45.18897" lon="5.74386">
        <ele>209</ele>
        <time>2021-08-19T03:21:18.000Z</time>
      </trkpt>
      <trkpt lat="45.18897" lon="5.74386">
        <ele>209</ele>
        <time>2021-08-19T03:21:19.000Z</time>
      </trkpt>
      <trkpt lat="45.18898" lon="5.74384">
        <ele>208.60000610352</ele>
        <time>2021-08-19T03:21:21.000Z</time>
      </trkpt>
      <trkpt lat="45.189" lon="5.7438">
        <ele>208</ele>
        <time>2021-08-19T03:21:22.000Z</time>
      </trkpt>
      <trkpt lat="45.18902" lon="5.74378">
        <ele>207.80000305176</ele>
        <time>2021-08-19T03:21:23.000Z</time>
      </trkpt>
      <trkpt lat="45.18906" lon="5.74373">
        <ele>206.39999389648</ele>
        <time>2021-08-19T03:21:26.000Z</time>
      </trkpt>
      <trkpt lat="45.18907" lon="5.74372">
        <ele>206.19999694824</ele>
        <time>2021-08-19T03:21:27.000Z</time>
      </trkpt>
      <trkpt lat="45.18909" lon="5.74366">
        <ele>206.19999694824</ele>
        <time>2021-08-19T03:21:30.000Z</time>
      </trkpt>
      <trkpt lat="45.1891" lon="5.74358">
        <ele>206.60000610352</ele>
        <time>2021-08-19T03:21:34.000Z</time>
      </trkpt>
      <trkpt lat="45.1892" lon="5.74334">
        <ele>206.39999389648</ele>
        <time>2021-08-19T03:21:41.000Z</time>
      </trkpt>
      <trkpt lat="45.18923" lon="5.74325">
        <ele>206.39999389648</ele>
        <time>2021-08-19T03:21:43.000Z</time>
      </trkpt>
      <trkpt lat="45.18926" lon="5.74311">
        <ele>206.19999694824</ele>
        <time>2021-08-19T03:21:46.000Z</time>
      </trkpt>
      <trkpt lat="45.18933" lon="5.74299">
        <ele>206.19999694824</ele>
        <time>2021-08-19T03:21:50.000Z</time>
      </trkpt>
      <trkpt lat="45.18938" lon="5.7429">
        <ele>206.60000610352</ele>
        <time>2021-08-19T03:21:53.000Z</time>
      </trkpt>
      <trkpt lat="45.18945" lon="5.74277">
        <ele>206.60000610352</ele>
        <time>2021-08-19T03:21:57.000Z</time>
      </trkpt>
      <trkpt lat="45.18947" lon="5.74274">
        <ele>206.39999389648</ele>
        <time>2021-08-19T03:21:58.000Z</time>
      </trkpt>
      <trkpt lat="45.18949" lon="5.74272">
        <ele>206.80000305176</ele>
        <time>2021-08-19T03:21:59.000Z</time>
      </trkpt>
      <trkpt lat="45.1895" lon="5.74269">
        <ele>207</ele>
        <time>2021-08-19T03:22:00.000Z</time>
      </trkpt>
      <trkpt lat="45.18952" lon="5.74265">
        <ele>207.19999694824</ele>
        <time>2021-08-19T03:22:02.000Z</time>
      </trkpt>
      <trkpt lat="45.18954" lon="5.74264">
        <ele>207.19999694824</ele>
        <time>2021-08-19T03:22:03.000Z</time>
      </trkpt>
      <trkpt lat="45.18956" lon="5.74263">
        <ele>207.19999694824</ele>
        <time>2021-08-19T03:22:04.000Z</time>
      </trkpt>
      <trkpt lat="45.18959" lon="5.7426">
        <ele>207.19999694824</ele>
        <time>2021-08-19T03:22:06.000Z</time>
      </trkpt>
      <trkpt lat="45.1896" lon="5.74259">
        <ele>207.19999694824</ele>
        <time>2021-08-19T03:22:07.000Z</time>
      </trkpt>
      <trkpt lat="45.18968" lon="5.74251">
        <ele>207.19999694824</ele>
        <time>2021-08-19T03:22:10.000Z</time>
      </trkpt>
      <trkpt lat="45.1897" lon="5.74249">
        <ele>206.60000610352</ele>
        <time>2021-08-19T03:22:11.000Z</time>
      </trkpt>
      <trkpt lat="45.18986" lon="5.74233">
        <ele>207.19999694824</ele>
        <time>2021-08-19T03:22:17.000Z</time>
      </trkpt>
      <trkpt lat="45.18989" lon="5.74231">
        <ele>207.19999694824</ele>
        <time>2021-08-19T03:22:18.000Z</time>
      </trkpt>
      <trkpt lat="45.18997" lon="5.74224">
        <ele>207.60000610352</ele>
        <time>2021-08-19T03:22:21.000Z</time>
      </trkpt>
      <trkpt lat="45.19002" lon="5.74218">
        <ele>207.60000610352</ele>
        <time>2021-08-19T03:22:23.000Z</time>
      </trkpt>
      <trkpt lat="45.1902" lon="5.74199">
        <ele>208</ele>
        <time>2021-08-19T03:22:29.000Z</time>
      </trkpt>
      <trkpt lat="45.19022" lon="5.74196">
        <ele>208</ele>
        <time>2021-08-19T03:22:30.000Z</time>
      </trkpt>
      <trkpt lat="45.19028" lon="5.74191">
        <ele>208.19999694824</ele>
        <time>2021-08-19T03:22:32.000Z</time>
      </trkpt>
      <trkpt lat="45.19031" lon="5.74189">
        <ele>208.19999694824</ele>
        <time>2021-08-19T03:22:33.000Z</time>
      </trkpt>
      <trkpt lat="45.19035" lon="5.74184">
        <ele>208.19999694824</ele>
        <time>2021-08-19T03:22:36.000Z</time>
      </trkpt>
      <trkpt lat="45.19046" lon="5.74175">
        <ele>208.19999694824</ele>
        <time>2021-08-19T03:22:42.000Z</time>
      </trkpt>
      <trkpt lat="45.19048" lon="5.74174">
        <ele>208.60000610352</ele>
        <time>2021-08-19T03:22:43.000Z</time>
      </trkpt>
      <trkpt lat="45.1906" lon="5.74167">
        <ele>209.19999694824</ele>
        <time>2021-08-19T03:22:48.000Z</time>
      </trkpt>
      <trkpt lat="45.19077" lon="5.74159">
        <ele>209</ele>
        <time>2021-08-19T03:22:54.000Z</time>
      </trkpt>
      <trkpt lat="45.19087" lon="5.74156">
        <ele>209.39999389648</ele>
        <time>2021-08-19T03:22:58.000Z</time>
      </trkpt>
      <trkpt lat="45.19089" lon="5.74155">
        <ele>209.39999389648</ele>
        <time>2021-08-19T03:22:59.000Z</time>
      </trkpt>
      <trkpt lat="45.19099" lon="5.74154">
        <ele>207.60000610352</ele>
        <time>2021-08-19T03:23:03.000Z</time>
      </trkpt>
      <trkpt lat="45.19111" lon="5.74152">
        <ele>207.19999694824</ele>
        <time>2021-08-19T03:23:09.000Z</time>
      </trkpt>
      <trkpt lat="45.19123" lon="5.74149">
        <ele>207.19999694824</ele>
        <time>2021-08-19T03:23:13.000Z</time>
      </trkpt>
      <trkpt lat="45.19127" lon="5.74148">
        <ele>207.60000610352</ele>
        <time>2021-08-19T03:23:15.000Z</time>
      </trkpt>
      <trkpt lat="45.19132" lon="5.74147">
        <ele>207.39999389648</ele>
        <time>2021-08-19T03:23:17.000Z</time>
      </trkpt>
      <trkpt lat="45.19138" lon="5.74146">
        <ele>208</ele>
        <time>2021-08-19T03:23:21.000Z</time>
      </trkpt>
      <trkpt lat="45.19139" lon="5.74146">
        <ele>208</ele>
        <time>2021-08-19T03:23:22.000Z</time>
      </trkpt>
      <trkpt lat="45.19142" lon="5.74151">
        <ele>207.39999389648</ele>
        <time>2021-08-19T03:23:24.000Z</time>
      </trkpt>
      <trkpt lat="45.19144" lon="5.74151">
        <ele>207.19999694824</ele>
        <time>2021-08-19T03:23:25.000Z</time>
      </trkpt>
      <trkpt lat="45.19146" lon="5.7415">
        <ele>207</ele>
        <time>2021-08-19T03:23:26.000Z</time>
      </trkpt>
      <trkpt lat="45.19147" lon="5.74149">
        <ele>207</ele>
        <time>2021-08-19T03:23:27.000Z</time>
      </trkpt>
      <trkpt lat="45.19148" lon="5.74148">
        <ele>207</ele>
        <time>2021-08-19T03:23:28.000Z</time>
      </trkpt>
      <trkpt lat="45.1915" lon="5.74148">
        <ele>206.60000610352</ele>
        <time>2021-08-19T03:23:29.000Z</time>
      </trkpt>
      <trkpt lat="45.19152" lon="5.74149">
        <ele>206.60000610352</ele>
        <time>2021-08-19T03:23:30.000Z</time>
      </trkpt>
      <trkpt lat="45.19154" lon="5.74148">
        <ele>207</ele>
        <time>2021-08-19T03:23:31.000Z</time>
      </trkpt>
      <trkpt lat="45.19162" lon="5.74145">
        <ele>207.19999694824</ele>
        <time>2021-08-19T03:23:35.000Z</time>
      </trkpt>
      <trkpt lat="45.19174" lon="5.74143">
        <ele>207.19999694824</ele>
        <time>2021-08-19T03:23:40.000Z</time>
      </trkpt>
      <trkpt lat="45.19183" lon="5.74142">
        <ele>207.19999694824</ele>
        <time>2021-08-19T03:23:42.000Z</time>
      </trkpt>
      <trkpt lat="45.19193" lon="5.7414">
        <ele>207.80000305176</ele>
        <time>2021-08-19T03:23:44.000Z</time>
      </trkpt>
      <trkpt lat="45.19216" lon="5.74141">
        <ele>208</ele>
        <time>2021-08-19T03:23:50.000Z</time>
      </trkpt>
      <trkpt lat="45.19225" lon="5.74142">
        <ele>208</ele>
        <time>2021-08-19T03:23:52.000Z</time>
      </trkpt>
      <trkpt lat="45.19232" lon="5.74144">
        <ele>208</ele>
        <time>2021-08-19T03:23:54.000Z</time>
      </trkpt>
      <trkpt lat="45.19239" lon="5.74145">
        <ele>208</ele>
        <time>2021-08-19T03:23:57.000Z</time>
      </trkpt>
      <trkpt lat="45.19241" lon="5.74145">
        <ele>208.19999694824</ele>
        <time>2021-08-19T03:23:58.000Z</time>
      </trkpt>
      <trkpt lat="45.19244" lon="5.74145">
        <ele>208.19999694824</ele>
        <time>2021-08-19T03:24:00.000Z</time>
      </trkpt>
      <trkpt lat="45.19249" lon="5.74145">
        <ele>207.80000305176</ele>
        <time>2021-08-19T03:24:02.000Z</time>
      </trkpt>
      <trkpt lat="45.19254" lon="5.74146">
        <ele>207.60000610352</ele>
        <time>2021-08-19T03:24:04.000Z</time>
      </trkpt>
      <trkpt lat="45.19264" lon="5.74148">
        <ele>207.80000305176</ele>
        <time>2021-08-19T03:24:08.000Z</time>
      </trkpt>
      <trkpt lat="45.19266" lon="5.74148">
        <ele>207.80000305176</ele>
        <time>2021-08-19T03:24:09.000Z</time>
      </trkpt>
      <trkpt lat="45.19268" lon="5.74148">
        <ele>207.80000305176</ele>
        <time>2021-08-19T03:24:10.000Z</time>
      </trkpt>
      <trkpt lat="45.19286" lon="5.74152">
        <ele>207.60000610352</ele>
        <time>2021-08-19T03:24:16.000Z</time>
      </trkpt>
      <trkpt lat="45.19304" lon="5.74156">
        <ele>208.60000610352</ele>
        <time>2021-08-19T03:24:22.000Z</time>
      </trkpt>
      <trkpt lat="45.19308" lon="5.74156">
        <ele>208.60000610352</ele>
        <time>2021-08-19T03:24:24.000Z</time>
      </trkpt>
      <trkpt lat="45.19313" lon="5.74157">
        <ele>208.60000610352</ele>
        <time>2021-08-19T03:24:26.000Z</time>
      </trkpt>
      <trkpt lat="45.19321" lon="5.74158">
        <ele>208.60000610352</ele>
        <time>2021-08-19T03:24:29.000Z</time>
      </trkpt>
      <trkpt lat="45.19333" lon="5.74161">
        <ele>208.60000610352</ele>
        <time>2021-08-19T03:24:33.000Z</time>
      </trkpt>
      <trkpt lat="45.19354" lon="5.74165">
        <ele>208.39999389648</ele>
        <time>2021-08-19T03:24:39.000Z</time>
      </trkpt>
      <trkpt lat="45.19373" lon="5.74172">
        <ele>208.39999389648</ele>
        <time>2021-08-19T03:24:44.000Z</time>
      </trkpt>
      <trkpt lat="45.19392" lon="5.74179">
        <ele>208.80000305176</ele>
        <time>2021-08-19T03:24:49.000Z</time>
      </trkpt>
      <trkpt lat="45.19399" lon="5.7418">
        <ele>208</ele>
        <time>2021-08-19T03:24:51.000Z</time>
      </trkpt>
      <trkpt lat="45.19418" lon="5.74186">
        <ele>207.39999389648</ele>
        <time>2021-08-19T03:24:57.000Z</time>
      </trkpt>
      <trkpt lat="45.19425" lon="5.74189">
        <ele>207.39999389648</ele>
        <time>2021-08-19T03:24:59.000Z</time>
      </trkpt>
      <trkpt lat="45.19441" lon="5.74195">
        <ele>207.39999389648</ele>
        <time>2021-08-19T03:25:05.000Z</time>
      </trkpt>
      <trkpt lat="45.19444" lon="5.74196">
        <ele>207.39999389648</ele>
        <time>2021-08-19T03:25:06.000Z</time>
      </trkpt>
      <trkpt lat="45.19459" lon="5.74201">
        <ele>208.39999389648</ele>
        <time>2021-08-19T03:25:11.000Z</time>
      </trkpt>
      <trkpt lat="45.19466" lon="5.74202">
        <ele>208.39999389648</ele>
        <time>2021-08-19T03:25:13.000Z</time>
      </trkpt>
      <trkpt lat="45.19474" lon="5.74205">
        <ele>208</ele>
        <time>2021-08-19T03:25:15.000Z</time>
      </trkpt>
      <trkpt lat="45.19485" lon="5.74208">
        <ele>208</ele>
        <time>2021-08-19T03:25:18.000Z</time>
      </trkpt>
      <trkpt lat="45.19492" lon="5.74212">
        <ele>208</ele>
        <time>2021-08-19T03:25:21.000Z</time>
      </trkpt>
      <trkpt lat="45.19499" lon="5.74214">
        <ele>207.80000305176</ele>
        <time>2021-08-19T03:25:24.000Z</time>
      </trkpt>
      <trkpt lat="45.19516" lon="5.74219">
        <ele>208.19999694824</ele>
        <time>2021-08-19T03:25:30.000Z</time>
      </trkpt>
      <trkpt lat="45.1953" lon="5.74229">
        <ele>208.60000610352</ele>
        <time>2021-08-19T03:25:36.000Z</time>
      </trkpt>
      <trkpt lat="45.19531" lon="5.7423">
        <ele>208.60000610352</ele>
        <time>2021-08-19T03:25:38.000Z</time>
      </trkpt>
      <trkpt lat="45.1953" lon="5.7423">
        <ele>208.80000305176</ele>
        <time>2021-08-19T03:25:39.000Z</time>
      </trkpt>
      <trkpt lat="45.19526" lon="5.74229">
        <ele>208.80000305176</ele>
        <time>2021-08-19T03:25:41.000Z</time>
      </trkpt>
      <trkpt lat="45.19524" lon="5.74228">
        <ele>209</ele>
        <time>2021-08-19T03:25:43.000Z</time>
      </trkpt>
      <trkpt lat="45.19522" lon="5.74226">
        <ele>209.19999694824</ele>
        <time>2021-08-19T03:25:44.000Z</time>
      </trkpt>
      <trkpt lat="45.1952" lon="5.74224">
        <ele>210</ele>
        <time>2021-08-19T03:25:46.000Z</time>
      </trkpt>
      <trkpt lat="45.19517" lon="5.7422">
        <ele>211</ele>
        <time>2021-08-19T03:25:49.000Z</time>
      </trkpt>
      <trkpt lat="45.19518" lon="5.74217">
        <ele>211.19999694824</ele>
        <time>2021-08-19T03:25:51.000Z</time>
      </trkpt>
      <trkpt lat="45.19521" lon="5.74217">
        <ele>211.39999389648</ele>
        <time>2021-08-19T03:25:53.000Z</time>
      </trkpt>
      <trkpt lat="45.19536" lon="5.74218">
        <ele>211.19999694824</ele>
        <time>2021-08-19T03:25:58.000Z</time>
      </trkpt>
      <trkpt lat="45.19549" lon="5.74222">
        <ele>211</ele>
        <time>2021-08-19T03:26:04.000Z</time>
      </trkpt>
      <trkpt lat="45.19557" lon="5.74221">
        <ele>211</ele>
        <time>2021-08-19T03:26:07.000Z</time>
      </trkpt>
      <trkpt lat="45.19563" lon="5.74221">
        <ele>211.19999694824</ele>
        <time>2021-08-19T03:26:09.000Z</time>
      </trkpt>
      <trkpt lat="45.19582" lon="5.74225">
        <ele>211.19999694824</ele>
        <time>2021-08-19T03:26:15.000Z</time>
      </trkpt>
      <trkpt lat="45.19585" lon="5.74225">
        <ele>211.19999694824</ele>
        <time>2021-08-19T03:26:16.000Z</time>
      </trkpt>
      <trkpt lat="45.19593" lon="5.74225">
        <ele>211.19999694824</ele>
        <time>2021-08-19T03:26:19.000Z</time>
      </trkpt>
      <trkpt lat="45.19603" lon="5.74226">
        <ele>211.19999694824</ele>
        <time>2021-08-19T03:26:22.000Z</time>
      </trkpt>
      <trkpt lat="45.19609" lon="5.74227">
        <ele>211.19999694824</ele>
        <time>2021-08-19T03:26:24.000Z</time>
      </trkpt>
      <trkpt lat="45.19614" lon="5.7423">
        <ele>211.19999694824</ele>
        <time>2021-08-19T03:26:26.000Z</time>
      </trkpt>
      <trkpt lat="45.19631" lon="5.74233">
        <ele>211.39999389648</ele>
        <time>2021-08-19T03:26:33.000Z</time>
      </trkpt>
      <trkpt lat="45.19644" lon="5.74232">
        <ele>211.19999694824</ele>
        <time>2021-08-19T03:26:38.000Z</time>
      </trkpt>
      <trkpt lat="45.19651" lon="5.74232">
        <ele>211.39999389648</ele>
        <time>2021-08-19T03:26:40.000Z</time>
      </trkpt>
      <trkpt lat="45.1966" lon="5.74235">
        <ele>211.39999389648</ele>
        <time>2021-08-19T03:26:43.000Z</time>
      </trkpt>
      <trkpt lat="45.19669" lon="5.74237">
        <ele>211.39999389648</ele>
        <time>2021-08-19T03:26:46.000Z</time>
      </trkpt>
      <trkpt lat="45.19686" lon="5.74239">
        <ele>211.39999389648</ele>
        <time>2021-08-19T03:26:52.000Z</time>
      </trkpt>
      <trkpt lat="45.19697" lon="5.74238">
        <ele>211.39999389648</ele>
        <time>2021-08-19T03:26:55.000Z</time>
      </trkpt>
      <trkpt lat="45.19716" lon="5.74237">
        <ele>211.60000610352</ele>
        <time>2021-08-19T03:27:02.000Z</time>
      </trkpt>
      <trkpt lat="45.19719" lon="5.74238">
        <ele>211.19999694824</ele>
        <time>2021-08-19T03:27:03.000Z</time>
      </trkpt>
      <trkpt lat="45.19738" lon="5.74235">
        <ele>211.19999694824</ele>
        <time>2021-08-19T03:27:10.000Z</time>
      </trkpt>
      <trkpt lat="45.19743" lon="5.74233">
        <ele>211.19999694824</ele>
        <time>2021-08-19T03:27:12.000Z</time>
      </trkpt>
      <trkpt lat="45.19761" lon="5.74232">
        <ele>211.39999389648</ele>
        <time>2021-08-19T03:27:18.000Z</time>
      </trkpt>
      <trkpt lat="45.19769" lon="5.7423">
        <ele>211</ele>
        <time>2021-08-19T03:27:21.000Z</time>
      </trkpt>
      <trkpt lat="45.19785" lon="5.74228">
        <ele>211.60000610352</ele>
        <time>2021-08-19T03:27:27.000Z</time>
      </trkpt>
      <trkpt lat="45.19796" lon="5.74228">
        <ele>211.60000610352</ele>
        <time>2021-08-19T03:27:31.000Z</time>
      </trkpt>
      <trkpt lat="45.19797" lon="5.7423">
        <ele>211.19999694824</ele>
        <time>2021-08-19T03:27:32.000Z</time>
      </trkpt>
      <trkpt lat="45.19799" lon="5.7423">
        <ele>211.80000305176</ele>
        <time>2021-08-19T03:27:33.000Z</time>
      </trkpt>
      <trkpt lat="45.19804" lon="5.7423">
        <ele>211.60000610352</ele>
        <time>2021-08-19T03:27:35.000Z</time>
      </trkpt>
      <trkpt lat="45.19822" lon="5.74223">
        <ele>211.60000610352</ele>
        <time>2021-08-19T03:27:42.000Z</time>
      </trkpt>
      <trkpt lat="45.19825" lon="5.74222">
        <ele>211.60000610352</ele>
        <time>2021-08-19T03:27:43.000Z</time>
      </trkpt>
      <trkpt lat="45.19833" lon="5.74219">
        <ele>211.80000305176</ele>
        <time>2021-08-19T03:27:46.000Z</time>
      </trkpt>
      <trkpt lat="45.19839" lon="5.74217">
        <ele>211.60000610352</ele>
        <time>2021-08-19T03:27:49.000Z</time>
      </trkpt>
      <trkpt lat="45.19841" lon="5.74217">
        <ele>211.60000610352</ele>
        <time>2021-08-19T03:27:50.000Z</time>
      </trkpt>
      <trkpt lat="45.19846" lon="5.74215">
        <ele>211.60000610352</ele>
        <time>2021-08-19T03:27:52.000Z</time>
      </trkpt>
      <trkpt lat="45.19861" lon="5.74208">
        <ele>211.39999389648</ele>
        <time>2021-08-19T03:27:57.000Z</time>
      </trkpt>
      <trkpt lat="45.19881" lon="5.74201">
        <ele>211.60000610352</ele>
        <time>2021-08-19T03:28:04.000Z</time>
      </trkpt>
      <trkpt lat="45.19884" lon="5.742">
        <ele>211.60000610352</ele>
        <time>2021-08-19T03:28:05.000Z</time>
      </trkpt>
      <trkpt lat="45.19904" lon="5.74192">
        <ele>211.60000610352</ele>
        <time>2021-08-19T03:28:11.000Z</time>
      </trkpt>
      <trkpt lat="45.19908" lon="5.7419">
        <ele>211.60000610352</ele>
        <time>2021-08-19T03:28:12.000Z</time>
      </trkpt>
      <trkpt lat="45.19916" lon="5.74184">
        <ele>211.60000610352</ele>
        <time>2021-08-19T03:28:16.000Z</time>
      </trkpt>
      <trkpt lat="45.19918" lon="5.74178">
        <ele>211.60000610352</ele>
        <time>2021-08-19T03:28:18.000Z</time>
      </trkpt>
      <trkpt lat="45.1992" lon="5.74176">
        <ele>211.80000305176</ele>
        <time>2021-08-19T03:28:19.000Z</time>
      </trkpt>
      <trkpt lat="45.19922" lon="5.74174">
        <ele>211.39999389648</ele>
        <time>2021-08-19T03:28:20.000Z</time>
      </trkpt>
      <trkpt lat="45.19933" lon="5.74168">
        <ele>211.60000610352</ele>
        <time>2021-08-19T03:28:24.000Z</time>
      </trkpt>
      <trkpt lat="45.19941" lon="5.74161">
        <ele>211.60000610352</ele>
        <time>2021-08-19T03:28:27.000Z</time>
      </trkpt>
      <trkpt lat="45.19949" lon="5.74156">
        <ele>211.60000610352</ele>
        <time>2021-08-19T03:28:30.000Z</time>
      </trkpt>
      <trkpt lat="45.19954" lon="5.74153">
        <ele>211.80000305176</ele>
        <time>2021-08-19T03:28:32.000Z</time>
      </trkpt>
      <trkpt lat="45.19957" lon="5.74151">
        <ele>211.60000610352</ele>
        <time>2021-08-19T03:28:33.000Z</time>
      </trkpt>
      <trkpt lat="45.19971" lon="5.74137">
        <ele>211.80000305176</ele>
        <time>2021-08-19T03:28:39.000Z</time>
      </trkpt>
      <trkpt lat="45.19976" lon="5.7412">
        <ele>212</ele>
        <time>2021-08-19T03:28:45.000Z</time>
      </trkpt>
      <trkpt lat="45.19978" lon="5.74117">
        <ele>212.19999694824</ele>
        <time>2021-08-19T03:28:46.000Z</time>
      </trkpt>
      <trkpt lat="45.19985" lon="5.74102">
        <ele>212.80000305176</ele>
        <time>2021-08-19T03:28:51.000Z</time>
      </trkpt>
      <trkpt lat="45.19989" lon="5.74096">
        <ele>213.19999694824</ele>
        <time>2021-08-19T03:28:53.000Z</time>
      </trkpt>
      <trkpt lat="45.19995" lon="5.74086">
        <ele>214.19999694824</ele>
        <time>2021-08-19T03:28:57.000Z</time>
      </trkpt>
      <trkpt lat="45.19998" lon="5.74083">
        <ele>214.19999694824</ele>
        <time>2021-08-19T03:28:58.000Z</time>
      </trkpt>
      <trkpt lat="45.20002" lon="5.74077">
        <ele>214.80000305176</ele>
        <time>2021-08-19T03:29:00.000Z</time>
      </trkpt>
      <trkpt lat="45.20009" lon="5.7407">
        <ele>215</ele>
        <time>2021-08-19T03:29:03.000Z</time>
      </trkpt>
      <trkpt lat="45.20019" lon="5.74059">
        <ele>214.80000305176</ele>
        <time>2021-08-19T03:29:08.000Z</time>
      </trkpt>
      <trkpt lat="45.20022" lon="5.74045">
        <ele>214.60000610352</ele>
        <time>2021-08-19T03:29:14.000Z</time>
      </trkpt>
      <trkpt lat="45.20026" lon="5.74039">
        <ele>213.60000610352</ele>
        <time>2021-08-19T03:29:18.000Z</time>
      </trkpt>
      <trkpt lat="45.20029" lon="5.74037">
        <ele>213.19999694824</ele>
        <time>2021-08-19T03:29:20.000Z</time>
      </trkpt>
      <trkpt lat="45.20032" lon="5.74034">
        <ele>213.19999694824</ele>
        <time>2021-08-19T03:29:22.000Z</time>
      </trkpt>
      <trkpt lat="45.20037" lon="5.7403">
        <ele>212.60000610352</ele>
        <time>2021-08-19T03:29:24.000Z</time>
      </trkpt>
      <trkpt lat="45.20042" lon="5.74026">
        <ele>212.19999694824</ele>
        <time>2021-08-19T03:29:26.000Z</time>
      </trkpt>
      <trkpt lat="45.20047" lon="5.74023">
        <ele>211.80000305176</ele>
        <time>2021-08-19T03:29:28.000Z</time>
      </trkpt>
      <trkpt lat="45.20049" lon="5.74021">
        <ele>211.39999389648</ele>
        <time>2021-08-19T03:29:29.000Z</time>
      </trkpt>
      <trkpt lat="45.20056" lon="5.74013">
        <ele>210.80000305176</ele>
        <time>2021-08-19T03:29:32.000Z</time>
      </trkpt>
      <trkpt lat="45.20071" lon="5.74003">
        <ele>210.80000305176</ele>
        <time>2021-08-19T03:29:37.000Z</time>
      </trkpt>
      <trkpt lat="45.20079" lon="5.73993">
        <ele>210.80000305176</ele>
        <time>2021-08-19T03:29:40.000Z</time>
      </trkpt>
      <trkpt lat="45.2008" lon="5.73988">
        <ele>210.60000610352</ele>
        <time>2021-08-19T03:29:42.000Z</time>
      </trkpt>
      <trkpt lat="45.20082" lon="5.73985">
        <ele>210.60000610352</ele>
        <time>2021-08-19T03:29:43.000Z</time>
      </trkpt>
      <trkpt lat="45.20089" lon="5.73976">
        <ele>210.60000610352</ele>
        <time>2021-08-19T03:29:46.000Z</time>
      </trkpt>
      <trkpt lat="45.20093" lon="5.73972">
        <ele>210.60000610352</ele>
        <time>2021-08-19T03:29:47.000Z</time>
      </trkpt>
      <trkpt lat="45.201" lon="5.73966">
        <ele>210.19999694824</ele>
        <time>2021-08-19T03:29:49.000Z</time>
      </trkpt>
      <trkpt lat="45.2011" lon="5.73953">
        <ele>210.19999694824</ele>
        <time>2021-08-19T03:29:53.000Z</time>
      </trkpt>
      <trkpt lat="45.20115" lon="5.73947">
        <ele>210.19999694824</ele>
        <time>2021-08-19T03:29:55.000Z</time>
      </trkpt>
      <trkpt lat="45.20122" lon="5.73938">
        <ele>210.39999389648</ele>
        <time>2021-08-19T03:29:58.000Z</time>
      </trkpt>
      <trkpt lat="45.2013" lon="5.73928">
        <ele>210.39999389648</ele>
        <time>2021-08-19T03:30:02.000Z</time>
      </trkpt>
      <trkpt lat="45.20143" lon="5.73907">
        <ele>210.60000610352</ele>
        <time>2021-08-19T03:30:09.000Z</time>
      </trkpt>
      <trkpt lat="45.20154" lon="5.73887">
        <ele>210.60000610352</ele>
        <time>2021-08-19T03:30:15.000Z</time>
      </trkpt>
      <trkpt lat="45.20165" lon="5.7387">
        <ele>210.39999389648</ele>
        <time>2021-08-19T03:30:20.000Z</time>
      </trkpt>
      <trkpt lat="45.20168" lon="5.73862">
        <ele>210.39999389648</ele>
        <time>2021-08-19T03:30:23.000Z</time>
      </trkpt>
      <trkpt lat="45.2017" lon="5.73856">
        <ele>210.39999389648</ele>
        <time>2021-08-19T03:30:25.000Z</time>
      </trkpt>
      <trkpt lat="45.20175" lon="5.73847">
        <ele>210.60000610352</ele>
        <time>2021-08-19T03:30:28.000Z</time>
      </trkpt>
      <trkpt lat="45.20176" lon="5.73843">
        <ele>210.60000610352</ele>
        <time>2021-08-19T03:30:29.000Z</time>
      </trkpt>
      <trkpt lat="45.20177" lon="5.73836">
        <ele>210.60000610352</ele>
        <time>2021-08-19T03:30:31.000Z</time>
      </trkpt>
      <trkpt lat="45.20177" lon="5.73831">
        <ele>210.60000610352</ele>
        <time>2021-08-19T03:30:32.000Z</time>
      </trkpt>
      <trkpt lat="45.20176" lon="5.7382">
        <ele>210.39999389648</ele>
        <time>2021-08-19T03:30:35.000Z</time>
      </trkpt>
      <trkpt lat="45.20176" lon="5.73816">
        <ele>210.39999389648</ele>
        <time>2021-08-19T03:30:36.000Z</time>
      </trkpt>
      <trkpt lat="45.20176" lon="5.73812">
        <ele>210.39999389648</ele>
        <time>2021-08-19T03:30:37.000Z</time>
      </trkpt>
      <trkpt lat="45.20177" lon="5.738">
        <ele>210</ele>
        <time>2021-08-19T03:30:39.000Z</time>
      </trkpt>
      <trkpt lat="45.20182" lon="5.73777">
        <ele>210.19999694824</ele>
        <time>2021-08-19T03:30:43.000Z</time>
      </trkpt>
      <trkpt lat="45.20187" lon="5.73751">
        <ele>210.60000610352</ele>
        <time>2021-08-19T03:30:48.000Z</time>
      </trkpt>
      <trkpt lat="45.20187" lon="5.73747">
        <ele>210.60000610352</ele>
        <time>2021-08-19T03:30:49.000Z</time>
      </trkpt>
      <trkpt lat="45.20186" lon="5.73732">
        <ele>210.39999389648</ele>
        <time>2021-08-19T03:30:53.000Z</time>
      </trkpt>
      <trkpt lat="45.20185" lon="5.73728">
        <ele>210.39999389648</ele>
        <time>2021-08-19T03:30:55.000Z</time>
      </trkpt>
      <trkpt lat="45.20185" lon="5.73721">
        <ele>210.39999389648</ele>
        <time>2021-08-19T03:30:57.000Z</time>
      </trkpt>
      <trkpt lat="45.20178" lon="5.73711">
        <ele>210.60000610352</ele>
        <time>2021-08-19T03:31:00.000Z</time>
      </trkpt>
      <trkpt lat="45.20165" lon="5.73694">
        <ele>210.60000610352</ele>
        <time>2021-08-19T03:31:04.000Z</time>
      </trkpt>
      <trkpt lat="45.20167" lon="5.73686">
        <ele>210.60000610352</ele>
        <time>2021-08-19T03:31:06.000Z</time>
      </trkpt>
      <trkpt lat="45.20168" lon="5.73672">
        <ele>210.60000610352</ele>
        <time>2021-08-19T03:31:09.000Z</time>
      </trkpt>
      <trkpt lat="45.20162" lon="5.73652">
        <ele>210.39999389648</ele>
        <time>2021-08-19T03:31:14.000Z</time>
      </trkpt>
      <trkpt lat="45.20157" lon="5.73633">
        <ele>210.39999389648</ele>
        <time>2021-08-19T03:31:19.000Z</time>
      </trkpt>
      <trkpt lat="45.20151" lon="5.73614">
        <ele>210.80000305176</ele>
        <time>2021-08-19T03:31:24.000Z</time>
      </trkpt>
      <trkpt lat="45.20142" lon="5.73602">
        <ele>210.60000610352</ele>
        <time>2021-08-19T03:31:30.000Z</time>
      </trkpt>
      <trkpt lat="45.20135" lon="5.73592">
        <ele>210.39999389648</ele>
        <time>2021-08-19T03:31:34.000Z</time>
      </trkpt>
      <trkpt lat="45.20134" lon="5.73586">
        <ele>210.39999389648</ele>
        <time>2021-08-19T03:31:37.000Z</time>
      </trkpt>
      <trkpt lat="45.20134" lon="5.73583">
        <ele>210.60000610352</ele>
        <time>2021-08-19T03:31:38.000Z</time>
      </trkpt>
      <trkpt lat="45.20133" lon="5.7357">
        <ele>210.60000610352</ele>
        <time>2021-08-19T03:31:42.000Z</time>
      </trkpt>
      <trkpt lat="45.20131" lon="5.73566">
        <ele>210.60000610352</ele>
        <time>2021-08-19T03:31:43.000Z</time>
      </trkpt>
      <trkpt lat="45.20116" lon="5.7355">
        <ele>210.39999389648</ele>
        <time>2021-08-19T03:31:48.000Z</time>
      </trkpt>
      <trkpt lat="45.20105" lon="5.73533">
        <ele>210.39999389648</ele>
        <time>2021-08-19T03:31:53.000Z</time>
      </trkpt>
      <trkpt lat="45.20093" lon="5.73517">
        <ele>210</ele>
        <time>2021-08-19T03:31:58.000Z</time>
      </trkpt>
      <trkpt lat="45.20091" lon="5.73513">
        <ele>210</ele>
        <time>2021-08-19T03:31:59.000Z</time>
      </trkpt>
      <trkpt lat="45.20088" lon="5.73508">
        <ele>210.39999389648</ele>
        <time>2021-08-19T03:32:01.000Z</time>
      </trkpt>
      <trkpt lat="45.20082" lon="5.73504">
        <ele>210.39999389648</ele>
        <time>2021-08-19T03:32:03.000Z</time>
      </trkpt>
      <trkpt lat="45.20065" lon="5.73497">
        <ele>210.60000610352</ele>
        <time>2021-08-19T03:32:08.000Z</time>
      </trkpt>
      <trkpt lat="45.20062" lon="5.73496">
        <ele>210.60000610352</ele>
        <time>2021-08-19T03:32:09.000Z</time>
      </trkpt>
      <trkpt lat="45.20046" lon="5.73486">
        <ele>210</ele>
        <time>2021-08-19T03:32:15.000Z</time>
      </trkpt>
      <trkpt lat="45.20034" lon="5.73479">
        <ele>210</ele>
        <time>2021-08-19T03:32:20.000Z</time>
      </trkpt>
      <trkpt lat="45.20018" lon="5.73468">
        <ele>209.39999389648</ele>
        <time>2021-08-19T03:32:26.000Z</time>
      </trkpt>
      <trkpt lat="45.20017" lon="5.73464">
        <ele>209.39999389648</ele>
        <time>2021-08-19T03:32:27.000Z</time>
      </trkpt>
      <trkpt lat="45.20015" lon="5.7346">
        <ele>209.19999694824</ele>
        <time>2021-08-19T03:32:28.000Z</time>
      </trkpt>
      <trkpt lat="45.20011" lon="5.73454">
        <ele>209.80000305176</ele>
        <time>2021-08-19T03:32:31.000Z</time>
      </trkpt>
      <trkpt lat="45.20008" lon="5.7345">
        <ele>210</ele>
        <time>2021-08-19T03:32:33.000Z</time>
      </trkpt>
      <trkpt lat="45.20008" lon="5.73449">
        <ele>210.19999694824</ele>
        <time>2021-08-19T03:32:34.000Z</time>
      </trkpt>
      <trkpt lat="45.20008" lon="5.73446">
        <ele>210.19999694824</ele>
        <time>2021-08-19T03:32:35.000Z</time>
      </trkpt>
      <trkpt lat="45.20007" lon="5.73444">
        <ele>210.39999389648</ele>
        <time>2021-08-19T03:32:36.000Z</time>
      </trkpt>
      <trkpt lat="45.20002" lon="5.7344">
        <ele>210.39999389648</ele>
        <time>2021-08-19T03:32:38.000Z</time>
      </trkpt>
      <trkpt lat="45.19991" lon="5.73436">
        <ele>210.39999389648</ele>
        <time>2021-08-19T03:32:42.000Z</time>
      </trkpt>
      <trkpt lat="45.19977" lon="5.73431">
        <ele>210.39999389648</ele>
        <time>2021-08-19T03:32:46.000Z</time>
      </trkpt>
      <trkpt lat="45.19956" lon="5.73427">
        <ele>209.80000305176</ele>
        <time>2021-08-19T03:32:52.000Z</time>
      </trkpt>
      <trkpt lat="45.19947" lon="5.73424">
        <ele>210</ele>
        <time>2021-08-19T03:32:55.000Z</time>
      </trkpt>
      <trkpt lat="45.19929" lon="5.73418">
        <ele>210</ele>
        <time>2021-08-19T03:33:01.000Z</time>
      </trkpt>
      <trkpt lat="45.19922" lon="5.73416">
        <ele>209.80000305176</ele>
        <time>2021-08-19T03:33:03.000Z</time>
      </trkpt>
      <trkpt lat="45.19919" lon="5.73415">
        <ele>209.80000305176</ele>
        <time>2021-08-19T03:33:04.000Z</time>
      </trkpt>
      <trkpt lat="45.199" lon="5.7341">
        <ele>210</ele>
        <time>2021-08-19T03:33:10.000Z</time>
      </trkpt>
      <trkpt lat="45.19899" lon="5.73409">
        <ele>210</ele>
        <time>2021-08-19T03:33:11.000Z</time>
      </trkpt>
      <trkpt lat="45.19892" lon="5.73402">
        <ele>210.19999694824</ele>
        <time>2021-08-19T03:33:16.000Z</time>
      </trkpt>
      <trkpt lat="45.19878" lon="5.73398">
        <ele>210.19999694824</ele>
        <time>2021-08-19T03:33:22.000Z</time>
      </trkpt>
      <trkpt lat="45.19877" lon="5.73398">
        <ele>210.19999694824</ele>
        <time>2021-08-19T03:33:23.000Z</time>
      </trkpt>
      <trkpt lat="45.19876" lon="5.73396">
        <ele>210.19999694824</ele>
        <time>2021-08-19T03:33:25.000Z</time>
      </trkpt>
      <trkpt lat="45.19873" lon="5.73396">
        <ele>210.19999694824</ele>
        <time>2021-08-19T03:33:26.000Z</time>
      </trkpt>
      <trkpt lat="45.19854" lon="5.73393">
        <ele>210.60000610352</ele>
        <time>2021-08-19T03:33:32.000Z</time>
      </trkpt>
      <trkpt lat="45.19834" lon="5.73389">
        <ele>210.39999389648</ele>
        <time>2021-08-19T03:33:37.000Z</time>
      </trkpt>
      <trkpt lat="45.1982" lon="5.73386">
        <ele>210.39999389648</ele>
        <time>2021-08-19T03:33:41.000Z</time>
      </trkpt>
      <trkpt lat="45.19815" lon="5.73381">
        <ele>210.60000610352</ele>
        <time>2021-08-19T03:33:44.000Z</time>
      </trkpt>
      <trkpt lat="45.19797" lon="5.73381">
        <ele>210.19999694824</ele>
        <time>2021-08-19T03:33:50.000Z</time>
      </trkpt>
      <trkpt lat="45.19789" lon="5.73377">
        <ele>210.19999694824</ele>
        <time>2021-08-19T03:33:54.000Z</time>
      </trkpt>
      <trkpt lat="45.19783" lon="5.73373">
        <ele>210.19999694824</ele>
        <time>2021-08-19T03:33:56.000Z</time>
      </trkpt>
      <trkpt lat="45.1978" lon="5.73372">
        <ele>210.19999694824</ele>
        <time>2021-08-19T03:33:57.000Z</time>
      </trkpt>
      <trkpt lat="45.19774" lon="5.73369">
        <ele>210.19999694824</ele>
        <time>2021-08-19T03:34:00.000Z</time>
      </trkpt>
      <trkpt lat="45.19754" lon="5.73364">
        <ele>211</ele>
        <time>2021-08-19T03:34:06.000Z</time>
      </trkpt>
      <trkpt lat="45.19751" lon="5.73363">
        <ele>210.60000610352</ele>
        <time>2021-08-19T03:34:07.000Z</time>
      </trkpt>
      <trkpt lat="45.19738" lon="5.73362">
        <ele>211.39999389648</ele>
        <time>2021-08-19T03:34:11.000Z</time>
      </trkpt>
      <trkpt lat="45.19732" lon="5.73358">
        <ele>211.80000305176</ele>
        <time>2021-08-19T03:34:13.000Z</time>
      </trkpt>
      <trkpt lat="45.19727" lon="5.73353">
        <ele>212</ele>
        <time>2021-08-19T03:34:15.000Z</time>
      </trkpt>
      <trkpt lat="45.19725" lon="5.73349">
        <ele>212.39999389648</ele>
        <time>2021-08-19T03:34:16.000Z</time>
      </trkpt>
      <trkpt lat="45.19724" lon="5.73345">
        <ele>212</ele>
        <time>2021-08-19T03:34:17.000Z</time>
      </trkpt>
      <trkpt lat="45.1972" lon="5.73332">
        <ele>212.60000610352</ele>
        <time>2021-08-19T03:34:20.000Z</time>
      </trkpt>
      <trkpt lat="45.19721" lon="5.73328">
        <ele>212.80000305176</ele>
        <time>2021-08-19T03:34:21.000Z</time>
      </trkpt>
      <trkpt lat="45.19722" lon="5.73325">
        <ele>212.60000610352</ele>
        <time>2021-08-19T03:34:22.000Z</time>
      </trkpt>
      <trkpt lat="45.1973" lon="5.73306">
        <ele>213</ele>
        <time>2021-08-19T03:34:28.000Z</time>
      </trkpt>
      <trkpt lat="45.19734" lon="5.73291">
        <ele>213.19999694824</ele>
        <time>2021-08-19T03:34:32.000Z</time>
      </trkpt>
      <trkpt lat="45.19737" lon="5.73283">
        <ele>213.19999694824</ele>
        <time>2021-08-19T03:34:34.000Z</time>
      </trkpt>
      <trkpt lat="45.1974" lon="5.73265">
        <ele>212.60000610352</ele>
        <time>2021-08-19T03:34:39.000Z</time>
      </trkpt>
      <trkpt lat="45.19743" lon="5.73247">
        <ele>212.19999694824</ele>
        <time>2021-08-19T03:34:44.000Z</time>
      </trkpt>
      <trkpt lat="45.19743" lon="5.73244">
        <ele>212.19999694824</ele>
        <time>2021-08-19T03:34:45.000Z</time>
      </trkpt>
      <trkpt lat="45.1974" lon="5.73238">
        <ele>212</ele>
        <time>2021-08-19T03:34:48.000Z</time>
      </trkpt>
      <trkpt lat="45.19733" lon="5.73233">
        <ele>211.80000305176</ele>
        <time>2021-08-19T03:34:51.000Z</time>
      </trkpt>
      <trkpt lat="45.1973" lon="5.73231">
        <ele>211.39999389648</ele>
        <time>2021-08-19T03:34:52.000Z</time>
      </trkpt>
      <trkpt lat="45.19719" lon="5.73223">
        <ele>211.39999389648</ele>
        <time>2021-08-19T03:34:56.000Z</time>
      </trkpt>
      <trkpt lat="45.19709" lon="5.73216">
        <ele>211.19999694824</ele>
        <time>2021-08-19T03:34:59.000Z</time>
      </trkpt>
      <trkpt lat="45.19702" lon="5.73208">
        <ele>211.19999694824</ele>
        <time>2021-08-19T03:35:03.000Z</time>
      </trkpt>
      <trkpt lat="45.19693" lon="5.732">
        <ele>211.39999389648</ele>
        <time>2021-08-19T03:35:08.000Z</time>
      </trkpt>
      <trkpt lat="45.19684" lon="5.73189">
        <ele>211.19999694824</ele>
        <time>2021-08-19T03:35:13.000Z</time>
      </trkpt>
      <trkpt lat="45.1967" lon="5.73178">
        <ele>211.39999389648</ele>
        <time>2021-08-19T03:35:19.000Z</time>
      </trkpt>
      <trkpt lat="45.19657" lon="5.73167">
        <ele>211.60000610352</ele>
        <time>2021-08-19T03:35:25.000Z</time>
      </trkpt>
      <trkpt lat="45.19643" lon="5.7315">
        <ele>211.60000610352</ele>
        <time>2021-08-19T03:35:31.000Z</time>
      </trkpt>
      <trkpt lat="45.19627" lon="5.73134">
        <ele>211.80000305176</ele>
        <time>2021-08-19T03:35:37.000Z</time>
      </trkpt>
      <trkpt lat="45.19623" lon="5.73129">
        <ele>211.80000305176</ele>
        <time>2021-08-19T03:35:39.000Z</time>
      </trkpt>
      <trkpt lat="45.19612" lon="5.73114">
        <ele>212</ele>
        <time>2021-08-19T03:35:44.000Z</time>
      </trkpt>
      <trkpt lat="45.19609" lon="5.73111">
        <ele>212</ele>
        <time>2021-08-19T03:35:45.000Z</time>
      </trkpt>
      <trkpt lat="45.19602" lon="5.73102">
        <ele>212</ele>
        <time>2021-08-19T03:35:48.000Z</time>
      </trkpt>
      <trkpt lat="45.19595" lon="5.73094">
        <ele>212</ele>
        <time>2021-08-19T03:35:51.000Z</time>
      </trkpt>
      <trkpt lat="45.19584" lon="5.7308">
        <ele>212.19999694824</ele>
        <time>2021-08-19T03:35:56.000Z</time>
      </trkpt>
      <trkpt lat="45.19581" lon="5.73073">
        <ele>212.60000610352</ele>
        <time>2021-08-19T03:35:58.000Z</time>
      </trkpt>
      <trkpt lat="45.19576" lon="5.73067">
        <ele>212.60000610352</ele>
        <time>2021-08-19T03:36:00.000Z</time>
      </trkpt>
      <trkpt lat="45.19566" lon="5.73052">
        <ele>212.60000610352</ele>
        <time>2021-08-19T03:36:05.000Z</time>
      </trkpt>
      <trkpt lat="45.19563" lon="5.73048">
        <ele>212.60000610352</ele>
        <time>2021-08-19T03:36:07.000Z</time>
      </trkpt>
      <trkpt lat="45.19549" lon="5.73032">
        <ele>212.80000305176</ele>
        <time>2021-08-19T03:36:14.000Z</time>
      </trkpt>
      <trkpt lat="45.19547" lon="5.7303">
        <ele>212.80000305176</ele>
        <time>2021-08-19T03:36:15.000Z</time>
      </trkpt>
      <trkpt lat="45.19538" lon="5.73014">
        <ele>212.80000305176</ele>
        <time>2021-08-19T03:36:20.000Z</time>
      </trkpt>
      <trkpt lat="45.19527" lon="5.72998">
        <ele>213</ele>
        <time>2021-08-19T03:36:26.000Z</time>
      </trkpt>
      <trkpt lat="45.19517" lon="5.72982">
        <ele>212.39999389648</ele>
        <time>2021-08-19T03:36:32.000Z</time>
      </trkpt>
      <trkpt lat="45.19509" lon="5.72961">
        <ele>212.39999389648</ele>
        <time>2021-08-19T03:36:38.000Z</time>
      </trkpt>
      <trkpt lat="45.19508" lon="5.72959">
        <ele>212.39999389648</ele>
        <time>2021-08-19T03:36:39.000Z</time>
      </trkpt>
      <trkpt lat="45.19498" lon="5.72944">
        <ele>212</ele>
        <time>2021-08-19T03:36:45.000Z</time>
      </trkpt>
      <trkpt lat="45.1949" lon="5.72927">
        <ele>211.60000610352</ele>
        <time>2021-08-19T03:36:50.000Z</time>
      </trkpt>
      <trkpt lat="45.19484" lon="5.72919">
        <ele>211.60000610352</ele>
        <time>2021-08-19T03:36:53.000Z</time>
      </trkpt>
      <trkpt lat="45.19474" lon="5.72906">
        <ele>211.60000610352</ele>
        <time>2021-08-19T03:36:58.000Z</time>
      </trkpt>
      <trkpt lat="45.19462" lon="5.72882">
        <ele>211</ele>
        <time>2021-08-19T03:37:04.000Z</time>
      </trkpt>
      <trkpt lat="45.1946" lon="5.72874">
        <ele>211</ele>
        <time>2021-08-19T03:37:06.000Z</time>
      </trkpt>
      <trkpt lat="45.19453" lon="5.72857">
        <ele>211</ele>
        <time>2021-08-19T03:37:10.000Z</time>
      </trkpt>
      <trkpt lat="45.19452" lon="5.72854">
        <ele>211</ele>
        <time>2021-08-19T03:37:11.000Z</time>
      </trkpt>
      <trkpt lat="45.19447" lon="5.72842">
        <ele>211</ele>
        <time>2021-08-19T03:37:14.000Z</time>
      </trkpt>
      <trkpt lat="45.19437" lon="5.72821">
        <ele>210.60000610352</ele>
        <time>2021-08-19T03:37:19.000Z</time>
      </trkpt>
      <trkpt lat="45.19436" lon="5.72816">
        <ele>210.19999694824</ele>
        <time>2021-08-19T03:37:20.000Z</time>
      </trkpt>
      <trkpt lat="45.19432" lon="5.72797">
        <ele>209.80000305176</ele>
        <time>2021-08-19T03:37:24.000Z</time>
      </trkpt>
      <trkpt lat="45.19431" lon="5.72784">
        <ele>209.80000305176</ele>
        <time>2021-08-19T03:37:27.000Z</time>
      </trkpt>
      <trkpt lat="45.19429" lon="5.72775">
        <ele>209.80000305176</ele>
        <time>2021-08-19T03:37:29.000Z</time>
      </trkpt>
      <trkpt lat="45.1942" lon="5.72749">
        <ele>209.80000305176</ele>
        <time>2021-08-19T03:37:35.000Z</time>
      </trkpt>
      <trkpt lat="45.19419" lon="5.7274">
        <ele>209.19999694824</ele>
        <time>2021-08-19T03:37:37.000Z</time>
      </trkpt>
      <trkpt lat="45.19415" lon="5.72723">
        <ele>208.80000305176</ele>
        <time>2021-08-19T03:37:41.000Z</time>
      </trkpt>
      <trkpt lat="45.1941" lon="5.72706">
        <ele>208.19999694824</ele>
        <time>2021-08-19T03:37:45.000Z</time>
      </trkpt>
      <trkpt lat="45.19409" lon="5.72702">
        <ele>208</ele>
        <time>2021-08-19T03:37:46.000Z</time>
      </trkpt>
      <trkpt lat="45.19407" lon="5.72693">
        <ele>207.39999389648</ele>
        <time>2021-08-19T03:37:48.000Z</time>
      </trkpt>
      <trkpt lat="45.194" lon="5.72671">
        <ele>207.60000610352</ele>
        <time>2021-08-19T03:37:53.000Z</time>
      </trkpt>
      <trkpt lat="45.19397" lon="5.72667">
        <ele>207.39999389648</ele>
        <time>2021-08-19T03:37:54.000Z</time>
      </trkpt>
      <trkpt lat="45.1939" lon="5.72648">
        <ele>207</ele>
        <time>2021-08-19T03:37:59.000Z</time>
      </trkpt>
      <trkpt lat="45.19389" lon="5.72622">
        <ele>207.19999694824</ele>
        <time>2021-08-19T03:38:05.000Z</time>
      </trkpt>
      <trkpt lat="45.19388" lon="5.72615">
        <ele>207.19999694824</ele>
        <time>2021-08-19T03:38:07.000Z</time>
      </trkpt>
      <trkpt lat="45.19385" lon="5.72609">
        <ele>207.19999694824</ele>
        <time>2021-08-19T03:38:09.000Z</time>
      </trkpt>
      <trkpt lat="45.19384" lon="5.72605">
        <ele>206.80000305176</ele>
        <time>2021-08-19T03:38:10.000Z</time>
      </trkpt>
      <trkpt lat="45.19376" lon="5.72584">
        <ele>208</ele>
        <time>2021-08-19T03:38:15.000Z</time>
      </trkpt>
      <trkpt lat="45.19371" lon="5.72576">
        <ele>208</ele>
        <time>2021-08-19T03:38:17.000Z</time>
      </trkpt>
      <trkpt lat="45.1937" lon="5.72571">
        <ele>208</ele>
        <time>2021-08-19T03:38:18.000Z</time>
      </trkpt>
      <trkpt lat="45.1937" lon="5.72566">
        <ele>208</ele>
        <time>2021-08-19T03:38:19.000Z</time>
      </trkpt>
      <trkpt lat="45.19369" lon="5.72557">
        <ele>208</ele>
        <time>2021-08-19T03:38:21.000Z</time>
      </trkpt>
      <trkpt lat="45.1937" lon="5.72545">
        <ele>208.60000610352</ele>
        <time>2021-08-19T03:38:24.000Z</time>
      </trkpt>
      <trkpt lat="45.19369" lon="5.72541">
        <ele>208.60000610352</ele>
        <time>2021-08-19T03:38:25.000Z</time>
      </trkpt>
      <trkpt lat="45.19366" lon="5.72531">
        <ele>209.19999694824</ele>
        <time>2021-08-19T03:38:28.000Z</time>
      </trkpt>
      <trkpt lat="45.19364" lon="5.72524">
        <ele>209.60000610352</ele>
        <time>2021-08-19T03:38:30.000Z</time>
      </trkpt>
      <trkpt lat="45.19358" lon="5.72506">
        <ele>210</ele>
        <time>2021-08-19T03:38:35.000Z</time>
      </trkpt>
      <trkpt lat="45.19356" lon="5.72481">
        <ele>210.19999694824</ele>
        <time>2021-08-19T03:38:41.000Z</time>
      </trkpt>
      <trkpt lat="45.19356" lon="5.72478">
        <ele>210.39999389648</ele>
        <time>2021-08-19T03:38:42.000Z</time>
      </trkpt>
      <trkpt lat="45.19353" lon="5.72465">
        <ele>211.19999694824</ele>
        <time>2021-08-19T03:38:46.000Z</time>
      </trkpt>
      <trkpt lat="45.19352" lon="5.72458">
        <ele>211.60000610352</ele>
        <time>2021-08-19T03:38:48.000Z</time>
      </trkpt>
      <trkpt lat="45.1935" lon="5.72445">
        <ele>211.60000610352</ele>
        <time>2021-08-19T03:38:51.000Z</time>
      </trkpt>
      <trkpt lat="45.19348" lon="5.72427">
        <ele>212</ele>
        <time>2021-08-19T03:38:55.000Z</time>
      </trkpt>
      <trkpt lat="45.19349" lon="5.72404">
        <ele>212</ele>
        <time>2021-08-19T03:39:00.000Z</time>
      </trkpt>
      <trkpt lat="45.19347" lon="5.72388">
        <ele>212.39999389648</ele>
        <time>2021-08-19T03:39:05.000Z</time>
      </trkpt>
      <trkpt lat="45.19344" lon="5.72385">
        <ele>212.39999389648</ele>
        <time>2021-08-19T03:39:06.000Z</time>
      </trkpt>
      <trkpt lat="45.19343" lon="5.72375">
        <ele>212.39999389648</ele>
        <time>2021-08-19T03:39:08.000Z</time>
      </trkpt>
      <trkpt lat="45.19345" lon="5.72365">
        <ele>212.60000610352</ele>
        <time>2021-08-19T03:39:10.000Z</time>
      </trkpt>
      <trkpt lat="45.19344" lon="5.72362">
        <ele>212.39999389648</ele>
        <time>2021-08-19T03:39:11.000Z</time>
      </trkpt>
      <trkpt lat="45.19344" lon="5.72358">
        <ele>213</ele>
        <time>2021-08-19T03:39:12.000Z</time>
      </trkpt>
      <trkpt lat="45.19344" lon="5.72345">
        <ele>213</ele>
        <time>2021-08-19T03:39:15.000Z</time>
      </trkpt>
      <trkpt lat="45.19339" lon="5.72324">
        <ele>213.19999694824</ele>
        <time>2021-08-19T03:39:20.000Z</time>
      </trkpt>
      <trkpt lat="45.19331" lon="5.72303">
        <ele>213.39999389648</ele>
        <time>2021-08-19T03:39:25.000Z</time>
      </trkpt>
      <trkpt lat="45.1933" lon="5.72298">
        <ele>213.39999389648</ele>
        <time>2021-08-19T03:39:26.000Z</time>
      </trkpt>
      <trkpt lat="45.19327" lon="5.72282">
        <ele>214.19999694824</ele>
        <time>2021-08-19T03:39:29.000Z</time>
      </trkpt>
      <trkpt lat="45.19325" lon="5.72279">
        <ele>214.19999694824</ele>
        <time>2021-08-19T03:39:30.000Z</time>
      </trkpt>
      <trkpt lat="45.19316" lon="5.72264">
        <ele>214.19999694824</ele>
        <time>2021-08-19T03:39:35.000Z</time>
      </trkpt>
      <trkpt lat="45.19313" lon="5.72261">
        <ele>214</ele>
        <time>2021-08-19T03:39:36.000Z</time>
      </trkpt>
      <trkpt lat="45.19308" lon="5.72255">
        <ele>213.80000305176</ele>
        <time>2021-08-19T03:39:38.000Z</time>
      </trkpt>
      <trkpt lat="45.19299" lon="5.7223">
        <ele>214</ele>
        <time>2021-08-19T03:39:45.000Z</time>
      </trkpt>
      <trkpt lat="45.19299" lon="5.72205">
        <ele>213.60000610352</ele>
        <time>2021-08-19T03:39:51.000Z</time>
      </trkpt>
      <trkpt lat="45.19301" lon="5.72193">
        <ele>213.60000610352</ele>
        <time>2021-08-19T03:39:54.000Z</time>
      </trkpt>
      <trkpt lat="45.19302" lon="5.72186">
        <ele>213.39999389648</ele>
        <time>2021-08-19T03:39:56.000Z</time>
      </trkpt>
      <trkpt lat="45.19298" lon="5.72175">
        <ele>213.19999694824</ele>
        <time>2021-08-19T03:39:59.000Z</time>
      </trkpt>
      <trkpt lat="45.19295" lon="5.7215">
        <ele>212.80000305176</ele>
        <time>2021-08-19T03:40:04.000Z</time>
      </trkpt>
      <trkpt lat="45.19294" lon="5.72138">
        <ele>212.80000305176</ele>
        <time>2021-08-19T03:40:07.000Z</time>
      </trkpt>
      <trkpt lat="45.19294" lon="5.72134">
        <ele>212.80000305176</ele>
        <time>2021-08-19T03:40:08.000Z</time>
      </trkpt>
      <trkpt lat="45.19291" lon="5.7211">
        <ele>212.80000305176</ele>
        <time>2021-08-19T03:40:13.000Z</time>
      </trkpt>
      <trkpt lat="45.19286" lon="5.72082">
        <ele>211.80000305176</ele>
        <time>2021-08-19T03:40:19.000Z</time>
      </trkpt>
      <trkpt lat="45.19284" lon="5.72078">
        <ele>212.19999694824</ele>
        <time>2021-08-19T03:40:20.000Z</time>
      </trkpt>
      <trkpt lat="45.19281" lon="5.72065">
        <ele>212.19999694824</ele>
        <time>2021-08-19T03:40:23.000Z</time>
      </trkpt>
      <trkpt lat="45.19281" lon="5.72055">
        <ele>212.19999694824</ele>
        <time>2021-08-19T03:40:25.000Z</time>
      </trkpt>
      <trkpt lat="45.19282" lon="5.72029">
        <ele>211.60000610352</ele>
        <time>2021-08-19T03:40:30.000Z</time>
      </trkpt>
      <trkpt lat="45.19281" lon="5.72004">
        <ele>211.60000610352</ele>
        <time>2021-08-19T03:40:35.000Z</time>
      </trkpt>
      <trkpt lat="45.19286" lon="5.71982">
        <ele>211</ele>
        <time>2021-08-19T03:40:39.000Z</time>
      </trkpt>
      <trkpt lat="45.19288" lon="5.71977">
        <ele>211</ele>
        <time>2021-08-19T03:40:40.000Z</time>
      </trkpt>
      <trkpt lat="45.19305" lon="5.7196">
        <ele>210.80000305176</ele>
        <time>2021-08-19T03:40:44.000Z</time>
      </trkpt>
      <trkpt lat="45.19309" lon="5.71958">
        <ele>210.80000305176</ele>
        <time>2021-08-19T03:40:45.000Z</time>
      </trkpt>
      <trkpt lat="45.19313" lon="5.71955">
        <ele>210.60000610352</ele>
        <time>2021-08-19T03:40:46.000Z</time>
      </trkpt>
      <trkpt lat="45.19319" lon="5.71953">
        <ele>210.80000305176</ele>
        <time>2021-08-19T03:40:47.000Z</time>
      </trkpt>
      <trkpt lat="45.19328" lon="5.71948">
        <ele>211</ele>
        <time>2021-08-19T03:40:49.000Z</time>
      </trkpt>
      <trkpt lat="45.1934" lon="5.71927">
        <ele>210.80000305176</ele>
        <time>2021-08-19T03:40:55.000Z</time>
      </trkpt>
      <trkpt lat="45.19352" lon="5.7191">
        <ele>211</ele>
        <time>2021-08-19T03:41:00.000Z</time>
      </trkpt>
      <trkpt lat="45.1937" lon="5.71902">
        <ele>210.60000610352</ele>
        <time>2021-08-19T03:41:05.000Z</time>
      </trkpt>
      <trkpt lat="45.19391" lon="5.719">
        <ele>210.39999389648</ele>
        <time>2021-08-19T03:41:11.000Z</time>
      </trkpt>
      <trkpt lat="45.19401" lon="5.71902">
        <ele>210.19999694824</ele>
        <time>2021-08-19T03:41:13.000Z</time>
      </trkpt>
      <trkpt lat="45.19418" lon="5.71906">
        <ele>210</ele>
        <time>2021-08-19T03:41:18.000Z</time>
      </trkpt>
      <trkpt lat="45.19418" lon="5.71904">
        <ele>210</ele>
        <time>2021-08-19T03:41:19.000Z</time>
      </trkpt>
      <trkpt lat="45.19419" lon="5.71902">
        <ele>210.39999389648</ele>
        <time>2021-08-19T03:41:20.000Z</time>
      </trkpt>
      <trkpt lat="45.19437" lon="5.7189">
        <ele>210</ele>
        <time>2021-08-19T03:41:28.000Z</time>
      </trkpt>
      <trkpt lat="45.19456" lon="5.71881">
        <ele>210.39999389648</ele>
        <time>2021-08-19T03:41:36.000Z</time>
      </trkpt>
      <trkpt lat="45.19461" lon="5.71881">
        <ele>210.39999389648</ele>
        <time>2021-08-19T03:41:37.000Z</time>
      </trkpt>
      <trkpt lat="45.1948" lon="5.71873">
        <ele>210</ele>
        <time>2021-08-19T03:41:44.000Z</time>
      </trkpt>
      <trkpt lat="45.19499" lon="5.71868">
        <ele>211</ele>
        <time>2021-08-19T03:41:50.000Z</time>
      </trkpt>
      <trkpt lat="45.19512" lon="5.71865">
        <ele>211</ele>
        <time>2021-08-19T03:41:54.000Z</time>
      </trkpt>
      <trkpt lat="45.19522" lon="5.71868">
        <ele>211.60000610352</ele>
        <time>2021-08-19T03:41:56.000Z</time>
      </trkpt>
      <trkpt lat="45.19533" lon="5.7187">
        <ele>212.19999694824</ele>
        <time>2021-08-19T03:41:59.000Z</time>
      </trkpt>
      <trkpt lat="45.19537" lon="5.71872">
        <ele>213</ele>
        <time>2021-08-19T03:42:01.000Z</time>
      </trkpt>
      <trkpt lat="45.19537" lon="5.71873">
        <ele>213.60000610352</ele>
        <time>2021-08-19T03:42:02.000Z</time>
      </trkpt>
      <trkpt lat="45.1954" lon="5.71876">
        <ele>214</ele>
        <time>2021-08-19T03:42:04.000Z</time>
      </trkpt>
      <trkpt lat="45.19543" lon="5.71876">
        <ele>215</ele>
        <time>2021-08-19T03:42:06.000Z</time>
      </trkpt>
      <trkpt lat="45.19559" lon="5.71879">
        <ele>217.60000610352</ele>
        <time>2021-08-19T03:42:14.000Z</time>
      </trkpt>
      <trkpt lat="45.19557" lon="5.72155">
        <ele>266.39999389648</ele>
        <time>2021-08-19T03:45:49.000Z</time>
      </trkpt>
      <trkpt lat="45.19569" lon="5.7217">
        <ele>266.39999389648</ele>
        <time>2021-08-19T03:45:50.000Z</time>
      </trkpt>
      <trkpt lat="45.19582" lon="5.72172">
        <ele>266.60000610352</ele>
        <time>2021-08-19T03:45:52.000Z</time>
      </trkpt>
      <trkpt lat="45.19574" lon="5.72176">
        <ele>267.20001220703</ele>
        <time>2021-08-19T03:45:55.000Z</time>
      </trkpt>
      <trkpt lat="45.19571" lon="5.7218">
        <ele>267.79998779297</ele>
        <time>2021-08-19T03:45:57.000Z</time>
      </trkpt>
      <trkpt lat="45.19571" lon="5.72182">
        <ele>269</ele>
        <time>2021-08-19T03:45:58.000Z</time>
      </trkpt>
      <trkpt lat="45.19565" lon="5.72185">
        <ele>270.20001220703</ele>
        <time>2021-08-19T03:46:02.000Z</time>
      </trkpt>
      <trkpt lat="45.19561" lon="5.72185">
        <ele>270.39999389648</ele>
        <time>2021-08-19T03:46:03.000Z</time>
      </trkpt>
      <trkpt lat="45.19557" lon="5.72182">
        <ele>271.20001220703</ele>
        <time>2021-08-19T03:46:05.000Z</time>
      </trkpt>
      <trkpt lat="45.1954" lon="5.72174">
        <ele>271.39999389648</ele>
        <time>2021-08-19T03:46:12.000Z</time>
      </trkpt>
      <trkpt lat="45.19522" lon="5.72173">
        <ele>271.39999389648</ele>
        <time>2021-08-19T03:46:17.000Z</time>
      </trkpt>
      <trkpt lat="45.19515" lon="5.72172">
        <ele>272</ele>
        <time>2021-08-19T03:46:21.000Z</time>
      </trkpt>
      <trkpt lat="45.19513" lon="5.72172">
        <ele>272.20001220703</ele>
        <time>2021-08-19T03:46:22.000Z</time>
      </trkpt>
      <trkpt lat="45.19504" lon="5.72171">
        <ele>272.20001220703</ele>
        <time>2021-08-19T03:46:25.000Z</time>
      </trkpt>
      <trkpt lat="45.195" lon="5.72169">
        <ele>272.60000610352</ele>
        <time>2021-08-19T03:46:27.000Z</time>
      </trkpt>
      <trkpt lat="45.19491" lon="5.72167">
        <ele>273.20001220703</ele>
        <time>2021-08-19T03:46:31.000Z</time>
      </trkpt>
      <trkpt lat="45.19489" lon="5.72167">
        <ele>273.60000610352</ele>
        <time>2021-08-19T03:46:32.000Z</time>
      </trkpt>
      <trkpt lat="45.19486" lon="5.72166">
        <ele>274.20001220703</ele>
        <time>2021-08-19T03:46:34.000Z</time>
      </trkpt>
      <trkpt lat="45.19477" lon="5.72164">
        <ele>274.79998779297</ele>
        <time>2021-08-19T03:46:37.000Z</time>
      </trkpt>
      <trkpt lat="45.19475" lon="5.72165">
        <ele>275.39999389648</ele>
        <time>2021-08-19T03:46:38.000Z</time>
      </trkpt>
      <trkpt lat="45.19472" lon="5.72166">
        <ele>275.79998779297</ele>
        <time>2021-08-19T03:46:40.000Z</time>
      </trkpt>
      <trkpt lat="45.1947" lon="5.72165">
        <ele>276.60000610352</ele>
        <time>2021-08-19T03:46:41.000Z</time>
      </trkpt>
      <trkpt lat="45.19467" lon="5.72165">
        <ele>277</ele>
        <time>2021-08-19T03:46:43.000Z</time>
      </trkpt>
      <trkpt lat="45.19466" lon="5.72167">
        <ele>277.79998779297</ele>
        <time>2021-08-19T03:46:45.000Z</time>
      </trkpt>
      <trkpt lat="45.19464" lon="5.72169">
        <ele>278.20001220703</ele>
        <time>2021-08-19T03:46:47.000Z</time>
      </trkpt>
      <trkpt lat="45.19464" lon="5.72172">
        <ele>278.60000610352</ele>
        <time>2021-08-19T03:46:48.000Z</time>
      </trkpt>
      <trkpt lat="45.19465" lon="5.72174">
        <ele>278.79998779297</ele>
        <time>2021-08-19T03:46:49.000Z</time>
      </trkpt>
      <trkpt lat="45.19466" lon="5.72176">
        <ele>279.20001220703</ele>
        <time>2021-08-19T03:46:51.000Z</time>
      </trkpt>
      <trkpt lat="45.19466" lon="5.72178">
        <ele>279.79998779297</ele>
        <time>2021-08-19T03:46:53.000Z</time>
      </trkpt>
      <trkpt lat="45.19466" lon="5.72179">
        <ele>280</ele>
        <time>2021-08-19T03:46:54.000Z</time>
      </trkpt>
      <trkpt lat="45.19467" lon="5.72183">
        <ele>281</ele>
        <time>2021-08-19T03:46:56.000Z</time>
      </trkpt>
      <trkpt lat="45.19468" lon="5.72184">
        <ele>281.20001220703</ele>
        <time>2021-08-19T03:46:57.000Z</time>
      </trkpt>
      <trkpt lat="45.19469" lon="5.72186">
        <ele>281.20001220703</ele>
        <time>2021-08-19T03:46:58.000Z</time>
      </trkpt>
      <trkpt lat="45.1947" lon="5.72186">
        <ele>282.39999389648</ele>
        <time>2021-08-19T03:47:00.000Z</time>
      </trkpt>
      <trkpt lat="45.19471" lon="5.72187">
        <ele>282.39999389648</ele>
        <time>2021-08-19T03:47:01.000Z</time>
      </trkpt>
      <trkpt lat="45.19472" lon="5.72189">
        <ele>282.60000610352</ele>
        <time>2021-08-19T03:47:02.000Z</time>
      </trkpt>
      <trkpt lat="45.19473" lon="5.7219">
        <ele>284</ele>
        <time>2021-08-19T03:47:03.000Z</time>
      </trkpt>
      <trkpt lat="45.19478" lon="5.72192">
        <ele>285.39999389648</ele>
        <time>2021-08-19T03:47:07.000Z</time>
      </trkpt>
      <trkpt lat="45.1948" lon="5.72193">
        <ele>285.60000610352</ele>
        <time>2021-08-19T03:47:08.000Z</time>
      </trkpt>
      <trkpt lat="45.19485" lon="5.72194">
        <ele>286.39999389648</ele>
        <time>2021-08-19T03:47:11.000Z</time>
      </trkpt>
      <trkpt lat="45.19486" lon="5.72194">
        <ele>286.60000610352</ele>
        <time>2021-08-19T03:47:12.000Z</time>
      </trkpt>
      <trkpt lat="45.19489" lon="5.72195">
        <ele>287</ele>
        <time>2021-08-19T03:47:14.000Z</time>
      </trkpt>
      <trkpt lat="45.19496" lon="5.72198">
        <ele>287.79998779297</ele>
        <time>2021-08-19T03:47:17.000Z</time>
      </trkpt>
      <trkpt lat="45.19499" lon="5.72199">
        <ele>288.20001220703</ele>
        <time>2021-08-19T03:47:19.000Z</time>
      </trkpt>
      <trkpt lat="45.195" lon="5.72201">
        <ele>288.60000610352</ele>
        <time>2021-08-19T03:47:20.000Z</time>
      </trkpt>
      <trkpt lat="45.19505" lon="5.72204">
        <ele>289.20001220703</ele>
        <time>2021-08-19T03:47:22.000Z</time>
      </trkpt>
      <trkpt lat="45.19511" lon="5.72209">
        <ele>289.60000610352</ele>
        <time>2021-08-19T03:47:25.000Z</time>
      </trkpt>
      <trkpt lat="45.19514" lon="5.72213">
        <ele>290.39999389648</ele>
        <time>2021-08-19T03:47:27.000Z</time>
      </trkpt>
      <trkpt lat="45.19516" lon="5.72219">
        <ele>290.60000610352</ele>
        <time>2021-08-19T03:47:30.000Z</time>
      </trkpt>
      <trkpt lat="45.19518" lon="5.72221">
        <ele>291.60000610352</ele>
        <time>2021-08-19T03:47:34.000Z</time>
      </trkpt>
      <trkpt lat="45.19518" lon="5.72222">
        <ele>291.79998779297</ele>
        <time>2021-08-19T03:47:35.000Z</time>
      </trkpt>
      <trkpt lat="45.19518" lon="5.72224">
        <ele>292.79998779297</ele>
        <time>2021-08-19T03:47:36.000Z</time>
      </trkpt>
      <trkpt lat="45.19518" lon="5.72226">
        <ele>293.60000610352</ele>
        <time>2021-08-19T03:47:39.000Z</time>
      </trkpt>
      <trkpt lat="45.19519" lon="5.72226">
        <ele>294.39999389648</ele>
        <time>2021-08-19T03:47:40.000Z</time>
      </trkpt>
      <trkpt lat="45.19519" lon="5.72225">
        <ele>295.20001220703</ele>
        <time>2021-08-19T03:47:41.000Z</time>
      </trkpt>
      <trkpt lat="45.19521" lon="5.72226">
        <ele>295.39999389648</ele>
        <time>2021-08-19T03:47:42.000Z</time>
      </trkpt>
      <trkpt lat="45.19523" lon="5.72226">
        <ele>295.60000610352</ele>
        <time>2021-08-19T03:47:43.000Z</time>
      </trkpt>
      <trkpt lat="45.19525" lon="5.72226">
        <ele>296.79998779297</ele>
        <time>2021-08-19T03:47:45.000Z</time>
      </trkpt>
      <trkpt lat="45.19528" lon="5.72225">
        <ele>297</ele>
        <time>2021-08-19T03:47:47.000Z</time>
      </trkpt>
      <trkpt lat="45.19535" lon="5.72225">
        <ele>297.39999389648</ele>
        <time>2021-08-19T03:47:50.000Z</time>
      </trkpt>
      <trkpt lat="45.19539" lon="5.72228">
        <ele>297.79998779297</ele>
        <time>2021-08-19T03:47:52.000Z</time>
      </trkpt>
      <trkpt lat="45.19545" lon="5.72231">
        <ele>298</ele>
        <time>2021-08-19T03:47:55.000Z</time>
      </trkpt>
      <trkpt lat="45.1955" lon="5.72234">
        <ele>298.79998779297</ele>
        <time>2021-08-19T03:47:59.000Z</time>
      </trkpt>
      <trkpt lat="45.19557" lon="5.72238">
        <ele>299.79998779297</ele>
        <time>2021-08-19T03:48:03.000Z</time>
      </trkpt>
      <trkpt lat="45.19557" lon="5.72239">
        <ele>300</ele>
        <time>2021-08-19T03:48:04.000Z</time>
      </trkpt>
      <trkpt lat="45.19559" lon="5.72243">
        <ele>301</ele>
        <time>2021-08-19T03:48:07.000Z</time>
      </trkpt>
      <trkpt lat="45.19561" lon="5.72245">
        <ele>301.60000610352</ele>
        <time>2021-08-19T03:48:10.000Z</time>
      </trkpt>
      <trkpt lat="45.19564" lon="5.72247">
        <ele>302.20001220703</ele>
        <time>2021-08-19T03:48:12.000Z</time>
      </trkpt>
      <trkpt lat="45.19569" lon="5.7225">
        <ele>303</ele>
        <time>2021-08-19T03:48:15.000Z</time>
      </trkpt>
      <trkpt lat="45.19574" lon="5.72252">
        <ele>303.20001220703</ele>
        <time>2021-08-19T03:48:17.000Z</time>
      </trkpt>
      <trkpt lat="45.19576" lon="5.72253">
        <ele>303.60000610352</ele>
        <time>2021-08-19T03:48:18.000Z</time>
      </trkpt>
      <trkpt lat="45.19581" lon="5.72255">
        <ele>304</ele>
        <time>2021-08-19T03:48:21.000Z</time>
      </trkpt>
      <trkpt lat="45.19581" lon="5.72255">
        <ele>304.39999389648</ele>
        <time>2021-08-19T03:48:22.000Z</time>
      </trkpt>
      <trkpt lat="45.19583" lon="5.72255">
        <ele>305</ele>
        <time>2021-08-19T03:48:24.000Z</time>
      </trkpt>
      <trkpt lat="45.19587" lon="5.72256">
        <ele>305.39999389648</ele>
        <time>2021-08-19T03:48:26.000Z</time>
      </trkpt>
      <trkpt lat="45.19589" lon="5.72256">
        <ele>305.39999389648</ele>
        <time>2021-08-19T03:48:27.000Z</time>
      </trkpt>
      <trkpt lat="45.19595" lon="5.72259">
        <ele>306</ele>
        <time>2021-08-19T03:48:31.000Z</time>
      </trkpt>
      <trkpt lat="45.19596" lon="5.72258">
        <ele>306.20001220703</ele>
        <time>2021-08-19T03:48:32.000Z</time>
      </trkpt>
      <trkpt lat="45.19604" lon="5.7226">
        <ele>307.20001220703</ele>
        <time>2021-08-19T03:48:36.000Z</time>
      </trkpt>
      <trkpt lat="45.19607" lon="5.72259">
        <ele>307.79998779297</ele>
        <time>2021-08-19T03:48:38.000Z</time>
      </trkpt>
      <trkpt lat="45.19609" lon="5.72259">
        <ele>307.79998779297</ele>
        <time>2021-08-19T03:48:39.000Z</time>
      </trkpt>
      <trkpt lat="45.19614" lon="5.72259">
        <ele>308.39999389648</ele>
        <time>2021-08-19T03:48:42.000Z</time>
      </trkpt>
      <trkpt lat="45.19626" lon="5.7226">
        <ele>309.60000610352</ele>
        <time>2021-08-19T03:48:47.000Z</time>
      </trkpt>
      <trkpt lat="45.19629" lon="5.72259">
        <ele>309.79998779297</ele>
        <time>2021-08-19T03:48:49.000Z</time>
      </trkpt>
      <trkpt lat="45.19633" lon="5.72259">
        <ele>310.20001220703</ele>
        <time>2021-08-19T03:48:51.000Z</time>
      </trkpt>
      <trkpt lat="45.19636" lon="5.72258">
        <ele>310.60000610352</ele>
        <time>2021-08-19T03:48:52.000Z</time>
      </trkpt>
      <trkpt lat="45.19645" lon="5.7226">
        <ele>311.39999389648</ele>
        <time>2021-08-19T03:48:55.000Z</time>
      </trkpt>
      <trkpt lat="45.19647" lon="5.72259">
        <ele>311.60000610352</ele>
        <time>2021-08-19T03:48:56.000Z</time>
      </trkpt>
      <trkpt lat="45.19648" lon="5.72257">
        <ele>312</ele>
        <time>2021-08-19T03:48:58.000Z</time>
      </trkpt>
      <trkpt lat="45.19657" lon="5.72257">
        <ele>312.20001220703</ele>
        <time>2021-08-19T03:49:01.000Z</time>
      </trkpt>
      <trkpt lat="45.19661" lon="5.72255">
        <ele>313</ele>
        <time>2021-08-19T03:49:03.000Z</time>
      </trkpt>
      <trkpt lat="45.1966" lon="5.72251">
        <ele>313.20001220703</ele>
        <time>2021-08-19T03:49:05.000Z</time>
      </trkpt>
      <trkpt lat="45.19659" lon="5.72243">
        <ele>314.20001220703</ele>
        <time>2021-08-19T03:49:08.000Z</time>
      </trkpt>
      <trkpt lat="45.19662" lon="5.72241">
        <ele>314.39999389648</ele>
        <time>2021-08-19T03:49:09.000Z</time>
      </trkpt>
      <trkpt lat="45.19668" lon="5.72238">
        <ele>314.60000610352</ele>
        <time>2021-08-19T03:49:11.000Z</time>
      </trkpt>
      <trkpt lat="45.19674" lon="5.72236">
        <ele>314.79998779297</ele>
        <time>2021-08-19T03:49:13.000Z</time>
      </trkpt>
      <trkpt lat="45.19674" lon="5.72234">
        <ele>315.20001220703</ele>
        <time>2021-08-19T03:49:15.000Z</time>
      </trkpt>
      <trkpt lat="45.19674" lon="5.72232">
        <ele>315.39999389648</ele>
        <time>2021-08-19T03:49:16.000Z</time>
      </trkpt>
      <trkpt lat="45.19677" lon="5.72228">
        <ele>315.79998779297</ele>
        <time>2021-08-19T03:49:18.000Z</time>
      </trkpt>
      <trkpt lat="45.19679" lon="5.72226">
        <ele>316.20001220703</ele>
        <time>2021-08-19T03:49:19.000Z</time>
      </trkpt>
      <trkpt lat="45.1968" lon="5.72221">
        <ele>316.39999389648</ele>
        <time>2021-08-19T03:49:21.000Z</time>
      </trkpt>
      <trkpt lat="45.19679" lon="5.72219">
        <ele>316.79998779297</ele>
        <time>2021-08-19T03:49:22.000Z</time>
      </trkpt>
      <trkpt lat="45.19678" lon="5.72215">
        <ele>317</ele>
        <time>2021-08-19T03:49:23.000Z</time>
      </trkpt>
      <trkpt lat="45.19678" lon="5.72209">
        <ele>317.39999389648</ele>
        <time>2021-08-19T03:49:25.000Z</time>
      </trkpt>
      <trkpt lat="45.19687" lon="5.72201">
        <ele>318.39999389648</ele>
        <time>2021-08-19T03:49:29.000Z</time>
      </trkpt>
      <trkpt lat="45.19688" lon="5.72199">
        <ele>318.60000610352</ele>
        <time>2021-08-19T03:49:30.000Z</time>
      </trkpt>
      <trkpt lat="45.19693" lon="5.72196">
        <ele>318.79998779297</ele>
        <time>2021-08-19T03:49:32.000Z</time>
      </trkpt>
      <trkpt lat="45.19696" lon="5.72195">
        <ele>319</ele>
        <time>2021-08-19T03:49:33.000Z</time>
      </trkpt>
      <trkpt lat="45.19705" lon="5.72195">
        <ele>319.60000610352</ele>
        <time>2021-08-19T03:49:37.000Z</time>
      </trkpt>
      <trkpt lat="45.19707" lon="5.72195">
        <ele>319.79998779297</ele>
        <time>2021-08-19T03:49:38.000Z</time>
      </trkpt>
      <trkpt lat="45.19718" lon="5.72195">
        <ele>320.79998779297</ele>
        <time>2021-08-19T03:49:43.000Z</time>
      </trkpt>
      <trkpt lat="45.19722" lon="5.72198">
        <ele>322</ele>
        <time>2021-08-19T03:49:46.000Z</time>
      </trkpt>
      <trkpt lat="45.19728" lon="5.72203">
        <ele>322.20001220703</ele>
        <time>2021-08-19T03:49:48.000Z</time>
      </trkpt>
      <trkpt lat="45.19731" lon="5.72205">
        <ele>323</ele>
        <time>2021-08-19T03:49:50.000Z</time>
      </trkpt>
      <trkpt lat="45.19734" lon="5.72206">
        <ele>323</ele>
        <time>2021-08-19T03:49:51.000Z</time>
      </trkpt>
      <trkpt lat="45.19742" lon="5.72215">
        <ele>324.20001220703</ele>
        <time>2021-08-19T03:49:55.000Z</time>
      </trkpt>
      <trkpt lat="45.19748" lon="5.72221">
        <ele>325.20001220703</ele>
        <time>2021-08-19T03:49:58.000Z</time>
      </trkpt>
      <trkpt lat="45.19744" lon="5.72229">
        <ele>326.39999389648</ele>
        <time>2021-08-19T03:50:04.000Z</time>
      </trkpt>
      <trkpt lat="45.19742" lon="5.7223">
        <ele>326.79998779297</ele>
        <time>2021-08-19T03:50:05.000Z</time>
      </trkpt>
      <trkpt lat="45.19738" lon="5.72233">
        <ele>327.39999389648</ele>
        <time>2021-08-19T03:50:08.000Z</time>
      </trkpt>
      <trkpt lat="45.1971" lon="5.72238">
        <ele>328.20001220703</ele>
        <time>2021-08-19T03:50:14.000Z</time>
      </trkpt>
      <trkpt lat="45.1971" lon="5.72239">
        <ele>328.60000610352</ele>
        <time>2021-08-19T03:50:15.000Z</time>
      </trkpt>
      <trkpt lat="45.19703" lon="5.72238">
        <ele>329.79998779297</ele>
        <time>2021-08-19T03:50:20.000Z</time>
      </trkpt>
      <trkpt lat="45.19702" lon="5.72239">
        <ele>330.20001220703</ele>
        <time>2021-08-19T03:50:23.000Z</time>
      </trkpt>
      <trkpt lat="45.197" lon="5.72239">
        <ele>331</ele>
        <time>2021-08-19T03:50:25.000Z</time>
      </trkpt>
      <trkpt lat="45.197" lon="5.72239">
        <ele>332.20001220703</ele>
        <time>2021-08-19T03:50:31.000Z</time>
      </trkpt>
      <trkpt lat="45.19708" lon="5.72239">
        <ele>333.20001220703</ele>
        <time>2021-08-19T03:50:34.000Z</time>
      </trkpt>
      <trkpt lat="45.19707" lon="5.72235">
        <ele>333.79998779297</ele>
        <time>2021-08-19T03:50:37.000Z</time>
      </trkpt>
      <trkpt lat="45.19714" lon="5.72233">
        <ele>334.60000610352</ele>
        <time>2021-08-19T03:50:41.000Z</time>
      </trkpt>
      <trkpt lat="45.19718" lon="5.72234">
        <ele>334.79998779297</ele>
        <time>2021-08-19T03:50:42.000Z</time>
      </trkpt>
      <trkpt lat="45.19723" lon="5.72234">
        <ele>335.20001220703</ele>
        <time>2021-08-19T03:50:45.000Z</time>
      </trkpt>
      <trkpt lat="45.19727" lon="5.72234">
        <ele>336</ele>
        <time>2021-08-19T03:50:47.000Z</time>
      </trkpt>
      <trkpt lat="45.19729" lon="5.72231">
        <ele>336.60000610352</ele>
        <time>2021-08-19T03:50:52.000Z</time>
      </trkpt>
      <trkpt lat="45.19731" lon="5.72231">
        <ele>337</ele>
        <time>2021-08-19T03:50:53.000Z</time>
      </trkpt>
      <trkpt lat="45.19738" lon="5.72229">
        <ele>338.20001220703</ele>
        <time>2021-08-19T03:50:57.000Z</time>
      </trkpt>
      <trkpt lat="45.19756" lon="5.72233">
        <ele>339.20001220703</ele>
        <time>2021-08-19T03:51:03.000Z</time>
      </trkpt>
      <trkpt lat="45.1976" lon="5.72234">
        <ele>339.60000610352</ele>
        <time>2021-08-19T03:51:04.000Z</time>
      </trkpt>
      <trkpt lat="45.19766" lon="5.72236">
        <ele>340.20001220703</ele>
        <time>2021-08-19T03:51:07.000Z</time>
      </trkpt>
      <trkpt lat="45.19765" lon="5.72237">
        <ele>341.20001220703</ele>
        <time>2021-08-19T03:51:09.000Z</time>
      </trkpt>
      <trkpt lat="45.19764" lon="5.72238">
        <ele>341.39999389648</ele>
        <time>2021-08-19T03:51:10.000Z</time>
      </trkpt>
      <trkpt lat="45.19754" lon="5.72237">
        <ele>342</ele>
        <time>2021-08-19T03:51:13.000Z</time>
      </trkpt>
      <trkpt lat="45.19754" lon="5.72237">
        <ele>342</ele>
        <time>2021-08-19T03:51:14.000Z</time>
      </trkpt>
      <trkpt lat="45.19754" lon="5.72236">
        <ele>342</ele>
        <time>2021-08-19T03:51:15.000Z</time>
      </trkpt>
      <trkpt lat="45.19757" lon="5.72233">
        <ele>343</ele>
        <time>2021-08-19T03:51:17.000Z</time>
      </trkpt>
      <trkpt lat="45.19758" lon="5.72232">
        <ele>343</ele>
        <time>2021-08-19T03:51:18.000Z</time>
      </trkpt>
      <trkpt lat="45.19759" lon="5.7223">
        <ele>343</ele>
        <time>2021-08-19T03:51:20.000Z</time>
      </trkpt>
      <trkpt lat="45.1976" lon="5.72229">
        <ele>343.60000610352</ele>
        <time>2021-08-19T03:51:22.000Z</time>
      </trkpt>
      <trkpt lat="45.19759" lon="5.72224">
        <ele>343.79998779297</ele>
        <time>2021-08-19T03:51:24.000Z</time>
      </trkpt>
      <trkpt lat="45.19761" lon="5.72222">
        <ele>344</ele>
        <time>2021-08-19T03:51:25.000Z</time>
      </trkpt>
      <trkpt lat="45.19766" lon="5.72223">
        <ele>344.60000610352</ele>
        <time>2021-08-19T03:51:27.000Z</time>
      </trkpt>
      <trkpt lat="45.1976" lon="5.72223">
        <ele>344.60000610352</ele>
        <time>2021-08-19T03:51:29.000Z</time>
      </trkpt>
      <trkpt lat="45.19753" lon="5.72223">
        <ele>345</ele>
        <time>2021-08-19T03:51:32.000Z</time>
      </trkpt>
      <trkpt lat="45.1975" lon="5.7222">
        <ele>345.79998779297</ele>
        <time>2021-08-19T03:51:34.000Z</time>
      </trkpt>
      <trkpt lat="45.1975" lon="5.72219">
        <ele>345.79998779297</ele>
        <time>2021-08-19T03:51:35.000Z</time>
      </trkpt>
      <trkpt lat="45.1975" lon="5.72218">
        <ele>346</ele>
        <time>2021-08-19T03:51:37.000Z</time>
      </trkpt>
      <trkpt lat="45.19752" lon="5.7222">
        <ele>347</ele>
        <time>2021-08-19T03:51:38.000Z</time>
      </trkpt>
      <trkpt lat="45.1975" lon="5.72222">
        <ele>347</ele>
        <time>2021-08-19T03:51:40.000Z</time>
      </trkpt>
      <trkpt lat="45.19739" lon="5.72222">
        <ele>347.79998779297</ele>
        <time>2021-08-19T03:51:43.000Z</time>
      </trkpt>
      <trkpt lat="45.19737" lon="5.72223">
        <ele>348</ele>
        <time>2021-08-19T03:51:44.000Z</time>
      </trkpt>
      <trkpt lat="45.19739" lon="5.72223">
        <ele>348.39999389648</ele>
        <time>2021-08-19T03:51:45.000Z</time>
      </trkpt>
      <trkpt lat="45.19741" lon="5.72221">
        <ele>348.60000610352</ele>
        <time>2021-08-19T03:51:48.000Z</time>
      </trkpt>
      <trkpt lat="45.19742" lon="5.7222">
        <ele>349.39999389648</ele>
        <time>2021-08-19T03:51:50.000Z</time>
      </trkpt>
      <trkpt lat="45.19743" lon="5.72221">
        <ele>349.60000610352</ele>
        <time>2021-08-19T03:51:51.000Z</time>
      </trkpt>
      <trkpt lat="45.19745" lon="5.72222">
        <ele>349.79998779297</ele>
        <time>2021-08-19T03:51:52.000Z</time>
      </trkpt>
      <trkpt lat="45.19747" lon="5.72225">
        <ele>350</ele>
        <time>2021-08-19T03:51:53.000Z</time>
      </trkpt>
      <trkpt lat="45.19744" lon="5.72225">
        <ele>350.20001220703</ele>
        <time>2021-08-19T03:51:54.000Z</time>
      </trkpt>
      <trkpt lat="45.19746" lon="5.7223">
        <ele>351</ele>
        <time>2021-08-19T03:51:56.000Z</time>
      </trkpt>
      <trkpt lat="45.19754" lon="5.72235">
        <ele>351.39999389648</ele>
        <time>2021-08-19T03:52:00.000Z</time>
      </trkpt>
      <trkpt lat="45.19756" lon="5.72235">
        <ele>352.20001220703</ele>
        <time>2021-08-19T03:52:01.000Z</time>
      </trkpt>
      <trkpt lat="45.19756" lon="5.72234">
        <ele>352.20001220703</ele>
        <time>2021-08-19T03:52:02.000Z</time>
      </trkpt>
      <trkpt lat="45.19754" lon="5.72231">
        <ele>352.39999389648</ele>
        <time>2021-08-19T03:52:04.000Z</time>
      </trkpt>
      <trkpt lat="45.19751" lon="5.7223">
        <ele>353.20001220703</ele>
        <time>2021-08-19T03:52:06.000Z</time>
      </trkpt>
      <trkpt lat="45.19751" lon="5.72231">
        <ele>353.39999389648</ele>
        <time>2021-08-19T03:52:08.000Z</time>
      </trkpt>
      <trkpt lat="45.19751" lon="5.72233">
        <ele>353.60000610352</ele>
        <time>2021-08-19T03:52:10.000Z</time>
      </trkpt>
      <trkpt lat="45.19753" lon="5.72234">
        <ele>353.79998779297</ele>
        <time>2021-08-19T03:52:11.000Z</time>
      </trkpt>
      <trkpt lat="45.19754" lon="5.72236">
        <ele>354.39999389648</ele>
        <time>2021-08-19T03:52:12.000Z</time>
      </trkpt>
      <trkpt lat="45.19754" lon="5.72236">
        <ele>354.60000610352</ele>
        <time>2021-08-19T03:52:13.000Z</time>
      </trkpt>
      <trkpt lat="45.19754" lon="5.72236">
        <ele>354.60000610352</ele>
        <time>2021-08-19T03:52:14.000Z</time>
      </trkpt>
      <trkpt lat="45.19756" lon="5.72235">
        <ele>354.79998779297</ele>
        <time>2021-08-19T03:52:16.000Z</time>
      </trkpt>
      <trkpt lat="45.19757" lon="5.72234">
        <ele>355.39999389648</ele>
        <time>2021-08-19T03:52:18.000Z</time>
      </trkpt>
      <trkpt lat="45.19761" lon="5.72234">
        <ele>355.79998779297</ele>
        <time>2021-08-19T03:52:19.000Z</time>
      </trkpt>
      <trkpt lat="45.19761" lon="5.72236">
        <ele>356</ele>
        <time>2021-08-19T03:52:22.000Z</time>
      </trkpt>
      <trkpt lat="45.19756" lon="5.72238">
        <ele>357.39999389648</ele>
        <time>2021-08-19T03:52:24.000Z</time>
      </trkpt>
      <trkpt lat="45.19758" lon="5.7224">
        <ele>357.39999389648</ele>
        <time>2021-08-19T03:52:25.000Z</time>
      </trkpt>
      <trkpt lat="45.19756" lon="5.72241">
        <ele>357.39999389648</ele>
        <time>2021-08-19T03:52:26.000Z</time>
      </trkpt>
      <trkpt lat="45.19752" lon="5.72239">
        <ele>357.60000610352</ele>
        <time>2021-08-19T03:52:28.000Z</time>
      </trkpt>
      <trkpt lat="45.1975" lon="5.72237">
        <ele>357.60000610352</ele>
        <time>2021-08-19T03:52:29.000Z</time>
      </trkpt>
      <trkpt lat="45.19751" lon="5.72236">
        <ele>358.60000610352</ele>
        <time>2021-08-19T03:52:31.000Z</time>
      </trkpt>
      <trkpt lat="45.19755" lon="5.72236">
        <ele>358.79998779297</ele>
        <time>2021-08-19T03:52:32.000Z</time>
      </trkpt>
      <trkpt lat="45.19762" lon="5.72239">
        <ele>358.79998779297</ele>
        <time>2021-08-19T03:52:34.000Z</time>
      </trkpt>
      <trkpt lat="45.19762" lon="5.7224">
        <ele>359.39999389648</ele>
        <time>2021-08-19T03:52:35.000Z</time>
      </trkpt>
      <trkpt lat="45.19764" lon="5.72242">
        <ele>360</ele>
        <time>2021-08-19T03:52:36.000Z</time>
      </trkpt>
      <trkpt lat="45.19762" lon="5.72243">
        <ele>360.39999389648</ele>
        <time>2021-08-19T03:52:38.000Z</time>
      </trkpt>
      <trkpt lat="45.19758" lon="5.72239">
        <ele>361</ele>
        <time>2021-08-19T03:52:41.000Z</time>
      </trkpt>
      <trkpt lat="45.19757" lon="5.72238">
        <ele>361.20001220703</ele>
        <time>2021-08-19T03:52:42.000Z</time>
      </trkpt>
      <trkpt lat="45.19753" lon="5.72237">
        <ele>362.79998779297</ele>
        <time>2021-08-19T03:52:45.000Z</time>
      </trkpt>
      <trkpt lat="45.19759" lon="5.72239">
        <ele>362.79998779297</ele>
        <time>2021-08-19T03:52:46.000Z</time>
      </trkpt>
      <trkpt lat="45.19761" lon="5.7224">
        <ele>363.60000610352</ele>
        <time>2021-08-19T03:52:48.000Z</time>
      </trkpt>
      <trkpt lat="45.19763" lon="5.72243">
        <ele>363.79998779297</ele>
        <time>2021-08-19T03:52:50.000Z</time>
      </trkpt>
      <trkpt lat="45.19765" lon="5.72243">
        <ele>363.79998779297</ele>
        <time>2021-08-19T03:52:51.000Z</time>
      </trkpt>
      <trkpt lat="45.19766" lon="5.72244">
        <ele>364</ele>
        <time>2021-08-19T03:52:52.000Z</time>
      </trkpt>
      <trkpt lat="45.19768" lon="5.72244">
        <ele>365.39999389648</ele>
        <time>2021-08-19T03:52:54.000Z</time>
      </trkpt>
      <trkpt lat="45.19763" lon="5.72241">
        <ele>365.79998779297</ele>
        <time>2021-08-19T03:52:57.000Z</time>
      </trkpt>
      <trkpt lat="45.19764" lon="5.72232">
        <ele>368</ele>
        <time>2021-08-19T03:53:03.000Z</time>
      </trkpt>
      <trkpt lat="45.19762" lon="5.72232">
        <ele>368.39999389648</ele>
        <time>2021-08-19T03:53:04.000Z</time>
      </trkpt>
      <trkpt lat="45.19763" lon="5.72233">
        <ele>369.20001220703</ele>
        <time>2021-08-19T03:53:05.000Z</time>
      </trkpt>
      <trkpt lat="45.19765" lon="5.72234">
        <ele>369.39999389648</ele>
        <time>2021-08-19T03:53:07.000Z</time>
      </trkpt>
      <trkpt lat="45.19765" lon="5.72234">
        <ele>369.60000610352</ele>
        <time>2021-08-19T03:53:08.000Z</time>
      </trkpt>
      <trkpt lat="45.19767" lon="5.72233">
        <ele>370.39999389648</ele>
        <time>2021-08-19T03:53:09.000Z</time>
      </trkpt>
      <trkpt lat="45.19766" lon="5.72232">
        <ele>370.79998779297</ele>
        <time>2021-08-19T03:53:10.000Z</time>
      </trkpt>
      <trkpt lat="45.19769" lon="5.72224">
        <ele>371.39999389648</ele>
        <time>2021-08-19T03:53:13.000Z</time>
      </trkpt>
      <trkpt lat="45.19768" lon="5.72222">
        <ele>371.39999389648</ele>
        <time>2021-08-19T03:53:14.000Z</time>
      </trkpt>
      <trkpt lat="45.19768" lon="5.7222">
        <ele>371.60000610352</ele>
        <time>2021-08-19T03:53:15.000Z</time>
      </trkpt>
      <trkpt lat="45.19769" lon="5.72215">
        <ele>372</ele>
        <time>2021-08-19T03:53:17.000Z</time>
      </trkpt>
      <trkpt lat="45.19775" lon="5.72211">
        <ele>372.39999389648</ele>
        <time>2021-08-19T03:53:19.000Z</time>
      </trkpt>
      <trkpt lat="45.19781" lon="5.72208">
        <ele>372.39999389648</ele>
        <time>2021-08-19T03:53:21.000Z</time>
      </trkpt>
      <trkpt lat="45.19784" lon="5.72207">
        <ele>372.79998779297</ele>
        <time>2021-08-19T03:53:22.000Z</time>
      </trkpt>
      <trkpt lat="45.19791" lon="5.72202">
        <ele>373.39999389648</ele>
        <time>2021-08-19T03:53:25.000Z</time>
      </trkpt>
      <trkpt lat="45.19797" lon="5.72202">
        <ele>373.79998779297</ele>
        <time>2021-08-19T03:53:27.000Z</time>
      </trkpt>
      <trkpt lat="45.19795" lon="5.722">
        <ele>374</ele>
        <time>2021-08-19T03:53:29.000Z</time>
      </trkpt>
      <trkpt lat="45.19779" lon="5.72196">
        <ele>375</ele>
        <time>2021-08-19T03:53:31.000Z</time>
      </trkpt>
      <trkpt lat="45.19783" lon="5.722">
        <ele>376</ele>
        <time>2021-08-19T03:53:33.000Z</time>
      </trkpt>
      <trkpt lat="45.19787" lon="5.72204">
        <ele>376</ele>
        <time>2021-08-19T03:53:34.000Z</time>
      </trkpt>
      <trkpt lat="45.19796" lon="5.7221">
        <ele>377.60000610352</ele>
        <time>2021-08-19T03:53:36.000Z</time>
      </trkpt>
      <trkpt lat="45.19807" lon="5.72217">
        <ele>378.20001220703</ele>
        <time>2021-08-19T03:53:39.000Z</time>
      </trkpt>
      <trkpt lat="45.19808" lon="5.72219">
        <ele>378.20001220703</ele>
        <time>2021-08-19T03:53:40.000Z</time>
      </trkpt>
      <trkpt lat="45.19809" lon="5.7222">
        <ele>378.39999389648</ele>
        <time>2021-08-19T03:53:41.000Z</time>
      </trkpt>
      <trkpt lat="45.19808" lon="5.72223">
        <ele>379</ele>
        <time>2021-08-19T03:53:43.000Z</time>
      </trkpt>
      <trkpt lat="45.19806" lon="5.72226">
        <ele>379.60000610352</ele>
        <time>2021-08-19T03:53:45.000Z</time>
      </trkpt>
      <trkpt lat="45.19805" lon="5.7223">
        <ele>380.20001220703</ele>
        <time>2021-08-19T03:53:48.000Z</time>
      </trkpt>
      <trkpt lat="45.19804" lon="5.72233">
        <ele>380.60000610352</ele>
        <time>2021-08-19T03:53:50.000Z</time>
      </trkpt>
      <trkpt lat="45.19805" lon="5.72234">
        <ele>380.60000610352</ele>
        <time>2021-08-19T03:53:51.000Z</time>
      </trkpt>
      <trkpt lat="45.19808" lon="5.72235">
        <ele>380.79998779297</ele>
        <time>2021-08-19T03:53:52.000Z</time>
      </trkpt>
      <trkpt lat="45.19789" lon="5.72232">
        <ele>393.39999389648</ele>
        <time>2021-08-19T03:54:27.000Z</time>
      </trkpt>
      <trkpt lat="45.19829" lon="5.72242">
        <ele>394.79998779297</ele>
        <time>2021-08-19T03:54:30.000Z</time>
      </trkpt>
      <trkpt lat="45.19828" lon="5.72247">
        <ele>395.79998779297</ele>
        <time>2021-08-19T03:54:33.000Z</time>
      </trkpt>
      <trkpt lat="45.1983" lon="5.7225">
        <ele>395.79998779297</ele>
        <time>2021-08-19T03:54:34.000Z</time>
      </trkpt>
      <trkpt lat="45.19839" lon="5.72261">
        <ele>396</ele>
        <time>2021-08-19T03:54:37.000Z</time>
      </trkpt>
      <trkpt lat="45.19836" lon="5.72267">
        <ele>396</ele>
        <time>2021-08-19T03:54:39.000Z</time>
      </trkpt>
      <trkpt lat="45.19842" lon="5.72278">
        <ele>396.20001220703</ele>
        <time>2021-08-19T03:54:42.000Z</time>
      </trkpt>
      <trkpt lat="45.19842" lon="5.72282">
        <ele>396.20001220703</ele>
        <time>2021-08-19T03:54:43.000Z</time>
      </trkpt>
      <trkpt lat="45.19836" lon="5.72286">
        <ele>396.79998779297</ele>
        <time>2021-08-19T03:54:45.000Z</time>
      </trkpt>
      <trkpt lat="45.19836" lon="5.7229">
        <ele>397</ele>
        <time>2021-08-19T03:54:46.000Z</time>
      </trkpt>
      <trkpt lat="45.19832" lon="5.72294">
        <ele>397.20001220703</ele>
        <time>2021-08-19T03:54:48.000Z</time>
      </trkpt>
      <trkpt lat="45.19835" lon="5.72297">
        <ele>397.39999389648</ele>
        <time>2021-08-19T03:54:49.000Z</time>
      </trkpt>
      <trkpt lat="45.19835" lon="5.72303">
        <ele>397.60000610352</ele>
        <time>2021-08-19T03:54:51.000Z</time>
      </trkpt>
      <trkpt lat="45.19834" lon="5.72309">
        <ele>398.20001220703</ele>
        <time>2021-08-19T03:54:53.000Z</time>
      </trkpt>
      <trkpt lat="45.19832" lon="5.7231">
        <ele>398.20001220703</ele>
        <time>2021-08-19T03:54:54.000Z</time>
      </trkpt>
      <trkpt lat="45.1982" lon="5.72323">
        <ele>398.60000610352</ele>
        <time>2021-08-19T03:54:59.000Z</time>
      </trkpt>
      <trkpt lat="45.19818" lon="5.72326">
        <ele>398.60000610352</ele>
        <time>2021-08-19T03:55:00.000Z</time>
      </trkpt>
      <trkpt lat="45.19817" lon="5.72332">
        <ele>399.60000610352</ele>
        <time>2021-08-19T03:55:02.000Z</time>
      </trkpt>
      <trkpt lat="45.19819" lon="5.72335">
        <ele>399.39999389648</ele>
        <time>2021-08-19T03:55:03.000Z</time>
      </trkpt>
      <trkpt lat="45.19818" lon="5.72333">
        <ele>399.39999389648</ele>
        <time>2021-08-19T03:55:05.000Z</time>
      </trkpt>
      <trkpt lat="45.19821" lon="5.72331">
        <ele>399.39999389648</ele>
        <time>2021-08-19T03:55:07.000Z</time>
      </trkpt>
      <trkpt lat="45.19806" lon="5.72385">
        <ele>409.60000610352</ele>
        <time>2021-08-19T03:55:50.000Z</time>
      </trkpt>
      <trkpt lat="45.19793" lon="5.72382">
        <ele>409.39999389648</ele>
        <time>2021-08-19T03:55:51.000Z</time>
      </trkpt>
      <trkpt lat="45.19785" lon="5.72393">
        <ele>409.20001220703</ele>
        <time>2021-08-19T03:55:54.000Z</time>
      </trkpt>
      <trkpt lat="45.19789" lon="5.72399">
        <ele>409.39999389648</ele>
        <time>2021-08-19T03:55:55.000Z</time>
      </trkpt>
      <trkpt lat="45.19794" lon="5.72405">
        <ele>409.20001220703</ele>
        <time>2021-08-19T03:55:56.000Z</time>
      </trkpt>
      <trkpt lat="45.19793" lon="5.72429">
        <ele>409</ele>
        <time>2021-08-19T03:56:02.000Z</time>
      </trkpt>
      <trkpt lat="45.19788" lon="5.72431">
        <ele>409</ele>
        <time>2021-08-19T03:56:03.000Z</time>
      </trkpt>
      <trkpt lat="45.19787" lon="5.72434">
        <ele>408.60000610352</ele>
        <time>2021-08-19T03:56:04.000Z</time>
      </trkpt>
      <trkpt lat="45.19788" lon="5.72439">
        <ele>408.60000610352</ele>
        <time>2021-08-19T03:56:05.000Z</time>
      </trkpt>
      <trkpt lat="45.19791" lon="5.72444">
        <ele>408.60000610352</ele>
        <time>2021-08-19T03:56:06.000Z</time>
      </trkpt>
      <trkpt lat="45.19791" lon="5.72451">
        <ele>408.60000610352</ele>
        <time>2021-08-19T03:56:08.000Z</time>
      </trkpt>
      <trkpt lat="45.19793" lon="5.72459">
        <ele>409.20001220703</ele>
        <time>2021-08-19T03:56:10.000Z</time>
      </trkpt>
      <trkpt lat="45.19792" lon="5.72463">
        <ele>409.20001220703</ele>
        <time>2021-08-19T03:56:11.000Z</time>
      </trkpt>
      <trkpt lat="45.1979" lon="5.72466">
        <ele>409.39999389648</ele>
        <time>2021-08-19T03:56:12.000Z</time>
      </trkpt>
      <trkpt lat="45.1979" lon="5.72474">
        <ele>409.39999389648</ele>
        <time>2021-08-19T03:56:14.000Z</time>
      </trkpt>
      <trkpt lat="45.19792" lon="5.72483">
        <ele>409.60000610352</ele>
        <time>2021-08-19T03:56:16.000Z</time>
      </trkpt>
      <trkpt lat="45.19791" lon="5.72485">
        <ele>410</ele>
        <time>2021-08-19T03:56:17.000Z</time>
      </trkpt>
      <trkpt lat="45.1979" lon="5.72487">
        <ele>410.20001220703</ele>
        <time>2021-08-19T03:56:18.000Z</time>
      </trkpt>
      <trkpt lat="45.19789" lon="5.72494">
        <ele>410.20001220703</ele>
        <time>2021-08-19T03:56:20.000Z</time>
      </trkpt>
      <trkpt lat="45.19787" lon="5.72496">
        <ele>410.39999389648</ele>
        <time>2021-08-19T03:56:21.000Z</time>
      </trkpt>
      <trkpt lat="45.19785" lon="5.72499">
        <ele>410.39999389648</ele>
        <time>2021-08-19T03:56:22.000Z</time>
      </trkpt>
      <trkpt lat="45.19783" lon="5.72502">
        <ele>410.39999389648</ele>
        <time>2021-08-19T03:56:23.000Z</time>
      </trkpt>
      <trkpt lat="45.19783" lon="5.72509">
        <ele>410.60000610352</ele>
        <time>2021-08-19T03:56:25.000Z</time>
      </trkpt>
      <trkpt lat="45.19782" lon="5.72513">
        <ele>410.60000610352</ele>
        <time>2021-08-19T03:56:26.000Z</time>
      </trkpt>
      <trkpt lat="45.1978" lon="5.72515">
        <ele>410.79998779297</ele>
        <time>2021-08-19T03:56:27.000Z</time>
      </trkpt>
      <trkpt lat="45.19776" lon="5.7252">
        <ele>411.39999389648</ele>
        <time>2021-08-19T03:56:29.000Z</time>
      </trkpt>
      <trkpt lat="45.19775" lon="5.72522">
        <ele>411.79998779297</ele>
        <time>2021-08-19T03:56:30.000Z</time>
      </trkpt>
      <trkpt lat="45.19773" lon="5.72529">
        <ele>412.20001220703</ele>
        <time>2021-08-19T03:56:32.000Z</time>
      </trkpt>
      <trkpt lat="45.19771" lon="5.72536">
        <ele>412.39999389648</ele>
        <time>2021-08-19T03:56:34.000Z</time>
      </trkpt>
      <trkpt lat="45.1977" lon="5.72539">
        <ele>412.60000610352</ele>
        <time>2021-08-19T03:56:35.000Z</time>
      </trkpt>
      <trkpt lat="45.19769" lon="5.72545">
        <ele>413.20001220703</ele>
        <time>2021-08-19T03:56:37.000Z</time>
      </trkpt>
      <trkpt lat="45.19769" lon="5.72547">
        <ele>413.20001220703</ele>
        <time>2021-08-19T03:56:38.000Z</time>
      </trkpt>
      <trkpt lat="45.19772" lon="5.7255">
        <ele>413.60000610352</ele>
        <time>2021-08-19T03:56:39.000Z</time>
      </trkpt>
      <trkpt lat="45.19775" lon="5.72554">
        <ele>413.60000610352</ele>
        <time>2021-08-19T03:56:40.000Z</time>
      </trkpt>
      <trkpt lat="45.19777" lon="5.72556">
        <ele>413.60000610352</ele>
        <time>2021-08-19T03:56:41.000Z</time>
      </trkpt>
      <trkpt lat="45.1978" lon="5.72563">
        <ele>414.39999389648</ele>
        <time>2021-08-19T03:56:43.000Z</time>
      </trkpt>
      <trkpt lat="45.1978" lon="5.72566">
        <ele>414.60000610352</ele>
        <time>2021-08-19T03:56:44.000Z</time>
      </trkpt>
      <trkpt lat="45.19782" lon="5.72572">
        <ele>415.20001220703</ele>
        <time>2021-08-19T03:56:46.000Z</time>
      </trkpt>
      <trkpt lat="45.19784" lon="5.72579">
        <ele>415.79998779297</ele>
        <time>2021-08-19T03:56:49.000Z</time>
      </trkpt>
      <trkpt lat="45.19794" lon="5.72591">
        <ele>416.60000610352</ele>
        <time>2021-08-19T03:56:53.000Z</time>
      </trkpt>
      <trkpt lat="45.19795" lon="5.72591">
        <ele>417</ele>
        <time>2021-08-19T03:56:54.000Z</time>
      </trkpt>
      <trkpt lat="45.19794" lon="5.7259">
        <ele>417.39999389648</ele>
        <time>2021-08-19T03:56:55.000Z</time>
      </trkpt>
      <trkpt lat="45.19793" lon="5.72588">
        <ele>417.79998779297</ele>
        <time>2021-08-19T03:56:56.000Z</time>
      </trkpt>
      <trkpt lat="45.19793" lon="5.72586">
        <ele>418</ele>
        <time>2021-08-19T03:56:57.000Z</time>
      </trkpt>
      <trkpt lat="45.19797" lon="5.72581">
        <ele>418</ele>
        <time>2021-08-19T03:56:59.000Z</time>
      </trkpt>
      <trkpt lat="45.19798" lon="5.72579">
        <ele>418.39999389648</ele>
        <time>2021-08-19T03:57:00.000Z</time>
      </trkpt>
      <trkpt lat="45.19798" lon="5.72572">
        <ele>418.60000610352</ele>
        <time>2021-08-19T03:57:02.000Z</time>
      </trkpt>
      <trkpt lat="45.19798" lon="5.72568">
        <ele>419</ele>
        <time>2021-08-19T03:57:03.000Z</time>
      </trkpt>
      <trkpt lat="45.19796" lon="5.72555">
        <ele>419.60000610352</ele>
        <time>2021-08-19T03:57:07.000Z</time>
      </trkpt>
      <trkpt lat="45.19794" lon="5.72551">
        <ele>420</ele>
        <time>2021-08-19T03:57:08.000Z</time>
      </trkpt>
      <trkpt lat="45.19792" lon="5.72547">
        <ele>420.20001220703</ele>
        <time>2021-08-19T03:57:09.000Z</time>
      </trkpt>
      <trkpt lat="45.19788" lon="5.7254">
        <ele>420.60000610352</ele>
        <time>2021-08-19T03:57:11.000Z</time>
      </trkpt>
      <trkpt lat="45.19778" lon="5.72528">
        <ele>421.20001220703</ele>
        <time>2021-08-19T03:57:14.000Z</time>
      </trkpt>
      <trkpt lat="45.19776" lon="5.72524">
        <ele>421.60000610352</ele>
        <time>2021-08-19T03:57:15.000Z</time>
      </trkpt>
      <trkpt lat="45.19778" lon="5.72522">
        <ele>422</ele>
        <time>2021-08-19T03:57:17.000Z</time>
      </trkpt>
      <trkpt lat="45.1978" lon="5.72523">
        <ele>422.39999389648</ele>
        <time>2021-08-19T03:57:18.000Z</time>
      </trkpt>
      <trkpt lat="45.19782" lon="5.72526">
        <ele>422.79998779297</ele>
        <time>2021-08-19T03:57:20.000Z</time>
      </trkpt>
      <trkpt lat="45.19784" lon="5.72531">
        <ele>423.20001220703</ele>
        <time>2021-08-19T03:57:22.000Z</time>
      </trkpt>
      <trkpt lat="45.19785" lon="5.72534">
        <ele>423.60000610352</ele>
        <time>2021-08-19T03:57:23.000Z</time>
      </trkpt>
      <trkpt lat="45.19785" lon="5.72537">
        <ele>423.60000610352</ele>
        <time>2021-08-19T03:57:24.000Z</time>
      </trkpt>
      <trkpt lat="45.19785" lon="5.72543">
        <ele>424</ele>
        <time>2021-08-19T03:57:26.000Z</time>
      </trkpt>
      <trkpt lat="45.19782" lon="5.72552">
        <ele>424.39999389648</ele>
        <time>2021-08-19T03:57:29.000Z</time>
      </trkpt>
      <trkpt lat="45.19782" lon="5.72556">
        <ele>424.60000610352</ele>
        <time>2021-08-19T03:57:30.000Z</time>
      </trkpt>
      <trkpt lat="45.19782" lon="5.72559">
        <ele>425</ele>
        <time>2021-08-19T03:57:31.000Z</time>
      </trkpt>
      <trkpt lat="45.19781" lon="5.72569">
        <ele>425.39999389648</ele>
        <time>2021-08-19T03:57:34.000Z</time>
      </trkpt>
      <trkpt lat="45.1978" lon="5.72575">
        <ele>425.60000610352</ele>
        <time>2021-08-19T03:57:36.000Z</time>
      </trkpt>
      <trkpt lat="45.19779" lon="5.72582">
        <ele>426.20001220703</ele>
        <time>2021-08-19T03:57:38.000Z</time>
      </trkpt>
      <trkpt lat="45.19778" lon="5.72593">
        <ele>426.79998779297</ele>
        <time>2021-08-19T03:57:41.000Z</time>
      </trkpt>
      <trkpt lat="45.19779" lon="5.72601">
        <ele>427.60000610352</ele>
        <time>2021-08-19T03:57:44.000Z</time>
      </trkpt>
      <trkpt lat="45.19779" lon="5.72604">
        <ele>428</ele>
        <time>2021-08-19T03:57:45.000Z</time>
      </trkpt>
      <trkpt lat="45.19778" lon="5.7261">
        <ele>428</ele>
        <time>2021-08-19T03:57:47.000Z</time>
      </trkpt>
      <trkpt lat="45.19778" lon="5.72612">
        <ele>428.60000610352</ele>
        <time>2021-08-19T03:57:48.000Z</time>
      </trkpt>
      <trkpt lat="45.19781" lon="5.72616">
        <ele>428.79998779297</ele>
        <time>2021-08-19T03:57:50.000Z</time>
      </trkpt>
      <trkpt lat="45.19783" lon="5.72618">
        <ele>429</ele>
        <time>2021-08-19T03:57:51.000Z</time>
      </trkpt>
      <trkpt lat="45.19784" lon="5.72619">
        <ele>429.39999389648</ele>
        <time>2021-08-19T03:57:52.000Z</time>
      </trkpt>
      <trkpt lat="45.19783" lon="5.72624">
        <ele>429.79998779297</ele>
        <time>2021-08-19T03:57:55.000Z</time>
      </trkpt>
      <trkpt lat="45.19785" lon="5.72626">
        <ele>430</ele>
        <time>2021-08-19T03:57:56.000Z</time>
      </trkpt>
      <trkpt lat="45.19798" lon="5.72635">
        <ele>431.20001220703</ele>
        <time>2021-08-19T03:58:02.000Z</time>
      </trkpt>
      <trkpt lat="45.19803" lon="5.72636">
        <ele>431.60000610352</ele>
        <time>2021-08-19T03:58:04.000Z</time>
      </trkpt>
      <trkpt lat="45.19807" lon="5.72641">
        <ele>432</ele>
        <time>2021-08-19T03:58:06.000Z</time>
      </trkpt>
      <trkpt lat="45.19809" lon="5.72642">
        <ele>432.60000610352</ele>
        <time>2021-08-19T03:58:07.000Z</time>
      </trkpt>
      <trkpt lat="45.19817" lon="5.72646">
        <ele>433</ele>
        <time>2021-08-19T03:58:10.000Z</time>
      </trkpt>
      <trkpt lat="45.19819" lon="5.72648">
        <ele>433</ele>
        <time>2021-08-19T03:58:11.000Z</time>
      </trkpt>
      <trkpt lat="45.19822" lon="5.7265">
        <ele>433</ele>
        <time>2021-08-19T03:58:12.000Z</time>
      </trkpt>
      <trkpt lat="45.1983" lon="5.72656">
        <ele>433.60000610352</ele>
        <time>2021-08-19T03:58:15.000Z</time>
      </trkpt>
      <trkpt lat="45.19836" lon="5.72659">
        <ele>434</ele>
        <time>2021-08-19T03:58:17.000Z</time>
      </trkpt>
      <trkpt lat="45.19843" lon="5.72666">
        <ele>434.79998779297</ele>
        <time>2021-08-19T03:58:20.000Z</time>
      </trkpt>
      <trkpt lat="45.19849" lon="5.72671">
        <ele>435.39999389648</ele>
        <time>2021-08-19T03:58:23.000Z</time>
      </trkpt>
      <trkpt lat="45.19853" lon="5.72674">
        <ele>436</ele>
        <time>2021-08-19T03:58:26.000Z</time>
      </trkpt>
      <trkpt lat="45.19856" lon="5.72678">
        <ele>436.20001220703</ele>
        <time>2021-08-19T03:58:28.000Z</time>
      </trkpt>
      <trkpt lat="45.19863" lon="5.72681">
        <ele>437.20001220703</ele>
        <time>2021-08-19T03:58:32.000Z</time>
      </trkpt>
      <trkpt lat="45.19863" lon="5.72681">
        <ele>437.20001220703</ele>
        <time>2021-08-19T03:58:33.000Z</time>
      </trkpt>
      <trkpt lat="45.19859" lon="5.72673">
        <ele>438.39999389648</ele>
        <time>2021-08-19T03:58:38.000Z</time>
      </trkpt>
      <trkpt lat="45.19857" lon="5.72672">
        <ele>438.60000610352</ele>
        <time>2021-08-19T03:58:39.000Z</time>
      </trkpt>
      <trkpt lat="45.19857" lon="5.72671">
        <ele>439</ele>
        <time>2021-08-19T03:58:40.000Z</time>
      </trkpt>
      <trkpt lat="45.19857" lon="5.72667">
        <ele>439.39999389648</ele>
        <time>2021-08-19T03:58:42.000Z</time>
      </trkpt>
      <trkpt lat="45.19852" lon="5.72657">
        <ele>439.79998779297</ele>
        <time>2021-08-19T03:58:45.000Z</time>
      </trkpt>
      <trkpt lat="45.19851" lon="5.72655">
        <ele>440</ele>
        <time>2021-08-19T03:58:46.000Z</time>
      </trkpt>
      <trkpt lat="45.19849" lon="5.72652">
        <ele>440</ele>
        <time>2021-08-19T03:58:47.000Z</time>
      </trkpt>
      <trkpt lat="45.19847" lon="5.72649">
        <ele>440.79998779297</ele>
        <time>2021-08-19T03:58:48.000Z</time>
      </trkpt>
      <trkpt lat="45.19846" lon="5.72647">
        <ele>440.79998779297</ele>
        <time>2021-08-19T03:58:49.000Z</time>
      </trkpt>
      <trkpt lat="45.19844" lon="5.72645">
        <ele>440.79998779297</ele>
        <time>2021-08-19T03:58:50.000Z</time>
      </trkpt>
      <trkpt lat="45.19842" lon="5.72638">
        <ele>441.39999389648</ele>
        <time>2021-08-19T03:58:53.000Z</time>
      </trkpt>
      <trkpt lat="45.19843" lon="5.72636">
        <ele>441.39999389648</ele>
        <time>2021-08-19T03:58:54.000Z</time>
      </trkpt>
      <trkpt lat="45.19845" lon="5.72633">
        <ele>442.20001220703</ele>
        <time>2021-08-19T03:58:56.000Z</time>
      </trkpt>
      <trkpt lat="45.19849" lon="5.7263">
        <ele>442.39999389648</ele>
        <time>2021-08-19T03:58:58.000Z</time>
      </trkpt>
      <trkpt lat="45.19851" lon="5.72628">
        <ele>442.39999389648</ele>
        <time>2021-08-19T03:58:59.000Z</time>
      </trkpt>
      <trkpt lat="45.19854" lon="5.72623">
        <ele>442.79998779297</ele>
        <time>2021-08-19T03:59:01.000Z</time>
      </trkpt>
      <trkpt lat="45.19852" lon="5.72622">
        <ele>443</ele>
        <time>2021-08-19T03:59:02.000Z</time>
      </trkpt>
      <trkpt lat="45.19851" lon="5.7262">
        <ele>443.20001220703</ele>
        <time>2021-08-19T03:59:03.000Z</time>
      </trkpt>
      <trkpt lat="45.19855" lon="5.72617">
        <ele>443.79998779297</ele>
        <time>2021-08-19T03:59:05.000Z</time>
      </trkpt>
      <trkpt lat="45.19854" lon="5.72615">
        <ele>444</ele>
        <time>2021-08-19T03:59:06.000Z</time>
      </trkpt>
      <trkpt lat="45.19853" lon="5.72612">
        <ele>444.20001220703</ele>
        <time>2021-08-19T03:59:07.000Z</time>
      </trkpt>
      <trkpt lat="45.19849" lon="5.72604">
        <ele>444.79998779297</ele>
        <time>2021-08-19T03:59:09.000Z</time>
      </trkpt>
      <trkpt lat="45.19841" lon="5.72594">
        <ele>445.20001220703</ele>
        <time>2021-08-19T03:59:12.000Z</time>
      </trkpt>
      <trkpt lat="45.1984" lon="5.72591">
        <ele>445.39999389648</ele>
        <time>2021-08-19T03:59:13.000Z</time>
      </trkpt>
      <trkpt lat="45.19839" lon="5.72588">
        <ele>445.60000610352</ele>
        <time>2021-08-19T03:59:14.000Z</time>
      </trkpt>
      <trkpt lat="45.19839" lon="5.72585">
        <ele>446</ele>
        <time>2021-08-19T03:59:15.000Z</time>
      </trkpt>
      <trkpt lat="45.19843" lon="5.72577">
        <ele>446.20001220703</ele>
        <time>2021-08-19T03:59:17.000Z</time>
      </trkpt>
      <trkpt lat="45.19841" lon="5.72574">
        <ele>446.60000610352</ele>
        <time>2021-08-19T03:59:18.000Z</time>
      </trkpt>
      <trkpt lat="45.19838" lon="5.72569">
        <ele>446.60000610352</ele>
        <time>2021-08-19T03:59:19.000Z</time>
      </trkpt>
      <trkpt lat="45.19833" lon="5.72563">
        <ele>447.20001220703</ele>
        <time>2021-08-19T03:59:21.000Z</time>
      </trkpt>
      <trkpt lat="45.19832" lon="5.72559">
        <ele>447.39999389648</ele>
        <time>2021-08-19T03:59:22.000Z</time>
      </trkpt>
      <trkpt lat="45.19833" lon="5.72555">
        <ele>447.39999389648</ele>
        <time>2021-08-19T03:59:23.000Z</time>
      </trkpt>
      <trkpt lat="45.19832" lon="5.72552">
        <ele>447.60000610352</ele>
        <time>2021-08-19T03:59:24.000Z</time>
      </trkpt>
      <trkpt lat="45.19831" lon="5.72549">
        <ele>447.79998779297</ele>
        <time>2021-08-19T03:59:25.000Z</time>
      </trkpt>
      <trkpt lat="45.19827" lon="5.72543">
        <ele>448</ele>
        <time>2021-08-19T03:59:27.000Z</time>
      </trkpt>
      <trkpt lat="45.19827" lon="5.7254">
        <ele>448.39999389648</ele>
        <time>2021-08-19T03:59:28.000Z</time>
      </trkpt>
      <trkpt lat="45.19825" lon="5.72537">
        <ele>448.79998779297</ele>
        <time>2021-08-19T03:59:29.000Z</time>
      </trkpt>
      <trkpt lat="45.19824" lon="5.72526">
        <ele>449.39999389648</ele>
        <time>2021-08-19T03:59:32.000Z</time>
      </trkpt>
      <trkpt lat="45.19824" lon="5.72522">
        <ele>449.39999389648</ele>
        <time>2021-08-19T03:59:33.000Z</time>
      </trkpt>
      <trkpt lat="45.19825" lon="5.72519">
        <ele>449.79998779297</ele>
        <time>2021-08-19T03:59:34.000Z</time>
      </trkpt>
      <trkpt lat="45.19828" lon="5.72505">
        <ele>450.60000610352</ele>
        <time>2021-08-19T03:59:38.000Z</time>
      </trkpt>
      <trkpt lat="45.1983" lon="5.72503">
        <ele>450.79998779297</ele>
        <time>2021-08-19T03:59:39.000Z</time>
      </trkpt>
      <trkpt lat="45.19832" lon="5.725">
        <ele>451.20001220703</ele>
        <time>2021-08-19T03:59:40.000Z</time>
      </trkpt>
      <trkpt lat="45.19832" lon="5.7249">
        <ele>452</ele>
        <time>2021-08-19T03:59:43.000Z</time>
      </trkpt>
      <trkpt lat="45.19833" lon="5.72483">
        <ele>452.60000610352</ele>
        <time>2021-08-19T03:59:45.000Z</time>
      </trkpt>
      <trkpt lat="45.19836" lon="5.72477">
        <ele>452.60000610352</ele>
        <time>2021-08-19T03:59:47.000Z</time>
      </trkpt>
      <trkpt lat="45.19836" lon="5.72474">
        <ele>453</ele>
        <time>2021-08-19T03:59:48.000Z</time>
      </trkpt>
      <trkpt lat="45.19837" lon="5.72465">
        <ele>453.79998779297</ele>
        <time>2021-08-19T03:59:51.000Z</time>
      </trkpt>
      <trkpt lat="45.19837" lon="5.72462">
        <ele>454.20001220703</ele>
        <time>2021-08-19T03:59:52.000Z</time>
      </trkpt>
      <trkpt lat="45.19837" lon="5.72459">
        <ele>454.60000610352</ele>
        <time>2021-08-19T03:59:53.000Z</time>
      </trkpt>
      <trkpt lat="45.19837" lon="5.72456">
        <ele>454.79998779297</ele>
        <time>2021-08-19T03:59:54.000Z</time>
      </trkpt>
      <trkpt lat="45.19839" lon="5.72449">
        <ele>455.20001220703</ele>
        <time>2021-08-19T03:59:56.000Z</time>
      </trkpt>
      <trkpt lat="45.1984" lon="5.72446">
        <ele>455.39999389648</ele>
        <time>2021-08-19T03:59:57.000Z</time>
      </trkpt>
      <trkpt lat="45.19839" lon="5.72436">
        <ele>456</ele>
        <time>2021-08-19T04:00:00.000Z</time>
      </trkpt>
      <trkpt lat="45.19838" lon="5.72434">
        <ele>456</ele>
        <time>2021-08-19T04:00:01.000Z</time>
      </trkpt>
      <trkpt lat="45.19839" lon="5.72432">
        <ele>456.60000610352</ele>
        <time>2021-08-19T04:00:02.000Z</time>
      </trkpt>
      <trkpt lat="45.19842" lon="5.7243">
        <ele>456.79998779297</ele>
        <time>2021-08-19T04:00:04.000Z</time>
      </trkpt>
      <trkpt lat="45.19846" lon="5.72435">
        <ele>457.79998779297</ele>
        <time>2021-08-19T04:00:07.000Z</time>
      </trkpt>
      <trkpt lat="45.19848" lon="5.72439">
        <ele>457.79998779297</ele>
        <time>2021-08-19T04:00:08.000Z</time>
      </trkpt>
      <trkpt lat="45.19847" lon="5.72443">
        <ele>458</ele>
        <time>2021-08-19T04:00:09.000Z</time>
      </trkpt>
      <trkpt lat="45.19845" lon="5.72446">
        <ele>458</ele>
        <time>2021-08-19T04:00:10.000Z</time>
      </trkpt>
      <trkpt lat="45.19842" lon="5.72452">
        <ele>458.79998779297</ele>
        <time>2021-08-19T04:00:12.000Z</time>
      </trkpt>
      <trkpt lat="45.1984" lon="5.72458">
        <ele>459.39999389648</ele>
        <time>2021-08-19T04:00:14.000Z</time>
      </trkpt>
      <trkpt lat="45.19841" lon="5.72462">
        <ele>459.39999389648</ele>
        <time>2021-08-19T04:00:15.000Z</time>
      </trkpt>
      <trkpt lat="45.19841" lon="5.72465">
        <ele>459.60000610352</ele>
        <time>2021-08-19T04:00:16.000Z</time>
      </trkpt>
      <trkpt lat="45.19842" lon="5.72473">
        <ele>460.20001220703</ele>
        <time>2021-08-19T04:00:18.000Z</time>
      </trkpt>
      <trkpt lat="45.19841" lon="5.72477">
        <ele>460.20001220703</ele>
        <time>2021-08-19T04:00:19.000Z</time>
      </trkpt>
      <trkpt lat="45.19844" lon="5.72485">
        <ele>460.60000610352</ele>
        <time>2021-08-19T04:00:21.000Z</time>
      </trkpt>
      <trkpt lat="45.19843" lon="5.72489">
        <ele>460.79998779297</ele>
        <time>2021-08-19T04:00:22.000Z</time>
      </trkpt>
      <trkpt lat="45.19845" lon="5.72494">
        <ele>461.20001220703</ele>
        <time>2021-08-19T04:00:23.000Z</time>
      </trkpt>
      <trkpt lat="45.19846" lon="5.72498">
        <ele>461.60000610352</ele>
        <time>2021-08-19T04:00:24.000Z</time>
      </trkpt>
      <trkpt lat="45.19846" lon="5.72511">
        <ele>462.39999389648</ele>
        <time>2021-08-19T04:00:28.000Z</time>
      </trkpt>
      <trkpt lat="45.19847" lon="5.72514">
        <ele>462.60000610352</ele>
        <time>2021-08-19T04:00:29.000Z</time>
      </trkpt>
      <trkpt lat="45.19849" lon="5.72521">
        <ele>463</ele>
        <time>2021-08-19T04:00:31.000Z</time>
      </trkpt>
      <trkpt lat="45.19852" lon="5.72528">
        <ele>463.20001220703</ele>
        <time>2021-08-19T04:00:33.000Z</time>
      </trkpt>
      <trkpt lat="45.19852" lon="5.7253">
        <ele>463.39999389648</ele>
        <time>2021-08-19T04:00:34.000Z</time>
      </trkpt>
      <trkpt lat="45.19852" lon="5.72532">
        <ele>463.60000610352</ele>
        <time>2021-08-19T04:00:35.000Z</time>
      </trkpt>
      <trkpt lat="45.19852" lon="5.72534">
        <ele>463.60000610352</ele>
        <time>2021-08-19T04:00:36.000Z</time>
      </trkpt>
      <trkpt lat="45.19846" lon="5.72537">
        <ele>464</ele>
        <time>2021-08-19T04:00:38.000Z</time>
      </trkpt>
      <trkpt lat="45.19842" lon="5.72544">
        <ele>464.79998779297</ele>
        <time>2021-08-19T04:00:41.000Z</time>
      </trkpt>
      <trkpt lat="45.19842" lon="5.72547">
        <ele>464.79998779297</ele>
        <time>2021-08-19T04:00:42.000Z</time>
      </trkpt>
      <trkpt lat="45.19843" lon="5.7255">
        <ele>464.79998779297</ele>
        <time>2021-08-19T04:00:43.000Z</time>
      </trkpt>
      <trkpt lat="45.19845" lon="5.72553">
        <ele>465.60000610352</ele>
        <time>2021-08-19T04:00:45.000Z</time>
      </trkpt>
      <trkpt lat="45.19844" lon="5.72553">
        <ele>465.79998779297</ele>
        <time>2021-08-19T04:00:46.000Z</time>
      </trkpt>
      <trkpt lat="45.19846" lon="5.72551">
        <ele>466</ele>
        <time>2021-08-19T04:00:48.000Z</time>
      </trkpt>
      <trkpt lat="45.19845" lon="5.72546">
        <ele>466.60000610352</ele>
        <time>2021-08-19T04:00:50.000Z</time>
      </trkpt>
      <trkpt lat="45.19845" lon="5.7254">
        <ele>466.79998779297</ele>
        <time>2021-08-19T04:00:52.000Z</time>
      </trkpt>
      <trkpt lat="45.19853" lon="5.72527">
        <ele>467.60000610352</ele>
        <time>2021-08-19T04:00:56.000Z</time>
      </trkpt>
      <trkpt lat="45.19855" lon="5.72523">
        <ele>467.60000610352</ele>
        <time>2021-08-19T04:00:57.000Z</time>
      </trkpt>
      <trkpt lat="45.19855" lon="5.72519">
        <ele>467.79998779297</ele>
        <time>2021-08-19T04:00:58.000Z</time>
      </trkpt>
      <trkpt lat="45.19855" lon="5.72516">
        <ele>468.20001220703</ele>
        <time>2021-08-19T04:00:59.000Z</time>
      </trkpt>
      <trkpt lat="45.19853" lon="5.72509">
        <ele>468.79998779297</ele>
        <time>2021-08-19T04:01:01.000Z</time>
      </trkpt>
      <trkpt lat="45.19853" lon="5.72506">
        <ele>468.79998779297</ele>
        <time>2021-08-19T04:01:02.000Z</time>
      </trkpt>
      <trkpt lat="45.19853" lon="5.72498">
        <ele>469.20001220703</ele>
        <time>2021-08-19T04:01:04.000Z</time>
      </trkpt>
      <trkpt lat="45.19854" lon="5.72489">
        <ele>469.20001220703</ele>
        <time>2021-08-19T04:01:06.000Z</time>
      </trkpt>
      <trkpt lat="45.19856" lon="5.72485">
        <ele>470</ele>
        <time>2021-08-19T04:01:09.000Z</time>
      </trkpt>
      <trkpt lat="45.19857" lon="5.72485">
        <ele>470</ele>
        <time>2021-08-19T04:01:10.000Z</time>
      </trkpt>
      <trkpt lat="45.19858" lon="5.72484">
        <ele>470.20001220703</ele>
        <time>2021-08-19T04:01:11.000Z</time>
      </trkpt>
      <trkpt lat="45.1986" lon="5.72483">
        <ele>470.39999389648</ele>
        <time>2021-08-19T04:01:12.000Z</time>
      </trkpt>
      <trkpt lat="45.19861" lon="5.72482">
        <ele>471.60000610352</ele>
        <time>2021-08-19T04:01:13.000Z</time>
      </trkpt>
      <trkpt lat="45.19862" lon="5.72482">
        <ele>471.79998779297</ele>
        <time>2021-08-19T04:01:14.000Z</time>
      </trkpt>
      <trkpt lat="45.19863" lon="5.72481">
        <ele>472</ele>
        <time>2021-08-19T04:01:15.000Z</time>
      </trkpt>
      <trkpt lat="45.19864" lon="5.7248">
        <ele>473.39999389648</ele>
        <time>2021-08-19T04:01:17.000Z</time>
      </trkpt>
      <trkpt lat="45.19866" lon="5.72479">
        <ele>474</ele>
        <time>2021-08-19T04:01:19.000Z</time>
      </trkpt>
      <trkpt lat="45.19867" lon="5.72478">
        <ele>474.39999389648</ele>
        <time>2021-08-19T04:01:20.000Z</time>
      </trkpt>
      <trkpt lat="45.19869" lon="5.72477">
        <ele>475.60000610352</ele>
        <time>2021-08-19T04:01:22.000Z</time>
      </trkpt>
      <trkpt lat="45.19872" lon="5.72477">
        <ele>475.60000610352</ele>
        <time>2021-08-19T04:01:24.000Z</time>
      </trkpt>
      <trkpt lat="45.19873" lon="5.72475">
        <ele>476.79998779297</ele>
        <time>2021-08-19T04:01:27.000Z</time>
      </trkpt>
      <trkpt lat="45.19874" lon="5.72474">
        <ele>477.20001220703</ele>
        <time>2021-08-19T04:01:28.000Z</time>
      </trkpt>
      <trkpt lat="45.19876" lon="5.72474">
        <ele>477.39999389648</ele>
        <time>2021-08-19T04:01:30.000Z</time>
      </trkpt>
      <trkpt lat="45.19876" lon="5.72473">
        <ele>478.79998779297</ele>
        <time>2021-08-19T04:01:31.000Z</time>
      </trkpt>
      <trkpt lat="45.19878" lon="5.72475">
        <ele>479.20001220703</ele>
        <time>2021-08-19T04:01:33.000Z</time>
      </trkpt>
      <trkpt lat="45.19877" lon="5.72477">
        <ele>479.20001220703</ele>
        <time>2021-08-19T04:01:34.000Z</time>
      </trkpt>
      <trkpt lat="45.1988" lon="5.72484">
        <ele>479.20001220703</ele>
        <time>2021-08-19T04:01:36.000Z</time>
      </trkpt>
      <trkpt lat="45.19886" lon="5.72499">
        <ele>479.20001220703</ele>
        <time>2021-08-19T04:01:40.000Z</time>
      </trkpt>
      <trkpt lat="45.19896" lon="5.72518">
        <ele>479.60000610352</ele>
        <time>2021-08-19T04:01:46.000Z</time>
      </trkpt>
      <trkpt lat="45.19899" lon="5.72526">
        <ele>479.60000610352</ele>
        <time>2021-08-19T04:01:49.000Z</time>
      </trkpt>
      <trkpt lat="45.19898" lon="5.72527">
        <ele>479.60000610352</ele>
        <time>2021-08-19T04:01:50.000Z</time>
      </trkpt>
      <trkpt lat="45.19898" lon="5.72528">
        <ele>480</ele>
        <time>2021-08-19T04:01:51.000Z</time>
      </trkpt>
      <trkpt lat="45.19896" lon="5.72534">
        <ele>481.20001220703</ele>
        <time>2021-08-19T04:01:55.000Z</time>
      </trkpt>
      <trkpt lat="45.19895" lon="5.72536">
        <ele>482.39999389648</ele>
        <time>2021-08-19T04:01:56.000Z</time>
      </trkpt>
      <trkpt lat="45.19894" lon="5.72541">
        <ele>482.60000610352</ele>
        <time>2021-08-19T04:01:59.000Z</time>
      </trkpt>
      <trkpt lat="45.19893" lon="5.72543">
        <ele>483.79998779297</ele>
        <time>2021-08-19T04:02:00.000Z</time>
      </trkpt>
      <trkpt lat="45.19893" lon="5.72546">
        <ele>484.20001220703</ele>
        <time>2021-08-19T04:02:02.000Z</time>
      </trkpt>
      <trkpt lat="45.19893" lon="5.72548">
        <ele>484.79998779297</ele>
        <time>2021-08-19T04:02:03.000Z</time>
      </trkpt>
      <trkpt lat="45.19894" lon="5.7255">
        <ele>485</ele>
        <time>2021-08-19T04:02:04.000Z</time>
      </trkpt>
      <trkpt lat="45.19895" lon="5.72562">
        <ele>485</ele>
        <time>2021-08-19T04:02:08.000Z</time>
      </trkpt>
      <trkpt lat="45.19889" lon="5.72566">
        <ele>484.79998779297</ele>
        <time>2021-08-19T04:02:11.000Z</time>
      </trkpt>
      <trkpt lat="45.19888" lon="5.72564">
        <ele>484.79998779297</ele>
        <time>2021-08-19T04:02:12.000Z</time>
      </trkpt>
      <trkpt lat="45.19887" lon="5.72559">
        <ele>484.79998779297</ele>
        <time>2021-08-19T04:02:14.000Z</time>
      </trkpt>
      <trkpt lat="45.19887" lon="5.72553">
        <ele>484.60000610352</ele>
        <time>2021-08-19T04:02:16.000Z</time>
      </trkpt>
      <trkpt lat="45.19888" lon="5.72544">
        <ele>484.79998779297</ele>
        <time>2021-08-19T04:02:19.000Z</time>
      </trkpt>
      <trkpt lat="45.19885" lon="5.72521">
        <ele>485.20001220703</ele>
        <time>2021-08-19T04:02:25.000Z</time>
      </trkpt>
      <trkpt lat="45.19883" lon="5.72502">
        <ele>484.79998779297</ele>
        <time>2021-08-19T04:02:31.000Z</time>
      </trkpt>
      <trkpt lat="45.19885" lon="5.725">
        <ele>484.79998779297</ele>
        <time>2021-08-19T04:02:33.000Z</time>
      </trkpt>
      <trkpt lat="45.19887" lon="5.72503">
        <ele>484.79998779297</ele>
        <time>2021-08-19T04:02:34.000Z</time>
      </trkpt>
      <trkpt lat="45.19888" lon="5.72518">
        <ele>484.79998779297</ele>
        <time>2021-08-19T04:02:38.000Z</time>
      </trkpt>
      <trkpt lat="45.1989" lon="5.72526">
        <ele>484.79998779297</ele>
        <time>2021-08-19T04:02:40.000Z</time>
      </trkpt>
      <trkpt lat="45.19891" lon="5.72547">
        <ele>484.60000610352</ele>
        <time>2021-08-19T04:02:46.000Z</time>
      </trkpt>
      <trkpt lat="45.19892" lon="5.72547">
        <ele>484.20001220703</ele>
        <time>2021-08-19T04:02:49.000Z</time>
      </trkpt>
      <trkpt lat="45.19894" lon="5.72544">
        <ele>483.20001220703</ele>
        <time>2021-08-19T04:02:52.000Z</time>
      </trkpt>
      <trkpt lat="45.19894" lon="5.72542">
        <ele>483</ele>
        <time>2021-08-19T04:02:53.000Z</time>
      </trkpt>
      <trkpt lat="45.19895" lon="5.72541">
        <ele>482.39999389648</ele>
        <time>2021-08-19T04:02:54.000Z</time>
      </trkpt>
      <trkpt lat="45.19896" lon="5.7254">
        <ele>482</ele>
        <time>2021-08-19T04:02:55.000Z</time>
      </trkpt>
      <trkpt lat="45.19895" lon="5.72538">
        <ele>481.79998779297</ele>
        <time>2021-08-19T04:02:56.000Z</time>
      </trkpt>
      <trkpt lat="45.19895" lon="5.72537">
        <ele>481.20001220703</ele>
        <time>2021-08-19T04:02:57.000Z</time>
      </trkpt>
      <trkpt lat="45.19895" lon="5.72536">
        <ele>480.60000610352</ele>
        <time>2021-08-19T04:02:58.000Z</time>
      </trkpt>
      <trkpt lat="45.19895" lon="5.72535">
        <ele>479.79998779297</ele>
        <time>2021-08-19T04:03:00.000Z</time>
      </trkpt>
      <trkpt lat="45.19897" lon="5.72536">
        <ele>479.79998779297</ele>
        <time>2021-08-19T04:03:01.000Z</time>
      </trkpt>
      <trkpt lat="45.19899" lon="5.72538">
        <ele>479.60000610352</ele>
        <time>2021-08-19T04:03:02.000Z</time>
      </trkpt>
      <trkpt lat="45.199" lon="5.72545">
        <ele>479.39999389648</ele>
        <time>2021-08-19T04:03:04.000Z</time>
      </trkpt>
      <trkpt lat="45.199" lon="5.72548">
        <ele>479.39999389648</ele>
        <time>2021-08-19T04:03:05.000Z</time>
      </trkpt>
      <trkpt lat="45.19905" lon="5.72567">
        <ele>479.20001220703</ele>
        <time>2021-08-19T04:03:10.000Z</time>
      </trkpt>
      <trkpt lat="45.19905" lon="5.72571">
        <ele>479</ele>
        <time>2021-08-19T04:03:11.000Z</time>
      </trkpt>
      <trkpt lat="45.19903" lon="5.7258">
        <ele>479</ele>
        <time>2021-08-19T04:03:14.000Z</time>
      </trkpt>
      <trkpt lat="45.19909" lon="5.72579">
        <ele>479.39999389648</ele>
        <time>2021-08-19T04:03:18.000Z</time>
      </trkpt>
      <trkpt lat="45.1991" lon="5.72574">
        <ele>479.39999389648</ele>
        <time>2021-08-19T04:03:20.000Z</time>
      </trkpt>
      <trkpt lat="45.19906" lon="5.72566">
        <ele>479.39999389648</ele>
        <time>2021-08-19T04:03:22.000Z</time>
      </trkpt>
      <trkpt lat="45.19901" lon="5.72556">
        <ele>479.60000610352</ele>
        <time>2021-08-19T04:03:24.000Z</time>
      </trkpt>
      <trkpt lat="45.19899" lon="5.72551">
        <ele>479.39999389648</ele>
        <time>2021-08-19T04:03:25.000Z</time>
      </trkpt>
      <trkpt lat="45.19888" lon="5.7253">
        <ele>479.79998779297</ele>
        <time>2021-08-19T04:03:30.000Z</time>
      </trkpt>
      <trkpt lat="45.19883" lon="5.72522">
        <ele>480</ele>
        <time>2021-08-19T04:03:32.000Z</time>
      </trkpt>
      <trkpt lat="45.19878" lon="5.72513">
        <ele>479.79998779297</ele>
        <time>2021-08-19T04:03:34.000Z</time>
      </trkpt>
      <trkpt lat="45.19877" lon="5.72499">
        <ele>480</ele>
        <time>2021-08-19T04:03:38.000Z</time>
      </trkpt>
      <trkpt lat="45.19877" lon="5.72497">
        <ele>479.79998779297</ele>
        <time>2021-08-19T04:03:39.000Z</time>
      </trkpt>
      <trkpt lat="45.19879" lon="5.72491">
        <ele>479.79998779297</ele>
        <time>2021-08-19T04:03:41.000Z</time>
      </trkpt>
      <trkpt lat="45.19878" lon="5.72484">
        <ele>480</ele>
        <time>2021-08-19T04:03:43.000Z</time>
      </trkpt>
      <trkpt lat="45.19871" lon="5.7248">
        <ele>479.60000610352</ele>
        <time>2021-08-19T04:03:46.000Z</time>
      </trkpt>
      <trkpt lat="45.19869" lon="5.72481">
        <ele>479</ele>
        <time>2021-08-19T04:03:49.000Z</time>
      </trkpt>
      <trkpt lat="45.19869" lon="5.72481">
        <ele>478</ele>
        <time>2021-08-19T04:03:51.000Z</time>
      </trkpt>
      <trkpt lat="45.19868" lon="5.72481">
        <ele>478</ele>
        <time>2021-08-19T04:03:52.000Z</time>
      </trkpt>
      <trkpt lat="45.19868" lon="5.7248">
        <ele>476.60000610352</ele>
        <time>2021-08-19T04:03:54.000Z</time>
      </trkpt>
      <trkpt lat="45.19865" lon="5.72481">
        <ele>475.60000610352</ele>
        <time>2021-08-19T04:03:57.000Z</time>
      </trkpt>
      <trkpt lat="45.19866" lon="5.72483">
        <ele>474.39999389648</ele>
        <time>2021-08-19T04:04:00.000Z</time>
      </trkpt>
      <trkpt lat="45.19869" lon="5.72484">
        <ele>473</ele>
        <time>2021-08-19T04:04:02.000Z</time>
      </trkpt>
      <trkpt lat="45.19869" lon="5.72483">
        <ele>472</ele>
        <time>2021-08-19T04:04:04.000Z</time>
      </trkpt>
      <trkpt lat="45.19868" lon="5.72485">
        <ele>471.39999389648</ele>
        <time>2021-08-19T04:04:06.000Z</time>
      </trkpt>
      <trkpt lat="45.19869" lon="5.72485">
        <ele>470.79998779297</ele>
        <time>2021-08-19T04:04:07.000Z</time>
      </trkpt>
      <trkpt lat="45.19867" lon="5.72485">
        <ele>470</ele>
        <time>2021-08-19T04:04:08.000Z</time>
      </trkpt>
      <trkpt lat="45.19869" lon="5.72481">
        <ele>470</ele>
        <time>2021-08-19T04:04:10.000Z</time>
      </trkpt>
      <trkpt lat="45.19876" lon="5.72475">
        <ele>470</ele>
        <time>2021-08-19T04:04:14.000Z</time>
      </trkpt>
      <trkpt lat="45.19876" lon="5.72473">
        <ele>470.20001220703</ele>
        <time>2021-08-19T04:04:15.000Z</time>
      </trkpt>
      <trkpt lat="45.19874" lon="5.7247">
        <ele>470.39999389648</ele>
        <time>2021-08-19T04:04:18.000Z</time>
      </trkpt>
      <trkpt lat="45.19868" lon="5.72467">
        <ele>470.79998779297</ele>
        <time>2021-08-19T04:04:20.000Z</time>
      </trkpt>
      <trkpt lat="45.19864" lon="5.72463">
        <ele>470.60000610352</ele>
        <time>2021-08-19T04:04:22.000Z</time>
      </trkpt>
      <trkpt lat="45.19862" lon="5.72461">
        <ele>470.39999389648</ele>
        <time>2021-08-19T04:04:23.000Z</time>
      </trkpt>
      <trkpt lat="45.19862" lon="5.72459">
        <ele>470.20001220703</ele>
        <time>2021-08-19T04:04:25.000Z</time>
      </trkpt>
      <trkpt lat="45.19863" lon="5.72458">
        <ele>470.20001220703</ele>
        <time>2021-08-19T04:04:26.000Z</time>
      </trkpt>
      <trkpt lat="45.19861" lon="5.72452">
        <ele>470.20001220703</ele>
        <time>2021-08-19T04:04:28.000Z</time>
      </trkpt>
      <trkpt lat="45.19859" lon="5.72446">
        <ele>470</ele>
        <time>2021-08-19T04:04:30.000Z</time>
      </trkpt>
      <trkpt lat="45.1986" lon="5.72443">
        <ele>469.79998779297</ele>
        <time>2021-08-19T04:04:31.000Z</time>
      </trkpt>
      <trkpt lat="45.19867" lon="5.7244">
        <ele>469.79998779297</ele>
        <time>2021-08-19T04:04:33.000Z</time>
      </trkpt>
      <trkpt lat="45.1987" lon="5.72439">
        <ele>469</ele>
        <time>2021-08-19T04:04:34.000Z</time>
      </trkpt>
      <trkpt lat="45.19874" lon="5.72438">
        <ele>468.79998779297</ele>
        <time>2021-08-19T04:04:35.000Z</time>
      </trkpt>
      <trkpt lat="45.19881" lon="5.72437">
        <ele>467.60000610352</ele>
        <time>2021-08-19T04:04:37.000Z</time>
      </trkpt>
      <trkpt lat="45.19892" lon="5.72433">
        <ele>467</ele>
        <time>2021-08-19T04:04:40.000Z</time>
      </trkpt>
      <trkpt lat="45.19903" lon="5.72429">
        <ele>466.39999389648</ele>
        <time>2021-08-19T04:04:44.000Z</time>
      </trkpt>
      <trkpt lat="45.19916" lon="5.72424">
        <ele>466.20001220703</ele>
        <time>2021-08-19T04:04:47.000Z</time>
      </trkpt>
      <trkpt lat="45.19935" lon="5.72419">
        <ele>466.20001220703</ele>
        <time>2021-08-19T04:04:52.000Z</time>
      </trkpt>
      <trkpt lat="45.19941" lon="5.7242">
        <ele>466.20001220703</ele>
        <time>2021-08-19T04:04:53.000Z</time>
      </trkpt>
      <trkpt lat="45.1996" lon="5.7242">
        <ele>467.39999389648</ele>
        <time>2021-08-19T04:04:59.000Z</time>
      </trkpt>
      <trkpt lat="45.19963" lon="5.7242">
        <ele>467.60000610352</ele>
        <time>2021-08-19T04:05:00.000Z</time>
      </trkpt>
      <trkpt lat="45.19968" lon="5.72419">
        <ele>467.79998779297</ele>
        <time>2021-08-19T04:05:02.000Z</time>
      </trkpt>
      <trkpt lat="45.19982" lon="5.72419">
        <ele>469.60000610352</ele>
        <time>2021-08-19T04:05:07.000Z</time>
      </trkpt>
      <trkpt lat="45.19991" lon="5.7242">
        <ele>470</ele>
        <time>2021-08-19T04:05:10.000Z</time>
      </trkpt>
      <trkpt lat="45.19995" lon="5.7242">
        <ele>470.79998779297</ele>
        <time>2021-08-19T04:05:12.000Z</time>
      </trkpt>
      <trkpt lat="45.20001" lon="5.72421">
        <ele>470.79998779297</ele>
        <time>2021-08-19T04:05:14.000Z</time>
      </trkpt>
      <trkpt lat="45.20009" lon="5.72421">
        <ele>471.79998779297</ele>
        <time>2021-08-19T04:05:17.000Z</time>
      </trkpt>
      <trkpt lat="45.20018" lon="5.72423">
        <ele>472.60000610352</ele>
        <time>2021-08-19T04:05:20.000Z</time>
      </trkpt>
      <trkpt lat="45.20023" lon="5.72423">
        <ele>472.79998779297</ele>
        <time>2021-08-19T04:05:22.000Z</time>
      </trkpt>
      <trkpt lat="45.20034" lon="5.72424">
        <ele>474.20001220703</ele>
        <time>2021-08-19T04:05:26.000Z</time>
      </trkpt>
      <trkpt lat="45.20035" lon="5.72424">
        <ele>474.20001220703</ele>
        <time>2021-08-19T04:05:27.000Z</time>
      </trkpt>
      <trkpt lat="45.20046" lon="5.72425">
        <ele>474.79998779297</ele>
        <time>2021-08-19T04:05:32.000Z</time>
      </trkpt>
      <trkpt lat="45.2005" lon="5.72426">
        <ele>475.20001220703</ele>
        <time>2021-08-19T04:05:34.000Z</time>
      </trkpt>
      <trkpt lat="45.20055" lon="5.72427">
        <ele>476.39999389648</ele>
        <time>2021-08-19T04:05:37.000Z</time>
      </trkpt>
      <trkpt lat="45.20067" lon="5.72429">
        <ele>477.39999389648</ele>
        <time>2021-08-19T04:05:42.000Z</time>
      </trkpt>
      <trkpt lat="45.20069" lon="5.7243">
        <ele>477.79998779297</ele>
        <time>2021-08-19T04:05:43.000Z</time>
      </trkpt>
      <trkpt lat="45.20076" lon="5.72436">
        <ele>478.60000610352</ele>
        <time>2021-08-19T04:05:46.000Z</time>
      </trkpt>
      <trkpt lat="45.20078" lon="5.72438">
        <ele>478.79998779297</ele>
        <time>2021-08-19T04:05:47.000Z</time>
      </trkpt>
      <trkpt lat="45.20082" lon="5.72443">
        <ele>479.20001220703</ele>
        <time>2021-08-19T04:05:49.000Z</time>
      </trkpt>
      <trkpt lat="45.20084" lon="5.72447">
        <ele>479.60000610352</ele>
        <time>2021-08-19T04:05:50.000Z</time>
      </trkpt>
      <trkpt lat="45.20088" lon="5.72454">
        <ele>480.20001220703</ele>
        <time>2021-08-19T04:05:52.000Z</time>
      </trkpt>
      <trkpt lat="45.20088" lon="5.72459">
        <ele>480.79998779297</ele>
        <time>2021-08-19T04:05:54.000Z</time>
      </trkpt>
      <trkpt lat="45.20088" lon="5.72462">
        <ele>481</ele>
        <time>2021-08-19T04:05:55.000Z</time>
      </trkpt>
      <trkpt lat="45.20086" lon="5.72469">
        <ele>481.60000610352</ele>
        <time>2021-08-19T04:05:58.000Z</time>
      </trkpt>
      <trkpt lat="45.20086" lon="5.72472">
        <ele>481.79998779297</ele>
        <time>2021-08-19T04:05:59.000Z</time>
      </trkpt>
      <trkpt lat="45.20086" lon="5.72476">
        <ele>481.79998779297</ele>
        <time>2021-08-19T04:06:00.000Z</time>
      </trkpt>
      <trkpt lat="45.20085" lon="5.72487">
        <ele>482.39999389648</ele>
        <time>2021-08-19T04:06:03.000Z</time>
      </trkpt>
      <trkpt lat="45.20084" lon="5.72491">
        <ele>482.20001220703</ele>
        <time>2021-08-19T04:06:04.000Z</time>
      </trkpt>
      <trkpt lat="45.20084" lon="5.72496">
        <ele>482.79998779297</ele>
        <time>2021-08-19T04:06:05.000Z</time>
      </trkpt>
      <trkpt lat="45.20084" lon="5.725">
        <ele>483.20001220703</ele>
        <time>2021-08-19T04:06:06.000Z</time>
      </trkpt>
      <trkpt lat="45.20079" lon="5.72513">
        <ele>483.39999389648</ele>
        <time>2021-08-19T04:06:10.000Z</time>
      </trkpt>
      <trkpt lat="45.20079" lon="5.7253">
        <ele>483.79998779297</ele>
        <time>2021-08-19T04:06:15.000Z</time>
      </trkpt>
      <trkpt lat="45.20084" lon="5.72538">
        <ele>483.60000610352</ele>
        <time>2021-08-19T04:06:19.000Z</time>
      </trkpt>
      <trkpt lat="45.20088" lon="5.72541">
        <ele>483.79998779297</ele>
        <time>2021-08-19T04:06:21.000Z</time>
      </trkpt>
      <trkpt lat="45.20093" lon="5.72542">
        <ele>484.39999389648</ele>
        <time>2021-08-19T04:06:24.000Z</time>
      </trkpt>
      <trkpt lat="45.20094" lon="5.72541">
        <ele>485</ele>
        <time>2021-08-19T04:06:26.000Z</time>
      </trkpt>
      <trkpt lat="45.20096" lon="5.72541">
        <ele>485.60000610352</ele>
        <time>2021-08-19T04:06:28.000Z</time>
      </trkpt>
      <trkpt lat="45.20102" lon="5.72541">
        <ele>487.20001220703</ele>
        <time>2021-08-19T04:06:31.000Z</time>
      </trkpt>
      <trkpt lat="45.20103" lon="5.72541">
        <ele>487.39999389648</ele>
        <time>2021-08-19T04:06:32.000Z</time>
      </trkpt>
      <trkpt lat="45.20105" lon="5.72541">
        <ele>488.39999389648</ele>
        <time>2021-08-19T04:06:34.000Z</time>
      </trkpt>
      <trkpt lat="45.2011" lon="5.72542">
        <ele>489.20001220703</ele>
        <time>2021-08-19T04:06:37.000Z</time>
      </trkpt>
      <trkpt lat="45.20111" lon="5.72542">
        <ele>489.79998779297</ele>
        <time>2021-08-19T04:06:38.000Z</time>
      </trkpt>
      <trkpt lat="45.20118" lon="5.72543">
        <ele>490.60000610352</ele>
        <time>2021-08-19T04:06:42.000Z</time>
      </trkpt>
      <trkpt lat="45.20121" lon="5.72543">
        <ele>491</ele>
        <time>2021-08-19T04:06:44.000Z</time>
      </trkpt>
      <trkpt lat="45.20121" lon="5.72541">
        <ele>491.79998779297</ele>
        <time>2021-08-19T04:06:46.000Z</time>
      </trkpt>
      <trkpt lat="45.20121" lon="5.7254">
        <ele>492</ele>
        <time>2021-08-19T04:06:47.000Z</time>
      </trkpt>
      <trkpt lat="45.2012" lon="5.72539">
        <ele>492.20001220703</ele>
        <time>2021-08-19T04:06:48.000Z</time>
      </trkpt>
      <trkpt lat="45.20118" lon="5.72537">
        <ele>493.20001220703</ele>
        <time>2021-08-19T04:06:51.000Z</time>
      </trkpt>
      <trkpt lat="45.20112" lon="5.7253">
        <ele>493.79998779297</ele>
        <time>2021-08-19T04:06:54.000Z</time>
      </trkpt>
      <trkpt lat="45.20113" lon="5.72527">
        <ele>494.39999389648</ele>
        <time>2021-08-19T04:06:56.000Z</time>
      </trkpt>
      <trkpt lat="45.20113" lon="5.72525">
        <ele>494.60000610352</ele>
        <time>2021-08-19T04:06:57.000Z</time>
      </trkpt>
      <trkpt lat="45.20113" lon="5.72523">
        <ele>494.79998779297</ele>
        <time>2021-08-19T04:06:58.000Z</time>
      </trkpt>
      <trkpt lat="45.20114" lon="5.72521">
        <ele>495</ele>
        <time>2021-08-19T04:06:59.000Z</time>
      </trkpt>
      <trkpt lat="45.20115" lon="5.72519">
        <ele>495.60000610352</ele>
        <time>2021-08-19T04:07:00.000Z</time>
      </trkpt>
      <trkpt lat="45.20117" lon="5.72516">
        <ele>495.79998779297</ele>
        <time>2021-08-19T04:07:02.000Z</time>
      </trkpt>
      <trkpt lat="45.20118" lon="5.72515">
        <ele>496</ele>
        <time>2021-08-19T04:07:03.000Z</time>
      </trkpt>
      <trkpt lat="45.20119" lon="5.72513">
        <ele>496.79998779297</ele>
        <time>2021-08-19T04:07:04.000Z</time>
      </trkpt>
      <trkpt lat="45.2012" lon="5.7251">
        <ele>497.20001220703</ele>
        <time>2021-08-19T04:07:06.000Z</time>
      </trkpt>
      <trkpt lat="45.20122" lon="5.72508">
        <ele>498</ele>
        <time>2021-08-19T04:07:08.000Z</time>
      </trkpt>
      <trkpt lat="45.20123" lon="5.72507">
        <ele>498.20001220703</ele>
        <time>2021-08-19T04:07:09.000Z</time>
      </trkpt>
      <trkpt lat="45.20126" lon="5.72502">
        <ele>499.20001220703</ele>
        <time>2021-08-19T04:07:13.000Z</time>
      </trkpt>
      <trkpt lat="45.20128" lon="5.72499">
        <ele>499.39999389648</ele>
        <time>2021-08-19T04:07:15.000Z</time>
      </trkpt>
      <trkpt lat="45.2013" lon="5.72495">
        <ele>500.39999389648</ele>
        <time>2021-08-19T04:07:18.000Z</time>
      </trkpt>
      <trkpt lat="45.20132" lon="5.7249">
        <ele>500.79998779297</ele>
        <time>2021-08-19T04:07:21.000Z</time>
      </trkpt>
      <trkpt lat="45.20134" lon="5.72488">
        <ele>501.79998779297</ele>
        <time>2021-08-19T04:07:23.000Z</time>
      </trkpt>
      <trkpt lat="45.20134" lon="5.72486">
        <ele>502</ele>
        <time>2021-08-19T04:07:24.000Z</time>
      </trkpt>
      <trkpt lat="45.20133" lon="5.72483">
        <ele>502</ele>
        <time>2021-08-19T04:07:26.000Z</time>
      </trkpt>
      <trkpt lat="45.20133" lon="5.72482">
        <ele>502.79998779297</ele>
        <time>2021-08-19T04:07:27.000Z</time>
      </trkpt>
      <trkpt lat="45.20132" lon="5.7248">
        <ele>503</ele>
        <time>2021-08-19T04:07:28.000Z</time>
      </trkpt>
      <trkpt lat="45.20133" lon="5.72476">
        <ele>503.60000610352</ele>
        <time>2021-08-19T04:07:30.000Z</time>
      </trkpt>
      <trkpt lat="45.20134" lon="5.72475">
        <ele>504.39999389648</ele>
        <time>2021-08-19T04:07:31.000Z</time>
      </trkpt>
      <trkpt lat="45.20134" lon="5.72474">
        <ele>504.60000610352</ele>
        <time>2021-08-19T04:07:32.000Z</time>
      </trkpt>
      <trkpt lat="45.20135" lon="5.7247">
        <ele>504.79998779297</ele>
        <time>2021-08-19T04:07:34.000Z</time>
      </trkpt>
      <trkpt lat="45.20135" lon="5.72469">
        <ele>504.79998779297</ele>
        <time>2021-08-19T04:07:35.000Z</time>
      </trkpt>
      <trkpt lat="45.20136" lon="5.72467">
        <ele>505.60000610352</ele>
        <time>2021-08-19T04:07:37.000Z</time>
      </trkpt>
      <trkpt lat="45.20137" lon="5.72467">
        <ele>506.39999389648</ele>
        <time>2021-08-19T04:07:39.000Z</time>
      </trkpt>
      <trkpt lat="45.20139" lon="5.72464">
        <ele>506.79998779297</ele>
        <time>2021-08-19T04:07:42.000Z</time>
      </trkpt>
      <trkpt lat="45.2014" lon="5.72462">
        <ele>507.20001220703</ele>
        <time>2021-08-19T04:07:43.000Z</time>
      </trkpt>
      <trkpt lat="45.20141" lon="5.72461">
        <ele>507.79998779297</ele>
        <time>2021-08-19T04:07:44.000Z</time>
      </trkpt>
      <trkpt lat="45.20142" lon="5.72463">
        <ele>508.39999389648</ele>
        <time>2021-08-19T04:07:47.000Z</time>
      </trkpt>
      <trkpt lat="45.20142" lon="5.72461">
        <ele>508.79998779297</ele>
        <time>2021-08-19T04:07:48.000Z</time>
      </trkpt>
      <trkpt lat="45.20143" lon="5.72457">
        <ele>509</ele>
        <time>2021-08-19T04:07:50.000Z</time>
      </trkpt>
      <trkpt lat="45.20145" lon="5.72456">
        <ele>509.20001220703</ele>
        <time>2021-08-19T04:07:52.000Z</time>
      </trkpt>
      <trkpt lat="45.20146" lon="5.72453">
        <ele>510.60000610352</ele>
        <time>2021-08-19T04:07:54.000Z</time>
      </trkpt>
      <trkpt lat="45.20148" lon="5.72453">
        <ele>510.60000610352</ele>
        <time>2021-08-19T04:07:55.000Z</time>
      </trkpt>
      <trkpt lat="45.20149" lon="5.72454">
        <ele>512</ele>
        <time>2021-08-19T04:07:58.000Z</time>
      </trkpt>
      <trkpt lat="45.20154" lon="5.72459">
        <ele>513.59997558594</ele>
        <time>2021-08-19T04:08:03.000Z</time>
      </trkpt>
      <trkpt lat="45.20158" lon="5.72462">
        <ele>514.40002441406</ele>
        <time>2021-08-19T04:08:07.000Z</time>
      </trkpt>
      <trkpt lat="45.20159" lon="5.72463">
        <ele>514.79998779297</ele>
        <time>2021-08-19T04:08:09.000Z</time>
      </trkpt>
      <trkpt lat="45.20158" lon="5.72463">
        <ele>515.79998779297</ele>
        <time>2021-08-19T04:08:11.000Z</time>
      </trkpt>
      <trkpt lat="45.20158" lon="5.72463">
        <ele>515.79998779297</ele>
        <time>2021-08-19T04:08:12.000Z</time>
      </trkpt>
      <trkpt lat="45.20158" lon="5.72463">
        <ele>516.79998779297</ele>
        <time>2021-08-19T04:08:13.000Z</time>
      </trkpt>
      <trkpt lat="45.20158" lon="5.72464">
        <ele>517</ele>
        <time>2021-08-19T04:08:14.000Z</time>
      </trkpt>
      <trkpt lat="45.20159" lon="5.72464">
        <ele>517.40002441406</ele>
        <time>2021-08-19T04:08:15.000Z</time>
      </trkpt>
      <trkpt lat="45.20159" lon="5.72465">
        <ele>518.20001220703</ele>
        <time>2021-08-19T04:08:18.000Z</time>
      </trkpt>
      <trkpt lat="45.2016" lon="5.72464">
        <ele>518.40002441406</ele>
        <time>2021-08-19T04:08:19.000Z</time>
      </trkpt>
      <trkpt lat="45.20161" lon="5.72465">
        <ele>518.40002441406</ele>
        <time>2021-08-19T04:08:20.000Z</time>
      </trkpt>
      <trkpt lat="45.20164" lon="5.72468">
        <ele>519.79998779297</ele>
        <time>2021-08-19T04:08:23.000Z</time>
      </trkpt>
      <trkpt lat="45.20167" lon="5.72471">
        <ele>521</ele>
        <time>2021-08-19T04:08:27.000Z</time>
      </trkpt>
      <trkpt lat="45.20169" lon="5.72474">
        <ele>521.59997558594</ele>
        <time>2021-08-19T04:08:29.000Z</time>
      </trkpt>
      <trkpt lat="45.20171" lon="5.72477">
        <ele>522.20001220703</ele>
        <time>2021-08-19T04:08:32.000Z</time>
      </trkpt>
      <trkpt lat="45.20173" lon="5.72478">
        <ele>523.20001220703</ele>
        <time>2021-08-19T04:08:34.000Z</time>
      </trkpt>
      <trkpt lat="45.20173" lon="5.72479">
        <ele>523.40002441406</ele>
        <time>2021-08-19T04:08:35.000Z</time>
      </trkpt>
      <trkpt lat="45.20176" lon="5.72485">
        <ele>524.59997558594</ele>
        <time>2021-08-19T04:08:40.000Z</time>
      </trkpt>
      <trkpt lat="45.20178" lon="5.72487">
        <ele>525.20001220703</ele>
        <time>2021-08-19T04:08:43.000Z</time>
      </trkpt>
      <trkpt lat="45.2018" lon="5.72487">
        <ele>525.20001220703</ele>
        <time>2021-08-19T04:08:44.000Z</time>
      </trkpt>
      <trkpt lat="45.2018" lon="5.72487">
        <ele>525.79998779297</ele>
        <time>2021-08-19T04:08:45.000Z</time>
      </trkpt>
      <trkpt lat="45.20183" lon="5.72489">
        <ele>526.59997558594</ele>
        <time>2021-08-19T04:08:47.000Z</time>
      </trkpt>
      <trkpt lat="45.20184" lon="5.7249">
        <ele>526.79998779297</ele>
        <time>2021-08-19T04:08:49.000Z</time>
      </trkpt>
      <trkpt lat="45.20189" lon="5.72496">
        <ele>527.59997558594</ele>
        <time>2021-08-19T04:08:52.000Z</time>
      </trkpt>
      <trkpt lat="45.20189" lon="5.72497">
        <ele>527.59997558594</ele>
        <time>2021-08-19T04:08:53.000Z</time>
      </trkpt>
      <trkpt lat="45.20192" lon="5.72499">
        <ele>528</ele>
        <time>2021-08-19T04:08:55.000Z</time>
      </trkpt>
      <trkpt lat="45.20194" lon="5.72501">
        <ele>528.79998779297</ele>
        <time>2021-08-19T04:08:58.000Z</time>
      </trkpt>
      <trkpt lat="45.20196" lon="5.72503">
        <ele>529.20001220703</ele>
        <time>2021-08-19T04:09:00.000Z</time>
      </trkpt>
      <trkpt lat="45.20198" lon="5.72504">
        <ele>529.59997558594</ele>
        <time>2021-08-19T04:09:02.000Z</time>
      </trkpt>
      <trkpt lat="45.20201" lon="5.72507">
        <ele>529.79998779297</ele>
        <time>2021-08-19T04:09:04.000Z</time>
      </trkpt>
      <trkpt lat="45.20201" lon="5.72507">
        <ele>530.59997558594</ele>
        <time>2021-08-19T04:09:05.000Z</time>
      </trkpt>
      <trkpt lat="45.20207" lon="5.72512">
        <ele>531.59997558594</ele>
        <time>2021-08-19T04:09:10.000Z</time>
      </trkpt>
      <trkpt lat="45.20211" lon="5.72516">
        <ele>533</ele>
        <time>2021-08-19T04:09:15.000Z</time>
      </trkpt>
      <trkpt lat="45.20212" lon="5.72517">
        <ele>533</ele>
        <time>2021-08-19T04:09:16.000Z</time>
      </trkpt>
      <trkpt lat="45.20216" lon="5.72517">
        <ele>534</ele>
        <time>2021-08-19T04:09:20.000Z</time>
      </trkpt>
      <trkpt lat="45.20216" lon="5.72518">
        <ele>534.40002441406</ele>
        <time>2021-08-19T04:09:22.000Z</time>
      </trkpt>
      <trkpt lat="45.20217" lon="5.72519">
        <ele>535.79998779297</ele>
        <time>2021-08-19T04:09:24.000Z</time>
      </trkpt>
      <trkpt lat="45.20221" lon="5.72519">
        <ele>536.40002441406</ele>
        <time>2021-08-19T04:09:28.000Z</time>
      </trkpt>
      <trkpt lat="45.20223" lon="5.72519">
        <ele>536.79998779297</ele>
        <time>2021-08-19T04:09:29.000Z</time>
      </trkpt>
      <trkpt lat="45.20227" lon="5.7252">
        <ele>537.79998779297</ele>
        <time>2021-08-19T04:09:32.000Z</time>
      </trkpt>
      <trkpt lat="45.20232" lon="5.7252">
        <ele>539</ele>
        <time>2021-08-19T04:09:36.000Z</time>
      </trkpt>
      <trkpt lat="45.20232" lon="5.7252">
        <ele>539</ele>
        <time>2021-08-19T04:09:37.000Z</time>
      </trkpt>
      <trkpt lat="45.2023" lon="5.72519">
        <ele>539.40002441406</ele>
        <time>2021-08-19T04:09:39.000Z</time>
      </trkpt>
      <trkpt lat="45.20229" lon="5.72518">
        <ele>539.59997558594</ele>
        <time>2021-08-19T04:09:40.000Z</time>
      </trkpt>
      <trkpt lat="45.2023" lon="5.72517">
        <ele>540.20001220703</ele>
        <time>2021-08-19T04:09:41.000Z</time>
      </trkpt>
      <trkpt lat="45.20232" lon="5.72517">
        <ele>540.59997558594</ele>
        <time>2021-08-19T04:09:43.000Z</time>
      </trkpt>
      <trkpt lat="45.20234" lon="5.72517">
        <ele>541.20001220703</ele>
        <time>2021-08-19T04:09:44.000Z</time>
      </trkpt>
      <trkpt lat="45.20236" lon="5.72517">
        <ele>542.40002441406</ele>
        <time>2021-08-19T04:09:47.000Z</time>
      </trkpt>
      <trkpt lat="45.20239" lon="5.72518">
        <ele>543.40002441406</ele>
        <time>2021-08-19T04:09:50.000Z</time>
      </trkpt>
      <trkpt lat="45.20241" lon="5.72519">
        <ele>544.59997558594</ele>
        <time>2021-08-19T04:09:54.000Z</time>
      </trkpt>
      <trkpt lat="45.20242" lon="5.72519">
        <ele>545.40002441406</ele>
        <time>2021-08-19T04:09:56.000Z</time>
      </trkpt>
      <trkpt lat="45.20241" lon="5.72518">
        <ele>546</ele>
        <time>2021-08-19T04:09:57.000Z</time>
      </trkpt>
      <trkpt lat="45.20242" lon="5.72518">
        <ele>546.79998779297</ele>
        <time>2021-08-19T04:09:59.000Z</time>
      </trkpt>
      <trkpt lat="45.20242" lon="5.72518">
        <ele>547</ele>
        <time>2021-08-19T04:10:00.000Z</time>
      </trkpt>
      <trkpt lat="45.20243" lon="5.72518">
        <ele>547.40002441406</ele>
        <time>2021-08-19T04:10:01.000Z</time>
      </trkpt>
      <trkpt lat="45.20247" lon="5.72521">
        <ele>548</ele>
        <time>2021-08-19T04:10:03.000Z</time>
      </trkpt>
      <trkpt lat="45.20248" lon="5.72522">
        <ele>548.40002441406</ele>
        <time>2021-08-19T04:10:04.000Z</time>
      </trkpt>
      <trkpt lat="45.20253" lon="5.72521">
        <ele>548.79998779297</ele>
        <time>2021-08-19T04:10:08.000Z</time>
      </trkpt>
      <trkpt lat="45.20254" lon="5.72521">
        <ele>549.40002441406</ele>
        <time>2021-08-19T04:10:09.000Z</time>
      </trkpt>
      <trkpt lat="45.20256" lon="5.72521">
        <ele>550</ele>
        <time>2021-08-19T04:10:12.000Z</time>
      </trkpt>
      <trkpt lat="45.20258" lon="5.72521">
        <ele>550.40002441406</ele>
        <time>2021-08-19T04:10:14.000Z</time>
      </trkpt>
      <trkpt lat="45.2026" lon="5.72521">
        <ele>551.20001220703</ele>
        <time>2021-08-19T04:10:15.000Z</time>
      </trkpt>
      <trkpt lat="45.20266" lon="5.72519">
        <ele>552.20001220703</ele>
        <time>2021-08-19T04:10:19.000Z</time>
      </trkpt>
      <trkpt lat="45.20267" lon="5.72519">
        <ele>552.20001220703</ele>
        <time>2021-08-19T04:10:20.000Z</time>
      </trkpt>
      <trkpt lat="45.20269" lon="5.72519">
        <ele>552.79998779297</ele>
        <time>2021-08-19T04:10:21.000Z</time>
      </trkpt>
      <trkpt lat="45.2027" lon="5.7252">
        <ele>553</ele>
        <time>2021-08-19T04:10:23.000Z</time>
      </trkpt>
      <trkpt lat="45.20276" lon="5.72518">
        <ele>553.59997558594</ele>
        <time>2021-08-19T04:10:26.000Z</time>
      </trkpt>
      <trkpt lat="45.20278" lon="5.72518">
        <ele>554.20001220703</ele>
        <time>2021-08-19T04:10:27.000Z</time>
      </trkpt>
      <trkpt lat="45.20282" lon="5.72518">
        <ele>555</ele>
        <time>2021-08-19T04:10:30.000Z</time>
      </trkpt>
      <trkpt lat="45.20282" lon="5.72518">
        <ele>555.20001220703</ele>
        <time>2021-08-19T04:10:31.000Z</time>
      </trkpt>
      <trkpt lat="45.20283" lon="5.72517">
        <ele>555.40002441406</ele>
        <time>2021-08-19T04:10:33.000Z</time>
      </trkpt>
      <trkpt lat="45.20289" lon="5.72517">
        <ele>556.20001220703</ele>
        <time>2021-08-19T04:10:37.000Z</time>
      </trkpt>
      <trkpt lat="45.2029" lon="5.72517">
        <ele>556.20001220703</ele>
        <time>2021-08-19T04:10:38.000Z</time>
      </trkpt>
      <trkpt lat="45.20292" lon="5.72516">
        <ele>557.20001220703</ele>
        <time>2021-08-19T04:10:39.000Z</time>
      </trkpt>
      <trkpt lat="45.20294" lon="5.72515">
        <ele>557.40002441406</ele>
        <time>2021-08-19T04:10:42.000Z</time>
      </trkpt>
      <trkpt lat="45.20295" lon="5.72515">
        <ele>558</ele>
        <time>2021-08-19T04:10:43.000Z</time>
      </trkpt>
      <trkpt lat="45.20296" lon="5.72516">
        <ele>558.40002441406</ele>
        <time>2021-08-19T04:10:44.000Z</time>
      </trkpt>
      <trkpt lat="45.20298" lon="5.72517">
        <ele>558.59997558594</ele>
        <time>2021-08-19T04:10:46.000Z</time>
      </trkpt>
      <trkpt lat="45.20301" lon="5.72519">
        <ele>559.79998779297</ele>
        <time>2021-08-19T04:10:48.000Z</time>
      </trkpt>
      <trkpt lat="45.20302" lon="5.72518">
        <ele>560</ele>
        <time>2021-08-19T04:10:50.000Z</time>
      </trkpt>
      <trkpt lat="45.20303" lon="5.72518">
        <ele>560.79998779297</ele>
        <time>2021-08-19T04:10:51.000Z</time>
      </trkpt>
      <trkpt lat="45.20303" lon="5.72518">
        <ele>561</ele>
        <time>2021-08-19T04:10:52.000Z</time>
      </trkpt>
      <trkpt lat="45.20307" lon="5.72519">
        <ele>561.79998779297</ele>
        <time>2021-08-19T04:10:55.000Z</time>
      </trkpt>
      <trkpt lat="45.20309" lon="5.72519">
        <ele>562.40002441406</ele>
        <time>2021-08-19T04:10:56.000Z</time>
      </trkpt>
      <trkpt lat="45.20311" lon="5.72518">
        <ele>563</ele>
        <time>2021-08-19T04:10:58.000Z</time>
      </trkpt>
      <trkpt lat="45.20311" lon="5.72518">
        <ele>563.79998779297</ele>
        <time>2021-08-19T04:11:00.000Z</time>
      </trkpt>
      <trkpt lat="45.20312" lon="5.72517">
        <ele>564</ele>
        <time>2021-08-19T04:11:01.000Z</time>
      </trkpt>
      <trkpt lat="45.20311" lon="5.72517">
        <ele>564.40002441406</ele>
        <time>2021-08-19T04:11:03.000Z</time>
      </trkpt>
      <trkpt lat="45.20314" lon="5.72517">
        <ele>565</ele>
        <time>2021-08-19T04:11:05.000Z</time>
      </trkpt>
      <trkpt lat="45.20315" lon="5.72518">
        <ele>566.59997558594</ele>
        <time>2021-08-19T04:11:08.000Z</time>
      </trkpt>
      <trkpt lat="45.20317" lon="5.72519">
        <ele>567</ele>
        <time>2021-08-19T04:11:10.000Z</time>
      </trkpt>
      <trkpt lat="45.20318" lon="5.72519">
        <ele>567.79998779297</ele>
        <time>2021-08-19T04:11:13.000Z</time>
      </trkpt>
      <trkpt lat="45.20318" lon="5.7252">
        <ele>567.79998779297</ele>
        <time>2021-08-19T04:11:14.000Z</time>
      </trkpt>
      <trkpt lat="45.20318" lon="5.72521">
        <ele>568.40002441406</ele>
        <time>2021-08-19T04:11:15.000Z</time>
      </trkpt>
      <trkpt lat="45.2032" lon="5.72522">
        <ele>568.79998779297</ele>
        <time>2021-08-19T04:11:18.000Z</time>
      </trkpt>
      <trkpt lat="45.20322" lon="5.72523">
        <ele>569.40002441406</ele>
        <time>2021-08-19T04:11:19.000Z</time>
      </trkpt>
      <trkpt lat="45.20321" lon="5.72523">
        <ele>569.59997558594</ele>
        <time>2021-08-19T04:11:20.000Z</time>
      </trkpt>
      <trkpt lat="45.20322" lon="5.72523">
        <ele>569.79998779297</ele>
        <time>2021-08-19T04:11:21.000Z</time>
      </trkpt>
      <trkpt lat="45.20323" lon="5.72522">
        <ele>570.20001220703</ele>
        <time>2021-08-19T04:11:23.000Z</time>
      </trkpt>
      <trkpt lat="45.20326" lon="5.72522">
        <ele>571.40002441406</ele>
        <time>2021-08-19T04:11:25.000Z</time>
      </trkpt>
      <trkpt lat="45.20329" lon="5.72522">
        <ele>572.20001220703</ele>
        <time>2021-08-19T04:11:29.000Z</time>
      </trkpt>
      <trkpt lat="45.2033" lon="5.72522">
        <ele>572.59997558594</ele>
        <time>2021-08-19T04:11:30.000Z</time>
      </trkpt>
      <trkpt lat="45.20332" lon="5.72523">
        <ele>572.79998779297</ele>
        <time>2021-08-19T04:11:31.000Z</time>
      </trkpt>
      <trkpt lat="45.20334" lon="5.72524">
        <ele>573.20001220703</ele>
        <time>2021-08-19T04:11:32.000Z</time>
      </trkpt>
      <trkpt lat="45.20334" lon="5.72524">
        <ele>573.59997558594</ele>
        <time>2021-08-19T04:11:34.000Z</time>
      </trkpt>
      <trkpt lat="45.20334" lon="5.72523">
        <ele>574.40002441406</ele>
        <time>2021-08-19T04:11:36.000Z</time>
      </trkpt>
      <trkpt lat="45.20335" lon="5.72523">
        <ele>574.79998779297</ele>
        <time>2021-08-19T04:11:37.000Z</time>
      </trkpt>
      <trkpt lat="45.20336" lon="5.72522">
        <ele>574.79998779297</ele>
        <time>2021-08-19T04:11:38.000Z</time>
      </trkpt>
      <trkpt lat="45.20336" lon="5.72522">
        <ele>574.79998779297</ele>
        <time>2021-08-19T04:11:39.000Z</time>
      </trkpt>
      <trkpt lat="45.20337" lon="5.72521">
        <ele>575.79998779297</ele>
        <time>2021-08-19T04:11:41.000Z</time>
      </trkpt>
      <trkpt lat="45.20342" lon="5.7252">
        <ele>576.79998779297</ele>
        <time>2021-08-19T04:11:43.000Z</time>
      </trkpt>
      <trkpt lat="45.20344" lon="5.72519">
        <ele>576.79998779297</ele>
        <time>2021-08-19T04:11:45.000Z</time>
      </trkpt>
      <trkpt lat="45.20345" lon="5.72519">
        <ele>577.20001220703</ele>
        <time>2021-08-19T04:11:46.000Z</time>
      </trkpt>
      <trkpt lat="45.20346" lon="5.7252">
        <ele>577.40002441406</ele>
        <time>2021-08-19T04:11:47.000Z</time>
      </trkpt>
      <trkpt lat="45.20347" lon="5.72521">
        <ele>578.20001220703</ele>
        <time>2021-08-19T04:11:49.000Z</time>
      </trkpt>
      <trkpt lat="45.20347" lon="5.72521">
        <ele>578.20001220703</ele>
        <time>2021-08-19T04:11:50.000Z</time>
      </trkpt>
      <trkpt lat="45.20349" lon="5.72522">
        <ele>579.40002441406</ele>
        <time>2021-08-19T04:11:54.000Z</time>
      </trkpt>
      <trkpt lat="45.20352" lon="5.72523">
        <ele>579.79998779297</ele>
        <time>2021-08-19T04:11:56.000Z</time>
      </trkpt>
      <trkpt lat="45.20352" lon="5.72523">
        <ele>579.79998779297</ele>
        <time>2021-08-19T04:11:57.000Z</time>
      </trkpt>
      <trkpt lat="45.20355" lon="5.72523">
        <ele>579.79998779297</ele>
        <time>2021-08-19T04:11:58.000Z</time>
      </trkpt>
      <trkpt lat="45.20358" lon="5.72523">
        <ele>580.40002441406</ele>
        <time>2021-08-19T04:12:00.000Z</time>
      </trkpt>
      <trkpt lat="45.20362" lon="5.72523">
        <ele>581.20001220703</ele>
        <time>2021-08-19T04:12:02.000Z</time>
      </trkpt>
      <trkpt lat="45.20364" lon="5.72526">
        <ele>581.40002441406</ele>
        <time>2021-08-19T04:12:04.000Z</time>
      </trkpt>
      <trkpt lat="45.20364" lon="5.72527">
        <ele>582</ele>
        <time>2021-08-19T04:12:05.000Z</time>
      </trkpt>
      <trkpt lat="45.20364" lon="5.72527">
        <ele>582.40002441406</ele>
        <time>2021-08-19T04:12:06.000Z</time>
      </trkpt>
      <trkpt lat="45.20365" lon="5.72527">
        <ele>582.40002441406</ele>
        <time>2021-08-19T04:12:07.000Z</time>
      </trkpt>
      <trkpt lat="45.20364" lon="5.72527">
        <ele>582.40002441406</ele>
        <time>2021-08-19T04:12:08.000Z</time>
      </trkpt>
      <trkpt lat="45.20364" lon="5.72527">
        <ele>583.20001220703</ele>
        <time>2021-08-19T04:12:09.000Z</time>
      </trkpt>
      <trkpt lat="45.20365" lon="5.72527">
        <ele>583.79998779297</ele>
        <time>2021-08-19T04:12:10.000Z</time>
      </trkpt>
      <trkpt lat="45.20367" lon="5.72528">
        <ele>584.40002441406</ele>
        <time>2021-08-19T04:12:12.000Z</time>
      </trkpt>
      <trkpt lat="45.20367" lon="5.72528">
        <ele>584.59997558594</ele>
        <time>2021-08-19T04:12:14.000Z</time>
      </trkpt>
      <trkpt lat="45.20367" lon="5.72529">
        <ele>585.40002441406</ele>
        <time>2021-08-19T04:12:15.000Z</time>
      </trkpt>
      <trkpt lat="45.20371" lon="5.72531">
        <ele>585.79998779297</ele>
        <time>2021-08-19T04:12:18.000Z</time>
      </trkpt>
      <trkpt lat="45.20372" lon="5.72531">
        <ele>586.40002441406</ele>
        <time>2021-08-19T04:12:19.000Z</time>
      </trkpt>
      <trkpt lat="45.20374" lon="5.72533">
        <ele>586.40002441406</ele>
        <time>2021-08-19T04:12:20.000Z</time>
      </trkpt>
      <trkpt lat="45.20379" lon="5.72536">
        <ele>587.59997558594</ele>
        <time>2021-08-19T04:12:23.000Z</time>
      </trkpt>
      <trkpt lat="45.20384" lon="5.72534">
        <ele>588.40002441406</ele>
        <time>2021-08-19T04:12:28.000Z</time>
      </trkpt>
      <trkpt lat="45.20385" lon="5.72533">
        <ele>589.20001220703</ele>
        <time>2021-08-19T04:12:29.000Z</time>
      </trkpt>
      <trkpt lat="45.20387" lon="5.72532">
        <ele>590</ele>
        <time>2021-08-19T04:12:33.000Z</time>
      </trkpt>
      <trkpt lat="45.20389" lon="5.72533">
        <ele>590.40002441406</ele>
        <time>2021-08-19T04:12:34.000Z</time>
      </trkpt>
      <trkpt lat="45.20392" lon="5.72532">
        <ele>591.59997558594</ele>
        <time>2021-08-19T04:12:36.000Z</time>
      </trkpt>
      <trkpt lat="45.20395" lon="5.72533">
        <ele>592</ele>
        <time>2021-08-19T04:12:38.000Z</time>
      </trkpt>
      <trkpt lat="45.20399" lon="5.72535">
        <ele>592.40002441406</ele>
        <time>2021-08-19T04:12:41.000Z</time>
      </trkpt>
      <trkpt lat="45.20399" lon="5.72535">
        <ele>592.79998779297</ele>
        <time>2021-08-19T04:12:42.000Z</time>
      </trkpt>
      <trkpt lat="45.20401" lon="5.72535">
        <ele>593</ele>
        <time>2021-08-19T04:12:44.000Z</time>
      </trkpt>
      <trkpt lat="45.20401" lon="5.72534">
        <ele>594.20001220703</ele>
        <time>2021-08-19T04:12:47.000Z</time>
      </trkpt>
      <trkpt lat="45.20403" lon="5.72534">
        <ele>594.40002441406</ele>
        <time>2021-08-19T04:12:48.000Z</time>
      </trkpt>
      <trkpt lat="45.20407" lon="5.72532">
        <ele>595.40002441406</ele>
        <time>2021-08-19T04:12:51.000Z</time>
      </trkpt>
      <trkpt lat="45.20407" lon="5.72531">
        <ele>595.59997558594</ele>
        <time>2021-08-19T04:12:52.000Z</time>
      </trkpt>
      <trkpt lat="45.20406" lon="5.7253">
        <ele>595.59997558594</ele>
        <time>2021-08-19T04:12:53.000Z</time>
      </trkpt>
      <trkpt lat="45.20406" lon="5.72529">
        <ele>596</ele>
        <time>2021-08-19T04:12:55.000Z</time>
      </trkpt>
      <trkpt lat="45.20406" lon="5.72529">
        <ele>596.59997558594</ele>
        <time>2021-08-19T04:12:56.000Z</time>
      </trkpt>
      <trkpt lat="45.20407" lon="5.7253">
        <ele>597.20001220703</ele>
        <time>2021-08-19T04:12:57.000Z</time>
      </trkpt>
      <trkpt lat="45.20409" lon="5.7253">
        <ele>597.40002441406</ele>
        <time>2021-08-19T04:12:59.000Z</time>
      </trkpt>
      <trkpt lat="45.20411" lon="5.72529">
        <ele>597.59997558594</ele>
        <time>2021-08-19T04:13:01.000Z</time>
      </trkpt>
      <trkpt lat="45.20412" lon="5.72529">
        <ele>598.59997558594</ele>
        <time>2021-08-19T04:13:02.000Z</time>
      </trkpt>
      <trkpt lat="45.20412" lon="5.72528">
        <ele>598.79998779297</ele>
        <time>2021-08-19T04:13:03.000Z</time>
      </trkpt>
      <trkpt lat="45.20412" lon="5.72527">
        <ele>599.20001220703</ele>
        <time>2021-08-19T04:13:04.000Z</time>
      </trkpt>
      <trkpt lat="45.20413" lon="5.72524">
        <ele>599.40002441406</ele>
        <time>2021-08-19T04:13:06.000Z</time>
      </trkpt>
      <trkpt lat="45.20413" lon="5.72522">
        <ele>600</ele>
        <time>2021-08-19T04:13:07.000Z</time>
      </trkpt>
      <trkpt lat="45.20413" lon="5.7252">
        <ele>600.79998779297</ele>
        <time>2021-08-19T04:13:09.000Z</time>
      </trkpt>
      <trkpt lat="45.20413" lon="5.72519">
        <ele>600.79998779297</ele>
        <time>2021-08-19T04:13:10.000Z</time>
      </trkpt>
      <trkpt lat="45.20413" lon="5.72519">
        <ele>601</ele>
        <time>2021-08-19T04:13:11.000Z</time>
      </trkpt>
      <trkpt lat="45.20414" lon="5.72519">
        <ele>601.40002441406</ele>
        <time>2021-08-19T04:13:13.000Z</time>
      </trkpt>
      <trkpt lat="45.20414" lon="5.72518">
        <ele>602</ele>
        <time>2021-08-19T04:13:14.000Z</time>
      </trkpt>
      <trkpt lat="45.20414" lon="5.72518">
        <ele>602.59997558594</ele>
        <time>2021-08-19T04:13:15.000Z</time>
      </trkpt>
      <trkpt lat="45.20416" lon="5.72518">
        <ele>602.79998779297</ele>
        <time>2021-08-19T04:13:17.000Z</time>
      </trkpt>
      <trkpt lat="45.20415" lon="5.72518">
        <ele>603.20001220703</ele>
        <time>2021-08-19T04:13:18.000Z</time>
      </trkpt>
      <trkpt lat="45.20415" lon="5.72519">
        <ele>604</ele>
        <time>2021-08-19T04:13:19.000Z</time>
      </trkpt>
      <trkpt lat="45.20415" lon="5.72519">
        <ele>604.40002441406</ele>
        <time>2021-08-19T04:13:20.000Z</time>
      </trkpt>
      <trkpt lat="45.20419" lon="5.72519">
        <ele>604.79998779297</ele>
        <time>2021-08-19T04:13:22.000Z</time>
      </trkpt>
      <trkpt lat="45.20421" lon="5.72519">
        <ele>605.59997558594</ele>
        <time>2021-08-19T04:13:25.000Z</time>
      </trkpt>
      <trkpt lat="45.20422" lon="5.72518">
        <ele>605.79998779297</ele>
        <time>2021-08-19T04:13:26.000Z</time>
      </trkpt>
      <trkpt lat="45.20423" lon="5.72516">
        <ele>607</ele>
        <time>2021-08-19T04:13:28.000Z</time>
      </trkpt>
      <trkpt lat="45.20424" lon="5.72514">
        <ele>607.40002441406</ele>
        <time>2021-08-19T04:13:30.000Z</time>
      </trkpt>
      <trkpt lat="45.20425" lon="5.72514">
        <ele>608.59997558594</ele>
        <time>2021-08-19T04:13:31.000Z</time>
      </trkpt>
      <trkpt lat="45.20426" lon="5.72513">
        <ele>608.79998779297</ele>
        <time>2021-08-19T04:13:32.000Z</time>
      </trkpt>
      <trkpt lat="45.20433" lon="5.72511">
        <ele>609.40002441406</ele>
        <time>2021-08-19T04:13:35.000Z</time>
      </trkpt>
      <trkpt lat="45.20438" lon="5.72512">
        <ele>609.59997558594</ele>
        <time>2021-08-19T04:13:37.000Z</time>
      </trkpt>
      <trkpt lat="45.2045" lon="5.72518">
        <ele>610.79998779297</ele>
        <time>2021-08-19T04:13:42.000Z</time>
      </trkpt>
      <trkpt lat="45.20466" lon="5.72529">
        <ele>611.79998779297</ele>
        <time>2021-08-19T04:13:47.000Z</time>
      </trkpt>
      <trkpt lat="45.20469" lon="5.7253">
        <ele>612</ele>
        <time>2021-08-19T04:13:48.000Z</time>
      </trkpt>
      <trkpt lat="45.20471" lon="5.72531">
        <ele>612</ele>
        <time>2021-08-19T04:13:49.000Z</time>
      </trkpt>
      <trkpt lat="45.20471" lon="5.72532">
        <ele>612</ele>
        <time>2021-08-19T04:13:50.000Z</time>
      </trkpt>
      <trkpt lat="45.20471" lon="5.72534">
        <ele>612.40002441406</ele>
        <time>2021-08-19T04:13:51.000Z</time>
      </trkpt>
      <trkpt lat="45.20474" lon="5.72539">
        <ele>613</ele>
        <time>2021-08-19T04:13:53.000Z</time>
      </trkpt>
      <trkpt lat="45.20479" lon="5.72546">
        <ele>613.79998779297</ele>
        <time>2021-08-19T04:13:57.000Z</time>
      </trkpt>
      <trkpt lat="45.20483" lon="5.72547">
        <ele>614</ele>
        <time>2021-08-19T04:13:58.000Z</time>
      </trkpt>
      <trkpt lat="45.20484" lon="5.72549">
        <ele>614.40002441406</ele>
        <time>2021-08-19T04:13:59.000Z</time>
      </trkpt>
      <trkpt lat="45.20487" lon="5.72552">
        <ele>614.79998779297</ele>
        <time>2021-08-19T04:14:01.000Z</time>
      </trkpt>
      <trkpt lat="45.20489" lon="5.72555">
        <ele>615</ele>
        <time>2021-08-19T04:14:02.000Z</time>
      </trkpt>
      <trkpt lat="45.20495" lon="5.7256">
        <ele>615.40002441406</ele>
        <time>2021-08-19T04:14:05.000Z</time>
      </trkpt>
      <trkpt lat="45.20496" lon="5.72561">
        <ele>615.40002441406</ele>
        <time>2021-08-19T04:14:06.000Z</time>
      </trkpt>
      <trkpt lat="45.20497" lon="5.7256">
        <ele>615.59997558594</ele>
        <time>2021-08-19T04:14:07.000Z</time>
      </trkpt>
      <trkpt lat="45.20495" lon="5.72558">
        <ele>616</ele>
        <time>2021-08-19T04:14:09.000Z</time>
      </trkpt>
      <trkpt lat="45.20495" lon="5.72555">
        <ele>616.20001220703</ele>
        <time>2021-08-19T04:14:10.000Z</time>
      </trkpt>
      <trkpt lat="45.20495" lon="5.72553">
        <ele>616.59997558594</ele>
        <time>2021-08-19T04:14:11.000Z</time>
      </trkpt>
      <trkpt lat="45.20493" lon="5.7255">
        <ele>616.79998779297</ele>
        <time>2021-08-19T04:14:13.000Z</time>
      </trkpt>
      <trkpt lat="45.20491" lon="5.72548">
        <ele>617.79998779297</ele>
        <time>2021-08-19T04:14:15.000Z</time>
      </trkpt>
      <trkpt lat="45.2049" lon="5.72544">
        <ele>618.79998779297</ele>
        <time>2021-08-19T04:14:18.000Z</time>
      </trkpt>
      <trkpt lat="45.2049" lon="5.72543">
        <ele>619.20001220703</ele>
        <time>2021-08-19T04:14:19.000Z</time>
      </trkpt>
      <trkpt lat="45.20487" lon="5.72535">
        <ele>620.20001220703</ele>
        <time>2021-08-19T04:14:23.000Z</time>
      </trkpt>
      <trkpt lat="45.20486" lon="5.72534">
        <ele>620.40002441406</ele>
        <time>2021-08-19T04:14:24.000Z</time>
      </trkpt>
      <trkpt lat="45.20482" lon="5.72526">
        <ele>621.20001220703</ele>
        <time>2021-08-19T04:14:27.000Z</time>
      </trkpt>
      <trkpt lat="45.20484" lon="5.72521">
        <ele>621.40002441406</ele>
        <time>2021-08-19T04:14:29.000Z</time>
      </trkpt>
      <trkpt lat="45.20486" lon="5.72515">
        <ele>621.59997558594</ele>
        <time>2021-08-19T04:14:31.000Z</time>
      </trkpt>
      <trkpt lat="45.20485" lon="5.72509">
        <ele>622</ele>
        <time>2021-08-19T04:14:33.000Z</time>
      </trkpt>
      <trkpt lat="45.20482" lon="5.72502">
        <ele>621.59997558594</ele>
        <time>2021-08-19T04:14:35.000Z</time>
      </trkpt>
      <trkpt lat="45.20479" lon="5.72498">
        <ele>621.40002441406</ele>
        <time>2021-08-19T04:14:37.000Z</time>
      </trkpt>
      <trkpt lat="45.20478" lon="5.72489">
        <ele>621.40002441406</ele>
        <time>2021-08-19T04:14:40.000Z</time>
      </trkpt>
      <trkpt lat="45.20479" lon="5.72484">
        <ele>621.40002441406</ele>
        <time>2021-08-19T04:14:42.000Z</time>
      </trkpt>
      <trkpt lat="45.20481" lon="5.72479">
        <ele>622</ele>
        <time>2021-08-19T04:14:44.000Z</time>
      </trkpt>
      <trkpt lat="45.20482" lon="5.72476">
        <ele>622.40002441406</ele>
        <time>2021-08-19T04:14:45.000Z</time>
      </trkpt>
      <trkpt lat="45.20482" lon="5.72474">
        <ele>622.79998779297</ele>
        <time>2021-08-19T04:14:46.000Z</time>
      </trkpt>
      <trkpt lat="45.20483" lon="5.7247">
        <ele>623.40002441406</ele>
        <time>2021-08-19T04:14:48.000Z</time>
      </trkpt>
      <trkpt lat="45.20481" lon="5.72465">
        <ele>623.79998779297</ele>
        <time>2021-08-19T04:14:50.000Z</time>
      </trkpt>
      <trkpt lat="45.20481" lon="5.72463">
        <ele>623.79998779297</ele>
        <time>2021-08-19T04:14:51.000Z</time>
      </trkpt>
      <trkpt lat="45.2048" lon="5.72461">
        <ele>624.59997558594</ele>
        <time>2021-08-19T04:14:52.000Z</time>
      </trkpt>
      <trkpt lat="45.20479" lon="5.72457">
        <ele>625</ele>
        <time>2021-08-19T04:14:54.000Z</time>
      </trkpt>
      <trkpt lat="45.20479" lon="5.72454">
        <ele>625.20001220703</ele>
        <time>2021-08-19T04:14:55.000Z</time>
      </trkpt>
      <trkpt lat="45.20481" lon="5.7245">
        <ele>626</ele>
        <time>2021-08-19T04:14:57.000Z</time>
      </trkpt>
      <trkpt lat="45.20482" lon="5.72447">
        <ele>626</ele>
        <time>2021-08-19T04:14:58.000Z</time>
      </trkpt>
      <trkpt lat="45.2048" lon="5.72441">
        <ele>626.40002441406</ele>
        <time>2021-08-19T04:15:00.000Z</time>
      </trkpt>
      <trkpt lat="45.20478" lon="5.72438">
        <ele>626.79998779297</ele>
        <time>2021-08-19T04:15:03.000Z</time>
      </trkpt>
      <trkpt lat="45.20471" lon="5.72436">
        <ele>626.59997558594</ele>
        <time>2021-08-19T04:15:05.000Z</time>
      </trkpt>
      <trkpt lat="45.20466" lon="5.72434">
        <ele>626.40002441406</ele>
        <time>2021-08-19T04:15:08.000Z</time>
      </trkpt>
      <trkpt lat="45.20465" lon="5.72433">
        <ele>626.40002441406</ele>
        <time>2021-08-19T04:15:09.000Z</time>
      </trkpt>
      <trkpt lat="45.20459" lon="5.7243">
        <ele>626.59997558594</ele>
        <time>2021-08-19T04:15:12.000Z</time>
      </trkpt>
      <trkpt lat="45.20454" lon="5.72428">
        <ele>626.40002441406</ele>
        <time>2021-08-19T04:15:14.000Z</time>
      </trkpt>
      <trkpt lat="45.20435" lon="5.72422">
        <ele>626</ele>
        <time>2021-08-19T04:15:21.000Z</time>
      </trkpt>
      <trkpt lat="45.20426" lon="5.7242">
        <ele>626.40002441406</ele>
        <time>2021-08-19T04:15:27.000Z</time>
      </trkpt>
      <trkpt lat="45.20425" lon="5.72421">
        <ele>626.40002441406</ele>
        <time>2021-08-19T04:15:28.000Z</time>
      </trkpt>
      <trkpt lat="45.20418" lon="5.72422">
        <ele>627</ele>
        <time>2021-08-19T04:15:32.000Z</time>
      </trkpt>
      <trkpt lat="45.20403" lon="5.72424">
        <ele>627.59997558594</ele>
        <time>2021-08-19T04:15:40.000Z</time>
      </trkpt>
      <trkpt lat="45.20402" lon="5.72421">
        <ele>627.59997558594</ele>
        <time>2021-08-19T04:15:42.000Z</time>
      </trkpt>
      <trkpt lat="45.20403" lon="5.72418">
        <ele>627.40002441406</ele>
        <time>2021-08-19T04:15:44.000Z</time>
      </trkpt>
      <trkpt lat="45.20403" lon="5.72418">
        <ele>627.40002441406</ele>
        <time>2021-08-19T04:15:46.000Z</time>
      </trkpt>
      <trkpt lat="45.20405" lon="5.72418">
        <ele>627.40002441406</ele>
        <time>2021-08-19T04:15:48.000Z</time>
      </trkpt>
      <trkpt lat="45.20405" lon="5.72419">
        <ele>627.40002441406</ele>
        <time>2021-08-19T04:15:54.000Z</time>
      </trkpt>
      <trkpt lat="45.20405" lon="5.72419">
        <ele>627.40002441406</ele>
        <time>2021-08-19T04:15:56.000Z</time>
      </trkpt>
      <trkpt lat="45.20405" lon="5.72419">
        <ele>627.40002441406</ele>
        <time>2021-08-19T04:16:00.000Z</time>
      </trkpt>
      <trkpt lat="45.20405" lon="5.72418">
        <ele>627.40002441406</ele>
        <time>2021-08-19T04:16:04.000Z</time>
      </trkpt>
      <trkpt lat="45.20404" lon="5.72418">
        <ele>627.40002441406</ele>
        <time>2021-08-19T04:16:09.000Z</time>
      </trkpt>
      <trkpt lat="45.204" lon="5.72422">
        <ele>627.20001220703</ele>
        <time>2021-08-19T04:16:12.000Z</time>
      </trkpt>
      <trkpt lat="45.20398" lon="5.72424">
        <ele>626.79998779297</ele>
        <time>2021-08-19T04:16:13.000Z</time>
      </trkpt>
      <trkpt lat="45.20392" lon="5.72429">
        <ele>626.40002441406</ele>
        <time>2021-08-19T04:16:16.000Z</time>
      </trkpt>
      <trkpt lat="45.20384" lon="5.72432">
        <ele>626</ele>
        <time>2021-08-19T04:16:19.000Z</time>
      </trkpt>
      <trkpt lat="45.20382" lon="5.72434">
        <ele>625.59997558594</ele>
        <time>2021-08-19T04:16:20.000Z</time>
      </trkpt>
      <trkpt lat="45.20381" lon="5.72436">
        <ele>625.40002441406</ele>
        <time>2021-08-19T04:16:21.000Z</time>
      </trkpt>
      <trkpt lat="45.20379" lon="5.72438">
        <ele>625.40002441406</ele>
        <time>2021-08-19T04:16:23.000Z</time>
      </trkpt>
      <trkpt lat="45.20377" lon="5.72437">
        <ele>625</ele>
        <time>2021-08-19T04:16:25.000Z</time>
      </trkpt>
      <trkpt lat="45.20373" lon="5.72434">
        <ele>624.40002441406</ele>
        <time>2021-08-19T04:16:28.000Z</time>
      </trkpt>
      <trkpt lat="45.20373" lon="5.72434">
        <ele>624.20001220703</ele>
        <time>2021-08-19T04:16:29.000Z</time>
      </trkpt>
      <trkpt lat="45.2037" lon="5.72431">
        <ele>623.40002441406</ele>
        <time>2021-08-19T04:16:34.000Z</time>
      </trkpt>
      <trkpt lat="45.2037" lon="5.7243">
        <ele>623.20001220703</ele>
        <time>2021-08-19T04:16:35.000Z</time>
      </trkpt>
      <trkpt lat="45.20369" lon="5.72429">
        <ele>622.79998779297</ele>
        <time>2021-08-19T04:16:36.000Z</time>
      </trkpt>
      <trkpt lat="45.20366" lon="5.72429">
        <ele>622</ele>
        <time>2021-08-19T04:16:39.000Z</time>
      </trkpt>
      <trkpt lat="45.20365" lon="5.72429">
        <ele>621.79998779297</ele>
        <time>2021-08-19T04:16:40.000Z</time>
      </trkpt>
      <trkpt lat="45.20365" lon="5.72431">
        <ele>621.59997558594</ele>
        <time>2021-08-19T04:16:41.000Z</time>
      </trkpt>
      <trkpt lat="45.20365" lon="5.72431">
        <ele>621.40002441406</ele>
        <time>2021-08-19T04:16:45.000Z</time>
      </trkpt>
      <trkpt lat="45.20365" lon="5.7243">
        <ele>621.40002441406</ele>
        <time>2021-08-19T04:16:46.000Z</time>
      </trkpt>
      <trkpt lat="45.20365" lon="5.72424">
        <ele>621.40002441406</ele>
        <time>2021-08-19T04:16:48.000Z</time>
      </trkpt>
      <trkpt lat="45.20365" lon="5.7242">
        <ele>621.40002441406</ele>
        <time>2021-08-19T04:16:49.000Z</time>
      </trkpt>
      <trkpt lat="45.20364" lon="5.72416">
        <ele>621.40002441406</ele>
        <time>2021-08-19T04:16:50.000Z</time>
      </trkpt>
      <trkpt lat="45.20365" lon="5.72407">
        <ele>621.40002441406</ele>
        <time>2021-08-19T04:16:53.000Z</time>
      </trkpt>
      <trkpt lat="45.20369" lon="5.72402">
        <ele>621.40002441406</ele>
        <time>2021-08-19T04:16:55.000Z</time>
      </trkpt>
      <trkpt lat="45.20383" lon="5.72386">
        <ele>621</ele>
        <time>2021-08-19T04:17:02.000Z</time>
      </trkpt>
      <trkpt lat="45.20385" lon="5.72385">
        <ele>621.20001220703</ele>
        <time>2021-08-19T04:17:03.000Z</time>
      </trkpt>
      <trkpt lat="45.20393" lon="5.72385">
        <ele>621.59997558594</ele>
        <time>2021-08-19T04:17:06.000Z</time>
      </trkpt>
      <trkpt lat="45.20412" lon="5.72386">
        <ele>621.59997558594</ele>
        <time>2021-08-19T04:17:13.000Z</time>
      </trkpt>
      <trkpt lat="45.20425" lon="5.7239">
        <ele>621.20001220703</ele>
        <time>2021-08-19T04:17:18.000Z</time>
      </trkpt>
      <trkpt lat="45.2043" lon="5.72393">
        <ele>621.59997558594</ele>
        <time>2021-08-19T04:17:20.000Z</time>
      </trkpt>
      <trkpt lat="45.20444" lon="5.72402">
        <ele>622.20001220703</ele>
        <time>2021-08-19T04:17:27.000Z</time>
      </trkpt>
      <trkpt lat="45.20449" lon="5.72405">
        <ele>623</ele>
        <time>2021-08-19T04:17:30.000Z</time>
      </trkpt>
      <trkpt lat="45.20455" lon="5.72408">
        <ele>623.59997558594</ele>
        <time>2021-08-19T04:17:33.000Z</time>
      </trkpt>
      <trkpt lat="45.20457" lon="5.7241">
        <ele>624.20001220703</ele>
        <time>2021-08-19T04:17:34.000Z</time>
      </trkpt>
      <trkpt lat="45.20468" lon="5.72424">
        <ele>625.40002441406</ele>
        <time>2021-08-19T04:17:41.000Z</time>
      </trkpt>
      <trkpt lat="45.2047" lon="5.72427">
        <ele>625.40002441406</ele>
        <time>2021-08-19T04:17:42.000Z</time>
      </trkpt>
      <trkpt lat="45.20473" lon="5.72432">
        <ele>626</ele>
        <time>2021-08-19T04:17:44.000Z</time>
      </trkpt>
      <trkpt lat="45.20476" lon="5.72433">
        <ele>626.59997558594</ele>
        <time>2021-08-19T04:17:46.000Z</time>
      </trkpt>
      <trkpt lat="45.20478" lon="5.72432">
        <ele>626.59997558594</ele>
        <time>2021-08-19T04:17:47.000Z</time>
      </trkpt>
      <trkpt lat="45.20481" lon="5.7243">
        <ele>626.79998779297</ele>
        <time>2021-08-19T04:17:49.000Z</time>
      </trkpt>
      <trkpt lat="45.20484" lon="5.72427">
        <ele>626.79998779297</ele>
        <time>2021-08-19T04:17:51.000Z</time>
      </trkpt>
      <trkpt lat="45.20486" lon="5.72426">
        <ele>626.79998779297</ele>
        <time>2021-08-19T04:17:52.000Z</time>
      </trkpt>
      <trkpt lat="45.20491" lon="5.72428">
        <ele>626.79998779297</ele>
        <time>2021-08-19T04:17:55.000Z</time>
      </trkpt>
      <trkpt lat="45.20492" lon="5.72429">
        <ele>626.79998779297</ele>
        <time>2021-08-19T04:17:56.000Z</time>
      </trkpt>
      <trkpt lat="45.20497" lon="5.72433">
        <ele>627.20001220703</ele>
        <time>2021-08-19T04:17:59.000Z</time>
      </trkpt>
      <trkpt lat="45.205" lon="5.72435">
        <ele>627.59997558594</ele>
        <time>2021-08-19T04:18:01.000Z</time>
      </trkpt>
      <trkpt lat="45.20501" lon="5.72436">
        <ele>627.59997558594</ele>
        <time>2021-08-19T04:18:02.000Z</time>
      </trkpt>
      <trkpt lat="45.2051" lon="5.72441">
        <ele>628</ele>
        <time>2021-08-19T04:18:07.000Z</time>
      </trkpt>
      <trkpt lat="45.20516" lon="5.72442">
        <ele>628.20001220703</ele>
        <time>2021-08-19T04:18:10.000Z</time>
      </trkpt>
      <trkpt lat="45.20521" lon="5.72444">
        <ele>628.20001220703</ele>
        <time>2021-08-19T04:18:15.000Z</time>
      </trkpt>
      <trkpt lat="45.20523" lon="5.72446">
        <ele>627.79998779297</ele>
        <time>2021-08-19T04:18:17.000Z</time>
      </trkpt>
      <trkpt lat="45.20524" lon="5.72448">
        <ele>627.79998779297</ele>
        <time>2021-08-19T04:18:19.000Z</time>
      </trkpt>
      <trkpt lat="45.20527" lon="5.72449">
        <ele>627.59997558594</ele>
        <time>2021-08-19T04:18:21.000Z</time>
      </trkpt>
      <trkpt lat="45.2053" lon="5.7245">
        <ele>627.59997558594</ele>
        <time>2021-08-19T04:18:24.000Z</time>
      </trkpt>
      <trkpt lat="45.20536" lon="5.72455">
        <ele>627</ele>
        <time>2021-08-19T04:18:29.000Z</time>
      </trkpt>
      <trkpt lat="45.20537" lon="5.72457">
        <ele>626.59997558594</ele>
        <time>2021-08-19T04:18:31.000Z</time>
      </trkpt>
      <trkpt lat="45.20538" lon="5.72458">
        <ele>626.40002441406</ele>
        <time>2021-08-19T04:18:32.000Z</time>
      </trkpt>
      <trkpt lat="45.2054" lon="5.72461">
        <ele>626</ele>
        <time>2021-08-19T04:18:35.000Z</time>
      </trkpt>
      <trkpt lat="45.20544" lon="5.72462">
        <ele>625.59997558594</ele>
        <time>2021-08-19T04:18:37.000Z</time>
      </trkpt>
      <trkpt lat="45.20548" lon="5.72465">
        <ele>625.40002441406</ele>
        <time>2021-08-19T04:18:39.000Z</time>
      </trkpt>
      <trkpt lat="45.20552" lon="5.72468">
        <ele>625.20001220703</ele>
        <time>2021-08-19T04:18:41.000Z</time>
      </trkpt>
      <trkpt lat="45.20568" lon="5.72476">
        <ele>625.79998779297</ele>
        <time>2021-08-19T04:18:47.000Z</time>
      </trkpt>
      <trkpt lat="45.20571" lon="5.72479">
        <ele>626.20001220703</ele>
        <time>2021-08-19T04:18:49.000Z</time>
      </trkpt>
      <trkpt lat="45.2058" lon="5.7249">
        <ele>626.40002441406</ele>
        <time>2021-08-19T04:18:54.000Z</time>
      </trkpt>
      <trkpt lat="45.20583" lon="5.72495">
        <ele>626.59997558594</ele>
        <time>2021-08-19T04:18:56.000Z</time>
      </trkpt>
      <trkpt lat="45.20585" lon="5.72502">
        <ele>626.79998779297</ele>
        <time>2021-08-19T04:18:59.000Z</time>
      </trkpt>
      <trkpt lat="45.20587" lon="5.72506">
        <ele>627</ele>
        <time>2021-08-19T04:19:02.000Z</time>
      </trkpt>
      <trkpt lat="45.20588" lon="5.72509">
        <ele>627</ele>
        <time>2021-08-19T04:19:03.000Z</time>
      </trkpt>
      <trkpt lat="45.2059" lon="5.72511">
        <ele>627</ele>
        <time>2021-08-19T04:19:04.000Z</time>
      </trkpt>
      <trkpt lat="45.20594" lon="5.72521">
        <ele>627</ele>
        <time>2021-08-19T04:19:07.000Z</time>
      </trkpt>
      <trkpt lat="45.20595" lon="5.72527">
        <ele>627</ele>
        <time>2021-08-19T04:19:09.000Z</time>
      </trkpt>
      <trkpt lat="45.20596" lon="5.72533">
        <ele>626.79998779297</ele>
        <time>2021-08-19T04:19:11.000Z</time>
      </trkpt>
      <trkpt lat="45.20596" lon="5.72538">
        <ele>626.20001220703</ele>
        <time>2021-08-19T04:19:13.000Z</time>
      </trkpt>
      <trkpt lat="45.20596" lon="5.7254">
        <ele>626.20001220703</ele>
        <time>2021-08-19T04:19:14.000Z</time>
      </trkpt>
      <trkpt lat="45.20592" lon="5.72556">
        <ele>625.40002441406</ele>
        <time>2021-08-19T04:19:20.000Z</time>
      </trkpt>
      <trkpt lat="45.20591" lon="5.72559">
        <ele>625</ele>
        <time>2021-08-19T04:19:21.000Z</time>
      </trkpt>
      <trkpt lat="45.20591" lon="5.72565">
        <ele>625</ele>
        <time>2021-08-19T04:19:24.000Z</time>
      </trkpt>
      <trkpt lat="45.20593" lon="5.7257">
        <ele>625.20001220703</ele>
        <time>2021-08-19T04:19:26.000Z</time>
      </trkpt>
      <trkpt lat="45.206" lon="5.72579">
        <ele>625.79998779297</ele>
        <time>2021-08-19T04:19:30.000Z</time>
      </trkpt>
      <trkpt lat="45.20606" lon="5.72584">
        <ele>626</ele>
        <time>2021-08-19T04:19:34.000Z</time>
      </trkpt>
      <trkpt lat="45.20608" lon="5.72586">
        <ele>626.40002441406</ele>
        <time>2021-08-19T04:19:35.000Z</time>
      </trkpt>
      <trkpt lat="45.20619" lon="5.72596">
        <ele>628</ele>
        <time>2021-08-19T04:19:40.000Z</time>
      </trkpt>
      <trkpt lat="45.20621" lon="5.72596">
        <ele>628.20001220703</ele>
        <time>2021-08-19T04:19:42.000Z</time>
      </trkpt>
      <trkpt lat="45.20623" lon="5.72597">
        <ele>628.40002441406</ele>
        <time>2021-08-19T04:19:43.000Z</time>
      </trkpt>
      <trkpt lat="45.20627" lon="5.72601">
        <ele>629</ele>
        <time>2021-08-19T04:19:46.000Z</time>
      </trkpt>
      <trkpt lat="45.20628" lon="5.72603">
        <ele>629.79998779297</ele>
        <time>2021-08-19T04:19:48.000Z</time>
      </trkpt>
      <trkpt lat="45.20629" lon="5.72603">
        <ele>629.79998779297</ele>
        <time>2021-08-19T04:19:49.000Z</time>
      </trkpt>
      <trkpt lat="45.20637" lon="5.72602">
        <ele>630</ele>
        <time>2021-08-19T04:19:52.000Z</time>
      </trkpt>
      <trkpt lat="45.20652" lon="5.72602">
        <ele>630.79998779297</ele>
        <time>2021-08-19T04:19:57.000Z</time>
      </trkpt>
      <trkpt lat="45.20655" lon="5.72597">
        <ele>631.20001220703</ele>
        <time>2021-08-19T04:20:00.000Z</time>
      </trkpt>
      <trkpt lat="45.20658" lon="5.72594">
        <ele>631.40002441406</ele>
        <time>2021-08-19T04:20:02.000Z</time>
      </trkpt>
      <trkpt lat="45.2066" lon="5.72593">
        <ele>632</ele>
        <time>2021-08-19T04:20:03.000Z</time>
      </trkpt>
      <trkpt lat="45.20665" lon="5.7259">
        <ele>632.20001220703</ele>
        <time>2021-08-19T04:20:06.000Z</time>
      </trkpt>
      <trkpt lat="45.20669" lon="5.72583">
        <ele>633.20001220703</ele>
        <time>2021-08-19T04:20:09.000Z</time>
      </trkpt>
      <trkpt lat="45.20674" lon="5.7258">
        <ele>634.20001220703</ele>
        <time>2021-08-19T04:20:12.000Z</time>
      </trkpt>
      <trkpt lat="45.20678" lon="5.72578">
        <ele>634.40002441406</ele>
        <time>2021-08-19T04:20:14.000Z</time>
      </trkpt>
      <trkpt lat="45.20684" lon="5.72576">
        <ele>635.40002441406</ele>
        <time>2021-08-19T04:20:17.000Z</time>
      </trkpt>
      <trkpt lat="45.20689" lon="5.72574">
        <ele>636.20001220703</ele>
        <time>2021-08-19T04:20:20.000Z</time>
      </trkpt>
      <trkpt lat="45.20691" lon="5.72573">
        <ele>636.59997558594</ele>
        <time>2021-08-19T04:20:21.000Z</time>
      </trkpt>
      <trkpt lat="45.20695" lon="5.72572">
        <ele>637</ele>
        <time>2021-08-19T04:20:23.000Z</time>
      </trkpt>
      <trkpt lat="45.20698" lon="5.72571">
        <ele>638</ele>
        <time>2021-08-19T04:20:26.000Z</time>
      </trkpt>
      <trkpt lat="45.207" lon="5.72571">
        <ele>638.40002441406</ele>
        <time>2021-08-19T04:20:27.000Z</time>
      </trkpt>
      <trkpt lat="45.20701" lon="5.72572">
        <ele>638.40002441406</ele>
        <time>2021-08-19T04:20:28.000Z</time>
      </trkpt>
      <trkpt lat="45.20703" lon="5.72573">
        <ele>639</ele>
        <time>2021-08-19T04:20:29.000Z</time>
      </trkpt>
      <trkpt lat="45.20706" lon="5.72575">
        <ele>639.40002441406</ele>
        <time>2021-08-19T04:20:31.000Z</time>
      </trkpt>
      <trkpt lat="45.20706" lon="5.72576">
        <ele>639.79998779297</ele>
        <time>2021-08-19T04:20:32.000Z</time>
      </trkpt>
      <trkpt lat="45.20708" lon="5.72577">
        <ele>640.20001220703</ele>
        <time>2021-08-19T04:20:34.000Z</time>
      </trkpt>
      <trkpt lat="45.20708" lon="5.72577">
        <ele>640.20001220703</ele>
        <time>2021-08-19T04:20:35.000Z</time>
      </trkpt>
      <trkpt lat="45.20709" lon="5.72577">
        <ele>640.59997558594</ele>
        <time>2021-08-19T04:20:36.000Z</time>
      </trkpt>
      <trkpt lat="45.20713" lon="5.72578">
        <ele>642</ele>
        <time>2021-08-19T04:20:40.000Z</time>
      </trkpt>
      <trkpt lat="45.20716" lon="5.72577">
        <ele>643</ele>
        <time>2021-08-19T04:20:43.000Z</time>
      </trkpt>
      <trkpt lat="45.20716" lon="5.72576">
        <ele>643.40002441406</ele>
        <time>2021-08-19T04:20:44.000Z</time>
      </trkpt>
      <trkpt lat="45.20721" lon="5.72574">
        <ele>644.20001220703</ele>
        <time>2021-08-19T04:20:48.000Z</time>
      </trkpt>
      <trkpt lat="45.20722" lon="5.72575">
        <ele>645</ele>
        <time>2021-08-19T04:20:49.000Z</time>
      </trkpt>
      <trkpt lat="45.20723" lon="5.72576">
        <ele>645.20001220703</ele>
        <time>2021-08-19T04:20:50.000Z</time>
      </trkpt>
      <trkpt lat="45.20728" lon="5.7258">
        <ele>646.40002441406</ele>
        <time>2021-08-19T04:20:54.000Z</time>
      </trkpt>
      <trkpt lat="45.20729" lon="5.72581">
        <ele>646.59997558594</ele>
        <time>2021-08-19T04:20:55.000Z</time>
      </trkpt>
      <trkpt lat="45.20731" lon="5.72582">
        <ele>647.20001220703</ele>
        <time>2021-08-19T04:20:58.000Z</time>
      </trkpt>
      <trkpt lat="45.20731" lon="5.72582">
        <ele>647.40002441406</ele>
        <time>2021-08-19T04:20:59.000Z</time>
      </trkpt>
      <trkpt lat="45.20733" lon="5.72583">
        <ele>648</ele>
        <time>2021-08-19T04:21:01.000Z</time>
      </trkpt>
      <trkpt lat="45.20735" lon="5.72585">
        <ele>649</ele>
        <time>2021-08-19T04:21:03.000Z</time>
      </trkpt>
      <trkpt lat="45.20737" lon="5.7259">
        <ele>649.59997558594</ele>
        <time>2021-08-19T04:21:06.000Z</time>
      </trkpt>
      <trkpt lat="45.20738" lon="5.72593">
        <ele>650.20001220703</ele>
        <time>2021-08-19T04:21:08.000Z</time>
      </trkpt>
      <trkpt lat="45.20741" lon="5.72598">
        <ele>650.59997558594</ele>
        <time>2021-08-19T04:21:10.000Z</time>
      </trkpt>
      <trkpt lat="45.20743" lon="5.72601">
        <ele>651.40002441406</ele>
        <time>2021-08-19T04:21:12.000Z</time>
      </trkpt>
      <trkpt lat="45.20745" lon="5.72604">
        <ele>651.79998779297</ele>
        <time>2021-08-19T04:21:14.000Z</time>
      </trkpt>
      <trkpt lat="45.20745" lon="5.72608">
        <ele>652.79998779297</ele>
        <time>2021-08-19T04:21:16.000Z</time>
      </trkpt>
      <trkpt lat="45.20746" lon="5.72611">
        <ele>653.20001220703</ele>
        <time>2021-08-19T04:21:18.000Z</time>
      </trkpt>
      <trkpt lat="45.20747" lon="5.72613">
        <ele>654.40002441406</ele>
        <time>2021-08-19T04:21:21.000Z</time>
      </trkpt>
      <trkpt lat="45.20749" lon="5.72614">
        <ele>654.40002441406</ele>
        <time>2021-08-19T04:21:23.000Z</time>
      </trkpt>
      <trkpt lat="45.20751" lon="5.72614">
        <ele>654.40002441406</ele>
        <time>2021-08-19T04:21:24.000Z</time>
      </trkpt>
      <trkpt lat="45.20751" lon="5.72612">
        <ele>654.59997558594</ele>
        <time>2021-08-19T04:21:25.000Z</time>
      </trkpt>
      <trkpt lat="45.20752" lon="5.7261">
        <ele>655.59997558594</ele>
        <time>2021-08-19T04:21:26.000Z</time>
      </trkpt>
      <trkpt lat="45.20754" lon="5.7261">
        <ele>655.79998779297</ele>
        <time>2021-08-19T04:21:28.000Z</time>
      </trkpt>
      <trkpt lat="45.20756" lon="5.72611">
        <ele>656.79998779297</ele>
        <time>2021-08-19T04:21:30.000Z</time>
      </trkpt>
      <trkpt lat="45.20756" lon="5.7261">
        <ele>657.40002441406</ele>
        <time>2021-08-19T04:21:31.000Z</time>
      </trkpt>
      <trkpt lat="45.20761" lon="5.72607">
        <ele>658.20001220703</ele>
        <time>2021-08-19T04:21:35.000Z</time>
      </trkpt>
      <trkpt lat="45.20766" lon="5.72606">
        <ele>659.20001220703</ele>
        <time>2021-08-19T04:21:39.000Z</time>
      </trkpt>
      <trkpt lat="45.20768" lon="5.72606">
        <ele>659.79998779297</ele>
        <time>2021-08-19T04:21:41.000Z</time>
      </trkpt>
      <trkpt lat="45.20768" lon="5.72606">
        <ele>660.20001220703</ele>
        <time>2021-08-19T04:21:42.000Z</time>
      </trkpt>
      <trkpt lat="45.20769" lon="5.72608">
        <ele>660.40002441406</ele>
        <time>2021-08-19T04:21:43.000Z</time>
      </trkpt>
      <trkpt lat="45.2077" lon="5.72609">
        <ele>661.40002441406</ele>
        <time>2021-08-19T04:21:44.000Z</time>
      </trkpt>
      <trkpt lat="45.20773" lon="5.72617">
        <ele>662.40002441406</ele>
        <time>2021-08-19T04:21:49.000Z</time>
      </trkpt>
      <trkpt lat="45.20773" lon="5.72619">
        <ele>663</ele>
        <time>2021-08-19T04:21:50.000Z</time>
      </trkpt>
      <trkpt lat="45.20775" lon="5.72626">
        <ele>663.59997558594</ele>
        <time>2021-08-19T04:21:53.000Z</time>
      </trkpt>
      <trkpt lat="45.20775" lon="5.7263">
        <ele>664.40002441406</ele>
        <time>2021-08-19T04:21:55.000Z</time>
      </trkpt>
      <trkpt lat="45.20774" lon="5.72631">
        <ele>664.59997558594</ele>
        <time>2021-08-19T04:21:56.000Z</time>
      </trkpt>
      <trkpt lat="45.20773" lon="5.72633">
        <ele>664.79998779297</ele>
        <time>2021-08-19T04:21:57.000Z</time>
      </trkpt>
      <trkpt lat="45.20772" lon="5.72637">
        <ele>666.20001220703</ele>
        <time>2021-08-19T04:22:01.000Z</time>
      </trkpt>
      <trkpt lat="45.20772" lon="5.72641">
        <ele>666.40002441406</ele>
        <time>2021-08-19T04:22:04.000Z</time>
      </trkpt>
      <trkpt lat="45.20774" lon="5.72643">
        <ele>667.40002441406</ele>
        <time>2021-08-19T04:22:06.000Z</time>
      </trkpt>
      <trkpt lat="45.20774" lon="5.72643">
        <ele>667.79998779297</ele>
        <time>2021-08-19T04:22:07.000Z</time>
      </trkpt>
      <trkpt lat="45.20775" lon="5.72642">
        <ele>668.20001220703</ele>
        <time>2021-08-19T04:22:09.000Z</time>
      </trkpt>
      <trkpt lat="45.20778" lon="5.72642">
        <ele>669</ele>
        <time>2021-08-19T04:22:12.000Z</time>
      </trkpt>
      <trkpt lat="45.20779" lon="5.72641">
        <ele>669.59997558594</ele>
        <time>2021-08-19T04:22:13.000Z</time>
      </trkpt>
      <trkpt lat="45.2078" lon="5.7264">
        <ele>669.59997558594</ele>
        <time>2021-08-19T04:22:14.000Z</time>
      </trkpt>
      <trkpt lat="45.2078" lon="5.72639">
        <ele>670</ele>
        <time>2021-08-19T04:22:15.000Z</time>
      </trkpt>
      <trkpt lat="45.20783" lon="5.72638">
        <ele>671</ele>
        <time>2021-08-19T04:22:18.000Z</time>
      </trkpt>
      <trkpt lat="45.20784" lon="5.72637">
        <ele>671.59997558594</ele>
        <time>2021-08-19T04:22:19.000Z</time>
      </trkpt>
      <trkpt lat="45.20788" lon="5.72635">
        <ele>672.20001220703</ele>
        <time>2021-08-19T04:22:23.000Z</time>
      </trkpt>
      <trkpt lat="45.2079" lon="5.72634">
        <ele>673</ele>
        <time>2021-08-19T04:22:25.000Z</time>
      </trkpt>
      <trkpt lat="45.20791" lon="5.72633">
        <ele>673.20001220703</ele>
        <time>2021-08-19T04:22:26.000Z</time>
      </trkpt>
      <trkpt lat="45.20792" lon="5.72632">
        <ele>673.20001220703</ele>
        <time>2021-08-19T04:22:27.000Z</time>
      </trkpt>
      <trkpt lat="45.20792" lon="5.7263">
        <ele>673.20001220703</ele>
        <time>2021-08-19T04:22:28.000Z</time>
      </trkpt>
      <trkpt lat="45.20792" lon="5.72628">
        <ele>674.20001220703</ele>
        <time>2021-08-19T04:22:29.000Z</time>
      </trkpt>
      <trkpt lat="45.20794" lon="5.72626">
        <ele>674.40002441406</ele>
        <time>2021-08-19T04:22:31.000Z</time>
      </trkpt>
      <trkpt lat="45.20796" lon="5.72625">
        <ele>675.59997558594</ele>
        <time>2021-08-19T04:22:34.000Z</time>
      </trkpt>
      <trkpt lat="45.20797" lon="5.72627">
        <ele>676.20001220703</ele>
        <time>2021-08-19T04:22:36.000Z</time>
      </trkpt>
      <trkpt lat="45.20797" lon="5.72628">
        <ele>676.40002441406</ele>
        <time>2021-08-19T04:22:37.000Z</time>
      </trkpt>
      <trkpt lat="45.20798" lon="5.72631">
        <ele>676.79998779297</ele>
        <time>2021-08-19T04:22:39.000Z</time>
      </trkpt>
      <trkpt lat="45.20802" lon="5.72636">
        <ele>677.79998779297</ele>
        <time>2021-08-19T04:22:43.000Z</time>
      </trkpt>
      <trkpt lat="45.20804" lon="5.72638">
        <ele>678.59997558594</ele>
        <time>2021-08-19T04:22:44.000Z</time>
      </trkpt>
      <trkpt lat="45.20806" lon="5.72641">
        <ele>678.79998779297</ele>
        <time>2021-08-19T04:22:46.000Z</time>
      </trkpt>
      <trkpt lat="45.20808" lon="5.72644">
        <ele>680</ele>
        <time>2021-08-19T04:22:48.000Z</time>
      </trkpt>
      <trkpt lat="45.20809" lon="5.72651">
        <ele>680.40002441406</ele>
        <time>2021-08-19T04:22:53.000Z</time>
      </trkpt>
      <trkpt lat="45.20809" lon="5.72653">
        <ele>681</ele>
        <time>2021-08-19T04:22:54.000Z</time>
      </trkpt>
      <trkpt lat="45.2081" lon="5.72656">
        <ele>682.20001220703</ele>
        <time>2021-08-19T04:22:57.000Z</time>
      </trkpt>
      <trkpt lat="45.20811" lon="5.72658">
        <ele>682.79998779297</ele>
        <time>2021-08-19T04:22:59.000Z</time>
      </trkpt>
      <trkpt lat="45.20811" lon="5.72659">
        <ele>683</ele>
        <time>2021-08-19T04:23:00.000Z</time>
      </trkpt>
      <trkpt lat="45.20811" lon="5.72661">
        <ele>683.59997558594</ele>
        <time>2021-08-19T04:23:01.000Z</time>
      </trkpt>
      <trkpt lat="45.20811" lon="5.72666">
        <ele>685</ele>
        <time>2021-08-19T04:23:06.000Z</time>
      </trkpt>
      <trkpt lat="45.20814" lon="5.72667">
        <ele>685.59997558594</ele>
        <time>2021-08-19T04:23:09.000Z</time>
      </trkpt>
      <trkpt lat="45.20815" lon="5.72665">
        <ele>686.20001220703</ele>
        <time>2021-08-19T04:23:11.000Z</time>
      </trkpt>
      <trkpt lat="45.20818" lon="5.72662">
        <ele>687.20001220703</ele>
        <time>2021-08-19T04:23:15.000Z</time>
      </trkpt>
      <trkpt lat="45.20819" lon="5.72661">
        <ele>687.79998779297</ele>
        <time>2021-08-19T04:23:16.000Z</time>
      </trkpt>
      <trkpt lat="45.20821" lon="5.72659">
        <ele>688.59997558594</ele>
        <time>2021-08-19T04:23:18.000Z</time>
      </trkpt>
      <trkpt lat="45.20823" lon="5.72658">
        <ele>688.59997558594</ele>
        <time>2021-08-19T04:23:20.000Z</time>
      </trkpt>
      <trkpt lat="45.20825" lon="5.72656">
        <ele>689.59997558594</ele>
        <time>2021-08-19T04:23:23.000Z</time>
      </trkpt>
      <trkpt lat="45.20828" lon="5.72655">
        <ele>690.20001220703</ele>
        <time>2021-08-19T04:23:25.000Z</time>
      </trkpt>
      <trkpt lat="45.2083" lon="5.72657">
        <ele>691</ele>
        <time>2021-08-19T04:23:27.000Z</time>
      </trkpt>
      <trkpt lat="45.20831" lon="5.72659">
        <ele>691.20001220703</ele>
        <time>2021-08-19T04:23:29.000Z</time>
      </trkpt>
      <trkpt lat="45.20831" lon="5.72661">
        <ele>692.20001220703</ele>
        <time>2021-08-19T04:23:31.000Z</time>
      </trkpt>
      <trkpt lat="45.20833" lon="5.72663">
        <ele>692.40002441406</ele>
        <time>2021-08-19T04:23:32.000Z</time>
      </trkpt>
      <trkpt lat="45.20837" lon="5.72667">
        <ele>692.40002441406</ele>
        <time>2021-08-19T04:23:34.000Z</time>
      </trkpt>
      <trkpt lat="45.20837" lon="5.72668">
        <ele>693.40002441406</ele>
        <time>2021-08-19T04:23:35.000Z</time>
      </trkpt>
      <trkpt lat="45.20839" lon="5.72674">
        <ele>694.20001220703</ele>
        <time>2021-08-19T04:23:38.000Z</time>
      </trkpt>
      <trkpt lat="45.20839" lon="5.72676">
        <ele>694.40002441406</ele>
        <time>2021-08-19T04:23:39.000Z</time>
      </trkpt>
      <trkpt lat="45.20839" lon="5.72677">
        <ele>694.40002441406</ele>
        <time>2021-08-19T04:23:40.000Z</time>
      </trkpt>
      <trkpt lat="45.2084" lon="5.72678">
        <ele>695.40002441406</ele>
        <time>2021-08-19T04:23:41.000Z</time>
      </trkpt>
      <trkpt lat="45.20839" lon="5.72685">
        <ele>696.59997558594</ele>
        <time>2021-08-19T04:23:45.000Z</time>
      </trkpt>
      <trkpt lat="45.20839" lon="5.72687">
        <ele>697.20001220703</ele>
        <time>2021-08-19T04:23:46.000Z</time>
      </trkpt>
      <trkpt lat="45.20839" lon="5.72688">
        <ele>697.20001220703</ele>
        <time>2021-08-19T04:23:47.000Z</time>
      </trkpt>
      <trkpt lat="45.2084" lon="5.72692">
        <ele>697.59997558594</ele>
        <time>2021-08-19T04:23:49.000Z</time>
      </trkpt>
      <trkpt lat="45.20839" lon="5.72693">
        <ele>697.79998779297</ele>
        <time>2021-08-19T04:23:50.000Z</time>
      </trkpt>
      <trkpt lat="45.20839" lon="5.72694">
        <ele>698.59997558594</ele>
        <time>2021-08-19T04:23:51.000Z</time>
      </trkpt>
      <trkpt lat="45.20839" lon="5.72695">
        <ele>698.79998779297</ele>
        <time>2021-08-19T04:23:52.000Z</time>
      </trkpt>
      <trkpt lat="45.20839" lon="5.72697">
        <ele>699.20001220703</ele>
        <time>2021-08-19T04:23:53.000Z</time>
      </trkpt>
      <trkpt lat="45.20839" lon="5.727">
        <ele>700.20001220703</ele>
        <time>2021-08-19T04:23:56.000Z</time>
      </trkpt>
      <trkpt lat="45.20838" lon="5.72702">
        <ele>701.20001220703</ele>
        <time>2021-08-19T04:23:58.000Z</time>
      </trkpt>
      <trkpt lat="45.20838" lon="5.72703">
        <ele>701.20001220703</ele>
        <time>2021-08-19T04:23:59.000Z</time>
      </trkpt>
      <trkpt lat="45.20838" lon="5.72704">
        <ele>701.20001220703</ele>
        <time>2021-08-19T04:24:00.000Z</time>
      </trkpt>
      <trkpt lat="45.20836" lon="5.72707">
        <ele>702.79998779297</ele>
        <time>2021-08-19T04:24:03.000Z</time>
      </trkpt>
      <trkpt lat="45.20836" lon="5.72708">
        <ele>703</ele>
        <time>2021-08-19T04:24:04.000Z</time>
      </trkpt>
      <trkpt lat="45.20834" lon="5.7271">
        <ele>703.40002441406</ele>
        <time>2021-08-19T04:24:06.000Z</time>
      </trkpt>
      <trkpt lat="45.20833" lon="5.72712">
        <ele>703.40002441406</ele>
        <time>2021-08-19T04:24:07.000Z</time>
      </trkpt>
      <trkpt lat="45.20833" lon="5.72713">
        <ele>704.20001220703</ele>
        <time>2021-08-19T04:24:08.000Z</time>
      </trkpt>
      <trkpt lat="45.20832" lon="5.72715">
        <ele>705.20001220703</ele>
        <time>2021-08-19T04:24:10.000Z</time>
      </trkpt>
      <trkpt lat="45.20831" lon="5.72717">
        <ele>706.59997558594</ele>
        <time>2021-08-19T04:24:12.000Z</time>
      </trkpt>
      <trkpt lat="45.20829" lon="5.7272">
        <ele>706.59997558594</ele>
        <time>2021-08-19T04:24:14.000Z</time>
      </trkpt>
      <trkpt lat="45.20828" lon="5.72721">
        <ele>706.59997558594</ele>
        <time>2021-08-19T04:24:15.000Z</time>
      </trkpt>
      <trkpt lat="45.20826" lon="5.72721">
        <ele>706.79998779297</ele>
        <time>2021-08-19T04:24:17.000Z</time>
      </trkpt>
      <trkpt lat="45.20826" lon="5.72722">
        <ele>707</ele>
        <time>2021-08-19T04:24:18.000Z</time>
      </trkpt>
      <trkpt lat="45.20825" lon="5.72725">
        <ele>707</ele>
        <time>2021-08-19T04:24:21.000Z</time>
      </trkpt>
      <trkpt lat="45.20821" lon="5.72727">
        <ele>706.79998779297</ele>
        <time>2021-08-19T04:24:25.000Z</time>
      </trkpt>
      <trkpt lat="45.2082" lon="5.72728">
        <ele>706.20001220703</ele>
        <time>2021-08-19T04:24:27.000Z</time>
      </trkpt>
      <trkpt lat="45.20818" lon="5.7273">
        <ele>705.79998779297</ele>
        <time>2021-08-19T04:24:30.000Z</time>
      </trkpt>
      <trkpt lat="45.20817" lon="5.72731">
        <ele>704.79998779297</ele>
        <time>2021-08-19T04:24:31.000Z</time>
      </trkpt>
      <trkpt lat="45.20814" lon="5.72731">
        <ele>704.59997558594</ele>
        <time>2021-08-19T04:24:33.000Z</time>
      </trkpt>
      <trkpt lat="45.20809" lon="5.72733">
        <ele>703.79998779297</ele>
        <time>2021-08-19T04:24:37.000Z</time>
      </trkpt>
      <trkpt lat="45.20809" lon="5.72734">
        <ele>703.79998779297</ele>
        <time>2021-08-19T04:24:38.000Z</time>
      </trkpt>
      <trkpt lat="45.20804" lon="5.72733">
        <ele>703.79998779297</ele>
        <time>2021-08-19T04:24:42.000Z</time>
      </trkpt>
      <trkpt lat="45.20803" lon="5.72732">
        <ele>703.79998779297</ele>
        <time>2021-08-19T04:24:43.000Z</time>
      </trkpt>
      <trkpt lat="45.20801" lon="5.72731">
        <ele>704.20001220703</ele>
        <time>2021-08-19T04:24:45.000Z</time>
      </trkpt>
      <trkpt lat="45.208" lon="5.72731">
        <ele>705.40002441406</ele>
        <time>2021-08-19T04:24:47.000Z</time>
      </trkpt>
      <trkpt lat="45.20799" lon="5.7273">
        <ele>705.40002441406</ele>
        <time>2021-08-19T04:24:48.000Z</time>
      </trkpt>
      <trkpt lat="45.20797" lon="5.72729">
        <ele>705.59997558594</ele>
        <time>2021-08-19T04:24:50.000Z</time>
      </trkpt>
      <trkpt lat="45.20798" lon="5.72729">
        <ele>705.79998779297</ele>
        <time>2021-08-19T04:24:52.000Z</time>
      </trkpt>
      <trkpt lat="45.20797" lon="5.72729">
        <ele>705.79998779297</ele>
        <time>2021-08-19T04:24:55.000Z</time>
      </trkpt>
      <trkpt lat="45.20797" lon="5.72729">
        <ele>706.20001220703</ele>
        <time>2021-08-19T04:24:57.000Z</time>
      </trkpt>
      <trkpt lat="45.20797" lon="5.72729">
        <ele>706.20001220703</ele>
        <time>2021-08-19T04:25:00.000Z</time>
      </trkpt>
      <trkpt lat="45.20798" lon="5.72729">
        <ele>706</ele>
        <time>2021-08-19T04:25:02.000Z</time>
      </trkpt>
      <trkpt lat="45.20798" lon="5.7273">
        <ele>706</ele>
        <time>2021-08-19T04:25:03.000Z</time>
      </trkpt>
      <trkpt lat="45.20798" lon="5.7273">
        <ele>705.59997558594</ele>
        <time>2021-08-19T04:25:05.000Z</time>
      </trkpt>
      <trkpt lat="45.20798" lon="5.7273">
        <ele>705.40002441406</ele>
        <time>2021-08-19T04:25:08.000Z</time>
      </trkpt>
      <trkpt lat="45.20798" lon="5.7273">
        <ele>705.40002441406</ele>
        <time>2021-08-19T04:25:14.000Z</time>
      </trkpt>
      <trkpt lat="45.20798" lon="5.72731">
        <ele>704</ele>
        <time>2021-08-19T04:25:19.000Z</time>
      </trkpt>
      <trkpt lat="45.20804" lon="5.72729">
        <ele>704</ele>
        <time>2021-08-19T04:25:24.000Z</time>
      </trkpt>
      <trkpt lat="45.20811" lon="5.7273">
        <ele>704.40002441406</ele>
        <time>2021-08-19T04:25:29.000Z</time>
      </trkpt>
      <trkpt lat="45.20814" lon="5.72729">
        <ele>704.40002441406</ele>
        <time>2021-08-19T04:25:31.000Z</time>
      </trkpt>
      <trkpt lat="45.20816" lon="5.72729">
        <ele>704.79998779297</ele>
        <time>2021-08-19T04:25:32.000Z</time>
      </trkpt>
      <trkpt lat="45.20816" lon="5.72728">
        <ele>705.40002441406</ele>
        <time>2021-08-19T04:25:33.000Z</time>
      </trkpt>
      <trkpt lat="45.20816" lon="5.72727">
        <ele>705.79998779297</ele>
        <time>2021-08-19T04:25:34.000Z</time>
      </trkpt>
      <trkpt lat="45.20816" lon="5.72727">
        <ele>706.59997558594</ele>
        <time>2021-08-19T04:25:35.000Z</time>
      </trkpt>
      <trkpt lat="45.20818" lon="5.72727">
        <ele>706.79998779297</ele>
        <time>2021-08-19T04:25:37.000Z</time>
      </trkpt>
      <trkpt lat="45.20819" lon="5.72723">
        <ele>707</ele>
        <time>2021-08-19T04:25:42.000Z</time>
      </trkpt>
      <trkpt lat="45.20823" lon="5.72723">
        <ele>707.20001220703</ele>
        <time>2021-08-19T04:25:46.000Z</time>
      </trkpt>
      <trkpt lat="45.20827" lon="5.72718">
        <ele>706.79998779297</ele>
        <time>2021-08-19T04:25:52.000Z</time>
      </trkpt>
      <trkpt lat="45.20827" lon="5.72718">
        <ele>706.20001220703</ele>
        <time>2021-08-19T04:25:53.000Z</time>
      </trkpt>
      <trkpt lat="45.20828" lon="5.72716">
        <ele>705.20001220703</ele>
        <time>2021-08-19T04:25:57.000Z</time>
      </trkpt>
      <trkpt lat="45.20828" lon="5.72714">
        <ele>704.59997558594</ele>
        <time>2021-08-19T04:25:59.000Z</time>
      </trkpt>
      <trkpt lat="45.20828" lon="5.72713">
        <ele>704.20001220703</ele>
        <time>2021-08-19T04:26:00.000Z</time>
      </trkpt>
      <trkpt lat="45.20828" lon="5.72712">
        <ele>704</ele>
        <time>2021-08-19T04:26:01.000Z</time>
      </trkpt>
      <trkpt lat="45.20829" lon="5.72711">
        <ele>703</ele>
        <time>2021-08-19T04:26:03.000Z</time>
      </trkpt>
      <trkpt lat="45.20831" lon="5.72708">
        <ele>701.59997558594</ele>
        <time>2021-08-19T04:26:07.000Z</time>
      </trkpt>
      <trkpt lat="45.20831" lon="5.72703">
        <ele>700.40002441406</ele>
        <time>2021-08-19T04:26:10.000Z</time>
      </trkpt>
      <trkpt lat="45.20833" lon="5.72699">
        <ele>699.20001220703</ele>
        <time>2021-08-19T04:26:13.000Z</time>
      </trkpt>
      <trkpt lat="45.20833" lon="5.72692">
        <ele>697.79998779297</ele>
        <time>2021-08-19T04:26:16.000Z</time>
      </trkpt>
      <trkpt lat="45.20832" lon="5.72684">
        <ele>696.40002441406</ele>
        <time>2021-08-19T04:26:19.000Z</time>
      </trkpt>
      <trkpt lat="45.20832" lon="5.72682">
        <ele>696.20001220703</ele>
        <time>2021-08-19T04:26:20.000Z</time>
      </trkpt>
      <trkpt lat="45.20831" lon="5.72678">
        <ele>695.40002441406</ele>
        <time>2021-08-19T04:26:23.000Z</time>
      </trkpt>
      <trkpt lat="45.20831" lon="5.72677">
        <ele>695</ele>
        <time>2021-08-19T04:26:24.000Z</time>
      </trkpt>
      <trkpt lat="45.20831" lon="5.72676">
        <ele>694.79998779297</ele>
        <time>2021-08-19T04:26:25.000Z</time>
      </trkpt>
      <trkpt lat="45.20829" lon="5.72674">
        <ele>693.79998779297</ele>
        <time>2021-08-19T04:26:27.000Z</time>
      </trkpt>
      <trkpt lat="45.20829" lon="5.72671">
        <ele>692</ele>
        <time>2021-08-19T04:26:30.000Z</time>
      </trkpt>
      <trkpt lat="45.20828" lon="5.72671">
        <ele>690.79998779297</ele>
        <time>2021-08-19T04:26:34.000Z</time>
      </trkpt>
      <trkpt lat="45.20827" lon="5.72671">
        <ele>690.59997558594</ele>
        <time>2021-08-19T04:26:35.000Z</time>
      </trkpt>
      <trkpt lat="45.20826" lon="5.72672">
        <ele>690.20001220703</ele>
        <time>2021-08-19T04:26:36.000Z</time>
      </trkpt>
      <trkpt lat="45.20824" lon="5.72673">
        <ele>689.59997558594</ele>
        <time>2021-08-19T04:26:38.000Z</time>
      </trkpt>
      <trkpt lat="45.20823" lon="5.72673">
        <ele>689</ele>
        <time>2021-08-19T04:26:39.000Z</time>
      </trkpt>
      <trkpt lat="45.20821" lon="5.72673">
        <ele>689</ele>
        <time>2021-08-19T04:26:40.000Z</time>
      </trkpt>
      <trkpt lat="45.2082" lon="5.72674">
        <ele>688.59997558594</ele>
        <time>2021-08-19T04:26:41.000Z</time>
      </trkpt>
      <trkpt lat="45.20818" lon="5.72674">
        <ele>688.40002441406</ele>
        <time>2021-08-19T04:26:43.000Z</time>
      </trkpt>
      <trkpt lat="45.20815" lon="5.72675">
        <ele>687.20001220703</ele>
        <time>2021-08-19T04:26:45.000Z</time>
      </trkpt>
      <trkpt lat="45.20813" lon="5.72674">
        <ele>687.20001220703</ele>
        <time>2021-08-19T04:26:46.000Z</time>
      </trkpt>
      <trkpt lat="45.20812" lon="5.72673">
        <ele>686.40002441406</ele>
        <time>2021-08-19T04:26:47.000Z</time>
      </trkpt>
      <trkpt lat="45.2081" lon="5.72666">
        <ele>685.59997558594</ele>
        <time>2021-08-19T04:26:50.000Z</time>
      </trkpt>
      <trkpt lat="45.20809" lon="5.72658">
        <ele>684.40002441406</ele>
        <time>2021-08-19T04:26:54.000Z</time>
      </trkpt>
      <trkpt lat="45.20808" lon="5.72657">
        <ele>683.59997558594</ele>
        <time>2021-08-19T04:26:55.000Z</time>
      </trkpt>
      <trkpt lat="45.20807" lon="5.72655">
        <ele>683.20001220703</ele>
        <time>2021-08-19T04:26:56.000Z</time>
      </trkpt>
      <trkpt lat="45.20807" lon="5.72654">
        <ele>682.79998779297</ele>
        <time>2021-08-19T04:26:58.000Z</time>
      </trkpt>
      <trkpt lat="45.20806" lon="5.72651">
        <ele>681.79998779297</ele>
        <time>2021-08-19T04:26:59.000Z</time>
      </trkpt>
      <trkpt lat="45.20804" lon="5.72648">
        <ele>680.79998779297</ele>
        <time>2021-08-19T04:27:02.000Z</time>
      </trkpt>
      <trkpt lat="45.20802" lon="5.72647">
        <ele>680.79998779297</ele>
        <time>2021-08-19T04:27:03.000Z</time>
      </trkpt>
      <trkpt lat="45.208" lon="5.72643">
        <ele>680.20001220703</ele>
        <time>2021-08-19T04:27:05.000Z</time>
      </trkpt>
      <trkpt lat="45.20799" lon="5.72641">
        <ele>679</ele>
        <time>2021-08-19T04:27:06.000Z</time>
      </trkpt>
      <trkpt lat="45.20798" lon="5.72638">
        <ele>678.20001220703</ele>
        <time>2021-08-19T04:27:09.000Z</time>
      </trkpt>
      <trkpt lat="45.20798" lon="5.72637">
        <ele>678.20001220703</ele>
        <time>2021-08-19T04:27:10.000Z</time>
      </trkpt>
      <trkpt lat="45.20797" lon="5.72636">
        <ele>677.59997558594</ele>
        <time>2021-08-19T04:27:12.000Z</time>
      </trkpt>
      <trkpt lat="45.20797" lon="5.72638">
        <ele>676.79998779297</ele>
        <time>2021-08-19T04:27:14.000Z</time>
      </trkpt>
      <trkpt lat="45.20797" lon="5.72641">
        <ele>676.20001220703</ele>
        <time>2021-08-19T04:27:16.000Z</time>
      </trkpt>
      <trkpt lat="45.20795" lon="5.72644">
        <ele>675.79998779297</ele>
        <time>2021-08-19T04:27:18.000Z</time>
      </trkpt>
      <trkpt lat="45.20794" lon="5.72645">
        <ele>675</ele>
        <time>2021-08-19T04:27:19.000Z</time>
      </trkpt>
      <trkpt lat="45.20791" lon="5.72645">
        <ele>674.79998779297</ele>
        <time>2021-08-19T04:27:20.000Z</time>
      </trkpt>
      <trkpt lat="45.20789" lon="5.72646">
        <ele>674.40002441406</ele>
        <time>2021-08-19T04:27:21.000Z</time>
      </trkpt>
      <trkpt lat="45.20787" lon="5.72646">
        <ele>674</ele>
        <time>2021-08-19T04:27:22.000Z</time>
      </trkpt>
      <trkpt lat="45.20785" lon="5.72647">
        <ele>673.59997558594</ele>
        <time>2021-08-19T04:27:23.000Z</time>
      </trkpt>
      <trkpt lat="45.20782" lon="5.72649">
        <ele>672.79998779297</ele>
        <time>2021-08-19T04:27:26.000Z</time>
      </trkpt>
      <trkpt lat="45.20781" lon="5.72649">
        <ele>672.59997558594</ele>
        <time>2021-08-19T04:27:27.000Z</time>
      </trkpt>
      <trkpt lat="45.20777" lon="5.7265">
        <ele>671.59997558594</ele>
        <time>2021-08-19T04:27:30.000Z</time>
      </trkpt>
      <trkpt lat="45.20773" lon="5.72649">
        <ele>670.59997558594</ele>
        <time>2021-08-19T04:27:33.000Z</time>
      </trkpt>
      <trkpt lat="45.20772" lon="5.72647">
        <ele>669.59997558594</ele>
        <time>2021-08-19T04:27:35.000Z</time>
      </trkpt>
      <trkpt lat="45.20773" lon="5.72646">
        <ele>669.40002441406</ele>
        <time>2021-08-19T04:27:36.000Z</time>
      </trkpt>
      <trkpt lat="45.20773" lon="5.72644">
        <ele>669.40002441406</ele>
        <time>2021-08-19T04:27:37.000Z</time>
      </trkpt>
      <trkpt lat="45.20772" lon="5.72642">
        <ele>668.20001220703</ele>
        <time>2021-08-19T04:27:39.000Z</time>
      </trkpt>
      <trkpt lat="45.20772" lon="5.72641">
        <ele>668</ele>
        <time>2021-08-19T04:27:40.000Z</time>
      </trkpt>
      <trkpt lat="45.20773" lon="5.72639">
        <ele>667.40002441406</ele>
        <time>2021-08-19T04:27:41.000Z</time>
      </trkpt>
      <trkpt lat="45.20774" lon="5.72638">
        <ele>666.40002441406</ele>
        <time>2021-08-19T04:27:42.000Z</time>
      </trkpt>
      <trkpt lat="45.20774" lon="5.72637">
        <ele>666.40002441406</ele>
        <time>2021-08-19T04:27:43.000Z</time>
      </trkpt>
      <trkpt lat="45.20774" lon="5.72633">
        <ele>665.20001220703</ele>
        <time>2021-08-19T04:27:45.000Z</time>
      </trkpt>
      <trkpt lat="45.20774" lon="5.72631">
        <ele>665</ele>
        <time>2021-08-19T04:27:46.000Z</time>
      </trkpt>
      <trkpt lat="45.20772" lon="5.72627">
        <ele>664.79998779297</ele>
        <time>2021-08-19T04:27:48.000Z</time>
      </trkpt>
      <trkpt lat="45.20771" lon="5.72624">
        <ele>663.79998779297</ele>
        <time>2021-08-19T04:27:50.000Z</time>
      </trkpt>
      <trkpt lat="45.2077" lon="5.72624">
        <ele>662.59997558594</ele>
        <time>2021-08-19T04:27:51.000Z</time>
      </trkpt>
      <trkpt lat="45.20769" lon="5.72624">
        <ele>662.40002441406</ele>
        <time>2021-08-19T04:27:52.000Z</time>
      </trkpt>
      <trkpt lat="45.20768" lon="5.72625">
        <ele>662.40002441406</ele>
        <time>2021-08-19T04:27:53.000Z</time>
      </trkpt>
      <trkpt lat="45.20764" lon="5.72625">
        <ele>661.59997558594</ele>
        <time>2021-08-19T04:27:55.000Z</time>
      </trkpt>
      <trkpt lat="45.20757" lon="5.72625">
        <ele>659.59997558594</ele>
        <time>2021-08-19T04:27:59.000Z</time>
      </trkpt>
      <trkpt lat="45.20755" lon="5.72625">
        <ele>658.79998779297</ele>
        <time>2021-08-19T04:28:01.000Z</time>
      </trkpt>
      <trkpt lat="45.20751" lon="5.72625">
        <ele>658.40002441406</ele>
        <time>2021-08-19T04:28:03.000Z</time>
      </trkpt>
      <trkpt lat="45.2075" lon="5.72625">
        <ele>658.20001220703</ele>
        <time>2021-08-19T04:28:04.000Z</time>
      </trkpt>
      <trkpt lat="45.20747" lon="5.72625">
        <ele>657.79998779297</ele>
        <time>2021-08-19T04:28:06.000Z</time>
      </trkpt>
      <trkpt lat="45.20746" lon="5.72623">
        <ele>657</ele>
        <time>2021-08-19T04:28:07.000Z</time>
      </trkpt>
      <trkpt lat="45.20746" lon="5.72621">
        <ele>656.79998779297</ele>
        <time>2021-08-19T04:28:08.000Z</time>
      </trkpt>
      <trkpt lat="45.20746" lon="5.72618">
        <ele>656</ele>
        <time>2021-08-19T04:28:10.000Z</time>
      </trkpt>
      <trkpt lat="45.20745" lon="5.72616">
        <ele>655.79998779297</ele>
        <time>2021-08-19T04:28:11.000Z</time>
      </trkpt>
      <trkpt lat="45.20743" lon="5.72611">
        <ele>655</ele>
        <time>2021-08-19T04:28:13.000Z</time>
      </trkpt>
      <trkpt lat="45.20742" lon="5.7261">
        <ele>654.59997558594</ele>
        <time>2021-08-19T04:28:14.000Z</time>
      </trkpt>
      <trkpt lat="45.20739" lon="5.72604">
        <ele>653.40002441406</ele>
        <time>2021-08-19T04:28:18.000Z</time>
      </trkpt>
      <trkpt lat="45.20739" lon="5.72602">
        <ele>652.59997558594</ele>
        <time>2021-08-19T04:28:19.000Z</time>
      </trkpt>
      <trkpt lat="45.20739" lon="5.72601">
        <ele>652.40002441406</ele>
        <time>2021-08-19T04:28:20.000Z</time>
      </trkpt>
      <trkpt lat="45.20738" lon="5.72599">
        <ele>652.20001220703</ele>
        <time>2021-08-19T04:28:21.000Z</time>
      </trkpt>
      <trkpt lat="45.20735" lon="5.72598">
        <ele>651.20001220703</ele>
        <time>2021-08-19T04:28:24.000Z</time>
      </trkpt>
      <trkpt lat="45.20733" lon="5.72597">
        <ele>650.79998779297</ele>
        <time>2021-08-19T04:28:25.000Z</time>
      </trkpt>
      <trkpt lat="45.2073" lon="5.72595">
        <ele>650.59997558594</ele>
        <time>2021-08-19T04:28:27.000Z</time>
      </trkpt>
      <trkpt lat="45.20729" lon="5.72594">
        <ele>649.79998779297</ele>
        <time>2021-08-19T04:28:28.000Z</time>
      </trkpt>
      <trkpt lat="45.20727" lon="5.72592">
        <ele>649</ele>
        <time>2021-08-19T04:28:30.000Z</time>
      </trkpt>
      <trkpt lat="45.20726" lon="5.72591">
        <ele>648.59997558594</ele>
        <time>2021-08-19T04:28:31.000Z</time>
      </trkpt>
      <trkpt lat="45.20721" lon="5.72589">
        <ele>647.20001220703</ele>
        <time>2021-08-19T04:28:34.000Z</time>
      </trkpt>
      <trkpt lat="45.20718" lon="5.72589">
        <ele>646.59997558594</ele>
        <time>2021-08-19T04:28:37.000Z</time>
      </trkpt>
      <trkpt lat="45.20717" lon="5.72589">
        <ele>646.20001220703</ele>
        <time>2021-08-19T04:28:38.000Z</time>
      </trkpt>
      <trkpt lat="45.20714" lon="5.72587">
        <ele>645.20001220703</ele>
        <time>2021-08-19T04:28:41.000Z</time>
      </trkpt>
      <trkpt lat="45.20709" lon="5.72583">
        <ele>644</ele>
        <time>2021-08-19T04:28:45.000Z</time>
      </trkpt>
      <trkpt lat="45.20708" lon="5.72582">
        <ele>643.20001220703</ele>
        <time>2021-08-19T04:28:46.000Z</time>
      </trkpt>
      <trkpt lat="45.20706" lon="5.72579">
        <ele>642.79998779297</ele>
        <time>2021-08-19T04:28:48.000Z</time>
      </trkpt>
      <trkpt lat="45.20704" lon="5.72577">
        <ele>642.40002441406</ele>
        <time>2021-08-19T04:28:50.000Z</time>
      </trkpt>
      <trkpt lat="45.207" lon="5.72576">
        <ele>641.79998779297</ele>
        <time>2021-08-19T04:28:53.000Z</time>
      </trkpt>
      <trkpt lat="45.20697" lon="5.72576">
        <ele>640.59997558594</ele>
        <time>2021-08-19T04:28:55.000Z</time>
      </trkpt>
      <trkpt lat="45.20695" lon="5.72576">
        <ele>640.59997558594</ele>
        <time>2021-08-19T04:28:56.000Z</time>
      </trkpt>
      <trkpt lat="45.20691" lon="5.72575">
        <ele>639.59997558594</ele>
        <time>2021-08-19T04:28:58.000Z</time>
      </trkpt>
      <trkpt lat="45.20684" lon="5.72575">
        <ele>638.79998779297</ele>
        <time>2021-08-19T04:29:01.000Z</time>
      </trkpt>
      <trkpt lat="45.20682" lon="5.72575">
        <ele>638.20001220703</ele>
        <time>2021-08-19T04:29:02.000Z</time>
      </trkpt>
      <trkpt lat="45.20679" lon="5.72577">
        <ele>637.79998779297</ele>
        <time>2021-08-19T04:29:04.000Z</time>
      </trkpt>
      <trkpt lat="45.20674" lon="5.7258">
        <ele>636.79998779297</ele>
        <time>2021-08-19T04:29:06.000Z</time>
      </trkpt>
      <trkpt lat="45.20669" lon="5.72587">
        <ele>636</ele>
        <time>2021-08-19T04:29:09.000Z</time>
      </trkpt>
      <trkpt lat="45.20666" lon="5.72588">
        <ele>635.59997558594</ele>
        <time>2021-08-19T04:29:10.000Z</time>
      </trkpt>
      <trkpt lat="45.20665" lon="5.72591">
        <ele>635</ele>
        <time>2021-08-19T04:29:12.000Z</time>
      </trkpt>
      <trkpt lat="45.20664" lon="5.72592">
        <ele>634.79998779297</ele>
        <time>2021-08-19T04:29:13.000Z</time>
      </trkpt>
      <trkpt lat="45.20663" lon="5.72594">
        <ele>634.59997558594</ele>
        <time>2021-08-19T04:29:14.000Z</time>
      </trkpt>
      <trkpt lat="45.20661" lon="5.72596">
        <ele>634.59997558594</ele>
        <time>2021-08-19T04:29:15.000Z</time>
      </trkpt>
      <trkpt lat="45.20656" lon="5.726">
        <ele>634.20001220703</ele>
        <time>2021-08-19T04:29:17.000Z</time>
      </trkpt>
      <trkpt lat="45.20652" lon="5.72602">
        <ele>633.59997558594</ele>
        <time>2021-08-19T04:29:19.000Z</time>
      </trkpt>
      <trkpt lat="45.20641" lon="5.72603">
        <ele>633.20001220703</ele>
        <time>2021-08-19T04:29:24.000Z</time>
      </trkpt>
      <trkpt lat="45.20637" lon="5.72602">
        <ele>633</ele>
        <time>2021-08-19T04:29:26.000Z</time>
      </trkpt>
      <trkpt lat="45.20634" lon="5.726">
        <ele>630.40002441406</ele>
        <time>2021-08-19T04:29:28.000Z</time>
      </trkpt>
      <trkpt lat="45.20627" lon="5.72597">
        <ele>630.20001220703</ele>
        <time>2021-08-19T04:29:32.000Z</time>
      </trkpt>
      <trkpt lat="45.20619" lon="5.72591">
        <ele>629</ele>
        <time>2021-08-19T04:29:36.000Z</time>
      </trkpt>
      <trkpt lat="45.20615" lon="5.72587">
        <ele>628.59997558594</ele>
        <time>2021-08-19T04:29:38.000Z</time>
      </trkpt>
      <trkpt lat="45.20601" lon="5.72578">
        <ele>627.79998779297</ele>
        <time>2021-08-19T04:29:43.000Z</time>
      </trkpt>
      <trkpt lat="45.20599" lon="5.72576">
        <ele>627.59997558594</ele>
        <time>2021-08-19T04:29:44.000Z</time>
      </trkpt>
      <trkpt lat="45.20589" lon="5.7257">
        <ele>627</ele>
        <time>2021-08-19T04:29:49.000Z</time>
      </trkpt>
      <trkpt lat="45.20584" lon="5.72569">
        <ele>626.59997558594</ele>
        <time>2021-08-19T04:29:51.000Z</time>
      </trkpt>
      <trkpt lat="45.20582" lon="5.72569">
        <ele>626.59997558594</ele>
        <time>2021-08-19T04:29:52.000Z</time>
      </trkpt>
      <trkpt lat="45.20578" lon="5.72567">
        <ele>625.79998779297</ele>
        <time>2021-08-19T04:29:54.000Z</time>
      </trkpt>
      <trkpt lat="45.20576" lon="5.72567">
        <ele>625.59997558594</ele>
        <time>2021-08-19T04:29:55.000Z</time>
      </trkpt>
      <trkpt lat="45.20565" lon="5.72568">
        <ele>625.20001220703</ele>
        <time>2021-08-19T04:29:58.000Z</time>
      </trkpt>
      <trkpt lat="45.2056" lon="5.7257">
        <ele>625.20001220703</ele>
        <time>2021-08-19T04:30:00.000Z</time>
      </trkpt>
      <trkpt lat="45.20553" lon="5.72571">
        <ele>624.40002441406</ele>
        <time>2021-08-19T04:30:03.000Z</time>
      </trkpt>
      <trkpt lat="45.20542" lon="5.72572">
        <ele>623.40002441406</ele>
        <time>2021-08-19T04:30:08.000Z</time>
      </trkpt>
      <trkpt lat="45.20535" lon="5.72576">
        <ele>622.59997558594</ele>
        <time>2021-08-19T04:30:13.000Z</time>
      </trkpt>
      <trkpt lat="45.20534" lon="5.72577">
        <ele>622</ele>
        <time>2021-08-19T04:30:14.000Z</time>
      </trkpt>
      <trkpt lat="45.20532" lon="5.72577">
        <ele>621.79998779297</ele>
        <time>2021-08-19T04:30:15.000Z</time>
      </trkpt>
      <trkpt lat="45.20529" lon="5.72579">
        <ele>621.59997558594</ele>
        <time>2021-08-19T04:30:17.000Z</time>
      </trkpt>
      <trkpt lat="45.20526" lon="5.7258">
        <ele>621.59997558594</ele>
        <time>2021-08-19T04:30:18.000Z</time>
      </trkpt>
      <trkpt lat="45.20522" lon="5.72582">
        <ele>620.79998779297</ele>
        <time>2021-08-19T04:30:20.000Z</time>
      </trkpt>
      <trkpt lat="45.20507" lon="5.72578">
        <ele>620</ele>
        <time>2021-08-19T04:30:26.000Z</time>
      </trkpt>
      <trkpt lat="45.20499" lon="5.72575">
        <ele>619.59997558594</ele>
        <time>2021-08-19T04:30:28.000Z</time>
      </trkpt>
      <trkpt lat="45.2049" lon="5.72571">
        <ele>619.59997558594</ele>
        <time>2021-08-19T04:30:31.000Z</time>
      </trkpt>
      <trkpt lat="45.20484" lon="5.72564">
        <ele>618.59997558594</ele>
        <time>2021-08-19T04:30:34.000Z</time>
      </trkpt>
      <trkpt lat="45.2048" lon="5.72559">
        <ele>618.40002441406</ele>
        <time>2021-08-19T04:30:36.000Z</time>
      </trkpt>
      <trkpt lat="45.20474" lon="5.72553">
        <ele>617.59997558594</ele>
        <time>2021-08-19T04:30:39.000Z</time>
      </trkpt>
      <trkpt lat="45.20471" lon="5.72549">
        <ele>617.40002441406</ele>
        <time>2021-08-19T04:30:41.000Z</time>
      </trkpt>
      <trkpt lat="45.20465" lon="5.72543">
        <ele>616.40002441406</ele>
        <time>2021-08-19T04:30:44.000Z</time>
      </trkpt>
      <trkpt lat="45.20458" lon="5.72536">
        <ele>615.20001220703</ele>
        <time>2021-08-19T04:30:47.000Z</time>
      </trkpt>
      <trkpt lat="45.20448" lon="5.72524">
        <ele>614.20001220703</ele>
        <time>2021-08-19T04:30:53.000Z</time>
      </trkpt>
      <trkpt lat="45.20445" lon="5.72526">
        <ele>613.20001220703</ele>
        <time>2021-08-19T04:30:56.000Z</time>
      </trkpt>
      <trkpt lat="45.20445" lon="5.72528">
        <ele>613</ele>
        <time>2021-08-19T04:30:57.000Z</time>
      </trkpt>
      <trkpt lat="45.20444" lon="5.72533">
        <ele>612.20001220703</ele>
        <time>2021-08-19T04:31:00.000Z</time>
      </trkpt>
      <trkpt lat="45.20444" lon="5.72535">
        <ele>612</ele>
        <time>2021-08-19T04:31:01.000Z</time>
      </trkpt>
      <trkpt lat="45.20446" lon="5.7254">
        <ele>611.59997558594</ele>
        <time>2021-08-19T04:31:03.000Z</time>
      </trkpt>
      <trkpt lat="45.20451" lon="5.72549">
        <ele>610.79998779297</ele>
        <time>2021-08-19T04:31:06.000Z</time>
      </trkpt>
      <trkpt lat="45.20453" lon="5.72556">
        <ele>610</ele>
        <time>2021-08-19T04:31:10.000Z</time>
      </trkpt>
      <trkpt lat="45.20455" lon="5.72559">
        <ele>609.79998779297</ele>
        <time>2021-08-19T04:31:11.000Z</time>
      </trkpt>
      <trkpt lat="45.2046" lon="5.72569">
        <ele>608.40002441406</ele>
        <time>2021-08-19T04:31:16.000Z</time>
      </trkpt>
      <trkpt lat="45.2047" lon="5.72587">
        <ele>607</ele>
        <time>2021-08-19T04:31:23.000Z</time>
      </trkpt>
      <trkpt lat="45.20471" lon="5.72589">
        <ele>606.79998779297</ele>
        <time>2021-08-19T04:31:24.000Z</time>
      </trkpt>
      <trkpt lat="45.20475" lon="5.72595">
        <ele>606</ele>
        <time>2021-08-19T04:31:27.000Z</time>
      </trkpt>
      <trkpt lat="45.20479" lon="5.72601">
        <ele>605.59997558594</ele>
        <time>2021-08-19T04:31:30.000Z</time>
      </trkpt>
      <trkpt lat="45.20481" lon="5.72604">
        <ele>604.79998779297</ele>
        <time>2021-08-19T04:31:31.000Z</time>
      </trkpt>
      <trkpt lat="45.20487" lon="5.72612">
        <ele>603.79998779297</ele>
        <time>2021-08-19T04:31:35.000Z</time>
      </trkpt>
      <trkpt lat="45.20497" lon="5.7262">
        <ele>602.59997558594</ele>
        <time>2021-08-19T04:31:40.000Z</time>
      </trkpt>
      <trkpt lat="45.20502" lon="5.72624">
        <ele>602</ele>
        <time>2021-08-19T04:31:42.000Z</time>
      </trkpt>
      <trkpt lat="45.20506" lon="5.72627">
        <ele>601.59997558594</ele>
        <time>2021-08-19T04:31:44.000Z</time>
      </trkpt>
      <trkpt lat="45.20508" lon="5.72628">
        <ele>601.40002441406</ele>
        <time>2021-08-19T04:31:45.000Z</time>
      </trkpt>
      <trkpt lat="45.20515" lon="5.72631">
        <ele>600.59997558594</ele>
        <time>2021-08-19T04:31:48.000Z</time>
      </trkpt>
      <trkpt lat="45.20517" lon="5.72632">
        <ele>600</ele>
        <time>2021-08-19T04:31:49.000Z</time>
      </trkpt>
      <trkpt lat="45.20523" lon="5.72642">
        <ele>599</ele>
        <time>2021-08-19T04:31:53.000Z</time>
      </trkpt>
      <trkpt lat="45.20527" lon="5.72653">
        <ele>597.79998779297</ele>
        <time>2021-08-19T04:31:57.000Z</time>
      </trkpt>
      <trkpt lat="45.2053" lon="5.72659">
        <ele>597.79998779297</ele>
        <time>2021-08-19T04:31:59.000Z</time>
      </trkpt>
      <trkpt lat="45.20536" lon="5.72665">
        <ele>596.79998779297</ele>
        <time>2021-08-19T04:32:02.000Z</time>
      </trkpt>
      <trkpt lat="45.20547" lon="5.72675">
        <ele>595.59997558594</ele>
        <time>2021-08-19T04:32:06.000Z</time>
      </trkpt>
      <trkpt lat="45.20563" lon="5.72688">
        <ele>595</ele>
        <time>2021-08-19T04:32:12.000Z</time>
      </trkpt>
      <trkpt lat="45.20566" lon="5.7269">
        <ele>595</ele>
        <time>2021-08-19T04:32:13.000Z</time>
      </trkpt>
      <trkpt lat="45.2057" lon="5.72692">
        <ele>594.40002441406</ele>
        <time>2021-08-19T04:32:15.000Z</time>
      </trkpt>
      <trkpt lat="45.20576" lon="5.72697">
        <ele>594.40002441406</ele>
        <time>2021-08-19T04:32:18.000Z</time>
      </trkpt>
      <trkpt lat="45.20577" lon="5.727">
        <ele>594</ele>
        <time>2021-08-19T04:32:19.000Z</time>
      </trkpt>
      <trkpt lat="45.20577" lon="5.72704">
        <ele>593.79998779297</ele>
        <time>2021-08-19T04:32:21.000Z</time>
      </trkpt>
      <trkpt lat="45.20574" lon="5.72706">
        <ele>593.59997558594</ele>
        <time>2021-08-19T04:32:23.000Z</time>
      </trkpt>
      <trkpt lat="45.20569" lon="5.72708">
        <ele>592.59997558594</ele>
        <time>2021-08-19T04:32:25.000Z</time>
      </trkpt>
      <trkpt lat="45.20566" lon="5.72707">
        <ele>591.59997558594</ele>
        <time>2021-08-19T04:32:27.000Z</time>
      </trkpt>
      <trkpt lat="45.20561" lon="5.72704">
        <ele>591</ele>
        <time>2021-08-19T04:32:30.000Z</time>
      </trkpt>
      <trkpt lat="45.20557" lon="5.72704">
        <ele>590.40002441406</ele>
        <time>2021-08-19T04:32:32.000Z</time>
      </trkpt>
      <trkpt lat="45.20549" lon="5.72703">
        <ele>589.59997558594</ele>
        <time>2021-08-19T04:32:36.000Z</time>
      </trkpt>
      <trkpt lat="45.20547" lon="5.72703">
        <ele>589.20001220703</ele>
        <time>2021-08-19T04:32:37.000Z</time>
      </trkpt>
      <trkpt lat="45.20537" lon="5.72699">
        <ele>588.20001220703</ele>
        <time>2021-08-19T04:32:42.000Z</time>
      </trkpt>
      <trkpt lat="45.20534" lon="5.72696">
        <ele>587.79998779297</ele>
        <time>2021-08-19T04:32:44.000Z</time>
      </trkpt>
      <trkpt lat="45.20527" lon="5.72688">
        <ele>586.79998779297</ele>
        <time>2021-08-19T04:32:48.000Z</time>
      </trkpt>
      <trkpt lat="45.20524" lon="5.72686">
        <ele>585.79998779297</ele>
        <time>2021-08-19T04:32:50.000Z</time>
      </trkpt>
      <trkpt lat="45.20523" lon="5.72685">
        <ele>585.59997558594</ele>
        <time>2021-08-19T04:32:51.000Z</time>
      </trkpt>
      <trkpt lat="45.20518" lon="5.72682">
        <ele>585</ele>
        <time>2021-08-19T04:32:54.000Z</time>
      </trkpt>
      <trkpt lat="45.20514" lon="5.72681">
        <ele>584.79998779297</ele>
        <time>2021-08-19T04:32:56.000Z</time>
      </trkpt>
      <trkpt lat="45.20503" lon="5.7268">
        <ele>583.79998779297</ele>
        <time>2021-08-19T04:33:02.000Z</time>
      </trkpt>
      <trkpt lat="45.20496" lon="5.72681">
        <ele>582.59997558594</ele>
        <time>2021-08-19T04:33:05.000Z</time>
      </trkpt>
      <trkpt lat="45.20488" lon="5.72678">
        <ele>582</ele>
        <time>2021-08-19T04:33:09.000Z</time>
      </trkpt>
      <trkpt lat="45.20483" lon="5.72678">
        <ele>581.20001220703</ele>
        <time>2021-08-19T04:33:11.000Z</time>
      </trkpt>
      <trkpt lat="45.20481" lon="5.72677">
        <ele>580.79998779297</ele>
        <time>2021-08-19T04:33:12.000Z</time>
      </trkpt>
      <trkpt lat="45.20475" lon="5.72674">
        <ele>580.20001220703</ele>
        <time>2021-08-19T04:33:15.000Z</time>
      </trkpt>
      <trkpt lat="45.20473" lon="5.72673">
        <ele>579.79998779297</ele>
        <time>2021-08-19T04:33:16.000Z</time>
      </trkpt>
      <trkpt lat="45.20469" lon="5.72672">
        <ele>579</ele>
        <time>2021-08-19T04:33:18.000Z</time>
      </trkpt>
      <trkpt lat="45.20463" lon="5.72668">
        <ele>578.20001220703</ele>
        <time>2021-08-19T04:33:21.000Z</time>
      </trkpt>
      <trkpt lat="45.20462" lon="5.72667">
        <ele>578</ele>
        <time>2021-08-19T04:33:22.000Z</time>
      </trkpt>
      <trkpt lat="45.20456" lon="5.72668">
        <ele>577.59997558594</ele>
        <time>2021-08-19T04:33:24.000Z</time>
      </trkpt>
      <trkpt lat="45.20454" lon="5.72668">
        <ele>577.40002441406</ele>
        <time>2021-08-19T04:33:25.000Z</time>
      </trkpt>
      <trkpt lat="45.20449" lon="5.72668">
        <ele>577.20001220703</ele>
        <time>2021-08-19T04:33:27.000Z</time>
      </trkpt>
      <trkpt lat="45.20447" lon="5.72669">
        <ele>576.59997558594</ele>
        <time>2021-08-19T04:33:28.000Z</time>
      </trkpt>
      <trkpt lat="45.20441" lon="5.7267">
        <ele>576.40002441406</ele>
        <time>2021-08-19T04:33:30.000Z</time>
      </trkpt>
      <trkpt lat="45.20437" lon="5.72667">
        <ele>575.40002441406</ele>
        <time>2021-08-19T04:33:32.000Z</time>
      </trkpt>
      <trkpt lat="45.2043" lon="5.72661">
        <ele>575</ele>
        <time>2021-08-19T04:33:35.000Z</time>
      </trkpt>
      <trkpt lat="45.20426" lon="5.72656">
        <ele>573.79998779297</ele>
        <time>2021-08-19T04:33:37.000Z</time>
      </trkpt>
      <trkpt lat="45.20424" lon="5.72653">
        <ele>573.79998779297</ele>
        <time>2021-08-19T04:33:38.000Z</time>
      </trkpt>
      <trkpt lat="45.20418" lon="5.72648">
        <ele>573.59997558594</ele>
        <time>2021-08-19T04:33:41.000Z</time>
      </trkpt>
      <trkpt lat="45.20415" lon="5.72648">
        <ele>573.20001220703</ele>
        <time>2021-08-19T04:33:43.000Z</time>
      </trkpt>
      <trkpt lat="45.20415" lon="5.72648">
        <ele>572.79998779297</ele>
        <time>2021-08-19T04:33:44.000Z</time>
      </trkpt>
      <trkpt lat="45.20416" lon="5.72647">
        <ele>572.59997558594</ele>
        <time>2021-08-19T04:33:45.000Z</time>
      </trkpt>
      <trkpt lat="45.20416" lon="5.72647">
        <ele>572.40002441406</ele>
        <time>2021-08-19T04:33:46.000Z</time>
      </trkpt>
      <trkpt lat="45.20419" lon="5.72647">
        <ele>571.40002441406</ele>
        <time>2021-08-19T04:33:49.000Z</time>
      </trkpt>
      <trkpt lat="45.20423" lon="5.7265">
        <ele>570.79998779297</ele>
        <time>2021-08-19T04:33:51.000Z</time>
      </trkpt>
      <trkpt lat="45.20428" lon="5.72653">
        <ele>570.40002441406</ele>
        <time>2021-08-19T04:33:53.000Z</time>
      </trkpt>
      <trkpt lat="45.20435" lon="5.7266">
        <ele>569.40002441406</ele>
        <time>2021-08-19T04:33:57.000Z</time>
      </trkpt>
      <trkpt lat="45.20436" lon="5.72662">
        <ele>569.20001220703</ele>
        <time>2021-08-19T04:33:58.000Z</time>
      </trkpt>
      <trkpt lat="45.20441" lon="5.72666">
        <ele>568</ele>
        <time>2021-08-19T04:34:01.000Z</time>
      </trkpt>
      <trkpt lat="45.20443" lon="5.72667">
        <ele>567.79998779297</ele>
        <time>2021-08-19T04:34:02.000Z</time>
      </trkpt>
      <trkpt lat="45.20446" lon="5.72673">
        <ele>567</ele>
        <time>2021-08-19T04:34:06.000Z</time>
      </trkpt>
      <trkpt lat="45.20448" lon="5.72674">
        <ele>566.59997558594</ele>
        <time>2021-08-19T04:34:07.000Z</time>
      </trkpt>
      <trkpt lat="45.2045" lon="5.72676">
        <ele>566.40002441406</ele>
        <time>2021-08-19T04:34:08.000Z</time>
      </trkpt>
      <trkpt lat="45.20456" lon="5.72683">
        <ele>565.40002441406</ele>
        <time>2021-08-19T04:34:13.000Z</time>
      </trkpt>
      <trkpt lat="45.20461" lon="5.72689">
        <ele>564.20001220703</ele>
        <time>2021-08-19T04:34:16.000Z</time>
      </trkpt>
      <trkpt lat="45.20462" lon="5.72691">
        <ele>564.20001220703</ele>
        <time>2021-08-19T04:34:17.000Z</time>
      </trkpt>
      <trkpt lat="45.20465" lon="5.72696">
        <ele>563.59997558594</ele>
        <time>2021-08-19T04:34:19.000Z</time>
      </trkpt>
      <trkpt lat="45.20469" lon="5.727">
        <ele>563.40002441406</ele>
        <time>2021-08-19T04:34:21.000Z</time>
      </trkpt>
      <trkpt lat="45.20471" lon="5.72701">
        <ele>563</ele>
        <time>2021-08-19T04:34:22.000Z</time>
      </trkpt>
      <trkpt lat="45.20475" lon="5.72705">
        <ele>562.59997558594</ele>
        <time>2021-08-19T04:34:24.000Z</time>
      </trkpt>
      <trkpt lat="45.20479" lon="5.72708">
        <ele>561.59997558594</ele>
        <time>2021-08-19T04:34:26.000Z</time>
      </trkpt>
      <trkpt lat="45.2048" lon="5.7271">
        <ele>561.59997558594</ele>
        <time>2021-08-19T04:34:27.000Z</time>
      </trkpt>
      <trkpt lat="45.20485" lon="5.72714">
        <ele>561.59997558594</ele>
        <time>2021-08-19T04:34:30.000Z</time>
      </trkpt>
      <trkpt lat="45.20488" lon="5.7272">
        <ele>560.59997558594</ele>
        <time>2021-08-19T04:34:33.000Z</time>
      </trkpt>
      <trkpt lat="45.20496" lon="5.72731">
        <ele>559.59997558594</ele>
        <time>2021-08-19T04:34:38.000Z</time>
      </trkpt>
      <trkpt lat="45.20502" lon="5.72737">
        <ele>558.40002441406</ele>
        <time>2021-08-19T04:34:41.000Z</time>
      </trkpt>
      <trkpt lat="45.20508" lon="5.72745">
        <ele>558.20001220703</ele>
        <time>2021-08-19T04:34:44.000Z</time>
      </trkpt>
      <trkpt lat="45.20509" lon="5.72748">
        <ele>557.79998779297</ele>
        <time>2021-08-19T04:34:45.000Z</time>
      </trkpt>
      <trkpt lat="45.20508" lon="5.72751">
        <ele>557</ele>
        <time>2021-08-19T04:34:46.000Z</time>
      </trkpt>
      <trkpt lat="45.20504" lon="5.72752">
        <ele>556.59997558594</ele>
        <time>2021-08-19T04:34:48.000Z</time>
      </trkpt>
      <trkpt lat="45.20499" lon="5.72749">
        <ele>556</ele>
        <time>2021-08-19T04:34:50.000Z</time>
      </trkpt>
      <trkpt lat="45.20492" lon="5.72745">
        <ele>555.40002441406</ele>
        <time>2021-08-19T04:34:53.000Z</time>
      </trkpt>
      <trkpt lat="45.20486" lon="5.72742">
        <ele>554.59997558594</ele>
        <time>2021-08-19T04:34:56.000Z</time>
      </trkpt>
      <trkpt lat="45.20479" lon="5.7274">
        <ele>554.40002441406</ele>
        <time>2021-08-19T04:34:59.000Z</time>
      </trkpt>
      <trkpt lat="45.20474" lon="5.72737">
        <ele>553.59997558594</ele>
        <time>2021-08-19T04:35:02.000Z</time>
      </trkpt>
      <trkpt lat="45.20471" lon="5.72736">
        <ele>552.40002441406</ele>
        <time>2021-08-19T04:35:04.000Z</time>
      </trkpt>
      <trkpt lat="45.20468" lon="5.72736">
        <ele>552.40002441406</ele>
        <time>2021-08-19T04:35:05.000Z</time>
      </trkpt>
      <trkpt lat="45.20457" lon="5.72734">
        <ele>551.40002441406</ele>
        <time>2021-08-19T04:35:10.000Z</time>
      </trkpt>
      <trkpt lat="45.20452" lon="5.72734">
        <ele>550.59997558594</ele>
        <time>2021-08-19T04:35:12.000Z</time>
      </trkpt>
      <trkpt lat="45.20451" lon="5.72735">
        <ele>550.20001220703</ele>
        <time>2021-08-19T04:35:13.000Z</time>
      </trkpt>
      <trkpt lat="45.20445" lon="5.72735">
        <ele>549.59997558594</ele>
        <time>2021-08-19T04:35:16.000Z</time>
      </trkpt>
      <trkpt lat="45.20437" lon="5.72734">
        <ele>548.20001220703</ele>
        <time>2021-08-19T04:35:19.000Z</time>
      </trkpt>
      <trkpt lat="45.20432" lon="5.72732">
        <ele>548</ele>
        <time>2021-08-19T04:35:21.000Z</time>
      </trkpt>
      <trkpt lat="45.20427" lon="5.72729">
        <ele>546.79998779297</ele>
        <time>2021-08-19T04:35:24.000Z</time>
      </trkpt>
      <trkpt lat="45.20419" lon="5.72722">
        <ele>545.79998779297</ele>
        <time>2021-08-19T04:35:28.000Z</time>
      </trkpt>
      <trkpt lat="45.20412" lon="5.72715">
        <ele>544.59997558594</ele>
        <time>2021-08-19T04:35:32.000Z</time>
      </trkpt>
      <trkpt lat="45.20409" lon="5.72712">
        <ele>544</ele>
        <time>2021-08-19T04:35:34.000Z</time>
      </trkpt>
      <trkpt lat="45.20405" lon="5.72708">
        <ele>543.20001220703</ele>
        <time>2021-08-19T04:35:36.000Z</time>
      </trkpt>
      <trkpt lat="45.20399" lon="5.72703">
        <ele>542.79998779297</ele>
        <time>2021-08-19T04:35:39.000Z</time>
      </trkpt>
      <trkpt lat="45.20396" lon="5.72701">
        <ele>542</ele>
        <time>2021-08-19T04:35:41.000Z</time>
      </trkpt>
      <trkpt lat="45.20392" lon="5.72695">
        <ele>541</ele>
        <time>2021-08-19T04:35:44.000Z</time>
      </trkpt>
      <trkpt lat="45.2039" lon="5.72693">
        <ele>540.79998779297</ele>
        <time>2021-08-19T04:35:45.000Z</time>
      </trkpt>
      <trkpt lat="45.20384" lon="5.72686">
        <ele>539.40002441406</ele>
        <time>2021-08-19T04:35:49.000Z</time>
      </trkpt>
      <trkpt lat="45.20378" lon="5.72683">
        <ele>538.59997558594</ele>
        <time>2021-08-19T04:35:52.000Z</time>
      </trkpt>
      <trkpt lat="45.20375" lon="5.7268">
        <ele>538</ele>
        <time>2021-08-19T04:35:54.000Z</time>
      </trkpt>
      <trkpt lat="45.20368" lon="5.72674">
        <ele>537.40002441406</ele>
        <time>2021-08-19T04:35:58.000Z</time>
      </trkpt>
      <trkpt lat="45.20367" lon="5.72673">
        <ele>536.79998779297</ele>
        <time>2021-08-19T04:35:59.000Z</time>
      </trkpt>
      <trkpt lat="45.20364" lon="5.72668">
        <ele>536.20001220703</ele>
        <time>2021-08-19T04:36:02.000Z</time>
      </trkpt>
      <trkpt lat="45.20363" lon="5.72666">
        <ele>536</ele>
        <time>2021-08-19T04:36:03.000Z</time>
      </trkpt>
      <trkpt lat="45.20361" lon="5.72665">
        <ele>535.40002441406</ele>
        <time>2021-08-19T04:36:04.000Z</time>
      </trkpt>
      <trkpt lat="45.20356" lon="5.72663">
        <ele>534.59997558594</ele>
        <time>2021-08-19T04:36:07.000Z</time>
      </trkpt>
      <trkpt lat="45.20354" lon="5.72662">
        <ele>534.20001220703</ele>
        <time>2021-08-19T04:36:08.000Z</time>
      </trkpt>
      <trkpt lat="45.20348" lon="5.72657">
        <ele>532.79998779297</ele>
        <time>2021-08-19T04:36:12.000Z</time>
      </trkpt>
      <trkpt lat="45.20344" lon="5.72654">
        <ele>532.79998779297</ele>
        <time>2021-08-19T04:36:14.000Z</time>
      </trkpt>
      <trkpt lat="45.20335" lon="5.72648">
        <ele>531.79998779297</ele>
        <time>2021-08-19T04:36:17.000Z</time>
      </trkpt>
      <trkpt lat="45.20331" lon="5.72643">
        <ele>531.20001220703</ele>
        <time>2021-08-19T04:36:19.000Z</time>
      </trkpt>
      <trkpt lat="45.20324" lon="5.72639">
        <ele>530.20001220703</ele>
        <time>2021-08-19T04:36:22.000Z</time>
      </trkpt>
      <trkpt lat="45.2032" lon="5.72637">
        <ele>529.79998779297</ele>
        <time>2021-08-19T04:36:24.000Z</time>
      </trkpt>
      <trkpt lat="45.20319" lon="5.72638">
        <ele>529.79998779297</ele>
        <time>2021-08-19T04:36:25.000Z</time>
      </trkpt>
      <trkpt lat="45.20316" lon="5.72637">
        <ele>528.40002441406</ele>
        <time>2021-08-19T04:36:27.000Z</time>
      </trkpt>
      <trkpt lat="45.20308" lon="5.72634">
        <ele>527.59997558594</ele>
        <time>2021-08-19T04:36:31.000Z</time>
      </trkpt>
      <trkpt lat="45.20306" lon="5.72633">
        <ele>527.40002441406</ele>
        <time>2021-08-19T04:36:32.000Z</time>
      </trkpt>
      <trkpt lat="45.20299" lon="5.72632">
        <ele>526.40002441406</ele>
        <time>2021-08-19T04:36:36.000Z</time>
      </trkpt>
      <trkpt lat="45.20296" lon="5.72631">
        <ele>525.79998779297</ele>
        <time>2021-08-19T04:36:37.000Z</time>
      </trkpt>
      <trkpt lat="45.20294" lon="5.72631">
        <ele>525.59997558594</ele>
        <time>2021-08-19T04:36:38.000Z</time>
      </trkpt>
      <trkpt lat="45.20292" lon="5.72631">
        <ele>525.20001220703</ele>
        <time>2021-08-19T04:36:39.000Z</time>
      </trkpt>
      <trkpt lat="45.20286" lon="5.72631">
        <ele>524.20001220703</ele>
        <time>2021-08-19T04:36:42.000Z</time>
      </trkpt>
      <trkpt lat="45.20283" lon="5.72627">
        <ele>523.40002441406</ele>
        <time>2021-08-19T04:36:44.000Z</time>
      </trkpt>
      <trkpt lat="45.20281" lon="5.72626">
        <ele>523</ele>
        <time>2021-08-19T04:36:45.000Z</time>
      </trkpt>
      <trkpt lat="45.20274" lon="5.72627">
        <ele>522</ele>
        <time>2021-08-19T04:36:49.000Z</time>
      </trkpt>
      <trkpt lat="45.20272" lon="5.72627">
        <ele>521.59997558594</ele>
        <time>2021-08-19T04:36:50.000Z</time>
      </trkpt>
      <trkpt lat="45.20265" lon="5.72628">
        <ele>520.40002441406</ele>
        <time>2021-08-19T04:36:53.000Z</time>
      </trkpt>
      <trkpt lat="45.20258" lon="5.72629">
        <ele>519.59997558594</ele>
        <time>2021-08-19T04:36:57.000Z</time>
      </trkpt>
      <trkpt lat="45.20253" lon="5.72627">
        <ele>519</ele>
        <time>2021-08-19T04:36:59.000Z</time>
      </trkpt>
      <trkpt lat="45.20246" lon="5.72627">
        <ele>518</ele>
        <time>2021-08-19T04:37:02.000Z</time>
      </trkpt>
      <trkpt lat="45.20244" lon="5.72627">
        <ele>517.20001220703</ele>
        <time>2021-08-19T04:37:03.000Z</time>
      </trkpt>
      <trkpt lat="45.20242" lon="5.72626">
        <ele>516.59997558594</ele>
        <time>2021-08-19T04:37:04.000Z</time>
      </trkpt>
      <trkpt lat="45.20233" lon="5.72625">
        <ele>515.79998779297</ele>
        <time>2021-08-19T04:37:08.000Z</time>
      </trkpt>
      <trkpt lat="45.20227" lon="5.72623">
        <ele>514.59997558594</ele>
        <time>2021-08-19T04:37:10.000Z</time>
      </trkpt>
      <trkpt lat="45.20224" lon="5.7262">
        <ele>514.59997558594</ele>
        <time>2021-08-19T04:37:12.000Z</time>
      </trkpt>
      <trkpt lat="45.20222" lon="5.72617">
        <ele>514</ele>
        <time>2021-08-19T04:37:13.000Z</time>
      </trkpt>
      <trkpt lat="45.20218" lon="5.72613">
        <ele>513</ele>
        <time>2021-08-19T04:37:15.000Z</time>
      </trkpt>
      <trkpt lat="45.20208" lon="5.72609">
        <ele>512.20001220703</ele>
        <time>2021-08-19T04:37:19.000Z</time>
      </trkpt>
      <trkpt lat="45.20206" lon="5.72608">
        <ele>512</ele>
        <time>2021-08-19T04:37:20.000Z</time>
      </trkpt>
      <trkpt lat="45.20199" lon="5.72605">
        <ele>511</ele>
        <time>2021-08-19T04:37:23.000Z</time>
      </trkpt>
      <trkpt lat="45.20192" lon="5.726">
        <ele>509.60000610352</ele>
        <time>2021-08-19T04:37:26.000Z</time>
      </trkpt>
      <trkpt lat="45.2019" lon="5.72599">
        <ele>509.39999389648</ele>
        <time>2021-08-19T04:37:27.000Z</time>
      </trkpt>
      <trkpt lat="45.20181" lon="5.72591">
        <ele>508</ele>
        <time>2021-08-19T04:37:31.000Z</time>
      </trkpt>
      <trkpt lat="45.20177" lon="5.72589">
        <ele>507.60000610352</ele>
        <time>2021-08-19T04:37:33.000Z</time>
      </trkpt>
      <trkpt lat="45.20173" lon="5.72587">
        <ele>507</ele>
        <time>2021-08-19T04:37:35.000Z</time>
      </trkpt>
      <trkpt lat="45.20165" lon="5.72582">
        <ele>505.39999389648</ele>
        <time>2021-08-19T04:37:39.000Z</time>
      </trkpt>
      <trkpt lat="45.20153" lon="5.72576">
        <ele>504.20001220703</ele>
        <time>2021-08-19T04:37:44.000Z</time>
      </trkpt>
      <trkpt lat="45.20147" lon="5.72573">
        <ele>503.79998779297</ele>
        <time>2021-08-19T04:37:47.000Z</time>
      </trkpt>
      <trkpt lat="45.20143" lon="5.72572">
        <ele>503</ele>
        <time>2021-08-19T04:37:49.000Z</time>
      </trkpt>
      <trkpt lat="45.20136" lon="5.72569">
        <ele>501.79998779297</ele>
        <time>2021-08-19T04:37:53.000Z</time>
      </trkpt>
      <trkpt lat="45.20131" lon="5.72565">
        <ele>501</ele>
        <time>2021-08-19T04:37:56.000Z</time>
      </trkpt>
      <trkpt lat="45.20128" lon="5.72563">
        <ele>500.39999389648</ele>
        <time>2021-08-19T04:37:58.000Z</time>
      </trkpt>
      <trkpt lat="45.20124" lon="5.72561">
        <ele>499.39999389648</ele>
        <time>2021-08-19T04:38:01.000Z</time>
      </trkpt>
      <trkpt lat="45.20122" lon="5.7256">
        <ele>499.20001220703</ele>
        <time>2021-08-19T04:38:02.000Z</time>
      </trkpt>
      <trkpt lat="45.20121" lon="5.72559">
        <ele>498.60000610352</ele>
        <time>2021-08-19T04:38:03.000Z</time>
      </trkpt>
      <trkpt lat="45.20118" lon="5.72558">
        <ele>498.20001220703</ele>
        <time>2021-08-19T04:38:05.000Z</time>
      </trkpt>
      <trkpt lat="45.20111" lon="5.72555">
        <ele>496.60000610352</ele>
        <time>2021-08-19T04:38:09.000Z</time>
      </trkpt>
      <trkpt lat="45.20107" lon="5.72555">
        <ele>496.20001220703</ele>
        <time>2021-08-19T04:38:11.000Z</time>
      </trkpt>
      <trkpt lat="45.20103" lon="5.72555">
        <ele>495.39999389648</ele>
        <time>2021-08-19T04:38:13.000Z</time>
      </trkpt>
      <trkpt lat="45.201" lon="5.72555">
        <ele>494.20001220703</ele>
        <time>2021-08-19T04:38:15.000Z</time>
      </trkpt>
      <trkpt lat="45.20095" lon="5.72556">
        <ele>493.39999389648</ele>
        <time>2021-08-19T04:38:18.000Z</time>
      </trkpt>
      <trkpt lat="45.20092" lon="5.72556">
        <ele>492.60000610352</ele>
        <time>2021-08-19T04:38:19.000Z</time>
      </trkpt>
      <trkpt lat="45.20082" lon="5.72555">
        <ele>491</ele>
        <time>2021-08-19T04:38:23.000Z</time>
      </trkpt>
      <trkpt lat="45.20079" lon="5.72554">
        <ele>491</ele>
        <time>2021-08-19T04:38:24.000Z</time>
      </trkpt>
      <trkpt lat="45.20069" lon="5.72537">
        <ele>489.60000610352</ele>
        <time>2021-08-19T04:38:29.000Z</time>
      </trkpt>
      <trkpt lat="45.20069" lon="5.72517">
        <ele>489.79998779297</ele>
        <time>2021-08-19T04:38:33.000Z</time>
      </trkpt>
      <trkpt lat="45.20075" lon="5.72492">
        <ele>489.20001220703</ele>
        <time>2021-08-19T04:38:39.000Z</time>
      </trkpt>
      <trkpt lat="45.20075" lon="5.72486">
        <ele>488.60000610352</ele>
        <time>2021-08-19T04:38:41.000Z</time>
      </trkpt>
      <trkpt lat="45.20076" lon="5.72476">
        <ele>488.20001220703</ele>
        <time>2021-08-19T04:38:44.000Z</time>
      </trkpt>
      <trkpt lat="45.20076" lon="5.72469">
        <ele>487.79998779297</ele>
        <time>2021-08-19T04:38:47.000Z</time>
      </trkpt>
      <trkpt lat="45.20074" lon="5.72461">
        <ele>487.20001220703</ele>
        <time>2021-08-19T04:38:49.000Z</time>
      </trkpt>
      <trkpt lat="45.20068" lon="5.72445">
        <ele>486.20001220703</ele>
        <time>2021-08-19T04:38:53.000Z</time>
      </trkpt>
      <trkpt lat="45.20064" lon="5.7244">
        <ele>485.60000610352</ele>
        <time>2021-08-19T04:38:55.000Z</time>
      </trkpt>
      <trkpt lat="45.20061" lon="5.72439">
        <ele>485.20001220703</ele>
        <time>2021-08-19T04:38:56.000Z</time>
      </trkpt>
      <trkpt lat="45.20055" lon="5.72436">
        <ele>483.79998779297</ele>
        <time>2021-08-19T04:38:59.000Z</time>
      </trkpt>
      <trkpt lat="45.2005" lon="5.72435">
        <ele>483.79998779297</ele>
        <time>2021-08-19T04:39:01.000Z</time>
      </trkpt>
      <trkpt lat="45.20047" lon="5.72435">
        <ele>482.79998779297</ele>
        <time>2021-08-19T04:39:02.000Z</time>
      </trkpt>
      <trkpt lat="45.20035" lon="5.72435">
        <ele>481.20001220703</ele>
        <time>2021-08-19T04:39:07.000Z</time>
      </trkpt>
      <trkpt lat="45.20029" lon="5.72433">
        <ele>481</ele>
        <time>2021-08-19T04:39:09.000Z</time>
      </trkpt>
      <trkpt lat="45.20022" lon="5.72432">
        <ele>480</ele>
        <time>2021-08-19T04:39:12.000Z</time>
      </trkpt>
      <trkpt lat="45.2001" lon="5.72431">
        <ele>479.39999389648</ele>
        <time>2021-08-19T04:39:16.000Z</time>
      </trkpt>
      <trkpt lat="45.20007" lon="5.72431">
        <ele>478.79998779297</ele>
        <time>2021-08-19T04:39:17.000Z</time>
      </trkpt>
      <trkpt lat="45.20005" lon="5.72431">
        <ele>478.60000610352</ele>
        <time>2021-08-19T04:39:18.000Z</time>
      </trkpt>
      <trkpt lat="45.19994" lon="5.72431">
        <ele>477.60000610352</ele>
        <time>2021-08-19T04:39:22.000Z</time>
      </trkpt>
      <trkpt lat="45.19984" lon="5.7243">
        <ele>476.39999389648</ele>
        <time>2021-08-19T04:39:26.000Z</time>
      </trkpt>
      <trkpt lat="45.19973" lon="5.72428">
        <ele>474.79998779297</ele>
        <time>2021-08-19T04:39:30.000Z</time>
      </trkpt>
      <trkpt lat="45.19965" lon="5.72428">
        <ele>474</ele>
        <time>2021-08-19T04:39:33.000Z</time>
      </trkpt>
      <trkpt lat="45.1996" lon="5.72428">
        <ele>473.79998779297</ele>
        <time>2021-08-19T04:39:35.000Z</time>
      </trkpt>
      <trkpt lat="45.19956" lon="5.72429">
        <ele>472.60000610352</ele>
        <time>2021-08-19T04:39:37.000Z</time>
      </trkpt>
      <trkpt lat="45.19941" lon="5.72431">
        <ele>472.20001220703</ele>
        <time>2021-08-19T04:39:42.000Z</time>
      </trkpt>
      <trkpt lat="45.19924" lon="5.72434">
        <ele>472.20001220703</ele>
        <time>2021-08-19T04:39:48.000Z</time>
      </trkpt>
      <trkpt lat="45.19905" lon="5.72448">
        <ele>473.39999389648</ele>
        <time>2021-08-19T04:39:55.000Z</time>
      </trkpt>
      <trkpt lat="45.19899" lon="5.7245">
        <ele>473.79998779297</ele>
        <time>2021-08-19T04:39:57.000Z</time>
      </trkpt>
      <trkpt lat="45.19889" lon="5.72454">
        <ele>475.39999389648</ele>
        <time>2021-08-19T04:40:02.000Z</time>
      </trkpt>
      <trkpt lat="45.19889" lon="5.72462">
        <ele>475.79998779297</ele>
        <time>2021-08-19T04:40:05.000Z</time>
      </trkpt>
      <trkpt lat="45.19888" lon="5.72466">
        <ele>476.39999389648</ele>
        <time>2021-08-19T04:40:07.000Z</time>
      </trkpt>
      <trkpt lat="45.19887" lon="5.72468">
        <ele>476.60000610352</ele>
        <time>2021-08-19T04:40:09.000Z</time>
      </trkpt>
      <trkpt lat="45.19887" lon="5.72471">
        <ele>476.60000610352</ele>
        <time>2021-08-19T04:40:10.000Z</time>
      </trkpt>
      <trkpt lat="45.19887" lon="5.72475">
        <ele>476.79998779297</ele>
        <time>2021-08-19T04:40:11.000Z</time>
      </trkpt>
      <trkpt lat="45.19887" lon="5.72477">
        <ele>477</ele>
        <time>2021-08-19T04:40:12.000Z</time>
      </trkpt>
      <trkpt lat="45.19885" lon="5.72481">
        <ele>476.79998779297</ele>
        <time>2021-08-19T04:40:14.000Z</time>
      </trkpt>
      <trkpt lat="45.19882" lon="5.72483">
        <ele>476.79998779297</ele>
        <time>2021-08-19T04:40:15.000Z</time>
      </trkpt>
      <trkpt lat="45.19874" lon="5.7249">
        <ele>476.79998779297</ele>
        <time>2021-08-19T04:40:18.000Z</time>
      </trkpt>
      <trkpt lat="45.19862" lon="5.72501">
        <ele>476</ele>
        <time>2021-08-19T04:40:24.000Z</time>
      </trkpt>
      <trkpt lat="45.19862" lon="5.72502">
        <ele>476</ele>
        <time>2021-08-19T04:40:25.000Z</time>
      </trkpt>
      <trkpt lat="45.19865" lon="5.72513">
        <ele>475.60000610352</ele>
        <time>2021-08-19T04:40:29.000Z</time>
      </trkpt>
      <trkpt lat="45.19867" lon="5.72527">
        <ele>475.39999389648</ele>
        <time>2021-08-19T04:40:33.000Z</time>
      </trkpt>
      <trkpt lat="45.19868" lon="5.72534">
        <ele>475.20001220703</ele>
        <time>2021-08-19T04:40:35.000Z</time>
      </trkpt>
      <trkpt lat="45.19868" lon="5.7254">
        <ele>474.60000610352</ele>
        <time>2021-08-19T04:40:37.000Z</time>
      </trkpt>
      <trkpt lat="45.1987" lon="5.72548">
        <ele>474</ele>
        <time>2021-08-19T04:40:39.000Z</time>
      </trkpt>
      <trkpt lat="45.19871" lon="5.72557">
        <ele>472.60000610352</ele>
        <time>2021-08-19T04:40:42.000Z</time>
      </trkpt>
      <trkpt lat="45.1987" lon="5.72559">
        <ele>472.60000610352</ele>
        <time>2021-08-19T04:40:43.000Z</time>
      </trkpt>
      <trkpt lat="45.19865" lon="5.72552">
        <ele>472.20001220703</ele>
        <time>2021-08-19T04:40:46.000Z</time>
      </trkpt>
      <trkpt lat="45.19862" lon="5.72542">
        <ele>471.20001220703</ele>
        <time>2021-08-19T04:40:49.000Z</time>
      </trkpt>
      <trkpt lat="45.19861" lon="5.72536">
        <ele>471</ele>
        <time>2021-08-19T04:40:51.000Z</time>
      </trkpt>
      <trkpt lat="45.1986" lon="5.7253">
        <ele>469.60000610352</ele>
        <time>2021-08-19T04:40:53.000Z</time>
      </trkpt>
      <trkpt lat="45.19857" lon="5.72517">
        <ele>469.39999389648</ele>
        <time>2021-08-19T04:40:57.000Z</time>
      </trkpt>
      <trkpt lat="45.19855" lon="5.72507">
        <ele>468.39999389648</ele>
        <time>2021-08-19T04:41:00.000Z</time>
      </trkpt>
      <trkpt lat="45.19854" lon="5.725">
        <ele>467.79998779297</ele>
        <time>2021-08-19T04:41:02.000Z</time>
      </trkpt>
      <trkpt lat="45.19854" lon="5.72492">
        <ele>467.39999389648</ele>
        <time>2021-08-19T04:41:04.000Z</time>
      </trkpt>
      <trkpt lat="45.19851" lon="5.72473">
        <ele>466</ele>
        <time>2021-08-19T04:41:09.000Z</time>
      </trkpt>
      <trkpt lat="45.1985" lon="5.72459">
        <ele>464.79998779297</ele>
        <time>2021-08-19T04:41:13.000Z</time>
      </trkpt>
      <trkpt lat="45.19848" lon="5.72453">
        <ele>464.39999389648</ele>
        <time>2021-08-19T04:41:15.000Z</time>
      </trkpt>
      <trkpt lat="45.19847" lon="5.72452">
        <ele>464.20001220703</ele>
        <time>2021-08-19T04:41:16.000Z</time>
      </trkpt>
      <trkpt lat="45.19844" lon="5.72452">
        <ele>464.20001220703</ele>
        <time>2021-08-19T04:41:18.000Z</time>
      </trkpt>
      <trkpt lat="45.19842" lon="5.7246">
        <ele>463.39999389648</ele>
        <time>2021-08-19T04:41:21.000Z</time>
      </trkpt>
      <trkpt lat="45.19841" lon="5.72464">
        <ele>463</ele>
        <time>2021-08-19T04:41:22.000Z</time>
      </trkpt>
      <trkpt lat="45.19839" lon="5.72478">
        <ele>462</ele>
        <time>2021-08-19T04:41:26.000Z</time>
      </trkpt>
      <trkpt lat="45.19839" lon="5.72485">
        <ele>461.39999389648</ele>
        <time>2021-08-19T04:41:28.000Z</time>
      </trkpt>
      <trkpt lat="45.19836" lon="5.72496">
        <ele>461</ele>
        <time>2021-08-19T04:41:31.000Z</time>
      </trkpt>
      <trkpt lat="45.19833" lon="5.72506">
        <ele>459.79998779297</ele>
        <time>2021-08-19T04:41:34.000Z</time>
      </trkpt>
      <trkpt lat="45.19832" lon="5.72513">
        <ele>458.60000610352</ele>
        <time>2021-08-19T04:41:36.000Z</time>
      </trkpt>
      <trkpt lat="45.19828" lon="5.72527">
        <ele>457.79998779297</ele>
        <time>2021-08-19T04:41:40.000Z</time>
      </trkpt>
      <trkpt lat="45.19827" lon="5.72531">
        <ele>457</ele>
        <time>2021-08-19T04:41:41.000Z</time>
      </trkpt>
      <trkpt lat="45.19828" lon="5.72546">
        <ele>456.39999389648</ele>
        <time>2021-08-19T04:41:45.000Z</time>
      </trkpt>
      <trkpt lat="45.19828" lon="5.7255">
        <ele>455.79998779297</ele>
        <time>2021-08-19T04:41:46.000Z</time>
      </trkpt>
      <trkpt lat="45.19829" lon="5.72561">
        <ele>455.39999389648</ele>
        <time>2021-08-19T04:41:49.000Z</time>
      </trkpt>
      <trkpt lat="45.19828" lon="5.72569">
        <ele>454.79998779297</ele>
        <time>2021-08-19T04:41:51.000Z</time>
      </trkpt>
      <trkpt lat="45.19829" lon="5.72573">
        <ele>454.79998779297</ele>
        <time>2021-08-19T04:41:52.000Z</time>
      </trkpt>
      <trkpt lat="45.19829" lon="5.72584">
        <ele>453.39999389648</ele>
        <time>2021-08-19T04:41:55.000Z</time>
      </trkpt>
      <trkpt lat="45.1983" lon="5.72597">
        <ele>452.79998779297</ele>
        <time>2021-08-19T04:41:59.000Z</time>
      </trkpt>
      <trkpt lat="45.19829" lon="5.726">
        <ele>452.20001220703</ele>
        <time>2021-08-19T04:42:00.000Z</time>
      </trkpt>
      <trkpt lat="45.19832" lon="5.72619">
        <ele>451.20001220703</ele>
        <time>2021-08-19T04:42:06.000Z</time>
      </trkpt>
      <trkpt lat="45.19833" lon="5.72625">
        <ele>450.79998779297</ele>
        <time>2021-08-19T04:42:08.000Z</time>
      </trkpt>
      <trkpt lat="45.19835" lon="5.72632">
        <ele>449.79998779297</ele>
        <time>2021-08-19T04:42:10.000Z</time>
      </trkpt>
      <trkpt lat="45.1984" lon="5.7265">
        <ele>448.79998779297</ele>
        <time>2021-08-19T04:42:15.000Z</time>
      </trkpt>
      <trkpt lat="45.19842" lon="5.72654">
        <ele>448.79998779297</ele>
        <time>2021-08-19T04:42:16.000Z</time>
      </trkpt>
      <trkpt lat="45.19847" lon="5.72666">
        <ele>447.79998779297</ele>
        <time>2021-08-19T04:42:20.000Z</time>
      </trkpt>
      <trkpt lat="45.19849" lon="5.72672">
        <ele>447.39999389648</ele>
        <time>2021-08-19T04:42:22.000Z</time>
      </trkpt>
      <trkpt lat="45.19855" lon="5.72682">
        <ele>446.39999389648</ele>
        <time>2021-08-19T04:42:26.000Z</time>
      </trkpt>
      <trkpt lat="45.19861" lon="5.72692">
        <ele>445.39999389648</ele>
        <time>2021-08-19T04:42:30.000Z</time>
      </trkpt>
      <trkpt lat="45.19861" lon="5.72694">
        <ele>445</ele>
        <time>2021-08-19T04:42:31.000Z</time>
      </trkpt>
      <trkpt lat="45.19854" lon="5.72693">
        <ele>444.20001220703</ele>
        <time>2021-08-19T04:42:34.000Z</time>
      </trkpt>
      <trkpt lat="45.19845" lon="5.72687">
        <ele>443</ele>
        <time>2021-08-19T04:42:38.000Z</time>
      </trkpt>
      <trkpt lat="45.19829" lon="5.72673">
        <ele>441.60000610352</ele>
        <time>2021-08-19T04:42:45.000Z</time>
      </trkpt>
      <trkpt lat="45.19819" lon="5.72663">
        <ele>440.60000610352</ele>
        <time>2021-08-19T04:42:49.000Z</time>
      </trkpt>
      <trkpt lat="45.19817" lon="5.72661">
        <ele>440.20001220703</ele>
        <time>2021-08-19T04:42:50.000Z</time>
      </trkpt>
      <trkpt lat="45.19815" lon="5.72659">
        <ele>440.20001220703</ele>
        <time>2021-08-19T04:42:51.000Z</time>
      </trkpt>
      <trkpt lat="45.1981" lon="5.72657">
        <ele>439.39999389648</ele>
        <time>2021-08-19T04:42:53.000Z</time>
      </trkpt>
      <trkpt lat="45.19808" lon="5.72655">
        <ele>439.20001220703</ele>
        <time>2021-08-19T04:42:54.000Z</time>
      </trkpt>
      <trkpt lat="45.19798" lon="5.72648">
        <ele>438.60000610352</ele>
        <time>2021-08-19T04:42:58.000Z</time>
      </trkpt>
      <trkpt lat="45.19796" lon="5.72646">
        <ele>437.79998779297</ele>
        <time>2021-08-19T04:42:59.000Z</time>
      </trkpt>
      <trkpt lat="45.1979" lon="5.7264">
        <ele>437.39999389648</ele>
        <time>2021-08-19T04:43:02.000Z</time>
      </trkpt>
      <trkpt lat="45.19787" lon="5.72634">
        <ele>436.60000610352</ele>
        <time>2021-08-19T04:43:04.000Z</time>
      </trkpt>
      <trkpt lat="45.19783" lon="5.72623">
        <ele>436.39999389648</ele>
        <time>2021-08-19T04:43:07.000Z</time>
      </trkpt>
      <trkpt lat="45.19782" lon="5.72619">
        <ele>435.39999389648</ele>
        <time>2021-08-19T04:43:08.000Z</time>
      </trkpt>
      <trkpt lat="45.19781" lon="5.72615">
        <ele>435.20001220703</ele>
        <time>2021-08-19T04:43:09.000Z</time>
      </trkpt>
      <trkpt lat="45.19784" lon="5.72604">
        <ele>434.39999389648</ele>
        <time>2021-08-19T04:43:12.000Z</time>
      </trkpt>
      <trkpt lat="45.19785" lon="5.72599">
        <ele>434</ele>
        <time>2021-08-19T04:43:13.000Z</time>
      </trkpt>
      <trkpt lat="45.19784" lon="5.72575">
        <ele>433.20001220703</ele>
        <time>2021-08-19T04:43:18.000Z</time>
      </trkpt>
      <trkpt lat="45.19786" lon="5.72563">
        <ele>432</ele>
        <time>2021-08-19T04:43:21.000Z</time>
      </trkpt>
      <trkpt lat="45.19786" lon="5.72555">
        <ele>431.60000610352</ele>
        <time>2021-08-19T04:43:23.000Z</time>
      </trkpt>
      <trkpt lat="45.19788" lon="5.72536">
        <ele>430.20001220703</ele>
        <time>2021-08-19T04:43:28.000Z</time>
      </trkpt>
      <trkpt lat="45.19789" lon="5.72533">
        <ele>430.20001220703</ele>
        <time>2021-08-19T04:43:29.000Z</time>
      </trkpt>
      <trkpt lat="45.19791" lon="5.72514">
        <ele>429.39999389648</ele>
        <time>2021-08-19T04:43:34.000Z</time>
      </trkpt>
      <trkpt lat="45.19792" lon="5.7251">
        <ele>429.39999389648</ele>
        <time>2021-08-19T04:43:35.000Z</time>
      </trkpt>
      <trkpt lat="45.19796" lon="5.72482">
        <ele>429.60000610352</ele>
        <time>2021-08-19T04:43:42.000Z</time>
      </trkpt>
      <trkpt lat="45.19797" lon="5.72478">
        <ele>429.79998779297</ele>
        <time>2021-08-19T04:43:43.000Z</time>
      </trkpt>
      <trkpt lat="45.19803" lon="5.72456">
        <ele>429.60000610352</ele>
        <time>2021-08-19T04:43:49.000Z</time>
      </trkpt>
      <trkpt lat="45.19804" lon="5.72448">
        <ele>429.39999389648</ele>
        <time>2021-08-19T04:43:51.000Z</time>
      </trkpt>
      <trkpt lat="45.19805" lon="5.72444">
        <ele>429.20001220703</ele>
        <time>2021-08-19T04:43:52.000Z</time>
      </trkpt>
      <trkpt lat="45.19802" lon="5.72421">
        <ele>428.60000610352</ele>
        <time>2021-08-19T04:43:58.000Z</time>
      </trkpt>
      <trkpt lat="45.19802" lon="5.72397">
        <ele>429</ele>
        <time>2021-08-19T04:44:04.000Z</time>
      </trkpt>
      <trkpt lat="45.19812" lon="5.72384">
        <ele>429</ele>
        <time>2021-08-19T04:44:08.000Z</time>
      </trkpt>
      <trkpt lat="45.19826" lon="5.72364">
        <ele>428.39999389648</ele>
        <time>2021-08-19T04:44:15.000Z</time>
      </trkpt>
      <trkpt lat="45.19826" lon="5.72361">
        <ele>428</ele>
        <time>2021-08-19T04:44:18.000Z</time>
      </trkpt>
      <trkpt lat="45.19825" lon="5.72359">
        <ele>427.79998779297</ele>
        <time>2021-08-19T04:44:19.000Z</time>
      </trkpt>
      <trkpt lat="45.19824" lon="5.72351">
        <ele>426.39999389648</ele>
        <time>2021-08-19T04:44:23.000Z</time>
      </trkpt>
      <trkpt lat="45.19824" lon="5.7235">
        <ele>426.20001220703</ele>
        <time>2021-08-19T04:44:24.000Z</time>
      </trkpt>
      <trkpt lat="45.19824" lon="5.7235">
        <ele>426</ele>
        <time>2021-08-19T04:44:25.000Z</time>
      </trkpt>
      <trkpt lat="45.19824" lon="5.72349">
        <ele>425</ele>
        <time>2021-08-19T04:44:26.000Z</time>
      </trkpt>
      <trkpt lat="45.19824" lon="5.72346">
        <ele>423.60000610352</ele>
        <time>2021-08-19T04:44:28.000Z</time>
      </trkpt>
      <trkpt lat="45.19825" lon="5.72341">
        <ele>422</ele>
        <time>2021-08-19T04:44:32.000Z</time>
      </trkpt>
      <trkpt lat="45.19824" lon="5.72336">
        <ele>420.20001220703</ele>
        <time>2021-08-19T04:44:36.000Z</time>
      </trkpt>
      <trkpt lat="45.19824" lon="5.72333">
        <ele>419</ele>
        <time>2021-08-19T04:44:38.000Z</time>
      </trkpt>
      <trkpt lat="45.19824" lon="5.72332">
        <ele>418.39999389648</ele>
        <time>2021-08-19T04:44:39.000Z</time>
      </trkpt>
      <trkpt lat="45.19824" lon="5.72332">
        <ele>417.79998779297</ele>
        <time>2021-08-19T04:44:40.000Z</time>
      </trkpt>
      <trkpt lat="45.19822" lon="5.72337">
        <ele>416.79998779297</ele>
        <time>2021-08-19T04:44:43.000Z</time>
      </trkpt>
      <trkpt lat="45.19814" lon="5.72358">
        <ele>417</ele>
        <time>2021-08-19T04:44:48.000Z</time>
      </trkpt>
      <trkpt lat="45.19803" lon="5.72382">
        <ele>417.39999389648</ele>
        <time>2021-08-19T04:44:55.000Z</time>
      </trkpt>
      <trkpt lat="45.19796" lon="5.72402">
        <ele>417</ele>
        <time>2021-08-19T04:45:01.000Z</time>
      </trkpt>
      <trkpt lat="45.19796" lon="5.72406">
        <ele>417</ele>
        <time>2021-08-19T04:45:02.000Z</time>
      </trkpt>
      <trkpt lat="45.19797" lon="5.72418">
        <ele>417</ele>
        <time>2021-08-19T04:45:05.000Z</time>
      </trkpt>
      <trkpt lat="45.198" lon="5.72432">
        <ele>416.79998779297</ele>
        <time>2021-08-19T04:45:09.000Z</time>
      </trkpt>
      <trkpt lat="45.19798" lon="5.72436">
        <ele>416.79998779297</ele>
        <time>2021-08-19T04:45:10.000Z</time>
      </trkpt>
      <trkpt lat="45.1979" lon="5.72458">
        <ele>416.20001220703</ele>
        <time>2021-08-19T04:45:17.000Z</time>
      </trkpt>
      <trkpt lat="45.19781" lon="5.72474">
        <ele>416</ele>
        <time>2021-08-19T04:45:22.000Z</time>
      </trkpt>
      <trkpt lat="45.19779" lon="5.72477">
        <ele>416.20001220703</ele>
        <time>2021-08-19T04:45:23.000Z</time>
      </trkpt>
      <trkpt lat="45.1977" lon="5.7249">
        <ele>416.60000610352</ele>
        <time>2021-08-19T04:45:27.000Z</time>
      </trkpt>
      <trkpt lat="45.19767" lon="5.72493">
        <ele>416.60000610352</ele>
        <time>2021-08-19T04:45:28.000Z</time>
      </trkpt>
      <trkpt lat="45.19766" lon="5.72495">
        <ele>416.60000610352</ele>
        <time>2021-08-19T04:45:29.000Z</time>
      </trkpt>
      <trkpt lat="45.19752" lon="5.72514">
        <ele>416</ele>
        <time>2021-08-19T04:45:35.000Z</time>
      </trkpt>
      <trkpt lat="45.1975" lon="5.72515">
        <ele>416.20001220703</ele>
        <time>2021-08-19T04:45:36.000Z</time>
      </trkpt>
      <trkpt lat="45.19741" lon="5.72518">
        <ele>416</ele>
        <time>2021-08-19T04:45:40.000Z</time>
      </trkpt>
      <trkpt lat="45.19739" lon="5.7252">
        <ele>416.39999389648</ele>
        <time>2021-08-19T04:45:41.000Z</time>
      </trkpt>
      <trkpt lat="45.19739" lon="5.72531">
        <ele>416.60000610352</ele>
        <time>2021-08-19T04:45:44.000Z</time>
      </trkpt>
      <trkpt lat="45.19742" lon="5.7254">
        <ele>416.79998779297</ele>
        <time>2021-08-19T04:45:47.000Z</time>
      </trkpt>
      <trkpt lat="45.19744" lon="5.72541">
        <ele>416.39999389648</ele>
        <time>2021-08-19T04:45:48.000Z</time>
      </trkpt>
      <trkpt lat="45.19749" lon="5.72543">
        <ele>416.39999389648</ele>
        <time>2021-08-19T04:45:51.000Z</time>
      </trkpt>
      <trkpt lat="45.19751" lon="5.7255">
        <ele>416.39999389648</ele>
        <time>2021-08-19T04:45:53.000Z</time>
      </trkpt>
      <trkpt lat="45.1975" lon="5.7257">
        <ele>416.39999389648</ele>
        <time>2021-08-19T04:45:58.000Z</time>
      </trkpt>
      <trkpt lat="45.19748" lon="5.72599">
        <ele>416.39999389648</ele>
        <time>2021-08-19T04:46:05.000Z</time>
      </trkpt>
      <trkpt lat="45.19748" lon="5.72606">
        <ele>416.39999389648</ele>
        <time>2021-08-19T04:46:07.000Z</time>
      </trkpt>
      <trkpt lat="45.19749" lon="5.72609">
        <ele>416.60000610352</ele>
        <time>2021-08-19T04:46:08.000Z</time>
      </trkpt>
      <trkpt lat="45.19747" lon="5.72619">
        <ele>416.60000610352</ele>
        <time>2021-08-19T04:46:11.000Z</time>
      </trkpt>
      <trkpt lat="45.19745" lon="5.72621">
        <ele>416.39999389648</ele>
        <time>2021-08-19T04:46:12.000Z</time>
      </trkpt>
      <trkpt lat="45.19742" lon="5.72627">
        <ele>416.39999389648</ele>
        <time>2021-08-19T04:46:14.000Z</time>
      </trkpt>
      <trkpt lat="45.19741" lon="5.72632">
        <ele>416.39999389648</ele>
        <time>2021-08-19T04:46:16.000Z</time>
      </trkpt>
      <trkpt lat="45.19742" lon="5.72635">
        <ele>416.20001220703</ele>
        <time>2021-08-19T04:46:18.000Z</time>
      </trkpt>
      <trkpt lat="45.19745" lon="5.72637">
        <ele>416.20001220703</ele>
        <time>2021-08-19T04:46:20.000Z</time>
      </trkpt>
      <trkpt lat="45.19751" lon="5.72638">
        <ele>416.20001220703</ele>
        <time>2021-08-19T04:46:23.000Z</time>
      </trkpt>
      <trkpt lat="45.19754" lon="5.72642">
        <ele>416.39999389648</ele>
        <time>2021-08-19T04:46:25.000Z</time>
      </trkpt>
      <trkpt lat="45.19757" lon="5.72646">
        <ele>416.20001220703</ele>
        <time>2021-08-19T04:46:27.000Z</time>
      </trkpt>
      <trkpt lat="45.19761" lon="5.7265">
        <ele>416.20001220703</ele>
        <time>2021-08-19T04:46:29.000Z</time>
      </trkpt>
      <trkpt lat="45.19768" lon="5.72658">
        <ele>416.20001220703</ele>
        <time>2021-08-19T04:46:32.000Z</time>
      </trkpt>
      <trkpt lat="45.19775" lon="5.7267">
        <ele>416.60000610352</ele>
        <time>2021-08-19T04:46:36.000Z</time>
      </trkpt>
      <trkpt lat="45.19776" lon="5.72675">
        <ele>416.20001220703</ele>
        <time>2021-08-19T04:46:37.000Z</time>
      </trkpt>
      <trkpt lat="45.19776" lon="5.72682">
        <ele>416.60000610352</ele>
        <time>2021-08-19T04:46:39.000Z</time>
      </trkpt>
      <trkpt lat="45.19779" lon="5.72685">
        <ele>416</ele>
        <time>2021-08-19T04:46:42.000Z</time>
      </trkpt>
      <trkpt lat="45.19787" lon="5.72679">
        <ele>415.79998779297</ele>
        <time>2021-08-19T04:46:46.000Z</time>
      </trkpt>
      <trkpt lat="45.19789" lon="5.72679">
        <ele>416.20001220703</ele>
        <time>2021-08-19T04:46:47.000Z</time>
      </trkpt>
      <trkpt lat="45.19796" lon="5.72685">
        <ele>416.39999389648</ele>
        <time>2021-08-19T04:46:50.000Z</time>
      </trkpt>
      <trkpt lat="45.19812" lon="5.727">
        <ele>416.39999389648</ele>
        <time>2021-08-19T04:46:57.000Z</time>
      </trkpt>
      <trkpt lat="45.19814" lon="5.72703">
        <ele>416.60000610352</ele>
        <time>2021-08-19T04:46:58.000Z</time>
      </trkpt>
      <trkpt lat="45.19818" lon="5.7271">
        <ele>416.60000610352</ele>
        <time>2021-08-19T04:47:01.000Z</time>
      </trkpt>
      <trkpt lat="45.19834" lon="5.72725">
        <ele>416.60000610352</ele>
        <time>2021-08-19T04:47:07.000Z</time>
      </trkpt>
      <trkpt lat="45.19838" lon="5.72733">
        <ele>416.79998779297</ele>
        <time>2021-08-19T04:47:10.000Z</time>
      </trkpt>
      <trkpt lat="45.1984" lon="5.72737">
        <ele>417.20001220703</ele>
        <time>2021-08-19T04:47:11.000Z</time>
      </trkpt>
      <trkpt lat="45.19846" lon="5.7275">
        <ele>417</ele>
        <time>2021-08-19T04:47:16.000Z</time>
      </trkpt>
      <trkpt lat="45.19847" lon="5.72751">
        <ele>417.20001220703</ele>
        <time>2021-08-19T04:47:17.000Z</time>
      </trkpt>
      <trkpt lat="45.19855" lon="5.72749">
        <ele>413.79998779297</ele>
        <time>2021-08-19T04:47:31.000Z</time>
      </trkpt>
      <trkpt lat="45.19863" lon="5.72752">
        <ele>413.20001220703</ele>
        <time>2021-08-19T04:47:33.000Z</time>
      </trkpt>
      <trkpt lat="45.19862" lon="5.72758">
        <ele>412.79998779297</ele>
        <time>2021-08-19T04:47:35.000Z</time>
      </trkpt>
      <trkpt lat="45.19862" lon="5.72764">
        <ele>412.60000610352</ele>
        <time>2021-08-19T04:47:37.000Z</time>
      </trkpt>
      <trkpt lat="45.19864" lon="5.72766">
        <ele>412.20001220703</ele>
        <time>2021-08-19T04:47:39.000Z</time>
      </trkpt>
      <trkpt lat="45.19864" lon="5.72767">
        <ele>412</ele>
        <time>2021-08-19T04:47:40.000Z</time>
      </trkpt>
      <trkpt lat="45.19862" lon="5.72768">
        <ele>411.60000610352</ele>
        <time>2021-08-19T04:47:42.000Z</time>
      </trkpt>
      <trkpt lat="45.19861" lon="5.72768">
        <ele>411.20001220703</ele>
        <time>2021-08-19T04:47:44.000Z</time>
      </trkpt>
      <trkpt lat="45.19861" lon="5.72767">
        <ele>411</ele>
        <time>2021-08-19T04:47:45.000Z</time>
      </trkpt>
      <trkpt lat="45.1986" lon="5.72765">
        <ele>409.79998779297</ele>
        <time>2021-08-19T04:47:47.000Z</time>
      </trkpt>
      <trkpt lat="45.1986" lon="5.72766">
        <ele>408.39999389648</ele>
        <time>2021-08-19T04:47:49.000Z</time>
      </trkpt>
      <trkpt lat="45.1986" lon="5.72766">
        <ele>408</ele>
        <time>2021-08-19T04:47:50.000Z</time>
      </trkpt>
      <trkpt lat="45.1986" lon="5.72769">
        <ele>407.39999389648</ele>
        <time>2021-08-19T04:47:53.000Z</time>
      </trkpt>
      <trkpt lat="45.1986" lon="5.72769">
        <ele>406.79998779297</ele>
        <time>2021-08-19T04:47:54.000Z</time>
      </trkpt>
      <trkpt lat="45.19855" lon="5.72793">
        <ele>394</ele>
        <time>2021-08-19T04:48:30.000Z</time>
      </trkpt>
      <trkpt lat="45.19851" lon="5.72793">
        <ele>392.60000610352</ele>
        <time>2021-08-19T04:48:34.000Z</time>
      </trkpt>
      <trkpt lat="45.19846" lon="5.72799">
        <ele>390.60000610352</ele>
        <time>2021-08-19T04:48:37.000Z</time>
      </trkpt>
      <trkpt lat="45.19846" lon="5.72797">
        <ele>390.20001220703</ele>
        <time>2021-08-19T04:48:38.000Z</time>
      </trkpt>
      <trkpt lat="45.19847" lon="5.72797">
        <ele>389.60000610352</ele>
        <time>2021-08-19T04:48:39.000Z</time>
      </trkpt>
      <trkpt lat="45.19849" lon="5.72796">
        <ele>389.60000610352</ele>
        <time>2021-08-19T04:48:40.000Z</time>
      </trkpt>
      <trkpt lat="45.19856" lon="5.72795">
        <ele>389.20001220703</ele>
        <time>2021-08-19T04:48:42.000Z</time>
      </trkpt>
      <trkpt lat="45.19859" lon="5.72796">
        <ele>389</ele>
        <time>2021-08-19T04:48:44.000Z</time>
      </trkpt>
      <trkpt lat="45.19855" lon="5.72793">
        <ele>388.39999389648</ele>
        <time>2021-08-19T04:48:47.000Z</time>
      </trkpt>
      <trkpt lat="45.19846" lon="5.72786">
        <ele>387</ele>
        <time>2021-08-19T04:48:51.000Z</time>
      </trkpt>
      <trkpt lat="45.19842" lon="5.72782">
        <ele>386.60000610352</ele>
        <time>2021-08-19T04:48:53.000Z</time>
      </trkpt>
      <trkpt lat="45.19838" lon="5.72777">
        <ele>386.20001220703</ele>
        <time>2021-08-19T04:48:55.000Z</time>
      </trkpt>
      <trkpt lat="45.19833" lon="5.72773">
        <ele>385.79998779297</ele>
        <time>2021-08-19T04:48:57.000Z</time>
      </trkpt>
      <trkpt lat="45.19827" lon="5.72769">
        <ele>385.20001220703</ele>
        <time>2021-08-19T04:48:59.000Z</time>
      </trkpt>
      <trkpt lat="45.19822" lon="5.72763">
        <ele>385</ele>
        <time>2021-08-19T04:49:01.000Z</time>
      </trkpt>
      <trkpt lat="45.19819" lon="5.72761">
        <ele>384.39999389648</ele>
        <time>2021-08-19T04:49:02.000Z</time>
      </trkpt>
      <trkpt lat="45.19811" lon="5.72754">
        <ele>384</ele>
        <time>2021-08-19T04:49:05.000Z</time>
      </trkpt>
      <trkpt lat="45.19808" lon="5.72752">
        <ele>383.79998779297</ele>
        <time>2021-08-19T04:49:06.000Z</time>
      </trkpt>
      <trkpt lat="45.19803" lon="5.72749">
        <ele>383.20001220703</ele>
        <time>2021-08-19T04:49:08.000Z</time>
      </trkpt>
      <trkpt lat="45.19795" lon="5.72747">
        <ele>382.60000610352</ele>
        <time>2021-08-19T04:49:11.000Z</time>
      </trkpt>
      <trkpt lat="45.19794" lon="5.72747">
        <ele>382.20001220703</ele>
        <time>2021-08-19T04:49:12.000Z</time>
      </trkpt>
      <trkpt lat="45.19794" lon="5.72748">
        <ele>381.79998779297</ele>
        <time>2021-08-19T04:49:13.000Z</time>
      </trkpt>
      <trkpt lat="45.19794" lon="5.72749">
        <ele>381.60000610352</ele>
        <time>2021-08-19T04:49:14.000Z</time>
      </trkpt>
      <trkpt lat="45.19795" lon="5.72749">
        <ele>381.39999389648</ele>
        <time>2021-08-19T04:49:15.000Z</time>
      </trkpt>
      <trkpt lat="45.19796" lon="5.7275">
        <ele>380.79998779297</ele>
        <time>2021-08-19T04:49:16.000Z</time>
      </trkpt>
      <trkpt lat="45.19797" lon="5.72751">
        <ele>380.39999389648</ele>
        <time>2021-08-19T04:49:17.000Z</time>
      </trkpt>
      <trkpt lat="45.19799" lon="5.72752">
        <ele>380.39999389648</ele>
        <time>2021-08-19T04:49:18.000Z</time>
      </trkpt>
      <trkpt lat="45.19803" lon="5.72756">
        <ele>379.79998779297</ele>
        <time>2021-08-19T04:49:20.000Z</time>
      </trkpt>
      <trkpt lat="45.19809" lon="5.72764">
        <ele>378.79998779297</ele>
        <time>2021-08-19T04:49:23.000Z</time>
      </trkpt>
      <trkpt lat="45.19811" lon="5.72766">
        <ele>378.60000610352</ele>
        <time>2021-08-19T04:49:24.000Z</time>
      </trkpt>
      <trkpt lat="45.19819" lon="5.72778">
        <ele>377.39999389648</ele>
        <time>2021-08-19T04:49:28.000Z</time>
      </trkpt>
      <trkpt lat="45.19821" lon="5.7278">
        <ele>377</ele>
        <time>2021-08-19T04:49:29.000Z</time>
      </trkpt>
      <trkpt lat="45.19827" lon="5.72786">
        <ele>376.20001220703</ele>
        <time>2021-08-19T04:49:32.000Z</time>
      </trkpt>
      <trkpt lat="45.19831" lon="5.72794">
        <ele>375</ele>
        <time>2021-08-19T04:49:35.000Z</time>
      </trkpt>
      <trkpt lat="45.19832" lon="5.72796">
        <ele>374.60000610352</ele>
        <time>2021-08-19T04:49:36.000Z</time>
      </trkpt>
      <trkpt lat="45.19839" lon="5.72804">
        <ele>373.60000610352</ele>
        <time>2021-08-19T04:49:39.000Z</time>
      </trkpt>
      <trkpt lat="45.19845" lon="5.72812">
        <ele>372.39999389648</ele>
        <time>2021-08-19T04:49:43.000Z</time>
      </trkpt>
      <trkpt lat="45.19844" lon="5.72814">
        <ele>372.20001220703</ele>
        <time>2021-08-19T04:49:44.000Z</time>
      </trkpt>
      <trkpt lat="45.19838" lon="5.72814">
        <ele>371.39999389648</ele>
        <time>2021-08-19T04:49:47.000Z</time>
      </trkpt>
      <trkpt lat="45.19836" lon="5.72813">
        <ele>371</ele>
        <time>2021-08-19T04:49:48.000Z</time>
      </trkpt>
      <trkpt lat="45.19824" lon="5.72805">
        <ele>369.79998779297</ele>
        <time>2021-08-19T04:49:53.000Z</time>
      </trkpt>
      <trkpt lat="45.19819" lon="5.72802">
        <ele>369.20001220703</ele>
        <time>2021-08-19T04:49:55.000Z</time>
      </trkpt>
      <trkpt lat="45.19815" lon="5.72799">
        <ele>368.60000610352</ele>
        <time>2021-08-19T04:49:57.000Z</time>
      </trkpt>
      <trkpt lat="45.19806" lon="5.72792">
        <ele>367</ele>
        <time>2021-08-19T04:50:01.000Z</time>
      </trkpt>
      <trkpt lat="45.19804" lon="5.7279">
        <ele>366.79998779297</ele>
        <time>2021-08-19T04:50:02.000Z</time>
      </trkpt>
      <trkpt lat="45.19801" lon="5.72791">
        <ele>366.60000610352</ele>
        <time>2021-08-19T04:50:05.000Z</time>
      </trkpt>
      <trkpt lat="45.19801" lon="5.72793">
        <ele>366</ele>
        <time>2021-08-19T04:50:06.000Z</time>
      </trkpt>
      <trkpt lat="45.19803" lon="5.72798">
        <ele>365.60000610352</ele>
        <time>2021-08-19T04:50:08.000Z</time>
      </trkpt>
      <trkpt lat="45.19808" lon="5.72801">
        <ele>365.20001220703</ele>
        <time>2021-08-19T04:50:11.000Z</time>
      </trkpt>
      <trkpt lat="45.19813" lon="5.72804">
        <ele>364.39999389648</ele>
        <time>2021-08-19T04:50:13.000Z</time>
      </trkpt>
      <trkpt lat="45.1982" lon="5.72812">
        <ele>363.20001220703</ele>
        <time>2021-08-19T04:50:17.000Z</time>
      </trkpt>
      <trkpt lat="45.19823" lon="5.72816">
        <ele>362.60000610352</ele>
        <time>2021-08-19T04:50:19.000Z</time>
      </trkpt>
      <trkpt lat="45.19825" lon="5.72818">
        <ele>362.20001220703</ele>
        <time>2021-08-19T04:50:21.000Z</time>
      </trkpt>
      <trkpt lat="45.19834" lon="5.72824">
        <ele>361</ele>
        <time>2021-08-19T04:50:25.000Z</time>
      </trkpt>
      <trkpt lat="45.19838" lon="5.72828">
        <ele>360</ele>
        <time>2021-08-19T04:50:27.000Z</time>
      </trkpt>
      <trkpt lat="45.19842" lon="5.72831">
        <ele>359.79998779297</ele>
        <time>2021-08-19T04:50:29.000Z</time>
      </trkpt>
      <trkpt lat="45.19843" lon="5.72833">
        <ele>359</ele>
        <time>2021-08-19T04:50:31.000Z</time>
      </trkpt>
      <trkpt lat="45.19842" lon="5.72834">
        <ele>359</ele>
        <time>2021-08-19T04:50:32.000Z</time>
      </trkpt>
      <trkpt lat="45.1984" lon="5.72834">
        <ele>358.79998779297</ele>
        <time>2021-08-19T04:50:33.000Z</time>
      </trkpt>
      <trkpt lat="45.19837" lon="5.72834">
        <ele>358.79998779297</ele>
        <time>2021-08-19T04:50:34.000Z</time>
      </trkpt>
      <trkpt lat="45.19833" lon="5.72831">
        <ele>358.39999389648</ele>
        <time>2021-08-19T04:50:36.000Z</time>
      </trkpt>
      <trkpt lat="45.19831" lon="5.7283">
        <ele>357.39999389648</ele>
        <time>2021-08-19T04:50:37.000Z</time>
      </trkpt>
      <trkpt lat="45.19827" lon="5.72829">
        <ele>357.20001220703</ele>
        <time>2021-08-19T04:50:39.000Z</time>
      </trkpt>
      <trkpt lat="45.1982" lon="5.72826">
        <ele>356.39999389648</ele>
        <time>2021-08-19T04:50:42.000Z</time>
      </trkpt>
      <trkpt lat="45.19816" lon="5.72826">
        <ele>355.39999389648</ele>
        <time>2021-08-19T04:50:45.000Z</time>
      </trkpt>
      <trkpt lat="45.19817" lon="5.72827">
        <ele>355</ele>
        <time>2021-08-19T04:50:46.000Z</time>
      </trkpt>
      <trkpt lat="45.19828" lon="5.72832">
        <ele>354.20001220703</ele>
        <time>2021-08-19T04:50:50.000Z</time>
      </trkpt>
      <trkpt lat="45.19831" lon="5.72834">
        <ele>353.79998779297</ele>
        <time>2021-08-19T04:50:51.000Z</time>
      </trkpt>
      <trkpt lat="45.19833" lon="5.72835">
        <ele>353.60000610352</ele>
        <time>2021-08-19T04:50:52.000Z</time>
      </trkpt>
      <trkpt lat="45.19837" lon="5.72839">
        <ele>353</ele>
        <time>2021-08-19T04:50:54.000Z</time>
      </trkpt>
      <trkpt lat="45.19835" lon="5.72842">
        <ele>352.60000610352</ele>
        <time>2021-08-19T04:50:56.000Z</time>
      </trkpt>
      <trkpt lat="45.19828" lon="5.72842">
        <ele>351.60000610352</ele>
        <time>2021-08-19T04:50:59.000Z</time>
      </trkpt>
      <trkpt lat="45.19823" lon="5.72839">
        <ele>351.20001220703</ele>
        <time>2021-08-19T04:51:01.000Z</time>
      </trkpt>
      <trkpt lat="45.19816" lon="5.72834">
        <ele>350.39999389648</ele>
        <time>2021-08-19T04:51:04.000Z</time>
      </trkpt>
      <trkpt lat="45.19811" lon="5.72832">
        <ele>349.39999389648</ele>
        <time>2021-08-19T04:51:06.000Z</time>
      </trkpt>
      <trkpt lat="45.19809" lon="5.72831">
        <ele>349.39999389648</ele>
        <time>2021-08-19T04:51:07.000Z</time>
      </trkpt>
      <trkpt lat="45.19802" lon="5.72826">
        <ele>348.39999389648</ele>
        <time>2021-08-19T04:51:10.000Z</time>
      </trkpt>
      <trkpt lat="45.19798" lon="5.72823">
        <ele>347.79998779297</ele>
        <time>2021-08-19T04:51:12.000Z</time>
      </trkpt>
      <trkpt lat="45.19796" lon="5.72823">
        <ele>347.39999389648</ele>
        <time>2021-08-19T04:51:14.000Z</time>
      </trkpt>
      <trkpt lat="45.19795" lon="5.72824">
        <ele>347.20001220703</ele>
        <time>2021-08-19T04:51:15.000Z</time>
      </trkpt>
      <trkpt lat="45.19795" lon="5.72825">
        <ele>347</ele>
        <time>2021-08-19T04:51:16.000Z</time>
      </trkpt>
      <trkpt lat="45.19796" lon="5.72827">
        <ele>346.79998779297</ele>
        <time>2021-08-19T04:51:18.000Z</time>
      </trkpt>
      <trkpt lat="45.19798" lon="5.72828">
        <ele>346.39999389648</ele>
        <time>2021-08-19T04:51:19.000Z</time>
      </trkpt>
      <trkpt lat="45.19803" lon="5.72831">
        <ele>346</ele>
        <time>2021-08-19T04:51:21.000Z</time>
      </trkpt>
      <trkpt lat="45.19806" lon="5.72833">
        <ele>345.60000610352</ele>
        <time>2021-08-19T04:51:22.000Z</time>
      </trkpt>
      <trkpt lat="45.19818" lon="5.72842">
        <ele>344.79998779297</ele>
        <time>2021-08-19T04:51:26.000Z</time>
      </trkpt>
      <trkpt lat="45.19821" lon="5.72844">
        <ele>344.79998779297</ele>
        <time>2021-08-19T04:51:27.000Z</time>
      </trkpt>
      <trkpt lat="45.19825" lon="5.72851">
        <ele>344.39999389648</ele>
        <time>2021-08-19T04:51:30.000Z</time>
      </trkpt>
      <trkpt lat="45.19825" lon="5.72852">
        <ele>344</ele>
        <time>2021-08-19T04:51:31.000Z</time>
      </trkpt>
      <trkpt lat="45.19818" lon="5.72851">
        <ele>343.60000610352</ele>
        <time>2021-08-19T04:51:34.000Z</time>
      </trkpt>
      <trkpt lat="45.19816" lon="5.7285">
        <ele>343</ele>
        <time>2021-08-19T04:51:35.000Z</time>
      </trkpt>
      <trkpt lat="45.19813" lon="5.72849">
        <ele>342.79998779297</ele>
        <time>2021-08-19T04:51:36.000Z</time>
      </trkpt>
      <trkpt lat="45.19805" lon="5.72846">
        <ele>342.20001220703</ele>
        <time>2021-08-19T04:51:39.000Z</time>
      </trkpt>
      <trkpt lat="45.198" lon="5.72844">
        <ele>341.60000610352</ele>
        <time>2021-08-19T04:51:41.000Z</time>
      </trkpt>
      <trkpt lat="45.19794" lon="5.72841">
        <ele>340.79998779297</ele>
        <time>2021-08-19T04:51:43.000Z</time>
      </trkpt>
      <trkpt lat="45.19786" lon="5.72839">
        <ele>340</ele>
        <time>2021-08-19T04:51:46.000Z</time>
      </trkpt>
      <trkpt lat="45.19784" lon="5.72838">
        <ele>339.60000610352</ele>
        <time>2021-08-19T04:51:47.000Z</time>
      </trkpt>
      <trkpt lat="45.19775" lon="5.72832">
        <ele>338</ele>
        <time>2021-08-19T04:51:51.000Z</time>
      </trkpt>
      <trkpt lat="45.19774" lon="5.72832">
        <ele>338</ele>
        <time>2021-08-19T04:51:52.000Z</time>
      </trkpt>
      <trkpt lat="45.19766" lon="5.72826">
        <ele>336.39999389648</ele>
        <time>2021-08-19T04:51:56.000Z</time>
      </trkpt>
      <trkpt lat="45.19761" lon="5.7282">
        <ele>335.79998779297</ele>
        <time>2021-08-19T04:51:59.000Z</time>
      </trkpt>
      <trkpt lat="45.19759" lon="5.72819">
        <ele>335.20001220703</ele>
        <time>2021-08-19T04:52:01.000Z</time>
      </trkpt>
      <trkpt lat="45.19758" lon="5.7282">
        <ele>334.79998779297</ele>
        <time>2021-08-19T04:52:03.000Z</time>
      </trkpt>
      <trkpt lat="45.19759" lon="5.72821">
        <ele>334.79998779297</ele>
        <time>2021-08-19T04:52:04.000Z</time>
      </trkpt>
      <trkpt lat="45.1976" lon="5.72822">
        <ele>333.79998779297</ele>
        <time>2021-08-19T04:52:05.000Z</time>
      </trkpt>
      <trkpt lat="45.19762" lon="5.72826">
        <ele>333.79998779297</ele>
        <time>2021-08-19T04:52:07.000Z</time>
      </trkpt>
      <trkpt lat="45.19768" lon="5.72835">
        <ele>332.39999389648</ele>
        <time>2021-08-19T04:52:12.000Z</time>
      </trkpt>
      <trkpt lat="45.19768" lon="5.72836">
        <ele>331.79998779297</ele>
        <time>2021-08-19T04:52:13.000Z</time>
      </trkpt>
      <trkpt lat="45.19768" lon="5.72837">
        <ele>331.79998779297</ele>
        <time>2021-08-19T04:52:14.000Z</time>
      </trkpt>
      <trkpt lat="45.19771" lon="5.72841">
        <ele>331.60000610352</ele>
        <time>2021-08-19T04:52:16.000Z</time>
      </trkpt>
      <trkpt lat="45.19775" lon="5.72845">
        <ele>330.39999389648</ele>
        <time>2021-08-19T04:52:18.000Z</time>
      </trkpt>
      <trkpt lat="45.19785" lon="5.72854">
        <ele>329.20001220703</ele>
        <time>2021-08-19T04:52:22.000Z</time>
      </trkpt>
      <trkpt lat="45.1979" lon="5.7286">
        <ele>329</ele>
        <time>2021-08-19T04:52:24.000Z</time>
      </trkpt>
      <trkpt lat="45.19795" lon="5.72866">
        <ele>328</ele>
        <time>2021-08-19T04:52:26.000Z</time>
      </trkpt>
      <trkpt lat="45.19802" lon="5.72876">
        <ele>326.39999389648</ele>
        <time>2021-08-19T04:52:30.000Z</time>
      </trkpt>
      <trkpt lat="45.19806" lon="5.72883">
        <ele>325.39999389648</ele>
        <time>2021-08-19T04:52:35.000Z</time>
      </trkpt>
      <trkpt lat="45.19805" lon="5.72884">
        <ele>325</ele>
        <time>2021-08-19T04:52:36.000Z</time>
      </trkpt>
      <trkpt lat="45.19796" lon="5.72886">
        <ele>324</ele>
        <time>2021-08-19T04:52:40.000Z</time>
      </trkpt>
      <trkpt lat="45.19786" lon="5.72881">
        <ele>322.79998779297</ele>
        <time>2021-08-19T04:52:44.000Z</time>
      </trkpt>
      <trkpt lat="45.19781" lon="5.72878">
        <ele>321.79998779297</ele>
        <time>2021-08-19T04:52:46.000Z</time>
      </trkpt>
      <trkpt lat="45.19779" lon="5.72877">
        <ele>321.79998779297</ele>
        <time>2021-08-19T04:52:47.000Z</time>
      </trkpt>
      <trkpt lat="45.19769" lon="5.72869">
        <ele>320.60000610352</ele>
        <time>2021-08-19T04:52:51.000Z</time>
      </trkpt>
      <trkpt lat="45.19765" lon="5.72866">
        <ele>319.60000610352</ele>
        <time>2021-08-19T04:52:53.000Z</time>
      </trkpt>
      <trkpt lat="45.19761" lon="5.72863">
        <ele>319</ele>
        <time>2021-08-19T04:52:55.000Z</time>
      </trkpt>
      <trkpt lat="45.19755" lon="5.72858">
        <ele>318.79998779297</ele>
        <time>2021-08-19T04:52:58.000Z</time>
      </trkpt>
      <trkpt lat="45.19753" lon="5.72856">
        <ele>318</ele>
        <time>2021-08-19T04:52:59.000Z</time>
      </trkpt>
      <trkpt lat="45.19746" lon="5.72852">
        <ele>316.79998779297</ele>
        <time>2021-08-19T04:53:03.000Z</time>
      </trkpt>
      <trkpt lat="45.19746" lon="5.72853">
        <ele>316.39999389648</ele>
        <time>2021-08-19T04:53:04.000Z</time>
      </trkpt>
      <trkpt lat="45.19747" lon="5.72855">
        <ele>316.20001220703</ele>
        <time>2021-08-19T04:53:06.000Z</time>
      </trkpt>
      <trkpt lat="45.19752" lon="5.7286">
        <ele>315.20001220703</ele>
        <time>2021-08-19T04:53:09.000Z</time>
      </trkpt>
      <trkpt lat="45.19754" lon="5.72864">
        <ele>314.60000610352</ele>
        <time>2021-08-19T04:53:10.000Z</time>
      </trkpt>
      <trkpt lat="45.19759" lon="5.72872">
        <ele>314</ele>
        <time>2021-08-19T04:53:14.000Z</time>
      </trkpt>
      <trkpt lat="45.19762" lon="5.72877">
        <ele>313.20001220703</ele>
        <time>2021-08-19T04:53:16.000Z</time>
      </trkpt>
      <trkpt lat="45.19766" lon="5.72881">
        <ele>312.60000610352</ele>
        <time>2021-08-19T04:53:18.000Z</time>
      </trkpt>
      <trkpt lat="45.19771" lon="5.72887">
        <ele>311.60000610352</ele>
        <time>2021-08-19T04:53:21.000Z</time>
      </trkpt>
      <trkpt lat="45.19777" lon="5.72893">
        <ele>310.79998779297</ele>
        <time>2021-08-19T04:53:24.000Z</time>
      </trkpt>
      <trkpt lat="45.1978" lon="5.72898">
        <ele>310.39999389648</ele>
        <time>2021-08-19T04:53:26.000Z</time>
      </trkpt>
      <trkpt lat="45.19784" lon="5.72906">
        <ele>309.20001220703</ele>
        <time>2021-08-19T04:53:29.000Z</time>
      </trkpt>
      <trkpt lat="45.19788" lon="5.72909">
        <ele>309</ele>
        <time>2021-08-19T04:53:31.000Z</time>
      </trkpt>
      <trkpt lat="45.19794" lon="5.72915">
        <ele>308</ele>
        <time>2021-08-19T04:53:34.000Z</time>
      </trkpt>
      <trkpt lat="45.19797" lon="5.72919">
        <ele>307.79998779297</ele>
        <time>2021-08-19T04:53:36.000Z</time>
      </trkpt>
      <trkpt lat="45.19795" lon="5.72921">
        <ele>306.79998779297</ele>
        <time>2021-08-19T04:53:38.000Z</time>
      </trkpt>
      <trkpt lat="45.19793" lon="5.72922">
        <ele>306.39999389648</ele>
        <time>2021-08-19T04:53:39.000Z</time>
      </trkpt>
      <trkpt lat="45.19788" lon="5.72925">
        <ele>305.60000610352</ele>
        <time>2021-08-19T04:53:42.000Z</time>
      </trkpt>
      <trkpt lat="45.1978" lon="5.72925">
        <ele>304.39999389648</ele>
        <time>2021-08-19T04:53:45.000Z</time>
      </trkpt>
      <trkpt lat="45.19778" lon="5.72925">
        <ele>304.20001220703</ele>
        <time>2021-08-19T04:53:46.000Z</time>
      </trkpt>
      <trkpt lat="45.19768" lon="5.72917">
        <ele>303.20001220703</ele>
        <time>2021-08-19T04:53:50.000Z</time>
      </trkpt>
      <trkpt lat="45.19766" lon="5.72915">
        <ele>303</ele>
        <time>2021-08-19T04:53:51.000Z</time>
      </trkpt>
      <trkpt lat="45.19762" lon="5.72912">
        <ele>302</ele>
        <time>2021-08-19T04:53:53.000Z</time>
      </trkpt>
      <trkpt lat="45.19751" lon="5.72908">
        <ele>300.39999389648</ele>
        <time>2021-08-19T04:53:57.000Z</time>
      </trkpt>
      <trkpt lat="45.19746" lon="5.72906">
        <ele>300.20001220703</ele>
        <time>2021-08-19T04:53:59.000Z</time>
      </trkpt>
      <trkpt lat="45.19739" lon="5.72902">
        <ele>299.20001220703</ele>
        <time>2021-08-19T04:54:02.000Z</time>
      </trkpt>
      <trkpt lat="45.19734" lon="5.729">
        <ele>298.79998779297</ele>
        <time>2021-08-19T04:54:04.000Z</time>
      </trkpt>
      <trkpt lat="45.19732" lon="5.729">
        <ele>298.39999389648</ele>
        <time>2021-08-19T04:54:05.000Z</time>
      </trkpt>
      <trkpt lat="45.1973" lon="5.72898">
        <ele>298</ele>
        <time>2021-08-19T04:54:06.000Z</time>
      </trkpt>
      <trkpt lat="45.19721" lon="5.72893">
        <ele>296.79998779297</ele>
        <time>2021-08-19T04:54:10.000Z</time>
      </trkpt>
      <trkpt lat="45.19717" lon="5.7289">
        <ele>296.60000610352</ele>
        <time>2021-08-19T04:54:12.000Z</time>
      </trkpt>
      <trkpt lat="45.1971" lon="5.72885">
        <ele>295.20001220703</ele>
        <time>2021-08-19T04:54:15.000Z</time>
      </trkpt>
      <trkpt lat="45.19698" lon="5.72873">
        <ele>294.20001220703</ele>
        <time>2021-08-19T04:54:20.000Z</time>
      </trkpt>
      <trkpt lat="45.19697" lon="5.7287">
        <ele>293.79998779297</ele>
        <time>2021-08-19T04:54:21.000Z</time>
      </trkpt>
      <trkpt lat="45.19695" lon="5.72867">
        <ele>293</ele>
        <time>2021-08-19T04:54:23.000Z</time>
      </trkpt>
      <trkpt lat="45.19694" lon="5.72867">
        <ele>292.79998779297</ele>
        <time>2021-08-19T04:54:24.000Z</time>
      </trkpt>
      <trkpt lat="45.19695" lon="5.72869">
        <ele>292.20001220703</ele>
        <time>2021-08-19T04:54:26.000Z</time>
      </trkpt>
      <trkpt lat="45.19698" lon="5.72871">
        <ele>292</ele>
        <time>2021-08-19T04:54:28.000Z</time>
      </trkpt>
      <trkpt lat="45.19699" lon="5.72872">
        <ele>291</ele>
        <time>2021-08-19T04:54:29.000Z</time>
      </trkpt>
      <trkpt lat="45.1971" lon="5.7288">
        <ele>290.20001220703</ele>
        <time>2021-08-19T04:54:34.000Z</time>
      </trkpt>
      <trkpt lat="45.19715" lon="5.72883">
        <ele>289.79998779297</ele>
        <time>2021-08-19T04:54:36.000Z</time>
      </trkpt>
      <trkpt lat="45.19718" lon="5.72888">
        <ele>288.39999389648</ele>
        <time>2021-08-19T04:54:38.000Z</time>
      </trkpt>
      <trkpt lat="45.1972" lon="5.72891">
        <ele>288.39999389648</ele>
        <time>2021-08-19T04:54:39.000Z</time>
      </trkpt>
      <trkpt lat="45.19728" lon="5.72906">
        <ele>287.20001220703</ele>
        <time>2021-08-19T04:54:44.000Z</time>
      </trkpt>
      <trkpt lat="45.19728" lon="5.72909">
        <ele>287</ele>
        <time>2021-08-19T04:54:45.000Z</time>
      </trkpt>
      <trkpt lat="45.1973" lon="5.72913">
        <ele>286.60000610352</ele>
        <time>2021-08-19T04:54:47.000Z</time>
      </trkpt>
      <trkpt lat="45.19731" lon="5.72916">
        <ele>286.20001220703</ele>
        <time>2021-08-19T04:54:48.000Z</time>
      </trkpt>
      <trkpt lat="45.19738" lon="5.7293">
        <ele>285.20001220703</ele>
        <time>2021-08-19T04:54:53.000Z</time>
      </trkpt>
      <trkpt lat="45.19739" lon="5.72933">
        <ele>285.20001220703</ele>
        <time>2021-08-19T04:54:54.000Z</time>
      </trkpt>
      <trkpt lat="45.19741" lon="5.72935">
        <ele>284.20001220703</ele>
        <time>2021-08-19T04:54:55.000Z</time>
      </trkpt>
      <trkpt lat="45.19747" lon="5.72952">
        <ele>283</ele>
        <time>2021-08-19T04:55:00.000Z</time>
      </trkpt>
      <trkpt lat="45.19755" lon="5.72963">
        <ele>281.79998779297</ele>
        <time>2021-08-19T04:55:04.000Z</time>
      </trkpt>
      <trkpt lat="45.19758" lon="5.72965">
        <ele>281.39999389648</ele>
        <time>2021-08-19T04:55:05.000Z</time>
      </trkpt>
      <trkpt lat="45.19767" lon="5.72975">
        <ele>280.60000610352</ele>
        <time>2021-08-19T04:55:08.000Z</time>
      </trkpt>
      <trkpt lat="45.19773" lon="5.72984">
        <ele>279.79998779297</ele>
        <time>2021-08-19T04:55:11.000Z</time>
      </trkpt>
      <trkpt lat="45.19776" lon="5.72988">
        <ele>279.39999389648</ele>
        <time>2021-08-19T04:55:13.000Z</time>
      </trkpt>
      <trkpt lat="45.19781" lon="5.72992">
        <ele>278.39999389648</ele>
        <time>2021-08-19T04:55:15.000Z</time>
      </trkpt>
      <trkpt lat="45.19783" lon="5.72994">
        <ele>278.20001220703</ele>
        <time>2021-08-19T04:55:16.000Z</time>
      </trkpt>
      <trkpt lat="45.19785" lon="5.72995">
        <ele>278</ele>
        <time>2021-08-19T04:55:17.000Z</time>
      </trkpt>
      <trkpt lat="45.19793" lon="5.73002">
        <ele>276.79998779297</ele>
        <time>2021-08-19T04:55:20.000Z</time>
      </trkpt>
      <trkpt lat="45.198" lon="5.73007">
        <ele>276.20001220703</ele>
        <time>2021-08-19T04:55:23.000Z</time>
      </trkpt>
      <trkpt lat="45.19802" lon="5.7301">
        <ele>275.79998779297</ele>
        <time>2021-08-19T04:55:25.000Z</time>
      </trkpt>
      <trkpt lat="45.19805" lon="5.73013">
        <ele>275.39999389648</ele>
        <time>2021-08-19T04:55:27.000Z</time>
      </trkpt>
      <trkpt lat="45.19807" lon="5.73016">
        <ele>275</ele>
        <time>2021-08-19T04:55:28.000Z</time>
      </trkpt>
      <trkpt lat="45.1981" lon="5.7302">
        <ele>274.39999389648</ele>
        <time>2021-08-19T04:55:30.000Z</time>
      </trkpt>
      <trkpt lat="45.19808" lon="5.73024">
        <ele>274</ele>
        <time>2021-08-19T04:55:32.000Z</time>
      </trkpt>
      <trkpt lat="45.19799" lon="5.73029">
        <ele>273.20001220703</ele>
        <time>2021-08-19T04:55:35.000Z</time>
      </trkpt>
      <trkpt lat="45.19794" lon="5.73029">
        <ele>272.79998779297</ele>
        <time>2021-08-19T04:55:37.000Z</time>
      </trkpt>
      <trkpt lat="45.19792" lon="5.7303">
        <ele>271.60000610352</ele>
        <time>2021-08-19T04:55:38.000Z</time>
      </trkpt>
      <trkpt lat="45.19782" lon="5.73026">
        <ele>271.39999389648</ele>
        <time>2021-08-19T04:55:42.000Z</time>
      </trkpt>
      <trkpt lat="45.19777" lon="5.73026">
        <ele>270.79998779297</ele>
        <time>2021-08-19T04:55:44.000Z</time>
      </trkpt>
      <trkpt lat="45.19772" lon="5.73025">
        <ele>270.60000610352</ele>
        <time>2021-08-19T04:55:46.000Z</time>
      </trkpt>
      <trkpt lat="45.1977" lon="5.73024">
        <ele>269.79998779297</ele>
        <time>2021-08-19T04:55:47.000Z</time>
      </trkpt>
      <trkpt lat="45.19767" lon="5.73025">
        <ele>269.79998779297</ele>
        <time>2021-08-19T04:55:49.000Z</time>
      </trkpt>
      <trkpt lat="45.19766" lon="5.73026">
        <ele>268.79998779297</ele>
        <time>2021-08-19T04:55:50.000Z</time>
      </trkpt>
      <trkpt lat="45.19767" lon="5.73027">
        <ele>268.60000610352</ele>
        <time>2021-08-19T04:55:51.000Z</time>
      </trkpt>
      <trkpt lat="45.19774" lon="5.73028">
        <ele>267.39999389648</ele>
        <time>2021-08-19T04:55:55.000Z</time>
      </trkpt>
      <trkpt lat="45.19779" lon="5.73031">
        <ele>267</ele>
        <time>2021-08-19T04:55:57.000Z</time>
      </trkpt>
      <trkpt lat="45.19784" lon="5.73033">
        <ele>266.20001220703</ele>
        <time>2021-08-19T04:55:59.000Z</time>
      </trkpt>
      <trkpt lat="45.1979" lon="5.73036">
        <ele>266</ele>
        <time>2021-08-19T04:56:01.000Z</time>
      </trkpt>
      <trkpt lat="45.19795" lon="5.73039">
        <ele>265.79998779297</ele>
        <time>2021-08-19T04:56:03.000Z</time>
      </trkpt>
      <trkpt lat="45.19798" lon="5.73041">
        <ele>265</ele>
        <time>2021-08-19T04:56:05.000Z</time>
      </trkpt>
      <trkpt lat="45.19801" lon="5.73043">
        <ele>264.20001220703</ele>
        <time>2021-08-19T04:56:07.000Z</time>
      </trkpt>
      <trkpt lat="45.19802" lon="5.73046">
        <ele>264</ele>
        <time>2021-08-19T04:56:09.000Z</time>
      </trkpt>
      <trkpt lat="45.198" lon="5.73046">
        <ele>263.79998779297</ele>
        <time>2021-08-19T04:56:10.000Z</time>
      </trkpt>
      <trkpt lat="45.19794" lon="5.73045">
        <ele>262.39999389648</ele>
        <time>2021-08-19T04:56:13.000Z</time>
      </trkpt>
      <trkpt lat="45.1979" lon="5.73043">
        <ele>261.79998779297</ele>
        <time>2021-08-19T04:56:15.000Z</time>
      </trkpt>
      <trkpt lat="45.19783" lon="5.73039">
        <ele>260.79998779297</ele>
        <time>2021-08-19T04:56:18.000Z</time>
      </trkpt>
      <trkpt lat="45.19773" lon="5.73039">
        <ele>259</ele>
        <time>2021-08-19T04:56:22.000Z</time>
      </trkpt>
      <trkpt lat="45.19764" lon="5.73038">
        <ele>258.39999389648</ele>
        <time>2021-08-19T04:56:26.000Z</time>
      </trkpt>
      <trkpt lat="45.19762" lon="5.73037">
        <ele>257.79998779297</ele>
        <time>2021-08-19T04:56:27.000Z</time>
      </trkpt>
      <trkpt lat="45.1976" lon="5.73036">
        <ele>257.60000610352</ele>
        <time>2021-08-19T04:56:28.000Z</time>
      </trkpt>
      <trkpt lat="45.19759" lon="5.73037">
        <ele>256.79998779297</ele>
        <time>2021-08-19T04:56:31.000Z</time>
      </trkpt>
      <trkpt lat="45.1976" lon="5.73039">
        <ele>256.39999389648</ele>
        <time>2021-08-19T04:56:32.000Z</time>
      </trkpt>
      <trkpt lat="45.19762" lon="5.73041">
        <ele>255.80000305176</ele>
        <time>2021-08-19T04:56:35.000Z</time>
      </trkpt>
      <trkpt lat="45.19765" lon="5.73042">
        <ele>255.19999694824</ele>
        <time>2021-08-19T04:56:37.000Z</time>
      </trkpt>
      <trkpt lat="45.19767" lon="5.73043">
        <ele>254.39999389648</ele>
        <time>2021-08-19T04:56:38.000Z</time>
      </trkpt>
      <trkpt lat="45.19776" lon="5.7305">
        <ele>254</ele>
        <time>2021-08-19T04:56:42.000Z</time>
      </trkpt>
      <trkpt lat="45.19779" lon="5.73051">
        <ele>253</ele>
        <time>2021-08-19T04:56:43.000Z</time>
      </trkpt>
      <trkpt lat="45.19782" lon="5.73053">
        <ele>252.60000610352</ele>
        <time>2021-08-19T04:56:44.000Z</time>
      </trkpt>
      <trkpt lat="45.19793" lon="5.73059">
        <ele>251.80000305176</ele>
        <time>2021-08-19T04:56:48.000Z</time>
      </trkpt>
      <trkpt lat="45.19795" lon="5.73061">
        <ele>251.60000610352</ele>
        <time>2021-08-19T04:56:49.000Z</time>
      </trkpt>
      <trkpt lat="45.19793" lon="5.73063">
        <ele>250.60000610352</ele>
        <time>2021-08-19T04:56:51.000Z</time>
      </trkpt>
      <trkpt lat="45.19791" lon="5.73063">
        <ele>250.60000610352</ele>
        <time>2021-08-19T04:56:52.000Z</time>
      </trkpt>
      <trkpt lat="45.19782" lon="5.73063">
        <ele>249.60000610352</ele>
        <time>2021-08-19T04:56:56.000Z</time>
      </trkpt>
      <trkpt lat="45.19781" lon="5.73064">
        <ele>249.39999389648</ele>
        <time>2021-08-19T04:56:57.000Z</time>
      </trkpt>
      <trkpt lat="45.19776" lon="5.73063">
        <ele>248.19999694824</ele>
        <time>2021-08-19T04:56:59.000Z</time>
      </trkpt>
      <trkpt lat="45.19769" lon="5.73061">
        <ele>247.39999389648</ele>
        <time>2021-08-19T04:57:03.000Z</time>
      </trkpt>
      <trkpt lat="45.19767" lon="5.73061">
        <ele>247</ele>
        <time>2021-08-19T04:57:04.000Z</time>
      </trkpt>
      <trkpt lat="45.19761" lon="5.73064">
        <ele>246</ele>
        <time>2021-08-19T04:57:07.000Z</time>
      </trkpt>
      <trkpt lat="45.19759" lon="5.73066">
        <ele>245.60000610352</ele>
        <time>2021-08-19T04:57:08.000Z</time>
      </trkpt>
      <trkpt lat="45.19755" lon="5.73069">
        <ele>245.39999389648</ele>
        <time>2021-08-19T04:57:11.000Z</time>
      </trkpt>
      <trkpt lat="45.19755" lon="5.7307">
        <ele>244.60000610352</ele>
        <time>2021-08-19T04:57:12.000Z</time>
      </trkpt>
      <trkpt lat="45.19761" lon="5.73071">
        <ele>244.19999694824</ele>
        <time>2021-08-19T04:57:15.000Z</time>
      </trkpt>
      <trkpt lat="45.19765" lon="5.73072">
        <ele>243.19999694824</ele>
        <time>2021-08-19T04:57:17.000Z</time>
      </trkpt>
      <trkpt lat="45.19773" lon="5.73076">
        <ele>242</ele>
        <time>2021-08-19T04:57:21.000Z</time>
      </trkpt>
      <trkpt lat="45.19783" lon="5.73082">
        <ele>240.60000610352</ele>
        <time>2021-08-19T04:57:25.000Z</time>
      </trkpt>
      <trkpt lat="45.19788" lon="5.73085">
        <ele>240.19999694824</ele>
        <time>2021-08-19T04:57:27.000Z</time>
      </trkpt>
      <trkpt lat="45.19793" lon="5.73089">
        <ele>239.19999694824</ele>
        <time>2021-08-19T04:57:30.000Z</time>
      </trkpt>
      <trkpt lat="45.19797" lon="5.73094">
        <ele>238.39999389648</ele>
        <time>2021-08-19T04:57:33.000Z</time>
      </trkpt>
      <trkpt lat="45.19798" lon="5.73096">
        <ele>238.39999389648</ele>
        <time>2021-08-19T04:57:34.000Z</time>
      </trkpt>
      <trkpt lat="45.19797" lon="5.73098">
        <ele>238</ele>
        <time>2021-08-19T04:57:36.000Z</time>
      </trkpt>
      <trkpt lat="45.19786" lon="5.73102">
        <ele>237</ele>
        <time>2021-08-19T04:57:41.000Z</time>
      </trkpt>
      <trkpt lat="45.19784" lon="5.73101">
        <ele>236.60000610352</ele>
        <time>2021-08-19T04:57:42.000Z</time>
      </trkpt>
      <trkpt lat="45.19777" lon="5.73101">
        <ele>235.39999389648</ele>
        <time>2021-08-19T04:57:45.000Z</time>
      </trkpt>
      <trkpt lat="45.19774" lon="5.73101">
        <ele>235.39999389648</ele>
        <time>2021-08-19T04:57:46.000Z</time>
      </trkpt>
      <trkpt lat="45.19765" lon="5.73101">
        <ele>234</ele>
        <time>2021-08-19T04:57:50.000Z</time>
      </trkpt>
      <trkpt lat="45.19761" lon="5.73102">
        <ele>233.60000610352</ele>
        <time>2021-08-19T04:57:52.000Z</time>
      </trkpt>
      <trkpt lat="45.1976" lon="5.73103">
        <ele>233.39999389648</ele>
        <time>2021-08-19T04:57:54.000Z</time>
      </trkpt>
      <trkpt lat="45.1976" lon="5.73105">
        <ele>232.60000610352</ele>
        <time>2021-08-19T04:57:55.000Z</time>
      </trkpt>
      <trkpt lat="45.1976" lon="5.73106">
        <ele>232.60000610352</ele>
        <time>2021-08-19T04:57:56.000Z</time>
      </trkpt>
      <trkpt lat="45.1976" lon="5.73108">
        <ele>231.60000610352</ele>
        <time>2021-08-19T04:57:59.000Z</time>
      </trkpt>
      <trkpt lat="45.19761" lon="5.73108">
        <ele>231.39999389648</ele>
        <time>2021-08-19T04:58:00.000Z</time>
      </trkpt>
      <trkpt lat="45.19763" lon="5.7311">
        <ele>231.19999694824</ele>
        <time>2021-08-19T04:58:02.000Z</time>
      </trkpt>
      <trkpt lat="45.19763" lon="5.73111">
        <ele>230.60000610352</ele>
        <time>2021-08-19T04:58:03.000Z</time>
      </trkpt>
      <trkpt lat="45.19762" lon="5.73113">
        <ele>230.39999389648</ele>
        <time>2021-08-19T04:58:04.000Z</time>
      </trkpt>
      <trkpt lat="45.19763" lon="5.73113">
        <ele>229.80000305176</ele>
        <time>2021-08-19T04:58:06.000Z</time>
      </trkpt>
      <trkpt lat="45.19767" lon="5.73118">
        <ele>229.19999694824</ele>
        <time>2021-08-19T04:58:08.000Z</time>
      </trkpt>
      <trkpt lat="45.19774" lon="5.73124">
        <ele>228.80000305176</ele>
        <time>2021-08-19T04:58:10.000Z</time>
      </trkpt>
      <trkpt lat="45.1978" lon="5.73126">
        <ele>228</ele>
        <time>2021-08-19T04:58:12.000Z</time>
      </trkpt>
      <trkpt lat="45.19791" lon="5.73129">
        <ele>227</ele>
        <time>2021-08-19T04:58:16.000Z</time>
      </trkpt>
      <trkpt lat="45.19791" lon="5.73131">
        <ele>226.80000305176</ele>
        <time>2021-08-19T04:58:17.000Z</time>
      </trkpt>
      <trkpt lat="45.19786" lon="5.73131">
        <ele>226.39999389648</ele>
        <time>2021-08-19T04:58:20.000Z</time>
      </trkpt>
      <trkpt lat="45.19785" lon="5.73132">
        <ele>225.60000610352</ele>
        <time>2021-08-19T04:58:21.000Z</time>
      </trkpt>
      <trkpt lat="45.19781" lon="5.7314">
        <ele>224.19999694824</ele>
        <time>2021-08-19T04:58:25.000Z</time>
      </trkpt>
      <trkpt lat="45.19782" lon="5.73152">
        <ele>223</ele>
        <time>2021-08-19T04:58:28.000Z</time>
      </trkpt>
      <trkpt lat="45.1978" lon="5.73163">
        <ele>222.60000610352</ele>
        <time>2021-08-19T04:58:31.000Z</time>
      </trkpt>
      <trkpt lat="45.1978" lon="5.73167">
        <ele>221.60000610352</ele>
        <time>2021-08-19T04:58:32.000Z</time>
      </trkpt>
      <trkpt lat="45.19781" lon="5.73181">
        <ele>220.60000610352</ele>
        <time>2021-08-19T04:58:36.000Z</time>
      </trkpt>
      <trkpt lat="45.19781" lon="5.73183">
        <ele>219.80000305176</ele>
        <time>2021-08-19T04:58:37.000Z</time>
      </trkpt>
      <trkpt lat="45.19784" lon="5.73188">
        <ele>219.39999389648</ele>
        <time>2021-08-19T04:58:39.000Z</time>
      </trkpt>
      <trkpt lat="45.19785" lon="5.73191">
        <ele>219.39999389648</ele>
        <time>2021-08-19T04:58:40.000Z</time>
      </trkpt>
      <trkpt lat="45.19784" lon="5.73195">
        <ele>219.39999389648</ele>
        <time>2021-08-19T04:58:41.000Z</time>
      </trkpt>
      <trkpt lat="45.19784" lon="5.73202">
        <ele>219.39999389648</ele>
        <time>2021-08-19T04:58:43.000Z</time>
      </trkpt>
      <trkpt lat="45.19784" lon="5.73212">
        <ele>219.60000610352</ele>
        <time>2021-08-19T04:58:46.000Z</time>
      </trkpt>
      <trkpt lat="45.1978" lon="5.73235">
        <ele>219.80000305176</ele>
        <time>2021-08-19T04:58:52.000Z</time>
      </trkpt>
      <trkpt lat="45.19778" lon="5.73252">
        <ele>219.80000305176</ele>
        <time>2021-08-19T04:58:56.000Z</time>
      </trkpt>
      <trkpt lat="45.1978" lon="5.73257">
        <ele>219.80000305176</ele>
        <time>2021-08-19T04:58:58.000Z</time>
      </trkpt>
      <trkpt lat="45.19781" lon="5.73258">
        <ele>220</ele>
        <time>2021-08-19T04:58:59.000Z</time>
      </trkpt>
      <trkpt lat="45.19789" lon="5.7326">
        <ele>219.80000305176</ele>
        <time>2021-08-19T04:59:03.000Z</time>
      </trkpt>
      <trkpt lat="45.19808" lon="5.73269">
        <ele>219.60000610352</ele>
        <time>2021-08-19T04:59:10.000Z</time>
      </trkpt>
      <trkpt lat="45.19817" lon="5.7327">
        <ele>219.80000305176</ele>
        <time>2021-08-19T04:59:14.000Z</time>
      </trkpt>
      <trkpt lat="45.19832" lon="5.73274">
        <ele>219.80000305176</ele>
        <time>2021-08-19T04:59:20.000Z</time>
      </trkpt>
      <trkpt lat="45.19846" lon="5.73275">
        <ele>219.80000305176</ele>
        <time>2021-08-19T04:59:25.000Z</time>
      </trkpt>
      <trkpt lat="45.19865" lon="5.73273">
        <ele>219.80000305176</ele>
        <time>2021-08-19T04:59:32.000Z</time>
      </trkpt>
      <trkpt lat="45.19879" lon="5.73274">
        <ele>220</ele>
        <time>2021-08-19T04:59:37.000Z</time>
      </trkpt>
      <trkpt lat="45.19889" lon="5.73275">
        <ele>220</ele>
        <time>2021-08-19T04:59:41.000Z</time>
      </trkpt>
      <trkpt lat="45.19901" lon="5.73276">
        <ele>220</ele>
        <time>2021-08-19T04:59:46.000Z</time>
      </trkpt>
      <trkpt lat="45.1992" lon="5.73287">
        <ele>220.39999389648</ele>
        <time>2021-08-19T04:59:53.000Z</time>
      </trkpt>
      <trkpt lat="45.19934" lon="5.73297">
        <ele>220.60000610352</ele>
        <time>2021-08-19T04:59:58.000Z</time>
      </trkpt>
      <trkpt lat="45.19951" lon="5.73304">
        <ele>220.19999694824</ele>
        <time>2021-08-19T05:00:04.000Z</time>
      </trkpt>
      <trkpt lat="45.19959" lon="5.73308">
        <ele>220.19999694824</ele>
        <time>2021-08-19T05:00:07.000Z</time>
      </trkpt>
      <trkpt lat="45.19976" lon="5.73316">
        <ele>219.80000305176</ele>
        <time>2021-08-19T05:00:13.000Z</time>
      </trkpt>
      <trkpt lat="45.1999" lon="5.73322">
        <ele>220.19999694824</ele>
        <time>2021-08-19T05:00:18.000Z</time>
      </trkpt>
      <trkpt lat="45.2" lon="5.73324">
        <ele>219.80000305176</ele>
        <time>2021-08-19T05:00:21.000Z</time>
      </trkpt>
      <trkpt lat="45.20019" lon="5.73331">
        <ele>219.60000610352</ele>
        <time>2021-08-19T05:00:27.000Z</time>
      </trkpt>
      <trkpt lat="45.20022" lon="5.73332">
        <ele>219.39999389648</ele>
        <time>2021-08-19T05:00:28.000Z</time>
      </trkpt>
      <trkpt lat="45.2004" lon="5.73339">
        <ele>219.60000610352</ele>
        <time>2021-08-19T05:00:34.000Z</time>
      </trkpt>
      <trkpt lat="45.20047" lon="5.73343">
        <ele>219.39999389648</ele>
        <time>2021-08-19T05:00:37.000Z</time>
      </trkpt>
      <trkpt lat="45.2005" lon="5.73343">
        <ele>219</ele>
        <time>2021-08-19T05:00:38.000Z</time>
      </trkpt>
      <trkpt lat="45.20068" lon="5.73349">
        <ele>219</ele>
        <time>2021-08-19T05:00:45.000Z</time>
      </trkpt>
      <trkpt lat="45.20087" lon="5.73356">
        <ele>218.39999389648</ele>
        <time>2021-08-19T05:00:52.000Z</time>
      </trkpt>
      <trkpt lat="45.20105" lon="5.73367">
        <ele>218.80000305176</ele>
        <time>2021-08-19T05:00:58.000Z</time>
      </trkpt>
      <trkpt lat="45.2011" lon="5.73372">
        <ele>218.80000305176</ele>
        <time>2021-08-19T05:01:00.000Z</time>
      </trkpt>
      <trkpt lat="45.20125" lon="5.73387">
        <ele>218.19999694824</ele>
        <time>2021-08-19T05:01:06.000Z</time>
      </trkpt>
      <trkpt lat="45.20132" lon="5.73396">
        <ele>218</ele>
        <time>2021-08-19T05:01:09.000Z</time>
      </trkpt>
      <trkpt lat="45.20142" lon="5.73423">
        <ele>217.60000610352</ele>
        <time>2021-08-19T05:01:14.000Z</time>
      </trkpt>
      <trkpt lat="45.20148" lon="5.73436">
        <ele>217.39999389648</ele>
        <time>2021-08-19T05:01:17.000Z</time>
      </trkpt>
      <trkpt lat="45.20154" lon="5.73447">
        <ele>217</ele>
        <time>2021-08-19T05:01:21.000Z</time>
      </trkpt>
      <trkpt lat="45.20161" lon="5.73456">
        <ele>217</ele>
        <time>2021-08-19T05:01:24.000Z</time>
      </trkpt>
      <trkpt lat="45.20173" lon="5.73466">
        <ele>216.60000610352</ele>
        <time>2021-08-19T05:01:28.000Z</time>
      </trkpt>
      <trkpt lat="45.20181" lon="5.7348">
        <ele>216.80000305176</ele>
        <time>2021-08-19T05:01:32.000Z</time>
      </trkpt>
      <trkpt lat="45.20194" lon="5.73503">
        <ele>216.80000305176</ele>
        <time>2021-08-19T05:01:38.000Z</time>
      </trkpt>
      <trkpt lat="45.20197" lon="5.73509">
        <ele>217.19999694824</ele>
        <time>2021-08-19T05:01:40.000Z</time>
      </trkpt>
      <trkpt lat="45.20207" lon="5.73528">
        <ele>217.19999694824</ele>
        <time>2021-08-19T05:01:46.000Z</time>
      </trkpt>
      <trkpt lat="45.20209" lon="5.73531">
        <ele>217.39999389648</ele>
        <time>2021-08-19T05:01:47.000Z</time>
      </trkpt>
      <trkpt lat="45.20216" lon="5.73548">
        <ele>218</ele>
        <time>2021-08-19T05:01:52.000Z</time>
      </trkpt>
      <trkpt lat="45.20217" lon="5.73554">
        <ele>218</ele>
        <time>2021-08-19T05:01:54.000Z</time>
      </trkpt>
      <trkpt lat="45.20221" lon="5.73568">
        <ele>218</ele>
        <time>2021-08-19T05:01:59.000Z</time>
      </trkpt>
      <trkpt lat="45.20224" lon="5.73582">
        <ele>218</ele>
        <time>2021-08-19T05:02:02.000Z</time>
      </trkpt>
      <trkpt lat="45.20231" lon="5.73593">
        <ele>217.80000305176</ele>
        <time>2021-08-19T05:02:05.000Z</time>
      </trkpt>
      <trkpt lat="45.20233" lon="5.73596">
        <ele>218</ele>
        <time>2021-08-19T05:02:06.000Z</time>
      </trkpt>
      <trkpt lat="45.20235" lon="5.73598">
        <ele>217.80000305176</ele>
        <time>2021-08-19T05:02:07.000Z</time>
      </trkpt>
      <trkpt lat="45.2024" lon="5.73608">
        <ele>217.80000305176</ele>
        <time>2021-08-19T05:02:09.000Z</time>
      </trkpt>
      <trkpt lat="45.20248" lon="5.73629">
        <ele>218</ele>
        <time>2021-08-19T05:02:14.000Z</time>
      </trkpt>
      <trkpt lat="45.20254" lon="5.73646">
        <ele>218</ele>
        <time>2021-08-19T05:02:18.000Z</time>
      </trkpt>
      <trkpt lat="45.20255" lon="5.7366">
        <ele>218.19999694824</ele>
        <time>2021-08-19T05:02:21.000Z</time>
      </trkpt>
      <trkpt lat="45.20257" lon="5.73673">
        <ele>218.19999694824</ele>
        <time>2021-08-19T05:02:24.000Z</time>
      </trkpt>
      <trkpt lat="45.20259" lon="5.73703">
        <ele>218</ele>
        <time>2021-08-19T05:02:31.000Z</time>
      </trkpt>
      <trkpt lat="45.20259" lon="5.73707">
        <ele>218</ele>
        <time>2021-08-19T05:02:32.000Z</time>
      </trkpt>
      <trkpt lat="45.20265" lon="5.73724">
        <ele>218.19999694824</ele>
        <time>2021-08-19T05:02:36.000Z</time>
      </trkpt>
      <trkpt lat="45.20266" lon="5.73739">
        <ele>218.39999389648</ele>
        <time>2021-08-19T05:02:39.000Z</time>
      </trkpt>
      <trkpt lat="45.20264" lon="5.73768">
        <ele>218</ele>
        <time>2021-08-19T05:02:45.000Z</time>
      </trkpt>
      <trkpt lat="45.20264" lon="5.73777">
        <ele>218.19999694824</ele>
        <time>2021-08-19T05:02:47.000Z</time>
      </trkpt>
      <trkpt lat="45.20263" lon="5.73799">
        <ele>218.39999389648</ele>
        <time>2021-08-19T05:02:52.000Z</time>
      </trkpt>
      <trkpt lat="45.2026" lon="5.73825">
        <ele>218.39999389648</ele>
        <time>2021-08-19T05:02:58.000Z</time>
      </trkpt>
      <trkpt lat="45.20254" lon="5.73851">
        <ele>218.19999694824</ele>
        <time>2021-08-19T05:03:05.000Z</time>
      </trkpt>
      <trkpt lat="45.20252" lon="5.7386">
        <ele>218.19999694824</ele>
        <time>2021-08-19T05:03:07.000Z</time>
      </trkpt>
      <trkpt lat="45.20248" lon="5.73888">
        <ele>219</ele>
        <time>2021-08-19T05:03:14.000Z</time>
      </trkpt>
      <trkpt lat="45.20242" lon="5.73894">
        <ele>219</ele>
        <time>2021-08-19T05:03:16.000Z</time>
      </trkpt>
      <trkpt lat="45.20237" lon="5.73919">
        <ele>218.19999694824</ele>
        <time>2021-08-19T05:03:22.000Z</time>
      </trkpt>
      <trkpt lat="45.20232" lon="5.73931">
        <ele>218.19999694824</ele>
        <time>2021-08-19T05:03:25.000Z</time>
      </trkpt>
      <trkpt lat="45.20223" lon="5.73956">
        <ele>218.80000305176</ele>
        <time>2021-08-19T05:03:31.000Z</time>
      </trkpt>
      <trkpt lat="45.20218" lon="5.73968">
        <ele>218.80000305176</ele>
        <time>2021-08-19T05:03:34.000Z</time>
      </trkpt>
      <trkpt lat="45.20208" lon="5.73992">
        <ele>218</ele>
        <time>2021-08-19T05:03:40.000Z</time>
      </trkpt>
      <trkpt lat="45.20204" lon="5.74004">
        <ele>218.39999389648</ele>
        <time>2021-08-19T05:03:43.000Z</time>
      </trkpt>
      <trkpt lat="45.20194" lon="5.74022">
        <ele>218.19999694824</ele>
        <time>2021-08-19T05:03:48.000Z</time>
      </trkpt>
      <trkpt lat="45.20188" lon="5.74036">
        <ele>218.19999694824</ele>
        <time>2021-08-19T05:03:52.000Z</time>
      </trkpt>
      <trkpt lat="45.20181" lon="5.74051">
        <ele>218.39999389648</ele>
        <time>2021-08-19T05:03:56.000Z</time>
      </trkpt>
      <trkpt lat="45.20171" lon="5.74064">
        <ele>218.39999389648</ele>
        <time>2021-08-19T05:04:00.000Z</time>
      </trkpt>
      <trkpt lat="45.20161" lon="5.74077">
        <ele>219</ele>
        <time>2021-08-19T05:04:04.000Z</time>
      </trkpt>
      <trkpt lat="45.20155" lon="5.74085">
        <ele>219.19999694824</ele>
        <time>2021-08-19T05:04:07.000Z</time>
      </trkpt>
      <trkpt lat="45.20145" lon="5.74106">
        <ele>220</ele>
        <time>2021-08-19T05:04:13.000Z</time>
      </trkpt>
      <trkpt lat="45.20132" lon="5.74126">
        <ele>220.19999694824</ele>
        <time>2021-08-19T05:04:19.000Z</time>
      </trkpt>
      <trkpt lat="45.2013" lon="5.74129">
        <ele>221</ele>
        <time>2021-08-19T05:04:20.000Z</time>
      </trkpt>
      <trkpt lat="45.20128" lon="5.74133">
        <ele>221.39999389648</ele>
        <time>2021-08-19T05:04:21.000Z</time>
      </trkpt>
      <trkpt lat="45.20118" lon="5.74153">
        <ele>222.60000610352</ele>
        <time>2021-08-19T05:04:27.000Z</time>
      </trkpt>
      <trkpt lat="45.20111" lon="5.74162">
        <ele>222.80000305176</ele>
        <time>2021-08-19T05:04:30.000Z</time>
      </trkpt>
      <trkpt lat="45.20103" lon="5.74174">
        <ele>222.80000305176</ele>
        <time>2021-08-19T05:04:35.000Z</time>
      </trkpt>
      <trkpt lat="45.20087" lon="5.74177">
        <ele>223</ele>
        <time>2021-08-19T05:04:40.000Z</time>
      </trkpt>
      <trkpt lat="45.20073" lon="5.74165">
        <ele>223.39999389648</ele>
        <time>2021-08-19T05:04:45.000Z</time>
      </trkpt>
      <trkpt lat="45.2007" lon="5.74162">
        <ele>223.39999389648</ele>
        <time>2021-08-19T05:04:46.000Z</time>
      </trkpt>
      <trkpt lat="45.20065" lon="5.74156">
        <ele>223.60000610352</ele>
        <time>2021-08-19T05:04:48.000Z</time>
      </trkpt>
      <trkpt lat="45.20052" lon="5.74141">
        <ele>223.60000610352</ele>
        <time>2021-08-19T05:04:53.000Z</time>
      </trkpt>
      <trkpt lat="45.20041" lon="5.74126">
        <ele>223.39999389648</ele>
        <time>2021-08-19T05:04:58.000Z</time>
      </trkpt>
      <trkpt lat="45.2004" lon="5.74124">
        <ele>223.19999694824</ele>
        <time>2021-08-19T05:04:59.000Z</time>
      </trkpt>
      <trkpt lat="45.20024" lon="5.74105">
        <ele>223.19999694824</ele>
        <time>2021-08-19T05:05:05.000Z</time>
      </trkpt>
      <trkpt lat="45.2002" lon="5.74099">
        <ele>222.60000610352</ele>
        <time>2021-08-19T05:05:07.000Z</time>
      </trkpt>
      <trkpt lat="45.20009" lon="5.74084">
        <ele>222.60000610352</ele>
        <time>2021-08-19T05:05:12.000Z</time>
      </trkpt>
      <trkpt lat="45.20007" lon="5.74082">
        <ele>222.39999389648</ele>
        <time>2021-08-19T05:05:13.000Z</time>
      </trkpt>
      <trkpt lat="45.20004" lon="5.74081">
        <ele>222.60000610352</ele>
        <time>2021-08-19T05:05:15.000Z</time>
      </trkpt>
      <trkpt lat="45.20002" lon="5.74082">
        <ele>222.39999389648</ele>
        <time>2021-08-19T05:05:16.000Z</time>
      </trkpt>
      <trkpt lat="45.19992" lon="5.74101">
        <ele>221.39999389648</ele>
        <time>2021-08-19T05:05:22.000Z</time>
      </trkpt>
      <trkpt lat="45.19985" lon="5.74117">
        <ele>220.60000610352</ele>
        <time>2021-08-19T05:05:26.000Z</time>
      </trkpt>
      <trkpt lat="45.19977" lon="5.74133">
        <ele>219.80000305176</ele>
        <time>2021-08-19T05:05:30.000Z</time>
      </trkpt>
      <trkpt lat="45.19968" lon="5.74143">
        <ele>219</ele>
        <time>2021-08-19T05:05:34.000Z</time>
      </trkpt>
      <trkpt lat="45.19962" lon="5.74149">
        <ele>219</ele>
        <time>2021-08-19T05:05:36.000Z</time>
      </trkpt>
      <trkpt lat="45.19946" lon="5.74161">
        <ele>218.80000305176</ele>
        <time>2021-08-19T05:05:41.000Z</time>
      </trkpt>
      <trkpt lat="45.1994" lon="5.74167">
        <ele>218.60000610352</ele>
        <time>2021-08-19T05:05:43.000Z</time>
      </trkpt>
      <trkpt lat="45.19922" lon="5.74179">
        <ele>218.80000305176</ele>
        <time>2021-08-19T05:05:49.000Z</time>
      </trkpt>
      <trkpt lat="45.1992" lon="5.74181">
        <ele>218.80000305176</ele>
        <time>2021-08-19T05:05:50.000Z</time>
      </trkpt>
      <trkpt lat="45.19902" lon="5.74192">
        <ele>219</ele>
        <time>2021-08-19T05:05:56.000Z</time>
      </trkpt>
      <trkpt lat="45.19895" lon="5.74196">
        <ele>218.80000305176</ele>
        <time>2021-08-19T05:05:58.000Z</time>
      </trkpt>
      <trkpt lat="45.19877" lon="5.74205">
        <ele>218.80000305176</ele>
        <time>2021-08-19T05:06:04.000Z</time>
      </trkpt>
      <trkpt lat="45.19874" lon="5.74206">
        <ele>218</ele>
        <time>2021-08-19T05:06:05.000Z</time>
      </trkpt>
      <trkpt lat="45.1987" lon="5.74207">
        <ele>219.39999389648</ele>
        <time>2021-08-19T05:06:06.000Z</time>
      </trkpt>
      <trkpt lat="45.19858" lon="5.74213">
        <ele>218.39999389648</ele>
        <time>2021-08-19T05:06:10.000Z</time>
      </trkpt>
      <trkpt lat="45.19846" lon="5.7422">
        <ele>217.80000305176</ele>
        <time>2021-08-19T05:06:14.000Z</time>
      </trkpt>
      <trkpt lat="45.19842" lon="5.74222">
        <ele>219.19999694824</ele>
        <time>2021-08-19T05:06:15.000Z</time>
      </trkpt>
      <trkpt lat="45.19839" lon="5.74223">
        <ele>217.80000305176</ele>
        <time>2021-08-19T05:06:16.000Z</time>
      </trkpt>
      <trkpt lat="45.19836" lon="5.74225">
        <ele>218.80000305176</ele>
        <time>2021-08-19T05:06:17.000Z</time>
      </trkpt>
      <trkpt lat="45.19829" lon="5.74228">
        <ele>218.39999389648</ele>
        <time>2021-08-19T05:06:19.000Z</time>
      </trkpt>
      <trkpt lat="45.19812" lon="5.74237">
        <ele>219</ele>
        <time>2021-08-19T05:06:25.000Z</time>
      </trkpt>
      <trkpt lat="45.19809" lon="5.74238">
        <ele>219.19999694824</ele>
        <time>2021-08-19T05:06:26.000Z</time>
      </trkpt>
      <trkpt lat="45.19788" lon="5.74242">
        <ele>218.39999389648</ele>
        <time>2021-08-19T05:06:32.000Z</time>
      </trkpt>
      <trkpt lat="45.19785" lon="5.74242">
        <ele>218.39999389648</ele>
        <time>2021-08-19T05:06:33.000Z</time>
      </trkpt>
      <trkpt lat="45.19764" lon="5.74245">
        <ele>218.80000305176</ele>
        <time>2021-08-19T05:06:39.000Z</time>
      </trkpt>
      <trkpt lat="45.19759" lon="5.74246">
        <ele>218.60000610352</ele>
        <time>2021-08-19T05:06:41.000Z</time>
      </trkpt>
      <trkpt lat="45.19747" lon="5.74244">
        <ele>218.60000610352</ele>
        <time>2021-08-19T05:06:45.000Z</time>
      </trkpt>
      <trkpt lat="45.19737" lon="5.74245">
        <ele>219</ele>
        <time>2021-08-19T05:06:48.000Z</time>
      </trkpt>
      <trkpt lat="45.19727" lon="5.74245">
        <ele>218.39999389648</ele>
        <time>2021-08-19T05:06:52.000Z</time>
      </trkpt>
      <trkpt lat="45.19726" lon="5.74244">
        <ele>218.19999694824</ele>
        <time>2021-08-19T05:06:53.000Z</time>
      </trkpt>
      <trkpt lat="45.19723" lon="5.74238">
        <ele>217.60000610352</ele>
        <time>2021-08-19T05:06:57.000Z</time>
      </trkpt>
      <trkpt lat="45.19722" lon="5.74235">
        <ele>217.39999389648</ele>
        <time>2021-08-19T05:06:58.000Z</time>
      </trkpt>
      <trkpt lat="45.19721" lon="5.74232">
        <ele>217.39999389648</ele>
        <time>2021-08-19T05:06:59.000Z</time>
      </trkpt>
      <trkpt lat="45.1972" lon="5.74226">
        <ele>217.19999694824</ele>
        <time>2021-08-19T05:07:01.000Z</time>
      </trkpt>
      <trkpt lat="45.1972" lon="5.74222">
        <ele>217.19999694824</ele>
        <time>2021-08-19T05:07:02.000Z</time>
      </trkpt>
      <trkpt lat="45.19721" lon="5.74217">
        <ele>217.19999694824</ele>
        <time>2021-08-19T05:07:03.000Z</time>
      </trkpt>
      <trkpt lat="45.19719" lon="5.74207">
        <ele>216.60000610352</ele>
        <time>2021-08-19T05:07:05.000Z</time>
      </trkpt>
      <trkpt lat="45.19716" lon="5.74195">
        <ele>216.60000610352</ele>
        <time>2021-08-19T05:07:08.000Z</time>
      </trkpt>
      <trkpt lat="45.19714" lon="5.74187">
        <ele>216.60000610352</ele>
        <time>2021-08-19T05:07:10.000Z</time>
      </trkpt>
      <trkpt lat="45.19712" lon="5.7417">
        <ele>217</ele>
        <time>2021-08-19T05:07:14.000Z</time>
      </trkpt>
      <trkpt lat="45.19706" lon="5.74145">
        <ele>216.80000305176</ele>
        <time>2021-08-19T05:07:20.000Z</time>
      </trkpt>
      <trkpt lat="45.19703" lon="5.74126">
        <ele>216.60000610352</ele>
        <time>2021-08-19T05:07:24.000Z</time>
      </trkpt>
      <trkpt lat="45.19699" lon="5.74115">
        <ele>216.60000610352</ele>
        <time>2021-08-19T05:07:27.000Z</time>
      </trkpt>
      <trkpt lat="45.19692" lon="5.74088">
        <ele>216.39999389648</ele>
        <time>2021-08-19T05:07:34.000Z</time>
      </trkpt>
      <trkpt lat="45.19691" lon="5.74084">
        <ele>216.60000610352</ele>
        <time>2021-08-19T05:07:35.000Z</time>
      </trkpt>
      <trkpt lat="45.19688" lon="5.7406">
        <ele>216.80000305176</ele>
        <time>2021-08-19T05:07:41.000Z</time>
      </trkpt>
      <trkpt lat="45.19681" lon="5.74037">
        <ele>216.60000610352</ele>
        <time>2021-08-19T05:07:47.000Z</time>
      </trkpt>
      <trkpt lat="45.19678" lon="5.74015">
        <ele>216.80000305176</ele>
        <time>2021-08-19T05:07:53.000Z</time>
      </trkpt>
      <trkpt lat="45.19676" lon="5.74004">
        <ele>216.80000305176</ele>
        <time>2021-08-19T05:07:57.000Z</time>
      </trkpt>
      <trkpt lat="45.19662" lon="5.74007">
        <ele>217</ele>
        <time>2021-08-19T05:08:02.000Z</time>
      </trkpt>
      <trkpt lat="45.19655" lon="5.74005">
        <ele>216.60000610352</ele>
        <time>2021-08-19T05:08:05.000Z</time>
      </trkpt>
      <trkpt lat="45.1964" lon="5.74001">
        <ele>216.19999694824</ele>
        <time>2021-08-19T05:08:09.000Z</time>
      </trkpt>
      <trkpt lat="45.19622" lon="5.73999">
        <ele>216.60000610352</ele>
        <time>2021-08-19T05:08:14.000Z</time>
      </trkpt>
      <trkpt lat="45.19619" lon="5.73997">
        <ele>216.60000610352</ele>
        <time>2021-08-19T05:08:15.000Z</time>
      </trkpt>
      <trkpt lat="45.19613" lon="5.73988">
        <ele>216.39999389648</ele>
        <time>2021-08-19T05:08:19.000Z</time>
      </trkpt>
      <trkpt lat="45.19617" lon="5.73967">
        <ele>216.39999389648</ele>
        <time>2021-08-19T05:08:24.000Z</time>
      </trkpt>
      <trkpt lat="45.1962" lon="5.73965">
        <ele>216.39999389648</ele>
        <time>2021-08-19T05:08:25.000Z</time>
      </trkpt>
      <trkpt lat="45.19625" lon="5.73965">
        <ele>216.39999389648</ele>
        <time>2021-08-19T05:08:27.000Z</time>
      </trkpt>
      <trkpt lat="45.19633" lon="5.73965">
        <ele>216.60000610352</ele>
        <time>2021-08-19T05:08:34.000Z</time>
      </trkpt>
      <trkpt lat="45.1963" lon="5.73966">
        <ele>216.60000610352</ele>
        <time>2021-08-19T05:08:36.000Z</time>
      </trkpt>
      <trkpt lat="45.19631" lon="5.73966">
        <ele>216.60000610352</ele>
        <time>2021-08-19T05:08:38.000Z</time>
      </trkpt>
      <trkpt lat="45.19665" lon="5.7393">
        <ele>224.60000610352</ele>
        <time>2021-08-19T05:09:23.000Z</time>
      </trkpt>
      <trkpt lat="45.19659" lon="5.73952">
        <ele>224.60000610352</ele>
        <time>2021-08-19T05:09:28.000Z</time>
      </trkpt>
      <trkpt lat="45.19659" lon="5.73954">
        <ele>224.60000610352</ele>
        <time>2021-08-19T05:09:29.000Z</time>
      </trkpt>
    </trkseg>
  </trk>
</gpx>